<?xml version="1.0" encoding="UTF-8" standalone="no" ?>
<gpx xmlns="http://www.topografix.com/GPX/1/1" xmlns:xsi="http://www.w3.org/2001/XMLSchema-instance" xsi:schemaLocation="http://www.topografix.com/GPX/1/1 http://www.topografix.com/GPX/1/1/gpx.xsd" version="1.1" creator="VisuGPX - https://www.visugpx.com">
  <metadata>
    <name>83 -Collobrières : 2021-12-29</name>
  </metadata>
  <trk>
    <name><![CDATA[83 -Collobrières : 2021-12-29_1]]></name>
    <trkseg>
      <trkpt lat="43.23889" lon="6.30959">
        <ele>190.2</ele>
        <time>2021-12-28T08:33:31Z</time>
      </trkpt>
      <trkpt lat="43.23881" lon="6.30966">
        <ele>189.8</ele>
        <time>2021-12-28T08:33:35Z</time>
      </trkpt>
      <trkpt lat="43.23876" lon="6.30974">
        <ele>189.2</ele>
        <time>2021-12-28T08:33:39Z</time>
      </trkpt>
      <trkpt lat="43.23879" lon="6.30988">
        <ele>189</ele>
        <time>2021-12-28T08:33:43Z</time>
      </trkpt>
      <trkpt lat="43.23885" lon="6.31003">
        <ele>189</ele>
        <time>2021-12-28T08:33:47Z</time>
      </trkpt>
      <trkpt lat="43.23891" lon="6.31018">
        <ele>188.6</ele>
        <time>2021-12-28T08:33:51Z</time>
      </trkpt>
      <trkpt lat="43.23898" lon="6.31035">
        <ele>189.4</ele>
        <time>2021-12-28T08:33:55Z</time>
      </trkpt>
      <trkpt lat="43.23903" lon="6.31052">
        <ele>189.6</ele>
        <time>2021-12-28T08:33:59Z</time>
      </trkpt>
      <trkpt lat="43.23907" lon="6.31067">
        <ele>189.8</ele>
        <time>2021-12-28T08:34:03Z</time>
      </trkpt>
      <trkpt lat="43.2391" lon="6.31081">
        <ele>189.8</ele>
        <time>2021-12-28T08:34:07Z</time>
      </trkpt>
      <trkpt lat="43.23913" lon="6.31093">
        <ele>190.2</ele>
        <time>2021-12-28T08:34:11Z</time>
      </trkpt>
      <trkpt lat="43.23917" lon="6.31103">
        <ele>190.8</ele>
        <time>2021-12-28T08:34:15Z</time>
      </trkpt>
      <trkpt lat="43.23922" lon="6.31114">
        <ele>192</ele>
        <time>2021-12-28T08:34:19Z</time>
      </trkpt>
      <trkpt lat="43.23928" lon="6.31123">
        <ele>192.6</ele>
        <time>2021-12-28T08:34:23Z</time>
      </trkpt>
      <trkpt lat="43.23934" lon="6.31129">
        <ele>194</ele>
        <time>2021-12-28T08:34:27Z</time>
      </trkpt>
      <trkpt lat="43.23939" lon="6.31128">
        <ele>195</ele>
        <time>2021-12-28T08:34:31Z</time>
      </trkpt>
      <trkpt lat="43.23944" lon="6.31126">
        <ele>195.8</ele>
        <time>2021-12-28T08:34:35Z</time>
      </trkpt>
      <trkpt lat="43.23949" lon="6.31122">
        <ele>197.2</ele>
        <time>2021-12-28T08:34:39Z</time>
      </trkpt>
      <trkpt lat="43.23955" lon="6.31121">
        <ele>198</ele>
        <time>2021-12-28T08:34:43Z</time>
      </trkpt>
      <trkpt lat="43.23961" lon="6.31122">
        <ele>199</ele>
        <time>2021-12-28T08:34:47Z</time>
      </trkpt>
      <trkpt lat="43.23969" lon="6.31123">
        <ele>199.6</ele>
        <time>2021-12-28T08:34:51Z</time>
      </trkpt>
      <trkpt lat="43.23975" lon="6.31125">
        <ele>200</ele>
        <time>2021-12-28T08:34:55Z</time>
      </trkpt>
      <trkpt lat="43.23982" lon="6.31127">
        <ele>200.8</ele>
        <time>2021-12-28T08:34:59Z</time>
      </trkpt>
      <trkpt lat="43.23988" lon="6.31129">
        <ele>201.6</ele>
        <time>2021-12-28T08:35:03Z</time>
      </trkpt>
      <trkpt lat="43.23995" lon="6.31131">
        <ele>202.2</ele>
        <time>2021-12-28T08:35:07Z</time>
      </trkpt>
      <trkpt lat="43.24002" lon="6.31132">
        <ele>202.8</ele>
        <time>2021-12-28T08:35:11Z</time>
      </trkpt>
      <trkpt lat="43.24009" lon="6.31133">
        <ele>203.4</ele>
        <time>2021-12-28T08:35:15Z</time>
      </trkpt>
      <trkpt lat="43.24015" lon="6.31136">
        <ele>204</ele>
        <time>2021-12-28T08:35:19Z</time>
      </trkpt>
      <trkpt lat="43.24021" lon="6.3114">
        <ele>205</ele>
        <time>2021-12-28T08:35:23Z</time>
      </trkpt>
      <trkpt lat="43.24026" lon="6.31142">
        <ele>205.8</ele>
        <time>2021-12-28T08:35:27Z</time>
      </trkpt>
      <trkpt lat="43.2403" lon="6.31146">
        <ele>206.6</ele>
        <time>2021-12-28T08:35:31Z</time>
      </trkpt>
      <trkpt lat="43.24036" lon="6.31148">
        <ele>207.6</ele>
        <time>2021-12-28T08:35:35Z</time>
      </trkpt>
      <trkpt lat="43.2404" lon="6.31152">
        <ele>208.2</ele>
        <time>2021-12-28T08:35:39Z</time>
      </trkpt>
      <trkpt lat="43.24045" lon="6.31155">
        <ele>209.6</ele>
        <time>2021-12-28T08:35:43Z</time>
      </trkpt>
      <trkpt lat="43.24049" lon="6.31158">
        <ele>210.4</ele>
        <time>2021-12-28T08:35:47Z</time>
      </trkpt>
      <trkpt lat="43.24053" lon="6.31162">
        <ele>210.6</ele>
        <time>2021-12-28T08:35:51Z</time>
      </trkpt>
      <trkpt lat="43.24059" lon="6.31162">
        <ele>211.6</ele>
        <time>2021-12-28T08:35:55Z</time>
      </trkpt>
      <trkpt lat="43.24064" lon="6.31164">
        <ele>212.2</ele>
        <time>2021-12-28T08:35:59Z</time>
      </trkpt>
      <trkpt lat="43.24069" lon="6.31163">
        <ele>213</ele>
        <time>2021-12-28T08:36:03Z</time>
      </trkpt>
      <trkpt lat="43.24074" lon="6.31163">
        <ele>213.4</ele>
        <time>2021-12-28T08:36:07Z</time>
      </trkpt>
      <trkpt lat="43.2408" lon="6.31166">
        <ele>214</ele>
        <time>2021-12-28T08:36:11Z</time>
      </trkpt>
      <trkpt lat="43.24086" lon="6.31165">
        <ele>214.8</ele>
        <time>2021-12-28T08:36:15Z</time>
      </trkpt>
      <trkpt lat="43.24092" lon="6.31165">
        <ele>215.2</ele>
        <time>2021-12-28T08:36:19Z</time>
      </trkpt>
      <trkpt lat="43.24097" lon="6.31163">
        <ele>216.4</ele>
        <time>2021-12-28T08:36:23Z</time>
      </trkpt>
      <trkpt lat="43.24103" lon="6.3116">
        <ele>217</ele>
        <time>2021-12-28T08:36:27Z</time>
      </trkpt>
      <trkpt lat="43.2411" lon="6.31156">
        <ele>217.2</ele>
        <time>2021-12-28T08:36:31Z</time>
      </trkpt>
      <trkpt lat="43.24117" lon="6.31151">
        <ele>217.2</ele>
        <time>2021-12-28T08:36:35Z</time>
      </trkpt>
      <trkpt lat="43.24124" lon="6.31146">
        <ele>217.8</ele>
        <time>2021-12-28T08:36:39Z</time>
      </trkpt>
      <trkpt lat="43.24131" lon="6.31141">
        <ele>218.2</ele>
        <time>2021-12-28T08:36:43Z</time>
      </trkpt>
      <trkpt lat="43.24138" lon="6.31136">
        <ele>218.6</ele>
        <time>2021-12-28T08:36:47Z</time>
      </trkpt>
      <trkpt lat="43.24145" lon="6.31132">
        <ele>218.4</ele>
        <time>2021-12-28T08:36:51Z</time>
      </trkpt>
      <trkpt lat="43.24154" lon="6.31127">
        <ele>219</ele>
        <time>2021-12-28T08:36:55Z</time>
      </trkpt>
      <trkpt lat="43.24164" lon="6.31121">
        <ele>219.6</ele>
        <time>2021-12-28T08:36:59Z</time>
      </trkpt>
      <trkpt lat="43.24173" lon="6.31115">
        <ele>219.6</ele>
        <time>2021-12-28T08:37:03Z</time>
      </trkpt>
      <trkpt lat="43.24183" lon="6.31108">
        <ele>219.6</ele>
        <time>2021-12-28T08:37:07Z</time>
      </trkpt>
      <trkpt lat="43.24192" lon="6.31102">
        <ele>220</ele>
        <time>2021-12-28T08:37:11Z</time>
      </trkpt>
      <trkpt lat="43.24202" lon="6.31096">
        <ele>220.4</ele>
        <time>2021-12-28T08:37:15Z</time>
      </trkpt>
      <trkpt lat="43.24211" lon="6.31089">
        <ele>220.8</ele>
        <time>2021-12-28T08:37:19Z</time>
      </trkpt>
      <trkpt lat="43.2422" lon="6.31082">
        <ele>221.2</ele>
        <time>2021-12-28T08:37:23Z</time>
      </trkpt>
      <trkpt lat="43.24229" lon="6.31074">
        <ele>221.2</ele>
        <time>2021-12-28T08:37:27Z</time>
      </trkpt>
      <trkpt lat="43.24236" lon="6.31064">
        <ele>221.6</ele>
        <time>2021-12-28T08:37:31Z</time>
      </trkpt>
      <trkpt lat="43.24242" lon="6.31052">
        <ele>222.2</ele>
        <time>2021-12-28T08:37:35Z</time>
      </trkpt>
      <trkpt lat="43.24244" lon="6.31041">
        <ele>223</ele>
        <time>2021-12-28T08:37:39Z</time>
      </trkpt>
      <trkpt lat="43.24244" lon="6.31036">
        <ele>223.2</ele>
        <time>2021-12-28T08:37:43Z</time>
      </trkpt>
      <trkpt lat="43.24241" lon="6.31026">
        <ele>223.6</ele>
        <time>2021-12-28T08:37:47Z</time>
      </trkpt>
      <trkpt lat="43.24235" lon="6.31013">
        <ele>223.8</ele>
        <time>2021-12-28T08:37:51Z</time>
      </trkpt>
      <trkpt lat="43.24229" lon="6.30996">
        <ele>224.2</ele>
        <time>2021-12-28T08:37:55Z</time>
      </trkpt>
      <trkpt lat="43.2422" lon="6.30983">
        <ele>224</ele>
        <time>2021-12-28T08:37:59Z</time>
      </trkpt>
      <trkpt lat="43.2421" lon="6.3097">
        <ele>223.4</ele>
        <time>2021-12-28T08:38:03Z</time>
      </trkpt>
      <trkpt lat="43.242" lon="6.30956">
        <ele>223</ele>
        <time>2021-12-28T08:38:07Z</time>
      </trkpt>
      <trkpt lat="43.24188" lon="6.30941">
        <ele>221.6</ele>
        <time>2021-12-28T08:38:11Z</time>
      </trkpt>
      <trkpt lat="43.24173" lon="6.30927">
        <ele>220</ele>
        <time>2021-12-28T08:38:15Z</time>
      </trkpt>
      <trkpt lat="43.24158" lon="6.30912">
        <ele>220.8</ele>
        <time>2021-12-28T08:38:19Z</time>
      </trkpt>
      <trkpt lat="43.24146" lon="6.30898">
        <ele>221.6</ele>
        <time>2021-12-28T08:38:23Z</time>
      </trkpt>
      <trkpt lat="43.24136" lon="6.30885">
        <ele>221.8</ele>
        <time>2021-12-28T08:38:27Z</time>
      </trkpt>
      <trkpt lat="43.24127" lon="6.30873">
        <ele>222.6</ele>
        <time>2021-12-28T08:38:31Z</time>
      </trkpt>
      <trkpt lat="43.24119" lon="6.30862">
        <ele>223</ele>
        <time>2021-12-28T08:38:35Z</time>
      </trkpt>
      <trkpt lat="43.24115" lon="6.30852">
        <ele>224</ele>
        <time>2021-12-28T08:38:39Z</time>
      </trkpt>
      <trkpt lat="43.24109" lon="6.30843">
        <ele>224.6</ele>
        <time>2021-12-28T08:38:43Z</time>
      </trkpt>
      <trkpt lat="43.24103" lon="6.30833">
        <ele>225.6</ele>
        <time>2021-12-28T08:38:47Z</time>
      </trkpt>
      <trkpt lat="43.24098" lon="6.30822">
        <ele>226</ele>
        <time>2021-12-28T08:38:51Z</time>
      </trkpt>
      <trkpt lat="43.24093" lon="6.30812">
        <ele>226.8</ele>
        <time>2021-12-28T08:38:55Z</time>
      </trkpt>
      <trkpt lat="43.24088" lon="6.308">
        <ele>227.4</ele>
        <time>2021-12-28T08:38:59Z</time>
      </trkpt>
      <trkpt lat="43.24083" lon="6.30789">
        <ele>228.2</ele>
        <time>2021-12-28T08:39:03Z</time>
      </trkpt>
      <trkpt lat="43.24079" lon="6.30778">
        <ele>228.8</ele>
        <time>2021-12-28T08:39:07Z</time>
      </trkpt>
      <trkpt lat="43.24073" lon="6.30768">
        <ele>230.4</ele>
        <time>2021-12-28T08:39:11Z</time>
      </trkpt>
      <trkpt lat="43.24068" lon="6.30757">
        <ele>230.6</ele>
        <time>2021-12-28T08:39:15Z</time>
      </trkpt>
      <trkpt lat="43.24062" lon="6.30747">
        <ele>231.2</ele>
        <time>2021-12-28T08:39:19Z</time>
      </trkpt>
      <trkpt lat="43.24057" lon="6.30738">
        <ele>231.4</ele>
        <time>2021-12-28T08:39:23Z</time>
      </trkpt>
      <trkpt lat="43.24049" lon="6.30728">
        <ele>232.6</ele>
        <time>2021-12-28T08:39:27Z</time>
      </trkpt>
      <trkpt lat="43.2404" lon="6.30721">
        <ele>233</ele>
        <time>2021-12-28T08:39:31Z</time>
      </trkpt>
      <trkpt lat="43.2403" lon="6.30712">
        <ele>232.2</ele>
        <time>2021-12-28T08:39:35Z</time>
      </trkpt>
      <trkpt lat="43.24019" lon="6.30701">
        <ele>232.2</ele>
        <time>2021-12-28T08:39:39Z</time>
      </trkpt>
      <trkpt lat="43.24008" lon="6.3069">
        <ele>232.6</ele>
        <time>2021-12-28T08:39:43Z</time>
      </trkpt>
      <trkpt lat="43.23997" lon="6.3068">
        <ele>233.2</ele>
        <time>2021-12-28T08:39:47Z</time>
      </trkpt>
      <trkpt lat="43.23985" lon="6.30676">
        <ele>233.8</ele>
        <time>2021-12-28T08:39:51Z</time>
      </trkpt>
      <trkpt lat="43.23975" lon="6.30674">
        <ele>235</ele>
        <time>2021-12-28T08:39:55Z</time>
      </trkpt>
      <trkpt lat="43.23968" lon="6.30672">
        <ele>235.8</ele>
        <time>2021-12-28T08:39:59Z</time>
      </trkpt>
      <trkpt lat="43.23961" lon="6.3067">
        <ele>236.2</ele>
        <time>2021-12-28T08:40:03Z</time>
      </trkpt>
      <trkpt lat="43.23955" lon="6.30671">
        <ele>236.6</ele>
        <time>2021-12-28T08:40:07Z</time>
      </trkpt>
      <trkpt lat="43.23947" lon="6.3066">
        <ele>235.6</ele>
        <time>2021-12-28T08:40:49Z</time>
      </trkpt>
      <trkpt lat="43.23948" lon="6.30648">
        <ele>237.2</ele>
        <time>2021-12-28T08:40:53Z</time>
      </trkpt>
      <trkpt lat="43.2395" lon="6.30639">
        <ele>238.4</ele>
        <time>2021-12-28T08:40:57Z</time>
      </trkpt>
      <trkpt lat="43.23952" lon="6.30632">
        <ele>240.2</ele>
        <time>2021-12-28T08:41:01Z</time>
      </trkpt>
      <trkpt lat="43.23957" lon="6.30628">
        <ele>241</ele>
        <time>2021-12-28T08:41:05Z</time>
      </trkpt>
      <trkpt lat="43.23962" lon="6.30624">
        <ele>241.8</ele>
        <time>2021-12-28T08:41:09Z</time>
      </trkpt>
      <trkpt lat="43.23969" lon="6.30617">
        <ele>242.2</ele>
        <time>2021-12-28T08:41:13Z</time>
      </trkpt>
      <trkpt lat="43.23978" lon="6.3061">
        <ele>242.2</ele>
        <time>2021-12-28T08:41:17Z</time>
      </trkpt>
      <trkpt lat="43.23987" lon="6.30603">
        <ele>243</ele>
        <time>2021-12-28T08:41:21Z</time>
      </trkpt>
      <trkpt lat="43.23996" lon="6.30597">
        <ele>243.4</ele>
        <time>2021-12-28T08:41:25Z</time>
      </trkpt>
      <trkpt lat="43.24005" lon="6.30595">
        <ele>244.2</ele>
        <time>2021-12-28T08:41:29Z</time>
      </trkpt>
      <trkpt lat="43.24013" lon="6.30592">
        <ele>245</ele>
        <time>2021-12-28T08:41:33Z</time>
      </trkpt>
      <trkpt lat="43.24021" lon="6.30588">
        <ele>244.8</ele>
        <time>2021-12-28T08:41:37Z</time>
      </trkpt>
      <trkpt lat="43.24031" lon="6.30581">
        <ele>243.6</ele>
        <time>2021-12-28T08:41:41Z</time>
      </trkpt>
      <trkpt lat="43.24046" lon="6.30571">
        <ele>243.4</ele>
        <time>2021-12-28T08:41:45Z</time>
      </trkpt>
      <trkpt lat="43.2406" lon="6.30557">
        <ele>241</ele>
        <time>2021-12-28T08:41:49Z</time>
      </trkpt>
      <trkpt lat="43.2407" lon="6.30531">
        <ele>239.2</ele>
        <time>2021-12-28T08:41:53Z</time>
      </trkpt>
      <trkpt lat="43.24084" lon="6.30506">
        <ele>238.8</ele>
        <time>2021-12-28T08:41:57Z</time>
      </trkpt>
      <trkpt lat="43.24103" lon="6.30487">
        <ele>238.4</ele>
        <time>2021-12-28T08:42:01Z</time>
      </trkpt>
      <trkpt lat="43.24123" lon="6.30466">
        <ele>235.6</ele>
        <time>2021-12-28T08:42:05Z</time>
      </trkpt>
      <trkpt lat="43.24146" lon="6.30453">
        <ele>235.4</ele>
        <time>2021-12-28T08:42:09Z</time>
      </trkpt>
      <trkpt lat="43.24164" lon="6.30454">
        <ele>238.4</ele>
        <time>2021-12-28T08:42:13Z</time>
      </trkpt>
      <trkpt lat="43.24173" lon="6.30459">
        <ele>239.4</ele>
        <time>2021-12-28T08:42:17Z</time>
      </trkpt>
      <trkpt lat="43.24181" lon="6.30462">
        <ele>240.2</ele>
        <time>2021-12-28T08:42:21Z</time>
      </trkpt>
      <trkpt lat="43.24186" lon="6.30466">
        <ele>240.6</ele>
        <time>2021-12-28T08:42:25Z</time>
      </trkpt>
      <trkpt lat="43.24192" lon="6.30468">
        <ele>241.8</ele>
        <time>2021-12-28T08:42:29Z</time>
      </trkpt>
      <trkpt lat="43.24199" lon="6.30467">
        <ele>242.6</ele>
        <time>2021-12-28T08:42:33Z</time>
      </trkpt>
      <trkpt lat="43.24205" lon="6.30456">
        <ele>243.2</ele>
        <time>2021-12-28T08:42:37Z</time>
      </trkpt>
      <trkpt lat="43.24206" lon="6.30447">
        <ele>244.6</ele>
        <time>2021-12-28T08:42:41Z</time>
      </trkpt>
      <trkpt lat="43.24206" lon="6.30439">
        <ele>245.6</ele>
        <time>2021-12-28T08:42:45Z</time>
      </trkpt>
      <trkpt lat="43.24207" lon="6.30431">
        <ele>246.6</ele>
        <time>2021-12-28T08:42:49Z</time>
      </trkpt>
      <trkpt lat="43.24208" lon="6.30422">
        <ele>247.6</ele>
        <time>2021-12-28T08:42:53Z</time>
      </trkpt>
      <trkpt lat="43.24209" lon="6.30415">
        <ele>248.4</ele>
        <time>2021-12-28T08:42:57Z</time>
      </trkpt>
      <trkpt lat="43.24212" lon="6.3041">
        <ele>249.2</ele>
        <time>2021-12-28T08:43:01Z</time>
      </trkpt>
      <trkpt lat="43.24214" lon="6.304">
        <ele>249.8</ele>
        <time>2021-12-28T08:43:05Z</time>
      </trkpt>
      <trkpt lat="43.24218" lon="6.30395">
        <ele>250.6</ele>
        <time>2021-12-28T08:43:09Z</time>
      </trkpt>
      <trkpt lat="43.24223" lon="6.30396">
        <ele>251.2</ele>
        <time>2021-12-28T08:43:13Z</time>
      </trkpt>
      <trkpt lat="43.24234" lon="6.30385">
        <ele>248.2</ele>
        <time>2021-12-28T08:43:32Z</time>
      </trkpt>
      <trkpt lat="43.24249" lon="6.30377">
        <ele>244.6</ele>
        <time>2021-12-28T08:43:36Z</time>
      </trkpt>
      <trkpt lat="43.24273" lon="6.30359">
        <ele>240.8</ele>
        <time>2021-12-28T08:43:40Z</time>
      </trkpt>
      <trkpt lat="43.24294" lon="6.30345">
        <ele>238</ele>
        <time>2021-12-28T08:43:44Z</time>
      </trkpt>
      <trkpt lat="43.24308" lon="6.30318">
        <ele>237</ele>
        <time>2021-12-28T08:43:48Z</time>
      </trkpt>
      <trkpt lat="43.2431" lon="6.3029">
        <ele>235.2</ele>
        <time>2021-12-28T08:43:52Z</time>
      </trkpt>
      <trkpt lat="43.24304" lon="6.30255">
        <ele>230.6</ele>
        <time>2021-12-28T08:43:56Z</time>
      </trkpt>
      <trkpt lat="43.24292" lon="6.30215">
        <ele>225.8</ele>
        <time>2021-12-28T08:44:00Z</time>
      </trkpt>
      <trkpt lat="43.24272" lon="6.30181">
        <ele>221.8</ele>
        <time>2021-12-28T08:44:04Z</time>
      </trkpt>
      <trkpt lat="43.24248" lon="6.30152">
        <ele>218.2</ele>
        <time>2021-12-28T08:44:08Z</time>
      </trkpt>
      <trkpt lat="43.2422" lon="6.30135">
        <ele>214.4</ele>
        <time>2021-12-28T08:44:12Z</time>
      </trkpt>
      <trkpt lat="43.24197" lon="6.3012">
        <ele>212.4</ele>
        <time>2021-12-28T08:44:16Z</time>
      </trkpt>
      <trkpt lat="43.24174" lon="6.30113">
        <ele>210</ele>
        <time>2021-12-28T08:44:20Z</time>
      </trkpt>
      <trkpt lat="43.24153" lon="6.30092">
        <ele>205</ele>
        <time>2021-12-28T08:44:24Z</time>
      </trkpt>
      <trkpt lat="43.24123" lon="6.30074">
        <ele>200.6</ele>
        <time>2021-12-28T08:44:28Z</time>
      </trkpt>
      <trkpt lat="43.24088" lon="6.30051">
        <ele>194</ele>
        <time>2021-12-28T08:44:32Z</time>
      </trkpt>
      <trkpt lat="43.24058" lon="6.30037">
        <ele>193</ele>
        <time>2021-12-28T08:44:36Z</time>
      </trkpt>
      <trkpt lat="43.24025" lon="6.30028">
        <ele>189.8</ele>
        <time>2021-12-28T08:44:40Z</time>
      </trkpt>
      <trkpt lat="43.23995" lon="6.30013">
        <ele>187.8</ele>
        <time>2021-12-28T08:44:44Z</time>
      </trkpt>
      <trkpt lat="43.2396" lon="6.30005">
        <ele>185</ele>
        <time>2021-12-28T08:44:48Z</time>
      </trkpt>
      <trkpt lat="43.23933" lon="6.30004">
        <ele>180.2</ele>
        <time>2021-12-28T08:44:52Z</time>
      </trkpt>
      <trkpt lat="43.23908" lon="6.3">
        <ele>179</ele>
        <time>2021-12-28T08:44:56Z</time>
      </trkpt>
      <trkpt lat="43.23899" lon="6.30003">
        <ele>178.8</ele>
        <time>2021-12-28T08:45:00Z</time>
      </trkpt>
      <trkpt lat="43.23897" lon="6.29996">
        <ele>178.2</ele>
        <time>2021-12-28T08:45:04Z</time>
      </trkpt>
      <trkpt lat="43.23899" lon="6.29974">
        <ele>177.8</ele>
        <time>2021-12-28T08:45:08Z</time>
      </trkpt>
      <trkpt lat="43.23903" lon="6.29951">
        <ele>177.4</ele>
        <time>2021-12-28T08:45:12Z</time>
      </trkpt>
      <trkpt lat="43.2391" lon="6.29925">
        <ele>176.2</ele>
        <time>2021-12-28T08:45:16Z</time>
      </trkpt>
      <trkpt lat="43.23916" lon="6.299">
        <ele>175</ele>
        <time>2021-12-28T08:45:20Z</time>
      </trkpt>
      <trkpt lat="43.23921" lon="6.29878">
        <ele>175</ele>
        <time>2021-12-28T08:45:24Z</time>
      </trkpt>
      <trkpt lat="43.23922" lon="6.29847">
        <ele>175.2</ele>
        <time>2021-12-28T08:45:28Z</time>
      </trkpt>
      <trkpt lat="43.23921" lon="6.29819">
        <ele>175.4</ele>
        <time>2021-12-28T08:45:32Z</time>
      </trkpt>
      <trkpt lat="43.23918" lon="6.29794">
        <ele>176.6</ele>
        <time>2021-12-28T08:45:36Z</time>
      </trkpt>
      <trkpt lat="43.23916" lon="6.29773">
        <ele>176</ele>
        <time>2021-12-28T08:45:40Z</time>
      </trkpt>
      <trkpt lat="43.23913" lon="6.29752">
        <ele>176.4</ele>
        <time>2021-12-28T08:45:44Z</time>
      </trkpt>
      <trkpt lat="43.2391" lon="6.29729">
        <ele>176.6</ele>
        <time>2021-12-28T08:45:48Z</time>
      </trkpt>
      <trkpt lat="43.23906" lon="6.29708">
        <ele>176.8</ele>
        <time>2021-12-28T08:45:52Z</time>
      </trkpt>
      <trkpt lat="43.23906" lon="6.2969">
        <ele>177.2</ele>
        <time>2021-12-28T08:45:56Z</time>
      </trkpt>
      <trkpt lat="43.23917" lon="6.29686">
        <ele>177.4</ele>
        <time>2021-12-28T08:46:00Z</time>
      </trkpt>
      <trkpt lat="43.23928" lon="6.29681">
        <ele>178.4</ele>
        <time>2021-12-28T08:46:04Z</time>
      </trkpt>
      <trkpt lat="43.23929" lon="6.29666">
        <ele>178.2</ele>
        <time>2021-12-28T08:46:08Z</time>
      </trkpt>
      <trkpt lat="43.23924" lon="6.29656">
        <ele>179.8</ele>
        <time>2021-12-28T08:46:12Z</time>
      </trkpt>
      <trkpt lat="43.23919" lon="6.29644">
        <ele>180.6</ele>
        <time>2021-12-28T08:46:16Z</time>
      </trkpt>
      <trkpt lat="43.23915" lon="6.29632">
        <ele>181.4</ele>
        <time>2021-12-28T08:46:20Z</time>
      </trkpt>
      <trkpt lat="43.23912" lon="6.29617">
        <ele>181.4</ele>
        <time>2021-12-28T08:46:24Z</time>
      </trkpt>
      <trkpt lat="43.23909" lon="6.29601">
        <ele>181.6</ele>
        <time>2021-12-28T08:46:28Z</time>
      </trkpt>
      <trkpt lat="43.23908" lon="6.29585">
        <ele>182.4</ele>
        <time>2021-12-28T08:46:32Z</time>
      </trkpt>
      <trkpt lat="43.2391" lon="6.2957">
        <ele>181.8</ele>
        <time>2021-12-28T08:46:36Z</time>
      </trkpt>
      <trkpt lat="43.23916" lon="6.29557">
        <ele>182.2</ele>
        <time>2021-12-28T08:46:40Z</time>
      </trkpt>
      <trkpt lat="43.23926" lon="6.29549">
        <ele>182.8</ele>
        <time>2021-12-28T08:46:44Z</time>
      </trkpt>
      <trkpt lat="43.23937" lon="6.29544">
        <ele>184</ele>
        <time>2021-12-28T08:46:48Z</time>
      </trkpt>
      <trkpt lat="43.23946" lon="6.2954">
        <ele>184.4</ele>
        <time>2021-12-28T08:46:52Z</time>
      </trkpt>
      <trkpt lat="43.23955" lon="6.29535">
        <ele>184.8</ele>
        <time>2021-12-28T08:46:56Z</time>
      </trkpt>
      <trkpt lat="43.23964" lon="6.2953">
        <ele>185.4</ele>
        <time>2021-12-28T08:47:00Z</time>
      </trkpt>
      <trkpt lat="43.23973" lon="6.29525">
        <ele>186.4</ele>
        <time>2021-12-28T08:47:04Z</time>
      </trkpt>
      <trkpt lat="43.23981" lon="6.29521">
        <ele>186.4</ele>
        <time>2021-12-28T08:47:08Z</time>
      </trkpt>
      <trkpt lat="43.2399" lon="6.29517">
        <ele>187</ele>
        <time>2021-12-28T08:47:12Z</time>
      </trkpt>
      <trkpt lat="43.24" lon="6.29513">
        <ele>187.2</ele>
        <time>2021-12-28T08:47:16Z</time>
      </trkpt>
      <trkpt lat="43.2401" lon="6.29508">
        <ele>187.4</ele>
        <time>2021-12-28T08:47:20Z</time>
      </trkpt>
      <trkpt lat="43.2402" lon="6.29503">
        <ele>188.4</ele>
        <time>2021-12-28T08:47:24Z</time>
      </trkpt>
      <trkpt lat="43.24029" lon="6.29497">
        <ele>189</ele>
        <time>2021-12-28T08:47:28Z</time>
      </trkpt>
      <trkpt lat="43.24037" lon="6.29492">
        <ele>189.4</ele>
        <time>2021-12-28T08:47:32Z</time>
      </trkpt>
      <trkpt lat="43.24047" lon="6.29489">
        <ele>189.6</ele>
        <time>2021-12-28T08:47:36Z</time>
      </trkpt>
      <trkpt lat="43.24057" lon="6.29487">
        <ele>190.2</ele>
        <time>2021-12-28T08:47:40Z</time>
      </trkpt>
      <trkpt lat="43.24067" lon="6.29484">
        <ele>190.4</ele>
        <time>2021-12-28T08:47:44Z</time>
      </trkpt>
      <trkpt lat="43.24076" lon="6.29479">
        <ele>190.6</ele>
        <time>2021-12-28T08:47:48Z</time>
      </trkpt>
      <trkpt lat="43.24085" lon="6.29474">
        <ele>192</ele>
        <time>2021-12-28T08:47:52Z</time>
      </trkpt>
      <trkpt lat="43.24092" lon="6.29472">
        <ele>192.8</ele>
        <time>2021-12-28T08:47:56Z</time>
      </trkpt>
      <trkpt lat="43.24099" lon="6.29469">
        <ele>192.6</ele>
        <time>2021-12-28T08:48:00Z</time>
      </trkpt>
      <trkpt lat="43.24108" lon="6.29466">
        <ele>192.8</ele>
        <time>2021-12-28T08:48:04Z</time>
      </trkpt>
      <trkpt lat="43.24115" lon="6.29461">
        <ele>193.6</ele>
        <time>2021-12-28T08:48:08Z</time>
      </trkpt>
      <trkpt lat="43.24121" lon="6.29458">
        <ele>194.4</ele>
        <time>2021-12-28T08:48:12Z</time>
      </trkpt>
      <trkpt lat="43.24126" lon="6.29454">
        <ele>195.2</ele>
        <time>2021-12-28T08:48:16Z</time>
      </trkpt>
      <trkpt lat="43.24132" lon="6.29451">
        <ele>196</ele>
        <time>2021-12-28T08:48:20Z</time>
      </trkpt>
      <trkpt lat="43.24137" lon="6.29446">
        <ele>197.2</ele>
        <time>2021-12-28T08:48:24Z</time>
      </trkpt>
      <trkpt lat="43.2414" lon="6.29438">
        <ele>197.2</ele>
        <time>2021-12-28T08:48:28Z</time>
      </trkpt>
      <trkpt lat="43.24142" lon="6.29429">
        <ele>198.2</ele>
        <time>2021-12-28T08:48:32Z</time>
      </trkpt>
      <trkpt lat="43.24141" lon="6.29418">
        <ele>198.8</ele>
        <time>2021-12-28T08:48:36Z</time>
      </trkpt>
      <trkpt lat="43.2414" lon="6.29405">
        <ele>199.2</ele>
        <time>2021-12-28T08:48:40Z</time>
      </trkpt>
      <trkpt lat="43.24138" lon="6.29393">
        <ele>199.2</ele>
        <time>2021-12-28T08:48:44Z</time>
      </trkpt>
      <trkpt lat="43.24136" lon="6.29381">
        <ele>199.2</ele>
        <time>2021-12-28T08:48:48Z</time>
      </trkpt>
      <trkpt lat="43.24134" lon="6.29369">
        <ele>199.6</ele>
        <time>2021-12-28T08:48:52Z</time>
      </trkpt>
      <trkpt lat="43.24133" lon="6.29353">
        <ele>199.4</ele>
        <time>2021-12-28T08:48:56Z</time>
      </trkpt>
      <trkpt lat="43.24131" lon="6.29333">
        <ele>198.2</ele>
        <time>2021-12-28T08:49:00Z</time>
      </trkpt>
      <trkpt lat="43.24128" lon="6.29309">
        <ele>197.2</ele>
        <time>2021-12-28T08:49:04Z</time>
      </trkpt>
      <trkpt lat="43.24123" lon="6.29284">
        <ele>195.2</ele>
        <time>2021-12-28T08:49:08Z</time>
      </trkpt>
      <trkpt lat="43.24123" lon="6.29284">
        <ele>194.6</ele>
        <time>2021-12-28T08:49:12Z</time>
      </trkpt>
      <trkpt lat="43.24119" lon="6.29251">
        <ele>196</ele>
        <time>2021-12-28T08:49:16Z</time>
      </trkpt>
      <trkpt lat="43.24117" lon="6.2923">
        <ele>196.4</ele>
        <time>2021-12-28T08:49:20Z</time>
      </trkpt>
      <trkpt lat="43.24112" lon="6.29212">
        <ele>196.8</ele>
        <time>2021-12-28T08:49:24Z</time>
      </trkpt>
      <trkpt lat="43.24107" lon="6.29196">
        <ele>197.4</ele>
        <time>2021-12-28T08:49:28Z</time>
      </trkpt>
      <trkpt lat="43.24104" lon="6.2918">
        <ele>197.8</ele>
        <time>2021-12-28T08:49:32Z</time>
      </trkpt>
      <trkpt lat="43.24101" lon="6.29165">
        <ele>197.8</ele>
        <time>2021-12-28T08:49:36Z</time>
      </trkpt>
      <trkpt lat="43.24098" lon="6.29149">
        <ele>198</ele>
        <time>2021-12-28T08:49:40Z</time>
      </trkpt>
      <trkpt lat="43.24092" lon="6.29135">
        <ele>198.4</ele>
        <time>2021-12-28T08:49:44Z</time>
      </trkpt>
      <trkpt lat="43.24087" lon="6.29122">
        <ele>198.6</ele>
        <time>2021-12-28T08:49:48Z</time>
      </trkpt>
      <trkpt lat="43.24082" lon="6.29109">
        <ele>199</ele>
        <time>2021-12-28T08:49:52Z</time>
      </trkpt>
      <trkpt lat="43.24079" lon="6.29096">
        <ele>199.8</ele>
        <time>2021-12-28T08:49:56Z</time>
      </trkpt>
      <trkpt lat="43.24076" lon="6.29081">
        <ele>199.2</ele>
        <time>2021-12-28T08:50:00Z</time>
      </trkpt>
      <trkpt lat="43.24075" lon="6.29065">
        <ele>199.6</ele>
        <time>2021-12-28T08:50:04Z</time>
      </trkpt>
      <trkpt lat="43.24074" lon="6.29051">
        <ele>200.2</ele>
        <time>2021-12-28T08:50:08Z</time>
      </trkpt>
      <trkpt lat="43.24072" lon="6.29037">
        <ele>201</ele>
        <time>2021-12-28T08:50:12Z</time>
      </trkpt>
      <trkpt lat="43.2407" lon="6.29023">
        <ele>201.4</ele>
        <time>2021-12-28T08:50:16Z</time>
      </trkpt>
      <trkpt lat="43.24069" lon="6.29012">
        <ele>202.2</ele>
        <time>2021-12-28T08:50:20Z</time>
      </trkpt>
      <trkpt lat="43.24068" lon="6.29001">
        <ele>202.6</ele>
        <time>2021-12-28T08:50:24Z</time>
      </trkpt>
      <trkpt lat="43.24069" lon="6.28991">
        <ele>203.4</ele>
        <time>2021-12-28T08:50:28Z</time>
      </trkpt>
      <trkpt lat="43.2407" lon="6.28979">
        <ele>203.8</ele>
        <time>2021-12-28T08:50:32Z</time>
      </trkpt>
      <trkpt lat="43.24071" lon="6.28967">
        <ele>204</ele>
        <time>2021-12-28T08:50:36Z</time>
      </trkpt>
      <trkpt lat="43.24072" lon="6.28953">
        <ele>204.6</ele>
        <time>2021-12-28T08:50:40Z</time>
      </trkpt>
      <trkpt lat="43.24073" lon="6.2894">
        <ele>205</ele>
        <time>2021-12-28T08:50:44Z</time>
      </trkpt>
      <trkpt lat="43.24073" lon="6.28928">
        <ele>205.6</ele>
        <time>2021-12-28T08:50:48Z</time>
      </trkpt>
      <trkpt lat="43.24074" lon="6.28915">
        <ele>206</ele>
        <time>2021-12-28T08:50:52Z</time>
      </trkpt>
      <trkpt lat="43.24075" lon="6.28902">
        <ele>205.8</ele>
        <time>2021-12-28T08:50:56Z</time>
      </trkpt>
      <trkpt lat="43.24075" lon="6.28889">
        <ele>205.8</ele>
        <time>2021-12-28T08:51:00Z</time>
      </trkpt>
      <trkpt lat="43.24079" lon="6.28877">
        <ele>205.8</ele>
        <time>2021-12-28T08:51:04Z</time>
      </trkpt>
      <trkpt lat="43.24085" lon="6.28864">
        <ele>206.2</ele>
        <time>2021-12-28T08:51:08Z</time>
      </trkpt>
      <trkpt lat="43.24086" lon="6.28849">
        <ele>206</ele>
        <time>2021-12-28T08:51:12Z</time>
      </trkpt>
      <trkpt lat="43.24086" lon="6.28841">
        <ele>205.8</ele>
        <time>2021-12-28T08:51:16Z</time>
      </trkpt>
      <trkpt lat="43.24086" lon="6.28832">
        <ele>205.6</ele>
        <time>2021-12-28T08:51:20Z</time>
      </trkpt>
      <trkpt lat="43.24085" lon="6.28822">
        <ele>205.6</ele>
        <time>2021-12-28T08:51:24Z</time>
      </trkpt>
      <trkpt lat="43.24085" lon="6.28809">
        <ele>205.6</ele>
        <time>2021-12-28T08:51:28Z</time>
      </trkpt>
      <trkpt lat="43.24086" lon="6.28796">
        <ele>205.2</ele>
        <time>2021-12-28T08:51:32Z</time>
      </trkpt>
      <trkpt lat="43.24088" lon="6.28786">
        <ele>205</ele>
        <time>2021-12-28T08:51:36Z</time>
      </trkpt>
      <trkpt lat="43.24089" lon="6.28772">
        <ele>205.2</ele>
        <time>2021-12-28T08:51:40Z</time>
      </trkpt>
      <trkpt lat="43.24088" lon="6.28757">
        <ele>204.8</ele>
        <time>2021-12-28T08:51:44Z</time>
      </trkpt>
      <trkpt lat="43.24088" lon="6.28744">
        <ele>204.8</ele>
        <time>2021-12-28T08:51:48Z</time>
      </trkpt>
      <trkpt lat="43.2409" lon="6.2873">
        <ele>204.4</ele>
        <time>2021-12-28T08:51:52Z</time>
      </trkpt>
      <trkpt lat="43.24092" lon="6.28718">
        <ele>204.8</ele>
        <time>2021-12-28T08:51:56Z</time>
      </trkpt>
      <trkpt lat="43.24094" lon="6.28706">
        <ele>204.6</ele>
        <time>2021-12-28T08:52:00Z</time>
      </trkpt>
      <trkpt lat="43.24097" lon="6.28692">
        <ele>204.2</ele>
        <time>2021-12-28T08:52:04Z</time>
      </trkpt>
      <trkpt lat="43.241" lon="6.28677">
        <ele>205.2</ele>
        <time>2021-12-28T08:52:08Z</time>
      </trkpt>
      <trkpt lat="43.24105" lon="6.28666">
        <ele>205</ele>
        <time>2021-12-28T08:52:12Z</time>
      </trkpt>
      <trkpt lat="43.24113" lon="6.28655">
        <ele>205</ele>
        <time>2021-12-28T08:52:16Z</time>
      </trkpt>
      <trkpt lat="43.24122" lon="6.28646">
        <ele>204.8</ele>
        <time>2021-12-28T08:52:20Z</time>
      </trkpt>
      <trkpt lat="43.2413" lon="6.28636">
        <ele>205.6</ele>
        <time>2021-12-28T08:52:24Z</time>
      </trkpt>
      <trkpt lat="43.24137" lon="6.28629">
        <ele>206</ele>
        <time>2021-12-28T08:52:28Z</time>
      </trkpt>
      <trkpt lat="43.24146" lon="6.28622">
        <ele>206.4</ele>
        <time>2021-12-28T08:52:32Z</time>
      </trkpt>
      <trkpt lat="43.24154" lon="6.28614">
        <ele>206.4</ele>
        <time>2021-12-28T08:52:36Z</time>
      </trkpt>
      <trkpt lat="43.24161" lon="6.2861">
        <ele>206.4</ele>
        <time>2021-12-28T08:52:40Z</time>
      </trkpt>
      <trkpt lat="43.24169" lon="6.28601">
        <ele>207.4</ele>
        <time>2021-12-28T08:52:44Z</time>
      </trkpt>
      <trkpt lat="43.24175" lon="6.28596">
        <ele>208</ele>
        <time>2021-12-28T08:52:48Z</time>
      </trkpt>
      <trkpt lat="43.2418" lon="6.28591">
        <ele>208.2</ele>
        <time>2021-12-28T08:52:52Z</time>
      </trkpt>
      <trkpt lat="43.24185" lon="6.28586">
        <ele>209.4</ele>
        <time>2021-12-28T08:52:56Z</time>
      </trkpt>
      <trkpt lat="43.24191" lon="6.28581">
        <ele>210.4</ele>
        <time>2021-12-28T08:53:00Z</time>
      </trkpt>
      <trkpt lat="43.24197" lon="6.28577">
        <ele>211.6</ele>
        <time>2021-12-28T08:53:04Z</time>
      </trkpt>
      <trkpt lat="43.24202" lon="6.28569">
        <ele>211.2</ele>
        <time>2021-12-28T08:53:08Z</time>
      </trkpt>
      <trkpt lat="43.24209" lon="6.28563">
        <ele>211.8</ele>
        <time>2021-12-28T08:53:12Z</time>
      </trkpt>
      <trkpt lat="43.24214" lon="6.28555">
        <ele>211.8</ele>
        <time>2021-12-28T08:53:16Z</time>
      </trkpt>
      <trkpt lat="43.24219" lon="6.28548">
        <ele>213</ele>
        <time>2021-12-28T08:53:20Z</time>
      </trkpt>
      <trkpt lat="43.24224" lon="6.2854">
        <ele>213.2</ele>
        <time>2021-12-28T08:53:24Z</time>
      </trkpt>
      <trkpt lat="43.24228" lon="6.28532">
        <ele>213.6</ele>
        <time>2021-12-28T08:53:28Z</time>
      </trkpt>
      <trkpt lat="43.24232" lon="6.28524">
        <ele>213.8</ele>
        <time>2021-12-28T08:53:32Z</time>
      </trkpt>
      <trkpt lat="43.24238" lon="6.28517">
        <ele>214.2</ele>
        <time>2021-12-28T08:53:36Z</time>
      </trkpt>
      <trkpt lat="43.24244" lon="6.28509">
        <ele>214.6</ele>
        <time>2021-12-28T08:53:40Z</time>
      </trkpt>
      <trkpt lat="43.24251" lon="6.28502">
        <ele>215</ele>
        <time>2021-12-28T08:53:44Z</time>
      </trkpt>
      <trkpt lat="43.24257" lon="6.28494">
        <ele>215</ele>
        <time>2021-12-28T08:53:48Z</time>
      </trkpt>
      <trkpt lat="43.24263" lon="6.28485">
        <ele>216</ele>
        <time>2021-12-28T08:53:52Z</time>
      </trkpt>
      <trkpt lat="43.24268" lon="6.28476">
        <ele>217.2</ele>
        <time>2021-12-28T08:53:56Z</time>
      </trkpt>
      <trkpt lat="43.24273" lon="6.2847">
        <ele>217.2</ele>
        <time>2021-12-28T08:54:00Z</time>
      </trkpt>
      <trkpt lat="43.24278" lon="6.28463">
        <ele>217.2</ele>
        <time>2021-12-28T08:54:04Z</time>
      </trkpt>
      <trkpt lat="43.24283" lon="6.28456">
        <ele>218</ele>
        <time>2021-12-28T08:54:08Z</time>
      </trkpt>
      <trkpt lat="43.24287" lon="6.28448">
        <ele>218.2</ele>
        <time>2021-12-28T08:54:12Z</time>
      </trkpt>
      <trkpt lat="43.24291" lon="6.2844">
        <ele>219.4</ele>
        <time>2021-12-28T08:54:16Z</time>
      </trkpt>
      <trkpt lat="43.24296" lon="6.28435">
        <ele>219.8</ele>
        <time>2021-12-28T08:54:20Z</time>
      </trkpt>
      <trkpt lat="43.24302" lon="6.28428">
        <ele>221</ele>
        <time>2021-12-28T08:54:24Z</time>
      </trkpt>
      <trkpt lat="43.24307" lon="6.28422">
        <ele>221.4</ele>
        <time>2021-12-28T08:54:28Z</time>
      </trkpt>
      <trkpt lat="43.24312" lon="6.28415">
        <ele>221.8</ele>
        <time>2021-12-28T08:54:32Z</time>
      </trkpt>
      <trkpt lat="43.24317" lon="6.2841">
        <ele>222.8</ele>
        <time>2021-12-28T08:54:36Z</time>
      </trkpt>
      <trkpt lat="43.24322" lon="6.28405">
        <ele>222.8</ele>
        <time>2021-12-28T08:54:40Z</time>
      </trkpt>
      <trkpt lat="43.24327" lon="6.28402">
        <ele>223.8</ele>
        <time>2021-12-28T08:54:44Z</time>
      </trkpt>
      <trkpt lat="43.24332" lon="6.28397">
        <ele>223.6</ele>
        <time>2021-12-28T08:54:48Z</time>
      </trkpt>
      <trkpt lat="43.2435" lon="6.28386">
        <ele>224</ele>
        <time>2021-12-28T08:57:19Z</time>
      </trkpt>
      <trkpt lat="43.24357" lon="6.28381">
        <ele>223.2</ele>
        <time>2021-12-28T08:57:23Z</time>
      </trkpt>
      <trkpt lat="43.24364" lon="6.28375">
        <ele>223.4</ele>
        <time>2021-12-28T08:57:27Z</time>
      </trkpt>
      <trkpt lat="43.24373" lon="6.28365">
        <ele>221.6</ele>
        <time>2021-12-28T08:57:31Z</time>
      </trkpt>
      <trkpt lat="43.24384" lon="6.28356">
        <ele>221</ele>
        <time>2021-12-28T08:57:35Z</time>
      </trkpt>
      <trkpt lat="43.24401" lon="6.28325">
        <ele>221</ele>
        <time>2021-12-28T08:58:36Z</time>
      </trkpt>
      <trkpt lat="43.24405" lon="6.28313">
        <ele>221.2</ele>
        <time>2021-12-28T08:58:40Z</time>
      </trkpt>
      <trkpt lat="43.24409" lon="6.28301">
        <ele>221</ele>
        <time>2021-12-28T08:58:44Z</time>
      </trkpt>
      <trkpt lat="43.24412" lon="6.28289">
        <ele>221.2</ele>
        <time>2021-12-28T08:58:48Z</time>
      </trkpt>
      <trkpt lat="43.24414" lon="6.2828">
        <ele>221.2</ele>
        <time>2021-12-28T08:58:52Z</time>
      </trkpt>
      <trkpt lat="43.24418" lon="6.28271">
        <ele>221.6</ele>
        <time>2021-12-28T08:58:56Z</time>
      </trkpt>
      <trkpt lat="43.24423" lon="6.28262">
        <ele>222.2</ele>
        <time>2021-12-28T08:59:00Z</time>
      </trkpt>
      <trkpt lat="43.24428" lon="6.28255">
        <ele>222.2</ele>
        <time>2021-12-28T08:59:04Z</time>
      </trkpt>
      <trkpt lat="43.24433" lon="6.28249">
        <ele>222.8</ele>
        <time>2021-12-28T08:59:08Z</time>
      </trkpt>
      <trkpt lat="43.24438" lon="6.28244">
        <ele>222.8</ele>
        <time>2021-12-28T08:59:12Z</time>
      </trkpt>
      <trkpt lat="43.24432" lon="6.2825">
        <ele>222.8</ele>
        <time>2021-12-28T08:59:30Z</time>
      </trkpt>
      <trkpt lat="43.24426" lon="6.28258">
        <ele>222.6</ele>
        <time>2021-12-28T08:59:34Z</time>
      </trkpt>
      <trkpt lat="43.24422" lon="6.28268">
        <ele>222.2</ele>
        <time>2021-12-28T08:59:38Z</time>
      </trkpt>
      <trkpt lat="43.24418" lon="6.2828">
        <ele>221.2</ele>
        <time>2021-12-28T08:59:42Z</time>
      </trkpt>
      <trkpt lat="43.24413" lon="6.28296">
        <ele>221.8</ele>
        <time>2021-12-28T08:59:46Z</time>
      </trkpt>
      <trkpt lat="43.24409" lon="6.28308">
        <ele>221.8</ele>
        <time>2021-12-28T08:59:50Z</time>
      </trkpt>
      <trkpt lat="43.24404" lon="6.28318">
        <ele>222</ele>
        <time>2021-12-28T08:59:54Z</time>
      </trkpt>
      <trkpt lat="43.24399" lon="6.28327">
        <ele>221.8</ele>
        <time>2021-12-28T08:59:58Z</time>
      </trkpt>
      <trkpt lat="43.24406" lon="6.28328">
        <ele>223</ele>
        <time>2021-12-28T09:00:25Z</time>
      </trkpt>
      <trkpt lat="43.24409" lon="6.28319">
        <ele>223.8</ele>
        <time>2021-12-28T09:00:29Z</time>
      </trkpt>
      <trkpt lat="43.24413" lon="6.2831">
        <ele>224</ele>
        <time>2021-12-28T09:00:33Z</time>
      </trkpt>
      <trkpt lat="43.24416" lon="6.28301">
        <ele>225</ele>
        <time>2021-12-28T09:00:37Z</time>
      </trkpt>
      <trkpt lat="43.24419" lon="6.28292">
        <ele>225.6</ele>
        <time>2021-12-28T09:00:41Z</time>
      </trkpt>
      <trkpt lat="43.24422" lon="6.28282">
        <ele>226.2</ele>
        <time>2021-12-28T09:00:45Z</time>
      </trkpt>
      <trkpt lat="43.24426" lon="6.28275">
        <ele>227</ele>
        <time>2021-12-28T09:00:49Z</time>
      </trkpt>
      <trkpt lat="43.24432" lon="6.28266">
        <ele>227.8</ele>
        <time>2021-12-28T09:00:53Z</time>
      </trkpt>
      <trkpt lat="43.24438" lon="6.2826">
        <ele>228.2</ele>
        <time>2021-12-28T09:00:57Z</time>
      </trkpt>
      <trkpt lat="43.24443" lon="6.28254">
        <ele>228.4</ele>
        <time>2021-12-28T09:01:01Z</time>
      </trkpt>
      <trkpt lat="43.24449" lon="6.28251">
        <ele>229.2</ele>
        <time>2021-12-28T09:01:05Z</time>
      </trkpt>
      <trkpt lat="43.24456" lon="6.2825">
        <ele>230</ele>
        <time>2021-12-28T09:01:09Z</time>
      </trkpt>
      <trkpt lat="43.24462" lon="6.28251">
        <ele>230.4</ele>
        <time>2021-12-28T09:01:13Z</time>
      </trkpt>
      <trkpt lat="43.24468" lon="6.28251">
        <ele>231</ele>
        <time>2021-12-28T09:01:17Z</time>
      </trkpt>
      <trkpt lat="43.24475" lon="6.28252">
        <ele>231.4</ele>
        <time>2021-12-28T09:01:21Z</time>
      </trkpt>
      <trkpt lat="43.24482" lon="6.28253">
        <ele>232.4</ele>
        <time>2021-12-28T09:01:25Z</time>
      </trkpt>
      <trkpt lat="43.24488" lon="6.28254">
        <ele>232.8</ele>
        <time>2021-12-28T09:01:29Z</time>
      </trkpt>
      <trkpt lat="43.24496" lon="6.28256">
        <ele>233.2</ele>
        <time>2021-12-28T09:01:33Z</time>
      </trkpt>
      <trkpt lat="43.24501" lon="6.28259">
        <ele>233.8</ele>
        <time>2021-12-28T09:01:37Z</time>
      </trkpt>
      <trkpt lat="43.24507" lon="6.28261">
        <ele>234.6</ele>
        <time>2021-12-28T09:01:41Z</time>
      </trkpt>
      <trkpt lat="43.24514" lon="6.28261">
        <ele>235.6</ele>
        <time>2021-12-28T09:01:45Z</time>
      </trkpt>
      <trkpt lat="43.24519" lon="6.28263">
        <ele>236</ele>
        <time>2021-12-28T09:01:49Z</time>
      </trkpt>
      <trkpt lat="43.24526" lon="6.28265">
        <ele>236.4</ele>
        <time>2021-12-28T09:01:53Z</time>
      </trkpt>
      <trkpt lat="43.24533" lon="6.28269">
        <ele>237.2</ele>
        <time>2021-12-28T09:01:57Z</time>
      </trkpt>
      <trkpt lat="43.24538" lon="6.28272">
        <ele>238</ele>
        <time>2021-12-28T09:02:01Z</time>
      </trkpt>
      <trkpt lat="43.24544" lon="6.28276">
        <ele>238.6</ele>
        <time>2021-12-28T09:02:05Z</time>
      </trkpt>
      <trkpt lat="43.24551" lon="6.2828">
        <ele>239</ele>
        <time>2021-12-28T09:02:09Z</time>
      </trkpt>
      <trkpt lat="43.24557" lon="6.28282">
        <ele>239.4</ele>
        <time>2021-12-28T09:02:13Z</time>
      </trkpt>
      <trkpt lat="43.24563" lon="6.28283">
        <ele>240.2</ele>
        <time>2021-12-28T09:02:17Z</time>
      </trkpt>
      <trkpt lat="43.24569" lon="6.28283">
        <ele>240.6</ele>
        <time>2021-12-28T09:02:21Z</time>
      </trkpt>
      <trkpt lat="43.24575" lon="6.28282">
        <ele>241.6</ele>
        <time>2021-12-28T09:02:25Z</time>
      </trkpt>
      <trkpt lat="43.24581" lon="6.2828">
        <ele>242.2</ele>
        <time>2021-12-28T09:02:29Z</time>
      </trkpt>
      <trkpt lat="43.24587" lon="6.28277">
        <ele>242.2</ele>
        <time>2021-12-28T09:02:33Z</time>
      </trkpt>
      <trkpt lat="43.24592" lon="6.28274">
        <ele>243</ele>
        <time>2021-12-28T09:02:37Z</time>
      </trkpt>
      <trkpt lat="43.24598" lon="6.2827">
        <ele>244</ele>
        <time>2021-12-28T09:02:41Z</time>
      </trkpt>
      <trkpt lat="43.24602" lon="6.28265">
        <ele>244.2</ele>
        <time>2021-12-28T09:02:45Z</time>
      </trkpt>
      <trkpt lat="43.24606" lon="6.28262">
        <ele>245</ele>
        <time>2021-12-28T09:02:49Z</time>
      </trkpt>
      <trkpt lat="43.24613" lon="6.28256">
        <ele>245.6</ele>
        <time>2021-12-28T09:02:53Z</time>
      </trkpt>
      <trkpt lat="43.24618" lon="6.28253">
        <ele>246.4</ele>
        <time>2021-12-28T09:02:57Z</time>
      </trkpt>
      <trkpt lat="43.24622" lon="6.28247">
        <ele>246.8</ele>
        <time>2021-12-28T09:03:01Z</time>
      </trkpt>
      <trkpt lat="43.24626" lon="6.2824">
        <ele>247.4</ele>
        <time>2021-12-28T09:03:05Z</time>
      </trkpt>
      <trkpt lat="43.24631" lon="6.28233">
        <ele>247.8</ele>
        <time>2021-12-28T09:03:09Z</time>
      </trkpt>
      <trkpt lat="43.24635" lon="6.28227">
        <ele>248.6</ele>
        <time>2021-12-28T09:03:13Z</time>
      </trkpt>
      <trkpt lat="43.2464" lon="6.2822">
        <ele>249.2</ele>
        <time>2021-12-28T09:03:17Z</time>
      </trkpt>
      <trkpt lat="43.24645" lon="6.28213">
        <ele>249.8</ele>
        <time>2021-12-28T09:03:21Z</time>
      </trkpt>
      <trkpt lat="43.2465" lon="6.28208">
        <ele>250.6</ele>
        <time>2021-12-28T09:03:25Z</time>
      </trkpt>
      <trkpt lat="43.24655" lon="6.28202">
        <ele>250.4</ele>
        <time>2021-12-28T09:03:29Z</time>
      </trkpt>
      <trkpt lat="43.24659" lon="6.28197">
        <ele>251.4</ele>
        <time>2021-12-28T09:03:33Z</time>
      </trkpt>
      <trkpt lat="43.24663" lon="6.28191">
        <ele>252</ele>
        <time>2021-12-28T09:03:37Z</time>
      </trkpt>
      <trkpt lat="43.24667" lon="6.28185">
        <ele>252.8</ele>
        <time>2021-12-28T09:03:41Z</time>
      </trkpt>
      <trkpt lat="43.24672" lon="6.28179">
        <ele>253.4</ele>
        <time>2021-12-28T09:03:45Z</time>
      </trkpt>
      <trkpt lat="43.24676" lon="6.28174">
        <ele>254</ele>
        <time>2021-12-28T09:03:49Z</time>
      </trkpt>
      <trkpt lat="43.24681" lon="6.28169">
        <ele>254.8</ele>
        <time>2021-12-28T09:03:53Z</time>
      </trkpt>
      <trkpt lat="43.24685" lon="6.28163">
        <ele>255.6</ele>
        <time>2021-12-28T09:03:57Z</time>
      </trkpt>
      <trkpt lat="43.24689" lon="6.28157">
        <ele>255.8</ele>
        <time>2021-12-28T09:04:01Z</time>
      </trkpt>
      <trkpt lat="43.24694" lon="6.28151">
        <ele>256.6</ele>
        <time>2021-12-28T09:04:05Z</time>
      </trkpt>
      <trkpt lat="43.24697" lon="6.28146">
        <ele>257.4</ele>
        <time>2021-12-28T09:04:09Z</time>
      </trkpt>
      <trkpt lat="43.247" lon="6.28141">
        <ele>257.6</ele>
        <time>2021-12-28T09:04:13Z</time>
      </trkpt>
      <trkpt lat="43.24705" lon="6.28134">
        <ele>257.8</ele>
        <time>2021-12-28T09:04:17Z</time>
      </trkpt>
      <trkpt lat="43.2471" lon="6.28128">
        <ele>258.6</ele>
        <time>2021-12-28T09:04:21Z</time>
      </trkpt>
      <trkpt lat="43.24715" lon="6.28123">
        <ele>259</ele>
        <time>2021-12-28T09:04:25Z</time>
      </trkpt>
      <trkpt lat="43.2472" lon="6.28119">
        <ele>259</ele>
        <time>2021-12-28T09:04:29Z</time>
      </trkpt>
      <trkpt lat="43.24726" lon="6.28116">
        <ele>259.6</ele>
        <time>2021-12-28T09:04:33Z</time>
      </trkpt>
      <trkpt lat="43.24732" lon="6.28115">
        <ele>261.4</ele>
        <time>2021-12-28T09:04:37Z</time>
      </trkpt>
      <trkpt lat="43.24737" lon="6.28115">
        <ele>262.2</ele>
        <time>2021-12-28T09:04:41Z</time>
      </trkpt>
      <trkpt lat="43.24742" lon="6.28109">
        <ele>262.2</ele>
        <time>2021-12-28T09:04:45Z</time>
      </trkpt>
      <trkpt lat="43.24743" lon="6.28101">
        <ele>262.8</ele>
        <time>2021-12-28T09:04:49Z</time>
      </trkpt>
      <trkpt lat="43.24742" lon="6.28094">
        <ele>264</ele>
        <time>2021-12-28T09:04:53Z</time>
      </trkpt>
      <trkpt lat="43.2474" lon="6.28086">
        <ele>264.6</ele>
        <time>2021-12-28T09:04:57Z</time>
      </trkpt>
      <trkpt lat="43.2474" lon="6.28078">
        <ele>264.8</ele>
        <time>2021-12-28T09:05:01Z</time>
      </trkpt>
      <trkpt lat="43.24742" lon="6.28071">
        <ele>265.4</ele>
        <time>2021-12-28T09:05:05Z</time>
      </trkpt>
      <trkpt lat="43.24744" lon="6.28063">
        <ele>265.6</ele>
        <time>2021-12-28T09:05:09Z</time>
      </trkpt>
      <trkpt lat="43.24747" lon="6.28056">
        <ele>266</ele>
        <time>2021-12-28T09:05:13Z</time>
      </trkpt>
      <trkpt lat="43.2475" lon="6.28049">
        <ele>266.6</ele>
        <time>2021-12-28T09:05:17Z</time>
      </trkpt>
      <trkpt lat="43.24754" lon="6.28042">
        <ele>267.4</ele>
        <time>2021-12-28T09:05:21Z</time>
      </trkpt>
      <trkpt lat="43.24758" lon="6.28036">
        <ele>267</ele>
        <time>2021-12-28T09:05:25Z</time>
      </trkpt>
      <trkpt lat="43.24763" lon="6.28027">
        <ele>267.4</ele>
        <time>2021-12-28T09:05:29Z</time>
      </trkpt>
      <trkpt lat="43.24767" lon="6.28018">
        <ele>268.4</ele>
        <time>2021-12-28T09:05:33Z</time>
      </trkpt>
      <trkpt lat="43.24771" lon="6.28011">
        <ele>269.2</ele>
        <time>2021-12-28T09:05:37Z</time>
      </trkpt>
      <trkpt lat="43.24774" lon="6.28004">
        <ele>269.4</ele>
        <time>2021-12-28T09:05:41Z</time>
      </trkpt>
      <trkpt lat="43.24778" lon="6.27998">
        <ele>269.8</ele>
        <time>2021-12-28T09:05:45Z</time>
      </trkpt>
      <trkpt lat="43.24782" lon="6.27989">
        <ele>270</ele>
        <time>2021-12-28T09:05:49Z</time>
      </trkpt>
      <trkpt lat="43.24785" lon="6.27983">
        <ele>271.2</ele>
        <time>2021-12-28T09:05:53Z</time>
      </trkpt>
      <trkpt lat="43.24788" lon="6.27977">
        <ele>271.6</ele>
        <time>2021-12-28T09:05:57Z</time>
      </trkpt>
      <trkpt lat="43.2479" lon="6.27971">
        <ele>272.4</ele>
        <time>2021-12-28T09:06:01Z</time>
      </trkpt>
      <trkpt lat="43.24795" lon="6.27968">
        <ele>273.4</ele>
        <time>2021-12-28T09:06:05Z</time>
      </trkpt>
      <trkpt lat="43.24798" lon="6.27964">
        <ele>273.6</ele>
        <time>2021-12-28T09:06:09Z</time>
      </trkpt>
      <trkpt lat="43.24802" lon="6.27959">
        <ele>274.4</ele>
        <time>2021-12-28T09:06:13Z</time>
      </trkpt>
      <trkpt lat="43.24806" lon="6.27957">
        <ele>274.8</ele>
        <time>2021-12-28T09:06:17Z</time>
      </trkpt>
      <trkpt lat="43.24811" lon="6.27954">
        <ele>275.8</ele>
        <time>2021-12-28T09:06:21Z</time>
      </trkpt>
      <trkpt lat="43.24815" lon="6.27953">
        <ele>276.2</ele>
        <time>2021-12-28T09:06:25Z</time>
      </trkpt>
      <trkpt lat="43.24821" lon="6.2795">
        <ele>276.4</ele>
        <time>2021-12-28T09:06:29Z</time>
      </trkpt>
      <trkpt lat="43.24825" lon="6.27948">
        <ele>277.2</ele>
        <time>2021-12-28T09:06:33Z</time>
      </trkpt>
      <trkpt lat="43.24829" lon="6.27945">
        <ele>277.8</ele>
        <time>2021-12-28T09:06:37Z</time>
      </trkpt>
      <trkpt lat="43.24832" lon="6.27943">
        <ele>278.4</ele>
        <time>2021-12-28T09:06:41Z</time>
      </trkpt>
      <trkpt lat="43.24837" lon="6.27942">
        <ele>279</ele>
        <time>2021-12-28T09:06:45Z</time>
      </trkpt>
      <trkpt lat="43.24842" lon="6.2794">
        <ele>279.8</ele>
        <time>2021-12-28T09:06:49Z</time>
      </trkpt>
      <trkpt lat="43.24845" lon="6.27935">
        <ele>280</ele>
        <time>2021-12-28T09:06:53Z</time>
      </trkpt>
      <trkpt lat="43.24846" lon="6.27928">
        <ele>280.4</ele>
        <time>2021-12-28T09:06:57Z</time>
      </trkpt>
      <trkpt lat="43.24841" lon="6.27922">
        <ele>280.2</ele>
        <time>2021-12-28T09:07:01Z</time>
      </trkpt>
      <trkpt lat="43.24834" lon="6.27919">
        <ele>281</ele>
        <time>2021-12-28T09:07:05Z</time>
      </trkpt>
      <trkpt lat="43.24827" lon="6.27917">
        <ele>281.2</ele>
        <time>2021-12-28T09:07:09Z</time>
      </trkpt>
      <trkpt lat="43.24822" lon="6.27913">
        <ele>282.4</ele>
        <time>2021-12-28T09:07:13Z</time>
      </trkpt>
      <trkpt lat="43.24819" lon="6.27905">
        <ele>281.8</ele>
        <time>2021-12-28T09:07:17Z</time>
      </trkpt>
      <trkpt lat="43.24817" lon="6.27896">
        <ele>283</ele>
        <time>2021-12-28T09:07:21Z</time>
      </trkpt>
      <trkpt lat="43.24816" lon="6.27885">
        <ele>282.8</ele>
        <time>2021-12-28T09:07:25Z</time>
      </trkpt>
      <trkpt lat="43.24815" lon="6.27877">
        <ele>283</ele>
        <time>2021-12-28T09:07:29Z</time>
      </trkpt>
      <trkpt lat="43.24814" lon="6.27869">
        <ele>283.6</ele>
        <time>2021-12-28T09:07:33Z</time>
      </trkpt>
      <trkpt lat="43.24813" lon="6.27861">
        <ele>285</ele>
        <time>2021-12-28T09:07:37Z</time>
      </trkpt>
      <trkpt lat="43.24812" lon="6.27854">
        <ele>285</ele>
        <time>2021-12-28T09:07:41Z</time>
      </trkpt>
      <trkpt lat="43.2481" lon="6.27847">
        <ele>285.6</ele>
        <time>2021-12-28T09:07:45Z</time>
      </trkpt>
      <trkpt lat="43.24808" lon="6.2784">
        <ele>286.2</ele>
        <time>2021-12-28T09:07:49Z</time>
      </trkpt>
      <trkpt lat="43.24806" lon="6.27834">
        <ele>287.2</ele>
        <time>2021-12-28T09:07:53Z</time>
      </trkpt>
      <trkpt lat="43.24807" lon="6.27827">
        <ele>286.4</ele>
        <time>2021-12-28T09:07:57Z</time>
      </trkpt>
      <trkpt lat="43.24804" lon="6.27819">
        <ele>287.6</ele>
        <time>2021-12-28T09:08:01Z</time>
      </trkpt>
      <trkpt lat="43.24803" lon="6.2781">
        <ele>288.2</ele>
        <time>2021-12-28T09:08:05Z</time>
      </trkpt>
      <trkpt lat="43.24802" lon="6.27803">
        <ele>288.8</ele>
        <time>2021-12-28T09:08:09Z</time>
      </trkpt>
      <trkpt lat="43.248" lon="6.27797">
        <ele>288.6</ele>
        <time>2021-12-28T09:08:13Z</time>
      </trkpt>
      <trkpt lat="43.24799" lon="6.2779">
        <ele>289.2</ele>
        <time>2021-12-28T09:08:17Z</time>
      </trkpt>
      <trkpt lat="43.24799" lon="6.27783">
        <ele>289.8</ele>
        <time>2021-12-28T09:08:21Z</time>
      </trkpt>
      <trkpt lat="43.24798" lon="6.27775">
        <ele>290</ele>
        <time>2021-12-28T09:08:25Z</time>
      </trkpt>
      <trkpt lat="43.24795" lon="6.27768">
        <ele>291</ele>
        <time>2021-12-28T09:08:29Z</time>
      </trkpt>
      <trkpt lat="43.24791" lon="6.27767">
        <ele>290.8</ele>
        <time>2021-12-28T09:08:33Z</time>
      </trkpt>
      <trkpt lat="43.24785" lon="6.27771">
        <ele>291</ele>
        <time>2021-12-28T09:08:37Z</time>
      </trkpt>
      <trkpt lat="43.24781" lon="6.2778">
        <ele>291.8</ele>
        <time>2021-12-28T09:08:41Z</time>
      </trkpt>
      <trkpt lat="43.24778" lon="6.27788">
        <ele>292.2</ele>
        <time>2021-12-28T09:08:45Z</time>
      </trkpt>
      <trkpt lat="43.24776" lon="6.27795">
        <ele>293.2</ele>
        <time>2021-12-28T09:08:49Z</time>
      </trkpt>
      <trkpt lat="43.24774" lon="6.27801">
        <ele>295</ele>
        <time>2021-12-28T09:08:53Z</time>
      </trkpt>
      <trkpt lat="43.24771" lon="6.27807">
        <ele>295.2</ele>
        <time>2021-12-28T09:08:57Z</time>
      </trkpt>
      <trkpt lat="43.24768" lon="6.27816">
        <ele>296.2</ele>
        <time>2021-12-28T09:09:01Z</time>
      </trkpt>
      <trkpt lat="43.24765" lon="6.27824">
        <ele>296</ele>
        <time>2021-12-28T09:09:05Z</time>
      </trkpt>
      <trkpt lat="43.24763" lon="6.27831">
        <ele>296.6</ele>
        <time>2021-12-28T09:09:09Z</time>
      </trkpt>
      <trkpt lat="43.2476" lon="6.27838">
        <ele>298</ele>
        <time>2021-12-28T09:09:13Z</time>
      </trkpt>
      <trkpt lat="43.24758" lon="6.27846">
        <ele>297.4</ele>
        <time>2021-12-28T09:09:17Z</time>
      </trkpt>
      <trkpt lat="43.24755" lon="6.27853">
        <ele>298.2</ele>
        <time>2021-12-28T09:09:21Z</time>
      </trkpt>
      <trkpt lat="43.24752" lon="6.27859">
        <ele>298.6</ele>
        <time>2021-12-28T09:09:25Z</time>
      </trkpt>
      <trkpt lat="43.24747" lon="6.27867">
        <ele>299</ele>
        <time>2021-12-28T09:09:29Z</time>
      </trkpt>
      <trkpt lat="43.24742" lon="6.27872">
        <ele>300.6</ele>
        <time>2021-12-28T09:09:33Z</time>
      </trkpt>
      <trkpt lat="43.24739" lon="6.27878">
        <ele>300.8</ele>
        <time>2021-12-28T09:09:37Z</time>
      </trkpt>
      <trkpt lat="43.24735" lon="6.27883">
        <ele>301.6</ele>
        <time>2021-12-28T09:09:41Z</time>
      </trkpt>
      <trkpt lat="43.24731" lon="6.27888">
        <ele>301.4</ele>
        <time>2021-12-28T09:09:45Z</time>
      </trkpt>
      <trkpt lat="43.24727" lon="6.27893">
        <ele>301.8</ele>
        <time>2021-12-28T09:09:49Z</time>
      </trkpt>
      <trkpt lat="43.24723" lon="6.27897">
        <ele>302.6</ele>
        <time>2021-12-28T09:09:53Z</time>
      </trkpt>
      <trkpt lat="43.24718" lon="6.27901">
        <ele>303.2</ele>
        <time>2021-12-28T09:09:57Z</time>
      </trkpt>
      <trkpt lat="43.24714" lon="6.27904">
        <ele>303.4</ele>
        <time>2021-12-28T09:10:01Z</time>
      </trkpt>
      <trkpt lat="43.24709" lon="6.27907">
        <ele>304.6</ele>
        <time>2021-12-28T09:10:05Z</time>
      </trkpt>
      <trkpt lat="43.24704" lon="6.2791">
        <ele>304.8</ele>
        <time>2021-12-28T09:10:09Z</time>
      </trkpt>
      <trkpt lat="43.24699" lon="6.27912">
        <ele>305.4</ele>
        <time>2021-12-28T09:10:13Z</time>
      </trkpt>
      <trkpt lat="43.24692" lon="6.27915">
        <ele>305.4</ele>
        <time>2021-12-28T09:10:17Z</time>
      </trkpt>
      <trkpt lat="43.24686" lon="6.27918">
        <ele>306.4</ele>
        <time>2021-12-28T09:10:21Z</time>
      </trkpt>
      <trkpt lat="43.2468" lon="6.27921">
        <ele>306.4</ele>
        <time>2021-12-28T09:10:25Z</time>
      </trkpt>
      <trkpt lat="43.24674" lon="6.27924">
        <ele>307.2</ele>
        <time>2021-12-28T09:10:29Z</time>
      </trkpt>
      <trkpt lat="43.24668" lon="6.27927">
        <ele>307.6</ele>
        <time>2021-12-28T09:10:33Z</time>
      </trkpt>
      <trkpt lat="43.24663" lon="6.27929">
        <ele>308.2</ele>
        <time>2021-12-28T09:10:37Z</time>
      </trkpt>
      <trkpt lat="43.24658" lon="6.27931">
        <ele>308.6</ele>
        <time>2021-12-28T09:10:41Z</time>
      </trkpt>
      <trkpt lat="43.24654" lon="6.27935">
        <ele>309.6</ele>
        <time>2021-12-28T09:10:45Z</time>
      </trkpt>
      <trkpt lat="43.24649" lon="6.27938">
        <ele>309.4</ele>
        <time>2021-12-28T09:10:49Z</time>
      </trkpt>
      <trkpt lat="43.24642" lon="6.27943">
        <ele>310.8</ele>
        <time>2021-12-28T09:10:53Z</time>
      </trkpt>
      <trkpt lat="43.24637" lon="6.27947">
        <ele>311</ele>
        <time>2021-12-28T09:10:57Z</time>
      </trkpt>
      <trkpt lat="43.24632" lon="6.2795">
        <ele>312.2</ele>
        <time>2021-12-28T09:11:01Z</time>
      </trkpt>
      <trkpt lat="43.24626" lon="6.27952">
        <ele>312.2</ele>
        <time>2021-12-28T09:11:05Z</time>
      </trkpt>
      <trkpt lat="43.24621" lon="6.27951">
        <ele>313.4</ele>
        <time>2021-12-28T09:11:09Z</time>
      </trkpt>
      <trkpt lat="43.24616" lon="6.27949">
        <ele>314</ele>
        <time>2021-12-28T09:11:13Z</time>
      </trkpt>
      <trkpt lat="43.24611" lon="6.27944">
        <ele>314.2</ele>
        <time>2021-12-28T09:11:17Z</time>
      </trkpt>
      <trkpt lat="43.24609" lon="6.27936">
        <ele>315</ele>
        <time>2021-12-28T09:11:21Z</time>
      </trkpt>
      <trkpt lat="43.24608" lon="6.27929">
        <ele>315.2</ele>
        <time>2021-12-28T09:11:25Z</time>
      </trkpt>
      <trkpt lat="43.24606" lon="6.27922">
        <ele>316.2</ele>
        <time>2021-12-28T09:11:29Z</time>
      </trkpt>
      <trkpt lat="43.24605" lon="6.27914">
        <ele>316.2</ele>
        <time>2021-12-28T09:11:33Z</time>
      </trkpt>
      <trkpt lat="43.24603" lon="6.27905">
        <ele>316.8</ele>
        <time>2021-12-28T09:11:37Z</time>
      </trkpt>
      <trkpt lat="43.246" lon="6.27897">
        <ele>318.2</ele>
        <time>2021-12-28T09:11:41Z</time>
      </trkpt>
      <trkpt lat="43.24597" lon="6.2789">
        <ele>318.4</ele>
        <time>2021-12-28T09:11:45Z</time>
      </trkpt>
      <trkpt lat="43.24595" lon="6.27883">
        <ele>318.8</ele>
        <time>2021-12-28T09:11:49Z</time>
      </trkpt>
      <trkpt lat="43.24592" lon="6.27877">
        <ele>318.8</ele>
        <time>2021-12-28T09:11:53Z</time>
      </trkpt>
      <trkpt lat="43.2459" lon="6.2787">
        <ele>319.4</ele>
        <time>2021-12-28T09:11:57Z</time>
      </trkpt>
      <trkpt lat="43.24587" lon="6.27864">
        <ele>320.2</ele>
        <time>2021-12-28T09:12:01Z</time>
      </trkpt>
      <trkpt lat="43.24583" lon="6.27858">
        <ele>320.6</ele>
        <time>2021-12-28T09:12:05Z</time>
      </trkpt>
      <trkpt lat="43.24579" lon="6.27852">
        <ele>321.2</ele>
        <time>2021-12-28T09:12:09Z</time>
      </trkpt>
      <trkpt lat="43.24576" lon="6.27846">
        <ele>321.2</ele>
        <time>2021-12-28T09:12:13Z</time>
      </trkpt>
      <trkpt lat="43.24573" lon="6.27839">
        <ele>322.2</ele>
        <time>2021-12-28T09:12:17Z</time>
      </trkpt>
      <trkpt lat="43.24571" lon="6.27831">
        <ele>322.4</ele>
        <time>2021-12-28T09:12:21Z</time>
      </trkpt>
      <trkpt lat="43.24569" lon="6.27823">
        <ele>323.2</ele>
        <time>2021-12-28T09:12:25Z</time>
      </trkpt>
      <trkpt lat="43.24568" lon="6.27815">
        <ele>323.2</ele>
        <time>2021-12-28T09:12:29Z</time>
      </trkpt>
      <trkpt lat="43.24569" lon="6.27807">
        <ele>322.6</ele>
        <time>2021-12-28T09:12:33Z</time>
      </trkpt>
      <trkpt lat="43.24571" lon="6.27796">
        <ele>324</ele>
        <time>2021-12-28T09:12:37Z</time>
      </trkpt>
      <trkpt lat="43.24572" lon="6.27788">
        <ele>324</ele>
        <time>2021-12-28T09:12:41Z</time>
      </trkpt>
      <trkpt lat="43.24573" lon="6.27779">
        <ele>325.2</ele>
        <time>2021-12-28T09:12:45Z</time>
      </trkpt>
      <trkpt lat="43.24574" lon="6.2777">
        <ele>324.8</ele>
        <time>2021-12-28T09:12:49Z</time>
      </trkpt>
      <trkpt lat="43.24575" lon="6.27761">
        <ele>325.8</ele>
        <time>2021-12-28T09:12:53Z</time>
      </trkpt>
      <trkpt lat="43.24576" lon="6.27753">
        <ele>326.8</ele>
        <time>2021-12-28T09:12:57Z</time>
      </trkpt>
      <trkpt lat="43.24576" lon="6.27744">
        <ele>327.2</ele>
        <time>2021-12-28T09:13:01Z</time>
      </trkpt>
      <trkpt lat="43.24576" lon="6.27736">
        <ele>327.6</ele>
        <time>2021-12-28T09:13:05Z</time>
      </trkpt>
      <trkpt lat="43.24577" lon="6.27728">
        <ele>328.6</ele>
        <time>2021-12-28T09:13:09Z</time>
      </trkpt>
      <trkpt lat="43.24578" lon="6.27719">
        <ele>328.8</ele>
        <time>2021-12-28T09:13:13Z</time>
      </trkpt>
      <trkpt lat="43.2458" lon="6.27711">
        <ele>329.8</ele>
        <time>2021-12-28T09:13:17Z</time>
      </trkpt>
      <trkpt lat="43.24581" lon="6.27704">
        <ele>330.4</ele>
        <time>2021-12-28T09:13:21Z</time>
      </trkpt>
      <trkpt lat="43.24583" lon="6.27696">
        <ele>330.8</ele>
        <time>2021-12-28T09:13:25Z</time>
      </trkpt>
      <trkpt lat="43.24584" lon="6.27688">
        <ele>330.8</ele>
        <time>2021-12-28T09:13:29Z</time>
      </trkpt>
      <trkpt lat="43.24587" lon="6.27679">
        <ele>331</ele>
        <time>2021-12-28T09:13:33Z</time>
      </trkpt>
      <trkpt lat="43.24589" lon="6.2767">
        <ele>331.8</ele>
        <time>2021-12-28T09:13:37Z</time>
      </trkpt>
      <trkpt lat="43.24591" lon="6.27662">
        <ele>333.2</ele>
        <time>2021-12-28T09:13:41Z</time>
      </trkpt>
      <trkpt lat="43.24594" lon="6.27655">
        <ele>333.6</ele>
        <time>2021-12-28T09:13:45Z</time>
      </trkpt>
      <trkpt lat="43.24596" lon="6.27648">
        <ele>333.6</ele>
        <time>2021-12-28T09:13:49Z</time>
      </trkpt>
      <trkpt lat="43.24599" lon="6.2764">
        <ele>334</ele>
        <time>2021-12-28T09:13:53Z</time>
      </trkpt>
      <trkpt lat="43.24603" lon="6.27633">
        <ele>335.4</ele>
        <time>2021-12-28T09:13:57Z</time>
      </trkpt>
      <trkpt lat="43.24606" lon="6.27626">
        <ele>334.8</ele>
        <time>2021-12-28T09:14:01Z</time>
      </trkpt>
      <trkpt lat="43.24611" lon="6.27619">
        <ele>335.2</ele>
        <time>2021-12-28T09:14:05Z</time>
      </trkpt>
      <trkpt lat="43.24615" lon="6.27613">
        <ele>335.8</ele>
        <time>2021-12-28T09:14:09Z</time>
      </trkpt>
      <trkpt lat="43.24618" lon="6.27607">
        <ele>335.8</ele>
        <time>2021-12-28T09:14:13Z</time>
      </trkpt>
      <trkpt lat="43.24622" lon="6.276">
        <ele>336.6</ele>
        <time>2021-12-28T09:14:17Z</time>
      </trkpt>
      <trkpt lat="43.24627" lon="6.27595">
        <ele>337.2</ele>
        <time>2021-12-28T09:14:21Z</time>
      </trkpt>
      <trkpt lat="43.24632" lon="6.27588">
        <ele>338.2</ele>
        <time>2021-12-28T09:14:25Z</time>
      </trkpt>
      <trkpt lat="43.24638" lon="6.27581">
        <ele>338.6</ele>
        <time>2021-12-28T09:14:29Z</time>
      </trkpt>
      <trkpt lat="43.24643" lon="6.27576">
        <ele>339.8</ele>
        <time>2021-12-28T09:14:33Z</time>
      </trkpt>
      <trkpt lat="43.24648" lon="6.27571">
        <ele>340.6</ele>
        <time>2021-12-28T09:14:37Z</time>
      </trkpt>
      <trkpt lat="43.24653" lon="6.27566">
        <ele>340.6</ele>
        <time>2021-12-28T09:14:41Z</time>
      </trkpt>
      <trkpt lat="43.24658" lon="6.2756">
        <ele>340.8</ele>
        <time>2021-12-28T09:14:45Z</time>
      </trkpt>
      <trkpt lat="43.24663" lon="6.27555">
        <ele>342</ele>
        <time>2021-12-28T09:14:49Z</time>
      </trkpt>
      <trkpt lat="43.24668" lon="6.2755">
        <ele>342.2</ele>
        <time>2021-12-28T09:14:53Z</time>
      </trkpt>
      <trkpt lat="43.24672" lon="6.27544">
        <ele>342.6</ele>
        <time>2021-12-28T09:14:57Z</time>
      </trkpt>
      <trkpt lat="43.24676" lon="6.27537">
        <ele>342.6</ele>
        <time>2021-12-28T09:15:01Z</time>
      </trkpt>
      <trkpt lat="43.24679" lon="6.27528">
        <ele>343.2</ele>
        <time>2021-12-28T09:15:05Z</time>
      </trkpt>
      <trkpt lat="43.24681" lon="6.2752">
        <ele>344</ele>
        <time>2021-12-28T09:15:09Z</time>
      </trkpt>
      <trkpt lat="43.24683" lon="6.27513">
        <ele>344.8</ele>
        <time>2021-12-28T09:15:13Z</time>
      </trkpt>
      <trkpt lat="43.24685" lon="6.27506">
        <ele>344.2</ele>
        <time>2021-12-28T09:15:17Z</time>
      </trkpt>
      <trkpt lat="43.24686" lon="6.27498">
        <ele>345.2</ele>
        <time>2021-12-28T09:15:21Z</time>
      </trkpt>
      <trkpt lat="43.24687" lon="6.27491">
        <ele>345.6</ele>
        <time>2021-12-28T09:15:25Z</time>
      </trkpt>
      <trkpt lat="43.24689" lon="6.27481">
        <ele>346.4</ele>
        <time>2021-12-28T09:15:29Z</time>
      </trkpt>
      <trkpt lat="43.2469" lon="6.27473">
        <ele>346.8</ele>
        <time>2021-12-28T09:15:33Z</time>
      </trkpt>
      <trkpt lat="43.24692" lon="6.27466">
        <ele>347.6</ele>
        <time>2021-12-28T09:15:37Z</time>
      </trkpt>
      <trkpt lat="43.24694" lon="6.27458">
        <ele>348.2</ele>
        <time>2021-12-28T09:15:41Z</time>
      </trkpt>
      <trkpt lat="43.24696" lon="6.2745">
        <ele>349</ele>
        <time>2021-12-28T09:15:45Z</time>
      </trkpt>
      <trkpt lat="43.24699" lon="6.27444">
        <ele>349.8</ele>
        <time>2021-12-28T09:15:49Z</time>
      </trkpt>
      <trkpt lat="43.24702" lon="6.27437">
        <ele>349.8</ele>
        <time>2021-12-28T09:15:53Z</time>
      </trkpt>
      <trkpt lat="43.24706" lon="6.27431">
        <ele>350.4</ele>
        <time>2021-12-28T09:15:57Z</time>
      </trkpt>
      <trkpt lat="43.2471" lon="6.27425">
        <ele>351</ele>
        <time>2021-12-28T09:16:01Z</time>
      </trkpt>
      <trkpt lat="43.24714" lon="6.2742">
        <ele>351.2</ele>
        <time>2021-12-28T09:16:05Z</time>
      </trkpt>
      <trkpt lat="43.2472" lon="6.27412">
        <ele>352.4</ele>
        <time>2021-12-28T09:16:09Z</time>
      </trkpt>
      <trkpt lat="43.24724" lon="6.27406">
        <ele>353.2</ele>
        <time>2021-12-28T09:16:13Z</time>
      </trkpt>
      <trkpt lat="43.24728" lon="6.27399">
        <ele>353.6</ele>
        <time>2021-12-28T09:16:17Z</time>
      </trkpt>
      <trkpt lat="43.24732" lon="6.27393">
        <ele>353.6</ele>
        <time>2021-12-28T09:16:21Z</time>
      </trkpt>
      <trkpt lat="43.24736" lon="6.27387">
        <ele>354</ele>
        <time>2021-12-28T09:16:25Z</time>
      </trkpt>
      <trkpt lat="43.24741" lon="6.2738">
        <ele>354</ele>
        <time>2021-12-28T09:16:29Z</time>
      </trkpt>
      <trkpt lat="43.24744" lon="6.27373">
        <ele>354.6</ele>
        <time>2021-12-28T09:16:33Z</time>
      </trkpt>
      <trkpt lat="43.24747" lon="6.27365">
        <ele>355</ele>
        <time>2021-12-28T09:16:37Z</time>
      </trkpt>
      <trkpt lat="43.24747" lon="6.27355">
        <ele>356.4</ele>
        <time>2021-12-28T09:16:41Z</time>
      </trkpt>
      <trkpt lat="43.24746" lon="6.27347">
        <ele>356.4</ele>
        <time>2021-12-28T09:16:45Z</time>
      </trkpt>
      <trkpt lat="43.24745" lon="6.27338">
        <ele>357</ele>
        <time>2021-12-28T09:16:49Z</time>
      </trkpt>
      <trkpt lat="43.24744" lon="6.2733">
        <ele>357.4</ele>
        <time>2021-12-28T09:16:53Z</time>
      </trkpt>
      <trkpt lat="43.24742" lon="6.27323">
        <ele>357.8</ele>
        <time>2021-12-28T09:16:57Z</time>
      </trkpt>
      <trkpt lat="43.24741" lon="6.27315">
        <ele>358.4</ele>
        <time>2021-12-28T09:17:01Z</time>
      </trkpt>
      <trkpt lat="43.24739" lon="6.27308">
        <ele>359</ele>
        <time>2021-12-28T09:17:05Z</time>
      </trkpt>
      <trkpt lat="43.24737" lon="6.27302">
        <ele>359.2</ele>
        <time>2021-12-28T09:17:09Z</time>
      </trkpt>
      <trkpt lat="43.24736" lon="6.27295">
        <ele>360.4</ele>
        <time>2021-12-28T09:17:13Z</time>
      </trkpt>
      <trkpt lat="43.24735" lon="6.27287">
        <ele>361.8</ele>
        <time>2021-12-28T09:17:17Z</time>
      </trkpt>
      <trkpt lat="43.24733" lon="6.27279">
        <ele>362</ele>
        <time>2021-12-28T09:17:21Z</time>
      </trkpt>
      <trkpt lat="43.24732" lon="6.2727">
        <ele>362.6</ele>
        <time>2021-12-28T09:17:25Z</time>
      </trkpt>
      <trkpt lat="43.24733" lon="6.27262">
        <ele>363.4</ele>
        <time>2021-12-28T09:17:29Z</time>
      </trkpt>
      <trkpt lat="43.24733" lon="6.27255">
        <ele>363.8</ele>
        <time>2021-12-28T09:17:33Z</time>
      </trkpt>
      <trkpt lat="43.24736" lon="6.27243">
        <ele>363.4</ele>
        <time>2021-12-28T09:18:10Z</time>
      </trkpt>
      <trkpt lat="43.2474" lon="6.27236">
        <ele>363.8</ele>
        <time>2021-12-28T09:18:14Z</time>
      </trkpt>
      <trkpt lat="43.24744" lon="6.2723">
        <ele>364.6</ele>
        <time>2021-12-28T09:18:18Z</time>
      </trkpt>
      <trkpt lat="43.24747" lon="6.27223">
        <ele>365.8</ele>
        <time>2021-12-28T09:18:22Z</time>
      </trkpt>
      <trkpt lat="43.24751" lon="6.27217">
        <ele>366.2</ele>
        <time>2021-12-28T09:18:26Z</time>
      </trkpt>
      <trkpt lat="43.24754" lon="6.2721">
        <ele>366.4</ele>
        <time>2021-12-28T09:18:30Z</time>
      </trkpt>
      <trkpt lat="43.24759" lon="6.27204">
        <ele>366.8</ele>
        <time>2021-12-28T09:18:34Z</time>
      </trkpt>
      <trkpt lat="43.24763" lon="6.27198">
        <ele>368</ele>
        <time>2021-12-28T09:18:38Z</time>
      </trkpt>
      <trkpt lat="43.24767" lon="6.27192">
        <ele>368.6</ele>
        <time>2021-12-28T09:18:42Z</time>
      </trkpt>
      <trkpt lat="43.24772" lon="6.27187">
        <ele>369</ele>
        <time>2021-12-28T09:18:46Z</time>
      </trkpt>
      <trkpt lat="43.24776" lon="6.27183">
        <ele>369</ele>
        <time>2021-12-28T09:18:50Z</time>
      </trkpt>
      <trkpt lat="43.24781" lon="6.27178">
        <ele>369</ele>
        <time>2021-12-28T09:18:54Z</time>
      </trkpt>
      <trkpt lat="43.24788" lon="6.27172">
        <ele>369.4</ele>
        <time>2021-12-28T09:18:58Z</time>
      </trkpt>
      <trkpt lat="43.24794" lon="6.27168">
        <ele>370</ele>
        <time>2021-12-28T09:19:02Z</time>
      </trkpt>
      <trkpt lat="43.24799" lon="6.27164">
        <ele>370.6</ele>
        <time>2021-12-28T09:19:06Z</time>
      </trkpt>
      <trkpt lat="43.24804" lon="6.2716">
        <ele>371</ele>
        <time>2021-12-28T09:19:10Z</time>
      </trkpt>
      <trkpt lat="43.2481" lon="6.27156">
        <ele>371.8</ele>
        <time>2021-12-28T09:19:14Z</time>
      </trkpt>
      <trkpt lat="43.24813" lon="6.27152">
        <ele>372.4</ele>
        <time>2021-12-28T09:19:18Z</time>
      </trkpt>
      <trkpt lat="43.24818" lon="6.27144">
        <ele>373</ele>
        <time>2021-12-28T09:19:22Z</time>
      </trkpt>
      <trkpt lat="43.2482" lon="6.27136">
        <ele>373.8</ele>
        <time>2021-12-28T09:19:26Z</time>
      </trkpt>
      <trkpt lat="43.24823" lon="6.27128">
        <ele>373.8</ele>
        <time>2021-12-28T09:19:30Z</time>
      </trkpt>
      <trkpt lat="43.24824" lon="6.2712">
        <ele>374.4</ele>
        <time>2021-12-28T09:19:34Z</time>
      </trkpt>
      <trkpt lat="43.24825" lon="6.27111">
        <ele>374.4</ele>
        <time>2021-12-28T09:19:38Z</time>
      </trkpt>
      <trkpt lat="43.24825" lon="6.27103">
        <ele>375</ele>
        <time>2021-12-28T09:19:42Z</time>
      </trkpt>
      <trkpt lat="43.24825" lon="6.27094">
        <ele>375.6</ele>
        <time>2021-12-28T09:19:46Z</time>
      </trkpt>
      <trkpt lat="43.24826" lon="6.27086">
        <ele>376.2</ele>
        <time>2021-12-28T09:19:50Z</time>
      </trkpt>
      <trkpt lat="43.24826" lon="6.27078">
        <ele>377.2</ele>
        <time>2021-12-28T09:19:54Z</time>
      </trkpt>
      <trkpt lat="43.24828" lon="6.27071">
        <ele>378</ele>
        <time>2021-12-28T09:19:58Z</time>
      </trkpt>
      <trkpt lat="43.2483" lon="6.27061">
        <ele>378.2</ele>
        <time>2021-12-28T09:20:02Z</time>
      </trkpt>
      <trkpt lat="43.24834" lon="6.27055">
        <ele>378.8</ele>
        <time>2021-12-28T09:20:06Z</time>
      </trkpt>
      <trkpt lat="43.24837" lon="6.27048">
        <ele>378.8</ele>
        <time>2021-12-28T09:20:10Z</time>
      </trkpt>
      <trkpt lat="43.24841" lon="6.27043">
        <ele>380.2</ele>
        <time>2021-12-28T09:20:14Z</time>
      </trkpt>
      <trkpt lat="43.24845" lon="6.27038">
        <ele>380.6</ele>
        <time>2021-12-28T09:20:18Z</time>
      </trkpt>
      <trkpt lat="43.24851" lon="6.27034">
        <ele>381.6</ele>
        <time>2021-12-28T09:20:22Z</time>
      </trkpt>
      <trkpt lat="43.24856" lon="6.27029">
        <ele>382.4</ele>
        <time>2021-12-28T09:20:26Z</time>
      </trkpt>
      <trkpt lat="43.24861" lon="6.27023">
        <ele>382.6</ele>
        <time>2021-12-28T09:20:30Z</time>
      </trkpt>
      <trkpt lat="43.24865" lon="6.27019">
        <ele>383.2</ele>
        <time>2021-12-28T09:20:34Z</time>
      </trkpt>
      <trkpt lat="43.2487" lon="6.27014">
        <ele>383.6</ele>
        <time>2021-12-28T09:20:38Z</time>
      </trkpt>
      <trkpt lat="43.24874" lon="6.27008">
        <ele>384.2</ele>
        <time>2021-12-28T09:20:42Z</time>
      </trkpt>
      <trkpt lat="43.24879" lon="6.27005">
        <ele>385</ele>
        <time>2021-12-28T09:20:46Z</time>
      </trkpt>
      <trkpt lat="43.24883" lon="6.27">
        <ele>385.4</ele>
        <time>2021-12-28T09:20:50Z</time>
      </trkpt>
      <trkpt lat="43.24886" lon="6.26996">
        <ele>385.8</ele>
        <time>2021-12-28T09:20:54Z</time>
      </trkpt>
      <trkpt lat="43.24891" lon="6.26992">
        <ele>387</ele>
        <time>2021-12-28T09:20:58Z</time>
      </trkpt>
      <trkpt lat="43.24896" lon="6.26989">
        <ele>387.6</ele>
        <time>2021-12-28T09:21:02Z</time>
      </trkpt>
      <trkpt lat="43.249" lon="6.26984">
        <ele>388</ele>
        <time>2021-12-28T09:21:06Z</time>
      </trkpt>
      <trkpt lat="43.24904" lon="6.26982">
        <ele>389</ele>
        <time>2021-12-28T09:21:10Z</time>
      </trkpt>
      <trkpt lat="43.24908" lon="6.26979">
        <ele>389.8</ele>
        <time>2021-12-28T09:21:14Z</time>
      </trkpt>
      <trkpt lat="43.24912" lon="6.26975">
        <ele>390.2</ele>
        <time>2021-12-28T09:21:18Z</time>
      </trkpt>
      <trkpt lat="43.24916" lon="6.26971">
        <ele>391.2</ele>
        <time>2021-12-28T09:21:22Z</time>
      </trkpt>
      <trkpt lat="43.24921" lon="6.26968">
        <ele>391.8</ele>
        <time>2021-12-28T09:21:26Z</time>
      </trkpt>
      <trkpt lat="43.24927" lon="6.26966">
        <ele>392.2</ele>
        <time>2021-12-28T09:21:30Z</time>
      </trkpt>
      <trkpt lat="43.24931" lon="6.26964">
        <ele>393.4</ele>
        <time>2021-12-28T09:21:34Z</time>
      </trkpt>
      <trkpt lat="43.24936" lon="6.26962">
        <ele>394.6</ele>
        <time>2021-12-28T09:21:38Z</time>
      </trkpt>
      <trkpt lat="43.24939" lon="6.26957">
        <ele>394.6</ele>
        <time>2021-12-28T09:21:42Z</time>
      </trkpt>
      <trkpt lat="43.24944" lon="6.26956">
        <ele>396.4</ele>
        <time>2021-12-28T09:21:46Z</time>
      </trkpt>
      <trkpt lat="43.24948" lon="6.26954">
        <ele>397.2</ele>
        <time>2021-12-28T09:21:50Z</time>
      </trkpt>
      <trkpt lat="43.24953" lon="6.26952">
        <ele>397.4</ele>
        <time>2021-12-28T09:21:54Z</time>
      </trkpt>
      <trkpt lat="43.24957" lon="6.26952">
        <ele>398</ele>
        <time>2021-12-28T09:21:58Z</time>
      </trkpt>
      <trkpt lat="43.24962" lon="6.26949">
        <ele>398.6</ele>
        <time>2021-12-28T09:22:02Z</time>
      </trkpt>
      <trkpt lat="43.24966" lon="6.26947">
        <ele>399.6</ele>
        <time>2021-12-28T09:22:06Z</time>
      </trkpt>
      <trkpt lat="43.24971" lon="6.26946">
        <ele>400.2</ele>
        <time>2021-12-28T09:22:10Z</time>
      </trkpt>
      <trkpt lat="43.24972" lon="6.26931">
        <ele>401.8</ele>
        <time>2021-12-28T09:22:36Z</time>
      </trkpt>
      <trkpt lat="43.24971" lon="6.26925">
        <ele>402.4</ele>
        <time>2021-12-28T09:22:40Z</time>
      </trkpt>
      <trkpt lat="43.24969" lon="6.26921">
        <ele>403.2</ele>
        <time>2021-12-28T09:22:44Z</time>
      </trkpt>
      <trkpt lat="43.24967" lon="6.26916">
        <ele>403.2</ele>
        <time>2021-12-28T09:22:48Z</time>
      </trkpt>
      <trkpt lat="43.24964" lon="6.26911">
        <ele>403.8</ele>
        <time>2021-12-28T09:22:52Z</time>
      </trkpt>
      <trkpt lat="43.24961" lon="6.26905">
        <ele>404.2</ele>
        <time>2021-12-28T09:22:56Z</time>
      </trkpt>
      <trkpt lat="43.24958" lon="6.26901">
        <ele>405.2</ele>
        <time>2021-12-28T09:23:00Z</time>
      </trkpt>
      <trkpt lat="43.24955" lon="6.26896">
        <ele>405.6</ele>
        <time>2021-12-28T09:23:04Z</time>
      </trkpt>
      <trkpt lat="43.2495" lon="6.26891">
        <ele>406.4</ele>
        <time>2021-12-28T09:23:08Z</time>
      </trkpt>
      <trkpt lat="43.24946" lon="6.26887">
        <ele>407.2</ele>
        <time>2021-12-28T09:23:12Z</time>
      </trkpt>
      <trkpt lat="43.24943" lon="6.26882">
        <ele>407.4</ele>
        <time>2021-12-28T09:23:16Z</time>
      </trkpt>
      <trkpt lat="43.24938" lon="6.26878">
        <ele>408</ele>
        <time>2021-12-28T09:23:20Z</time>
      </trkpt>
      <trkpt lat="43.24934" lon="6.26874">
        <ele>408.4</ele>
        <time>2021-12-28T09:23:24Z</time>
      </trkpt>
      <trkpt lat="43.24931" lon="6.2687">
        <ele>409.2</ele>
        <time>2021-12-28T09:23:28Z</time>
      </trkpt>
      <trkpt lat="43.24927" lon="6.26866">
        <ele>409.6</ele>
        <time>2021-12-28T09:23:32Z</time>
      </trkpt>
      <trkpt lat="43.24923" lon="6.26862">
        <ele>410.6</ele>
        <time>2021-12-28T09:23:36Z</time>
      </trkpt>
      <trkpt lat="43.24918" lon="6.26858">
        <ele>410.2</ele>
        <time>2021-12-28T09:23:40Z</time>
      </trkpt>
      <trkpt lat="43.24913" lon="6.26852">
        <ele>411.2</ele>
        <time>2021-12-28T09:23:44Z</time>
      </trkpt>
      <trkpt lat="43.24909" lon="6.26848">
        <ele>411.4</ele>
        <time>2021-12-28T09:23:48Z</time>
      </trkpt>
      <trkpt lat="43.24906" lon="6.26843">
        <ele>411.8</ele>
        <time>2021-12-28T09:23:52Z</time>
      </trkpt>
      <trkpt lat="43.24904" lon="6.26838">
        <ele>412.4</ele>
        <time>2021-12-28T09:23:56Z</time>
      </trkpt>
      <trkpt lat="43.24904" lon="6.26831">
        <ele>413</ele>
        <time>2021-12-28T09:24:00Z</time>
      </trkpt>
      <trkpt lat="43.24907" lon="6.26825">
        <ele>413.8</ele>
        <time>2021-12-28T09:24:04Z</time>
      </trkpt>
      <trkpt lat="43.2491" lon="6.26821">
        <ele>413.8</ele>
        <time>2021-12-28T09:24:08Z</time>
      </trkpt>
      <trkpt lat="43.24912" lon="6.26814">
        <ele>414.2</ele>
        <time>2021-12-28T09:24:12Z</time>
      </trkpt>
      <trkpt lat="43.24915" lon="6.26808">
        <ele>415</ele>
        <time>2021-12-28T09:24:16Z</time>
      </trkpt>
      <trkpt lat="43.24918" lon="6.26803">
        <ele>415.2</ele>
        <time>2021-12-28T09:24:20Z</time>
      </trkpt>
      <trkpt lat="43.24921" lon="6.26798">
        <ele>415.6</ele>
        <time>2021-12-28T09:24:24Z</time>
      </trkpt>
      <trkpt lat="43.24924" lon="6.26792">
        <ele>415.8</ele>
        <time>2021-12-28T09:24:28Z</time>
      </trkpt>
      <trkpt lat="43.24926" lon="6.26786">
        <ele>416.2</ele>
        <time>2021-12-28T09:24:32Z</time>
      </trkpt>
      <trkpt lat="43.24928" lon="6.2678">
        <ele>416.8</ele>
        <time>2021-12-28T09:24:36Z</time>
      </trkpt>
      <trkpt lat="43.24929" lon="6.26774">
        <ele>417.2</ele>
        <time>2021-12-28T09:24:40Z</time>
      </trkpt>
      <trkpt lat="43.24929" lon="6.26768">
        <ele>417.8</ele>
        <time>2021-12-28T09:24:44Z</time>
      </trkpt>
      <trkpt lat="43.2493" lon="6.2676">
        <ele>418</ele>
        <time>2021-12-28T09:24:48Z</time>
      </trkpt>
      <trkpt lat="43.24929" lon="6.26752">
        <ele>419</ele>
        <time>2021-12-28T09:24:52Z</time>
      </trkpt>
      <trkpt lat="43.24927" lon="6.26745">
        <ele>419.4</ele>
        <time>2021-12-28T09:24:56Z</time>
      </trkpt>
      <trkpt lat="43.24925" lon="6.26738">
        <ele>419.8</ele>
        <time>2021-12-28T09:25:00Z</time>
      </trkpt>
      <trkpt lat="43.24922" lon="6.26732">
        <ele>420.4</ele>
        <time>2021-12-28T09:25:04Z</time>
      </trkpt>
      <trkpt lat="43.2492" lon="6.26726">
        <ele>420.6</ele>
        <time>2021-12-28T09:25:08Z</time>
      </trkpt>
      <trkpt lat="43.24918" lon="6.2672">
        <ele>421.2</ele>
        <time>2021-12-28T09:25:12Z</time>
      </trkpt>
      <trkpt lat="43.24916" lon="6.26714">
        <ele>421.6</ele>
        <time>2021-12-28T09:25:16Z</time>
      </trkpt>
      <trkpt lat="43.24914" lon="6.26707">
        <ele>421.4</ele>
        <time>2021-12-28T09:25:20Z</time>
      </trkpt>
      <trkpt lat="43.24911" lon="6.26702">
        <ele>422.6</ele>
        <time>2021-12-28T09:25:24Z</time>
      </trkpt>
      <trkpt lat="43.2491" lon="6.26696">
        <ele>424</ele>
        <time>2021-12-28T09:25:28Z</time>
      </trkpt>
      <trkpt lat="43.24908" lon="6.2669">
        <ele>424</ele>
        <time>2021-12-28T09:25:32Z</time>
      </trkpt>
      <trkpt lat="43.24906" lon="6.26683">
        <ele>424</ele>
        <time>2021-12-28T09:25:36Z</time>
      </trkpt>
      <trkpt lat="43.24904" lon="6.26676">
        <ele>424.6</ele>
        <time>2021-12-28T09:25:40Z</time>
      </trkpt>
      <trkpt lat="43.24903" lon="6.2667">
        <ele>425.4</ele>
        <time>2021-12-28T09:25:44Z</time>
      </trkpt>
      <trkpt lat="43.24902" lon="6.26664">
        <ele>426</ele>
        <time>2021-12-28T09:25:48Z</time>
      </trkpt>
      <trkpt lat="43.24901" lon="6.26658">
        <ele>427.2</ele>
        <time>2021-12-28T09:25:52Z</time>
      </trkpt>
      <trkpt lat="43.249" lon="6.26652">
        <ele>427.2</ele>
        <time>2021-12-28T09:25:56Z</time>
      </trkpt>
      <trkpt lat="43.24899" lon="6.26646">
        <ele>427.4</ele>
        <time>2021-12-28T09:26:00Z</time>
      </trkpt>
      <trkpt lat="43.24899" lon="6.26638">
        <ele>428</ele>
        <time>2021-12-28T09:26:04Z</time>
      </trkpt>
      <trkpt lat="43.24899" lon="6.26632">
        <ele>428.4</ele>
        <time>2021-12-28T09:26:08Z</time>
      </trkpt>
      <trkpt lat="43.24898" lon="6.26626">
        <ele>429</ele>
        <time>2021-12-28T09:26:12Z</time>
      </trkpt>
      <trkpt lat="43.24898" lon="6.26618">
        <ele>429</ele>
        <time>2021-12-28T09:26:16Z</time>
      </trkpt>
      <trkpt lat="43.24899" lon="6.26609">
        <ele>429.6</ele>
        <time>2021-12-28T09:26:20Z</time>
      </trkpt>
      <trkpt lat="43.24901" lon="6.26604">
        <ele>430.4</ele>
        <time>2021-12-28T09:26:24Z</time>
      </trkpt>
      <trkpt lat="43.24903" lon="6.26598">
        <ele>430.8</ele>
        <time>2021-12-28T09:26:28Z</time>
      </trkpt>
      <trkpt lat="43.24905" lon="6.26592">
        <ele>431.6</ele>
        <time>2021-12-28T09:26:32Z</time>
      </trkpt>
      <trkpt lat="43.24908" lon="6.26587">
        <ele>432</ele>
        <time>2021-12-28T09:26:36Z</time>
      </trkpt>
      <trkpt lat="43.24912" lon="6.26583">
        <ele>433</ele>
        <time>2021-12-28T09:26:40Z</time>
      </trkpt>
      <trkpt lat="43.24916" lon="6.26579">
        <ele>433.6</ele>
        <time>2021-12-28T09:26:44Z</time>
      </trkpt>
      <trkpt lat="43.2492" lon="6.26576">
        <ele>434.2</ele>
        <time>2021-12-28T09:26:48Z</time>
      </trkpt>
      <trkpt lat="43.24924" lon="6.26574">
        <ele>434.6</ele>
        <time>2021-12-28T09:26:52Z</time>
      </trkpt>
      <trkpt lat="43.24929" lon="6.26572">
        <ele>435.4</ele>
        <time>2021-12-28T09:26:56Z</time>
      </trkpt>
      <trkpt lat="43.24933" lon="6.2657">
        <ele>436</ele>
        <time>2021-12-28T09:27:00Z</time>
      </trkpt>
      <trkpt lat="43.24937" lon="6.26569">
        <ele>436.8</ele>
        <time>2021-12-28T09:27:04Z</time>
      </trkpt>
      <trkpt lat="43.24942" lon="6.26568">
        <ele>437.4</ele>
        <time>2021-12-28T09:27:08Z</time>
      </trkpt>
      <trkpt lat="43.24947" lon="6.26567">
        <ele>438.2</ele>
        <time>2021-12-28T09:27:12Z</time>
      </trkpt>
      <trkpt lat="43.24951" lon="6.26566">
        <ele>438.8</ele>
        <time>2021-12-28T09:27:16Z</time>
      </trkpt>
      <trkpt lat="43.24955" lon="6.26565">
        <ele>438.2</ele>
        <time>2021-12-28T09:27:20Z</time>
      </trkpt>
      <trkpt lat="43.24961" lon="6.26564">
        <ele>439.4</ele>
        <time>2021-12-28T09:27:24Z</time>
      </trkpt>
      <trkpt lat="43.24966" lon="6.26563">
        <ele>439.8</ele>
        <time>2021-12-28T09:27:28Z</time>
      </trkpt>
      <trkpt lat="43.24971" lon="6.26562">
        <ele>440.4</ele>
        <time>2021-12-28T09:27:32Z</time>
      </trkpt>
      <trkpt lat="43.24975" lon="6.26562">
        <ele>441.2</ele>
        <time>2021-12-28T09:27:36Z</time>
      </trkpt>
      <trkpt lat="43.24979" lon="6.26561">
        <ele>441.4</ele>
        <time>2021-12-28T09:27:40Z</time>
      </trkpt>
      <trkpt lat="43.24983" lon="6.26559">
        <ele>442</ele>
        <time>2021-12-28T09:27:44Z</time>
      </trkpt>
      <trkpt lat="43.24988" lon="6.26559">
        <ele>442.8</ele>
        <time>2021-12-28T09:27:48Z</time>
      </trkpt>
      <trkpt lat="43.24993" lon="6.26558">
        <ele>442.8</ele>
        <time>2021-12-28T09:27:52Z</time>
      </trkpt>
      <trkpt lat="43.24996" lon="6.26556">
        <ele>444.2</ele>
        <time>2021-12-28T09:27:56Z</time>
      </trkpt>
      <trkpt lat="43.25" lon="6.26555">
        <ele>444.6</ele>
        <time>2021-12-28T09:28:00Z</time>
      </trkpt>
      <trkpt lat="43.25004" lon="6.26553">
        <ele>444.6</ele>
        <time>2021-12-28T09:28:04Z</time>
      </trkpt>
      <trkpt lat="43.2501" lon="6.26551">
        <ele>445.4</ele>
        <time>2021-12-28T09:28:08Z</time>
      </trkpt>
      <trkpt lat="43.25015" lon="6.26549">
        <ele>446.2</ele>
        <time>2021-12-28T09:28:12Z</time>
      </trkpt>
      <trkpt lat="43.25019" lon="6.26548">
        <ele>446.6</ele>
        <time>2021-12-28T09:28:16Z</time>
      </trkpt>
      <trkpt lat="43.25023" lon="6.26546">
        <ele>447.4</ele>
        <time>2021-12-28T09:28:20Z</time>
      </trkpt>
      <trkpt lat="43.25027" lon="6.26545">
        <ele>447.6</ele>
        <time>2021-12-28T09:28:24Z</time>
      </trkpt>
      <trkpt lat="43.25031" lon="6.26543">
        <ele>448.4</ele>
        <time>2021-12-28T09:28:28Z</time>
      </trkpt>
      <trkpt lat="43.25036" lon="6.26541">
        <ele>448.6</ele>
        <time>2021-12-28T09:28:32Z</time>
      </trkpt>
      <trkpt lat="43.2504" lon="6.26541">
        <ele>448.8</ele>
        <time>2021-12-28T09:28:36Z</time>
      </trkpt>
      <trkpt lat="43.25045" lon="6.2654">
        <ele>449.2</ele>
        <time>2021-12-28T09:28:40Z</time>
      </trkpt>
      <trkpt lat="43.25049" lon="6.26539">
        <ele>449.2</ele>
        <time>2021-12-28T09:28:44Z</time>
      </trkpt>
      <trkpt lat="43.25056" lon="6.26537">
        <ele>449.8</ele>
        <time>2021-12-28T09:28:48Z</time>
      </trkpt>
      <trkpt lat="43.25061" lon="6.26534">
        <ele>450.2</ele>
        <time>2021-12-28T09:28:52Z</time>
      </trkpt>
      <trkpt lat="43.25064" lon="6.2653">
        <ele>450.8</ele>
        <time>2021-12-28T09:28:56Z</time>
      </trkpt>
      <trkpt lat="43.25067" lon="6.26524">
        <ele>451</ele>
        <time>2021-12-28T09:29:00Z</time>
      </trkpt>
      <trkpt lat="43.25069" lon="6.26518">
        <ele>452.4</ele>
        <time>2021-12-28T09:29:04Z</time>
      </trkpt>
      <trkpt lat="43.25068" lon="6.26512">
        <ele>452.4</ele>
        <time>2021-12-28T09:29:08Z</time>
      </trkpt>
      <trkpt lat="43.25066" lon="6.26506">
        <ele>453.8</ele>
        <time>2021-12-28T09:29:12Z</time>
      </trkpt>
      <trkpt lat="43.25063" lon="6.26501">
        <ele>455</ele>
        <time>2021-12-28T09:29:16Z</time>
      </trkpt>
      <trkpt lat="43.25059" lon="6.26494">
        <ele>454.8</ele>
        <time>2021-12-28T09:29:20Z</time>
      </trkpt>
      <trkpt lat="43.25055" lon="6.26488">
        <ele>454.8</ele>
        <time>2021-12-28T09:29:24Z</time>
      </trkpt>
      <trkpt lat="43.25051" lon="6.26483">
        <ele>455.4</ele>
        <time>2021-12-28T09:29:28Z</time>
      </trkpt>
      <trkpt lat="43.25048" lon="6.26477">
        <ele>456</ele>
        <time>2021-12-28T09:29:32Z</time>
      </trkpt>
      <trkpt lat="43.25045" lon="6.26471">
        <ele>456.2</ele>
        <time>2021-12-28T09:29:36Z</time>
      </trkpt>
      <trkpt lat="43.25042" lon="6.26466">
        <ele>456.8</ele>
        <time>2021-12-28T09:29:40Z</time>
      </trkpt>
      <trkpt lat="43.25037" lon="6.26458">
        <ele>458.2</ele>
        <time>2021-12-28T09:29:44Z</time>
      </trkpt>
      <trkpt lat="43.25034" lon="6.26454">
        <ele>458.2</ele>
        <time>2021-12-28T09:29:48Z</time>
      </trkpt>
      <trkpt lat="43.25031" lon="6.26449">
        <ele>458.4</ele>
        <time>2021-12-28T09:29:52Z</time>
      </trkpt>
      <trkpt lat="43.25028" lon="6.26444">
        <ele>459.2</ele>
        <time>2021-12-28T09:29:56Z</time>
      </trkpt>
      <trkpt lat="43.25025" lon="6.26439">
        <ele>459.6</ele>
        <time>2021-12-28T09:30:00Z</time>
      </trkpt>
      <trkpt lat="43.25022" lon="6.26434">
        <ele>459.8</ele>
        <time>2021-12-28T09:30:04Z</time>
      </trkpt>
      <trkpt lat="43.25019" lon="6.26429">
        <ele>460.2</ele>
        <time>2021-12-28T09:30:08Z</time>
      </trkpt>
      <trkpt lat="43.25017" lon="6.26423">
        <ele>460.8</ele>
        <time>2021-12-28T09:30:12Z</time>
      </trkpt>
      <trkpt lat="43.25015" lon="6.26417">
        <ele>461.2</ele>
        <time>2021-12-28T09:30:16Z</time>
      </trkpt>
      <trkpt lat="43.25014" lon="6.2641">
        <ele>462</ele>
        <time>2021-12-28T09:30:20Z</time>
      </trkpt>
      <trkpt lat="43.25015" lon="6.26404">
        <ele>463</ele>
        <time>2021-12-28T09:30:24Z</time>
      </trkpt>
      <trkpt lat="43.25017" lon="6.26397">
        <ele>463.4</ele>
        <time>2021-12-28T09:30:28Z</time>
      </trkpt>
      <trkpt lat="43.25018" lon="6.26388">
        <ele>464.4</ele>
        <time>2021-12-28T09:30:32Z</time>
      </trkpt>
      <trkpt lat="43.25019" lon="6.26381">
        <ele>464.4</ele>
        <time>2021-12-28T09:30:36Z</time>
      </trkpt>
      <trkpt lat="43.25019" lon="6.26373">
        <ele>465.4</ele>
        <time>2021-12-28T09:30:40Z</time>
      </trkpt>
      <trkpt lat="43.25019" lon="6.26367">
        <ele>466</ele>
        <time>2021-12-28T09:30:44Z</time>
      </trkpt>
      <trkpt lat="43.25018" lon="6.26359">
        <ele>466.2</ele>
        <time>2021-12-28T09:30:48Z</time>
      </trkpt>
      <trkpt lat="43.25018" lon="6.26353">
        <ele>467</ele>
        <time>2021-12-28T09:30:52Z</time>
      </trkpt>
      <trkpt lat="43.25019" lon="6.26346">
        <ele>468</ele>
        <time>2021-12-28T09:30:56Z</time>
      </trkpt>
      <trkpt lat="43.25018" lon="6.26339">
        <ele>468.4</ele>
        <time>2021-12-28T09:31:00Z</time>
      </trkpt>
      <trkpt lat="43.25018" lon="6.26333">
        <ele>468.8</ele>
        <time>2021-12-28T09:31:04Z</time>
      </trkpt>
      <trkpt lat="43.25019" lon="6.26326">
        <ele>469</ele>
        <time>2021-12-28T09:31:08Z</time>
      </trkpt>
      <trkpt lat="43.25019" lon="6.26317">
        <ele>469.4</ele>
        <time>2021-12-28T09:31:12Z</time>
      </trkpt>
      <trkpt lat="43.25016" lon="6.26311">
        <ele>470.4</ele>
        <time>2021-12-28T09:31:16Z</time>
      </trkpt>
      <trkpt lat="43.25012" lon="6.26307">
        <ele>471.4</ele>
        <time>2021-12-28T09:31:20Z</time>
      </trkpt>
      <trkpt lat="43.25007" lon="6.26304">
        <ele>472.4</ele>
        <time>2021-12-28T09:31:24Z</time>
      </trkpt>
      <trkpt lat="43.25003" lon="6.26301">
        <ele>473.2</ele>
        <time>2021-12-28T09:31:28Z</time>
      </trkpt>
      <trkpt lat="43.24998" lon="6.26298">
        <ele>473.4</ele>
        <time>2021-12-28T09:31:32Z</time>
      </trkpt>
      <trkpt lat="43.24995" lon="6.26293">
        <ele>474.2</ele>
        <time>2021-12-28T09:31:36Z</time>
      </trkpt>
      <trkpt lat="43.24991" lon="6.26292">
        <ele>475.2</ele>
        <time>2021-12-28T09:31:40Z</time>
      </trkpt>
      <trkpt lat="43.24985" lon="6.26289">
        <ele>474.4</ele>
        <time>2021-12-28T09:31:44Z</time>
      </trkpt>
      <trkpt lat="43.2498" lon="6.26287">
        <ele>475</ele>
        <time>2021-12-28T09:31:48Z</time>
      </trkpt>
      <trkpt lat="43.24975" lon="6.26284">
        <ele>475.8</ele>
        <time>2021-12-28T09:31:52Z</time>
      </trkpt>
      <trkpt lat="43.2497" lon="6.26283">
        <ele>476.4</ele>
        <time>2021-12-28T09:31:56Z</time>
      </trkpt>
      <trkpt lat="43.24966" lon="6.26282">
        <ele>477.4</ele>
        <time>2021-12-28T09:32:00Z</time>
      </trkpt>
      <trkpt lat="43.24961" lon="6.2628">
        <ele>477.6</ele>
        <time>2021-12-28T09:32:04Z</time>
      </trkpt>
      <trkpt lat="43.24957" lon="6.26278">
        <ele>477.8</ele>
        <time>2021-12-28T09:32:08Z</time>
      </trkpt>
      <trkpt lat="43.24952" lon="6.26275">
        <ele>478.6</ele>
        <time>2021-12-28T09:32:12Z</time>
      </trkpt>
      <trkpt lat="43.24947" lon="6.26274">
        <ele>478.8</ele>
        <time>2021-12-28T09:32:16Z</time>
      </trkpt>
      <trkpt lat="43.24943" lon="6.26272">
        <ele>479.6</ele>
        <time>2021-12-28T09:32:20Z</time>
      </trkpt>
      <trkpt lat="43.24938" lon="6.26269">
        <ele>480</ele>
        <time>2021-12-28T09:32:24Z</time>
      </trkpt>
      <trkpt lat="43.24932" lon="6.26264">
        <ele>480.6</ele>
        <time>2021-12-28T09:32:28Z</time>
      </trkpt>
      <trkpt lat="43.24927" lon="6.2626">
        <ele>481.8</ele>
        <time>2021-12-28T09:32:32Z</time>
      </trkpt>
      <trkpt lat="43.24922" lon="6.26255">
        <ele>483.2</ele>
        <time>2021-12-28T09:32:36Z</time>
      </trkpt>
      <trkpt lat="43.24919" lon="6.2625">
        <ele>483.8</ele>
        <time>2021-12-28T09:32:40Z</time>
      </trkpt>
      <trkpt lat="43.24915" lon="6.26245">
        <ele>483.8</ele>
        <time>2021-12-28T09:32:44Z</time>
      </trkpt>
      <trkpt lat="43.24911" lon="6.26239">
        <ele>484</ele>
        <time>2021-12-28T09:32:48Z</time>
      </trkpt>
      <trkpt lat="43.24906" lon="6.26234">
        <ele>484.6</ele>
        <time>2021-12-28T09:32:52Z</time>
      </trkpt>
      <trkpt lat="43.24902" lon="6.2623">
        <ele>486</ele>
        <time>2021-12-28T09:32:56Z</time>
      </trkpt>
      <trkpt lat="43.24899" lon="6.26225">
        <ele>485.8</ele>
        <time>2021-12-28T09:33:00Z</time>
      </trkpt>
      <trkpt lat="43.24895" lon="6.2622">
        <ele>486</ele>
        <time>2021-12-28T09:33:04Z</time>
      </trkpt>
      <trkpt lat="43.24891" lon="6.26216">
        <ele>486.6</ele>
        <time>2021-12-28T09:33:08Z</time>
      </trkpt>
      <trkpt lat="43.24888" lon="6.26212">
        <ele>487.6</ele>
        <time>2021-12-28T09:33:12Z</time>
      </trkpt>
      <trkpt lat="43.24883" lon="6.26207">
        <ele>487.6</ele>
        <time>2021-12-28T09:33:16Z</time>
      </trkpt>
      <trkpt lat="43.24878" lon="6.26203">
        <ele>488</ele>
        <time>2021-12-28T09:33:20Z</time>
      </trkpt>
      <trkpt lat="43.24873" lon="6.26199">
        <ele>488.6</ele>
        <time>2021-12-28T09:33:24Z</time>
      </trkpt>
      <trkpt lat="43.2487" lon="6.26196">
        <ele>489.4</ele>
        <time>2021-12-28T09:33:28Z</time>
      </trkpt>
      <trkpt lat="43.24866" lon="6.26194">
        <ele>489.2</ele>
        <time>2021-12-28T09:33:32Z</time>
      </trkpt>
      <trkpt lat="43.24863" lon="6.26192">
        <ele>489.8</ele>
        <time>2021-12-28T09:33:36Z</time>
      </trkpt>
      <trkpt lat="43.24858" lon="6.26189">
        <ele>489.8</ele>
        <time>2021-12-28T09:33:40Z</time>
      </trkpt>
      <trkpt lat="43.24852" lon="6.26186">
        <ele>491.2</ele>
        <time>2021-12-28T09:33:44Z</time>
      </trkpt>
      <trkpt lat="43.24847" lon="6.26183">
        <ele>491.8</ele>
        <time>2021-12-28T09:33:48Z</time>
      </trkpt>
      <trkpt lat="43.24842" lon="6.26181">
        <ele>492</ele>
        <time>2021-12-28T09:33:52Z</time>
      </trkpt>
      <trkpt lat="43.24838" lon="6.26179">
        <ele>492.2</ele>
        <time>2021-12-28T09:33:56Z</time>
      </trkpt>
      <trkpt lat="43.24833" lon="6.26178">
        <ele>493.4</ele>
        <time>2021-12-28T09:34:00Z</time>
      </trkpt>
      <trkpt lat="43.24828" lon="6.26178">
        <ele>494.6</ele>
        <time>2021-12-28T09:34:04Z</time>
      </trkpt>
      <trkpt lat="43.24824" lon="6.26177">
        <ele>494.2</ele>
        <time>2021-12-28T09:34:08Z</time>
      </trkpt>
      <trkpt lat="43.2478" lon="6.26155">
        <ele>496.8</ele>
        <time>2021-12-28T09:35:21Z</time>
      </trkpt>
      <trkpt lat="43.24779" lon="6.26146">
        <ele>496.8</ele>
        <time>2021-12-28T09:35:25Z</time>
      </trkpt>
      <trkpt lat="43.24781" lon="6.26137">
        <ele>497.8</ele>
        <time>2021-12-28T09:35:29Z</time>
      </trkpt>
      <trkpt lat="43.24786" lon="6.2613">
        <ele>498.2</ele>
        <time>2021-12-28T09:35:33Z</time>
      </trkpt>
      <trkpt lat="43.24793" lon="6.26125">
        <ele>498</ele>
        <time>2021-12-28T09:35:37Z</time>
      </trkpt>
      <trkpt lat="43.248" lon="6.26123">
        <ele>498.4</ele>
        <time>2021-12-28T09:35:41Z</time>
      </trkpt>
      <trkpt lat="43.24806" lon="6.26122">
        <ele>499.4</ele>
        <time>2021-12-28T09:35:45Z</time>
      </trkpt>
      <trkpt lat="43.24813" lon="6.26122">
        <ele>499.8</ele>
        <time>2021-12-28T09:35:49Z</time>
      </trkpt>
      <trkpt lat="43.24819" lon="6.26121">
        <ele>499.2</ele>
        <time>2021-12-28T09:35:53Z</time>
      </trkpt>
      <trkpt lat="43.24825" lon="6.26122">
        <ele>499.6</ele>
        <time>2021-12-28T09:35:57Z</time>
      </trkpt>
      <trkpt lat="43.24831" lon="6.26121">
        <ele>498.8</ele>
        <time>2021-12-28T09:36:01Z</time>
      </trkpt>
      <trkpt lat="43.24837" lon="6.26123">
        <ele>500</ele>
        <time>2021-12-28T09:36:05Z</time>
      </trkpt>
      <trkpt lat="43.24844" lon="6.26121">
        <ele>496.4</ele>
        <time>2021-12-28T09:36:09Z</time>
      </trkpt>
      <trkpt lat="43.24854" lon="6.26118">
        <ele>496.2</ele>
        <time>2021-12-28T09:36:13Z</time>
      </trkpt>
      <trkpt lat="43.24864" lon="6.26112">
        <ele>494.8</ele>
        <time>2021-12-28T09:36:17Z</time>
      </trkpt>
      <trkpt lat="43.24875" lon="6.26104">
        <ele>490.8</ele>
        <time>2021-12-28T09:36:21Z</time>
      </trkpt>
      <trkpt lat="43.24889" lon="6.26088">
        <ele>488.6</ele>
        <time>2021-12-28T09:36:25Z</time>
      </trkpt>
      <trkpt lat="43.24904" lon="6.26069">
        <ele>484.6</ele>
        <time>2021-12-28T09:36:29Z</time>
      </trkpt>
      <trkpt lat="43.24924" lon="6.2605">
        <ele>478</ele>
        <time>2021-12-28T09:36:33Z</time>
      </trkpt>
      <trkpt lat="43.24949" lon="6.2603">
        <ele>476.4</ele>
        <time>2021-12-28T09:36:37Z</time>
      </trkpt>
      <trkpt lat="43.2497" lon="6.26013">
        <ele>477.8</ele>
        <time>2021-12-28T09:36:41Z</time>
      </trkpt>
      <trkpt lat="43.24982" lon="6.26003">
        <ele>475</ele>
        <time>2021-12-28T09:36:45Z</time>
      </trkpt>
      <trkpt lat="43.24997" lon="6.25991">
        <ele>472.8</ele>
        <time>2021-12-28T09:36:49Z</time>
      </trkpt>
      <trkpt lat="43.25014" lon="6.25974">
        <ele>471.4</ele>
        <time>2021-12-28T09:36:53Z</time>
      </trkpt>
      <trkpt lat="43.25036" lon="6.25959">
        <ele>471.2</ele>
        <time>2021-12-28T09:36:57Z</time>
      </trkpt>
      <trkpt lat="43.25058" lon="6.25947">
        <ele>470.4</ele>
        <time>2021-12-28T09:37:01Z</time>
      </trkpt>
      <trkpt lat="43.25078" lon="6.25935">
        <ele>467.2</ele>
        <time>2021-12-28T09:37:05Z</time>
      </trkpt>
      <trkpt lat="43.25095" lon="6.2592">
        <ele>466</ele>
        <time>2021-12-28T09:37:09Z</time>
      </trkpt>
      <trkpt lat="43.25105" lon="6.25906">
        <ele>462.8</ele>
        <time>2021-12-28T09:37:13Z</time>
      </trkpt>
      <trkpt lat="43.25104" lon="6.25885">
        <ele>459.6</ele>
        <time>2021-12-28T09:37:17Z</time>
      </trkpt>
      <trkpt lat="43.25095" lon="6.2586">
        <ele>456.2</ele>
        <time>2021-12-28T09:37:21Z</time>
      </trkpt>
      <trkpt lat="43.25087" lon="6.2583">
        <ele>452.8</ele>
        <time>2021-12-28T09:37:25Z</time>
      </trkpt>
      <trkpt lat="43.25075" lon="6.258">
        <ele>448.4</ele>
        <time>2021-12-28T09:37:29Z</time>
      </trkpt>
      <trkpt lat="43.25059" lon="6.25764">
        <ele>445.8</ele>
        <time>2021-12-28T09:37:33Z</time>
      </trkpt>
      <trkpt lat="43.2504" lon="6.2573">
        <ele>441.2</ele>
        <time>2021-12-28T09:37:37Z</time>
      </trkpt>
      <trkpt lat="43.25015" lon="6.257">
        <ele>442.2</ele>
        <time>2021-12-28T09:37:41Z</time>
      </trkpt>
      <trkpt lat="43.24991" lon="6.25685">
        <ele>439</ele>
        <time>2021-12-28T09:37:45Z</time>
      </trkpt>
      <trkpt lat="43.24981" lon="6.25668">
        <ele>438</ele>
        <time>2021-12-28T09:37:49Z</time>
      </trkpt>
      <trkpt lat="43.24979" lon="6.25648">
        <ele>433.6</ele>
        <time>2021-12-28T09:37:53Z</time>
      </trkpt>
      <trkpt lat="43.24987" lon="6.2563">
        <ele>430.8</ele>
        <time>2021-12-28T09:37:57Z</time>
      </trkpt>
      <trkpt lat="43.25002" lon="6.25609">
        <ele>427.2</ele>
        <time>2021-12-28T09:38:01Z</time>
      </trkpt>
      <trkpt lat="43.25021" lon="6.25582">
        <ele>425.4</ele>
        <time>2021-12-28T09:38:05Z</time>
      </trkpt>
      <trkpt lat="43.25039" lon="6.2555">
        <ele>424.2</ele>
        <time>2021-12-28T09:38:09Z</time>
      </trkpt>
      <trkpt lat="43.25048" lon="6.25512">
        <ele>423.4</ele>
        <time>2021-12-28T09:38:13Z</time>
      </trkpt>
      <trkpt lat="43.25044" lon="6.25475">
        <ele>419.6</ele>
        <time>2021-12-28T09:38:17Z</time>
      </trkpt>
      <trkpt lat="43.25027" lon="6.25446">
        <ele>418.2</ele>
        <time>2021-12-28T09:38:21Z</time>
      </trkpt>
      <trkpt lat="43.2501" lon="6.25423">
        <ele>415.2</ele>
        <time>2021-12-28T09:38:25Z</time>
      </trkpt>
      <trkpt lat="43.24992" lon="6.25399">
        <ele>410.8</ele>
        <time>2021-12-28T09:38:29Z</time>
      </trkpt>
      <trkpt lat="43.24979" lon="6.25375">
        <ele>408.8</ele>
        <time>2021-12-28T09:38:33Z</time>
      </trkpt>
      <trkpt lat="43.24973" lon="6.25354">
        <ele>407.6</ele>
        <time>2021-12-28T09:38:37Z</time>
      </trkpt>
      <trkpt lat="43.24973" lon="6.2533">
        <ele>406</ele>
        <time>2021-12-28T09:38:41Z</time>
      </trkpt>
      <trkpt lat="43.24975" lon="6.25305">
        <ele>404.8</ele>
        <time>2021-12-28T09:38:45Z</time>
      </trkpt>
      <trkpt lat="43.24976" lon="6.25277">
        <ele>402.2</ele>
        <time>2021-12-28T09:38:49Z</time>
      </trkpt>
      <trkpt lat="43.24969" lon="6.25251">
        <ele>400.6</ele>
        <time>2021-12-28T09:38:53Z</time>
      </trkpt>
      <trkpt lat="43.24954" lon="6.25222">
        <ele>399.4</ele>
        <time>2021-12-28T09:38:57Z</time>
      </trkpt>
      <trkpt lat="43.24942" lon="6.25203">
        <ele>397.4</ele>
        <time>2021-12-28T09:39:01Z</time>
      </trkpt>
      <trkpt lat="43.24934" lon="6.25189">
        <ele>396.2</ele>
        <time>2021-12-28T09:39:05Z</time>
      </trkpt>
      <trkpt lat="43.2493" lon="6.25182">
        <ele>397.4</ele>
        <time>2021-12-28T09:39:09Z</time>
      </trkpt>
      <trkpt lat="43.2492" lon="6.25165">
        <ele>395</ele>
        <time>2021-12-28T09:39:45Z</time>
      </trkpt>
      <trkpt lat="43.24919" lon="6.25158">
        <ele>395.8</ele>
        <time>2021-12-28T09:39:49Z</time>
      </trkpt>
      <trkpt lat="43.24915" lon="6.25151">
        <ele>397.4</ele>
        <time>2021-12-28T09:39:53Z</time>
      </trkpt>
      <trkpt lat="43.24914" lon="6.25143">
        <ele>397.6</ele>
        <time>2021-12-28T09:39:57Z</time>
      </trkpt>
      <trkpt lat="43.24912" lon="6.25134">
        <ele>398.2</ele>
        <time>2021-12-28T09:40:01Z</time>
      </trkpt>
      <trkpt lat="43.24911" lon="6.25126">
        <ele>399.2</ele>
        <time>2021-12-28T09:40:05Z</time>
      </trkpt>
      <trkpt lat="43.2491" lon="6.25118">
        <ele>399.8</ele>
        <time>2021-12-28T09:40:09Z</time>
      </trkpt>
      <trkpt lat="43.24909" lon="6.2511">
        <ele>398.8</ele>
        <time>2021-12-28T09:40:13Z</time>
      </trkpt>
      <trkpt lat="43.24908" lon="6.25102">
        <ele>398.8</ele>
        <time>2021-12-28T09:40:17Z</time>
      </trkpt>
      <trkpt lat="43.24907" lon="6.25095">
        <ele>399</ele>
        <time>2021-12-28T09:40:21Z</time>
      </trkpt>
      <trkpt lat="43.24906" lon="6.25088">
        <ele>400.6</ele>
        <time>2021-12-28T09:40:25Z</time>
      </trkpt>
      <trkpt lat="43.24905" lon="6.2508">
        <ele>400.6</ele>
        <time>2021-12-28T09:40:29Z</time>
      </trkpt>
      <trkpt lat="43.24904" lon="6.25073">
        <ele>399.8</ele>
        <time>2021-12-28T09:40:33Z</time>
      </trkpt>
      <trkpt lat="43.24903" lon="6.25065">
        <ele>400</ele>
        <time>2021-12-28T09:40:37Z</time>
      </trkpt>
      <trkpt lat="43.24901" lon="6.25058">
        <ele>400.4</ele>
        <time>2021-12-28T09:40:41Z</time>
      </trkpt>
      <trkpt lat="43.249" lon="6.25051">
        <ele>400.4</ele>
        <time>2021-12-28T09:40:45Z</time>
      </trkpt>
      <trkpt lat="43.24899" lon="6.25043">
        <ele>403</ele>
        <time>2021-12-28T09:40:49Z</time>
      </trkpt>
      <trkpt lat="43.24899" lon="6.25036">
        <ele>403.8</ele>
        <time>2021-12-28T09:40:53Z</time>
      </trkpt>
      <trkpt lat="43.24896" lon="6.25028">
        <ele>403</ele>
        <time>2021-12-28T09:40:57Z</time>
      </trkpt>
      <trkpt lat="43.24895" lon="6.25021">
        <ele>404.4</ele>
        <time>2021-12-28T09:41:01Z</time>
      </trkpt>
      <trkpt lat="43.24893" lon="6.25013">
        <ele>403.4</ele>
        <time>2021-12-28T09:41:05Z</time>
      </trkpt>
      <trkpt lat="43.24891" lon="6.25005">
        <ele>405</ele>
        <time>2021-12-28T09:41:09Z</time>
      </trkpt>
      <trkpt lat="43.24889" lon="6.24997">
        <ele>405.4</ele>
        <time>2021-12-28T09:41:13Z</time>
      </trkpt>
      <trkpt lat="43.2489" lon="6.24988">
        <ele>406.2</ele>
        <time>2021-12-28T09:41:17Z</time>
      </trkpt>
      <trkpt lat="43.24891" lon="6.24978">
        <ele>406.8</ele>
        <time>2021-12-28T09:41:21Z</time>
      </trkpt>
      <trkpt lat="43.24894" lon="6.24971">
        <ele>407.4</ele>
        <time>2021-12-28T09:41:25Z</time>
      </trkpt>
      <trkpt lat="43.24897" lon="6.24964">
        <ele>406.2</ele>
        <time>2021-12-28T09:41:29Z</time>
      </trkpt>
      <trkpt lat="43.249" lon="6.24956">
        <ele>405.6</ele>
        <time>2021-12-28T09:41:33Z</time>
      </trkpt>
      <trkpt lat="43.24903" lon="6.24948">
        <ele>406.6</ele>
        <time>2021-12-28T09:41:37Z</time>
      </trkpt>
      <trkpt lat="43.24906" lon="6.24941">
        <ele>406.8</ele>
        <time>2021-12-28T09:41:41Z</time>
      </trkpt>
      <trkpt lat="43.24908" lon="6.24934">
        <ele>407.4</ele>
        <time>2021-12-28T09:41:45Z</time>
      </trkpt>
      <trkpt lat="43.2491" lon="6.24926">
        <ele>408</ele>
        <time>2021-12-28T09:41:49Z</time>
      </trkpt>
      <trkpt lat="43.24911" lon="6.24917">
        <ele>407.4</ele>
        <time>2021-12-28T09:41:53Z</time>
      </trkpt>
      <trkpt lat="43.24911" lon="6.24909">
        <ele>407.8</ele>
        <time>2021-12-28T09:41:57Z</time>
      </trkpt>
      <trkpt lat="43.2491" lon="6.249">
        <ele>407.8</ele>
        <time>2021-12-28T09:42:01Z</time>
      </trkpt>
      <trkpt lat="43.24909" lon="6.24891">
        <ele>409</ele>
        <time>2021-12-28T09:42:05Z</time>
      </trkpt>
      <trkpt lat="43.24907" lon="6.24882">
        <ele>410</ele>
        <time>2021-12-28T09:42:09Z</time>
      </trkpt>
      <trkpt lat="43.24906" lon="6.24874">
        <ele>410.6</ele>
        <time>2021-12-28T09:42:13Z</time>
      </trkpt>
      <trkpt lat="43.24903" lon="6.24865">
        <ele>411.6</ele>
        <time>2021-12-28T09:42:17Z</time>
      </trkpt>
      <trkpt lat="43.24902" lon="6.24857">
        <ele>412</ele>
        <time>2021-12-28T09:42:21Z</time>
      </trkpt>
      <trkpt lat="43.249" lon="6.24849">
        <ele>412.2</ele>
        <time>2021-12-28T09:42:25Z</time>
      </trkpt>
      <trkpt lat="43.24898" lon="6.24841">
        <ele>412.6</ele>
        <time>2021-12-28T09:42:29Z</time>
      </trkpt>
      <trkpt lat="43.24896" lon="6.24834">
        <ele>413.2</ele>
        <time>2021-12-28T09:42:33Z</time>
      </trkpt>
      <trkpt lat="43.24894" lon="6.24826">
        <ele>413.2</ele>
        <time>2021-12-28T09:42:37Z</time>
      </trkpt>
      <trkpt lat="43.24891" lon="6.24818">
        <ele>413.6</ele>
        <time>2021-12-28T09:42:41Z</time>
      </trkpt>
      <trkpt lat="43.24889" lon="6.2481">
        <ele>413.8</ele>
        <time>2021-12-28T09:42:45Z</time>
      </trkpt>
      <trkpt lat="43.24886" lon="6.24802">
        <ele>413.6</ele>
        <time>2021-12-28T09:42:49Z</time>
      </trkpt>
      <trkpt lat="43.24884" lon="6.24793">
        <ele>414.4</ele>
        <time>2021-12-28T09:42:53Z</time>
      </trkpt>
      <trkpt lat="43.24882" lon="6.24785">
        <ele>415</ele>
        <time>2021-12-28T09:42:57Z</time>
      </trkpt>
      <trkpt lat="43.24882" lon="6.24778">
        <ele>414.4</ele>
        <time>2021-12-28T09:43:01Z</time>
      </trkpt>
      <trkpt lat="43.24886" lon="6.24769">
        <ele>415.2</ele>
        <time>2021-12-28T09:44:05Z</time>
      </trkpt>
      <trkpt lat="43.24891" lon="6.24763">
        <ele>415.4</ele>
        <time>2021-12-28T09:44:09Z</time>
      </trkpt>
      <trkpt lat="43.24896" lon="6.24757">
        <ele>416.8</ele>
        <time>2021-12-28T09:44:13Z</time>
      </trkpt>
      <trkpt lat="43.24902" lon="6.24752">
        <ele>416.6</ele>
        <time>2021-12-28T09:44:17Z</time>
      </trkpt>
      <trkpt lat="43.24907" lon="6.24747">
        <ele>416.6</ele>
        <time>2021-12-28T09:44:21Z</time>
      </trkpt>
      <trkpt lat="43.24913" lon="6.24744">
        <ele>418.4</ele>
        <time>2021-12-28T09:44:25Z</time>
      </trkpt>
      <trkpt lat="43.24918" lon="6.24742">
        <ele>418.8</ele>
        <time>2021-12-28T09:44:29Z</time>
      </trkpt>
      <trkpt lat="43.24924" lon="6.2474">
        <ele>418.4</ele>
        <time>2021-12-28T09:44:33Z</time>
      </trkpt>
      <trkpt lat="43.24931" lon="6.24738">
        <ele>419.6</ele>
        <time>2021-12-28T09:44:37Z</time>
      </trkpt>
      <trkpt lat="43.24937" lon="6.24736">
        <ele>420.4</ele>
        <time>2021-12-28T09:44:41Z</time>
      </trkpt>
      <trkpt lat="43.24943" lon="6.24733">
        <ele>420.8</ele>
        <time>2021-12-28T09:44:45Z</time>
      </trkpt>
      <trkpt lat="43.24949" lon="6.24731">
        <ele>421.4</ele>
        <time>2021-12-28T09:44:49Z</time>
      </trkpt>
      <trkpt lat="43.24954" lon="6.24728">
        <ele>422</ele>
        <time>2021-12-28T09:44:53Z</time>
      </trkpt>
      <trkpt lat="43.2496" lon="6.24726">
        <ele>422.8</ele>
        <time>2021-12-28T09:44:57Z</time>
      </trkpt>
      <trkpt lat="43.24965" lon="6.24723">
        <ele>423.4</ele>
        <time>2021-12-28T09:45:01Z</time>
      </trkpt>
      <trkpt lat="43.24972" lon="6.24722">
        <ele>424</ele>
        <time>2021-12-28T09:45:05Z</time>
      </trkpt>
      <trkpt lat="43.24976" lon="6.2472">
        <ele>423.8</ele>
        <time>2021-12-28T09:45:09Z</time>
      </trkpt>
      <trkpt lat="43.24981" lon="6.24717">
        <ele>424.4</ele>
        <time>2021-12-28T09:45:13Z</time>
      </trkpt>
      <trkpt lat="43.24986" lon="6.24715">
        <ele>425.2</ele>
        <time>2021-12-28T09:45:17Z</time>
      </trkpt>
      <trkpt lat="43.2499" lon="6.24715">
        <ele>425.8</ele>
        <time>2021-12-28T09:45:21Z</time>
      </trkpt>
      <trkpt lat="43.24994" lon="6.24713">
        <ele>426</ele>
        <time>2021-12-28T09:45:25Z</time>
      </trkpt>
      <trkpt lat="43.24998" lon="6.2471">
        <ele>427.2</ele>
        <time>2021-12-28T09:45:29Z</time>
      </trkpt>
      <trkpt lat="43.25002" lon="6.24708">
        <ele>427.8</ele>
        <time>2021-12-28T09:45:33Z</time>
      </trkpt>
      <trkpt lat="43.25005" lon="6.24705">
        <ele>428</ele>
        <time>2021-12-28T09:45:37Z</time>
      </trkpt>
      <trkpt lat="43.25005" lon="6.24705">
        <ele>428</ele>
        <time>2021-12-28T09:45:41Z</time>
      </trkpt>
      <trkpt lat="43.25015" lon="6.24703">
        <ele>427.8</ele>
        <time>2021-12-28T09:46:30Z</time>
      </trkpt>
      <trkpt lat="43.25023" lon="6.24702">
        <ele>428</ele>
        <time>2021-12-28T09:46:34Z</time>
      </trkpt>
      <trkpt lat="43.25031" lon="6.247">
        <ele>427.2</ele>
        <time>2021-12-28T09:46:38Z</time>
      </trkpt>
      <trkpt lat="43.25039" lon="6.24699">
        <ele>426.4</ele>
        <time>2021-12-28T09:46:42Z</time>
      </trkpt>
      <trkpt lat="43.2505" lon="6.24694">
        <ele>424.6</ele>
        <time>2021-12-28T09:46:46Z</time>
      </trkpt>
      <trkpt lat="43.25062" lon="6.2469">
        <ele>424.2</ele>
        <time>2021-12-28T09:46:50Z</time>
      </trkpt>
      <trkpt lat="43.25075" lon="6.24687">
        <ele>422.6</ele>
        <time>2021-12-28T09:46:54Z</time>
      </trkpt>
      <trkpt lat="43.25094" lon="6.24685">
        <ele>422</ele>
        <time>2021-12-28T09:46:58Z</time>
      </trkpt>
      <trkpt lat="43.25115" lon="6.24684">
        <ele>420.8</ele>
        <time>2021-12-28T09:47:02Z</time>
      </trkpt>
      <trkpt lat="43.25132" lon="6.24686">
        <ele>419.8</ele>
        <time>2021-12-28T09:47:06Z</time>
      </trkpt>
      <trkpt lat="43.2515" lon="6.24686">
        <ele>418.8</ele>
        <time>2021-12-28T09:47:10Z</time>
      </trkpt>
      <trkpt lat="43.25164" lon="6.24679">
        <ele>418.2</ele>
        <time>2021-12-28T09:47:14Z</time>
      </trkpt>
      <trkpt lat="43.25177" lon="6.24665">
        <ele>415.8</ele>
        <time>2021-12-28T09:47:18Z</time>
      </trkpt>
      <trkpt lat="43.25189" lon="6.24647">
        <ele>415.6</ele>
        <time>2021-12-28T09:47:22Z</time>
      </trkpt>
      <trkpt lat="43.25196" lon="6.24634">
        <ele>412</ele>
        <time>2021-12-28T09:47:26Z</time>
      </trkpt>
      <trkpt lat="43.25204" lon="6.24617">
        <ele>410</ele>
        <time>2021-12-28T09:47:30Z</time>
      </trkpt>
      <trkpt lat="43.2521" lon="6.24593">
        <ele>407</ele>
        <time>2021-12-28T09:47:34Z</time>
      </trkpt>
      <trkpt lat="43.25213" lon="6.24563">
        <ele>405.2</ele>
        <time>2021-12-28T09:47:38Z</time>
      </trkpt>
      <trkpt lat="43.25208" lon="6.24537">
        <ele>405</ele>
        <time>2021-12-28T09:47:42Z</time>
      </trkpt>
      <trkpt lat="43.25204" lon="6.24518">
        <ele>403.8</ele>
        <time>2021-12-28T09:47:46Z</time>
      </trkpt>
      <trkpt lat="43.252" lon="6.24499">
        <ele>403.6</ele>
        <time>2021-12-28T09:47:50Z</time>
      </trkpt>
      <trkpt lat="43.25193" lon="6.24478">
        <ele>403</ele>
        <time>2021-12-28T09:47:54Z</time>
      </trkpt>
      <trkpt lat="43.25187" lon="6.24452">
        <ele>398.8</ele>
        <time>2021-12-28T09:47:58Z</time>
      </trkpt>
      <trkpt lat="43.25184" lon="6.24422">
        <ele>398.4</ele>
        <time>2021-12-28T09:48:02Z</time>
      </trkpt>
      <trkpt lat="43.25184" lon="6.24393">
        <ele>396.2</ele>
        <time>2021-12-28T09:48:06Z</time>
      </trkpt>
      <trkpt lat="43.2519" lon="6.24361">
        <ele>394.8</ele>
        <time>2021-12-28T09:48:10Z</time>
      </trkpt>
      <trkpt lat="43.25197" lon="6.24333">
        <ele>392</ele>
        <time>2021-12-28T09:48:14Z</time>
      </trkpt>
      <trkpt lat="43.25203" lon="6.24309">
        <ele>389.4</ele>
        <time>2021-12-28T09:48:18Z</time>
      </trkpt>
      <trkpt lat="43.25205" lon="6.24282">
        <ele>388</ele>
        <time>2021-12-28T09:48:22Z</time>
      </trkpt>
      <trkpt lat="43.25205" lon="6.24254">
        <ele>387</ele>
        <time>2021-12-28T09:48:26Z</time>
      </trkpt>
      <trkpt lat="43.25196" lon="6.24233">
        <ele>384.2</ele>
        <time>2021-12-28T09:48:30Z</time>
      </trkpt>
      <trkpt lat="43.25187" lon="6.24212">
        <ele>381</ele>
        <time>2021-12-28T09:48:34Z</time>
      </trkpt>
      <trkpt lat="43.25178" lon="6.24189">
        <ele>380.2</ele>
        <time>2021-12-28T09:48:38Z</time>
      </trkpt>
      <trkpt lat="43.25172" lon="6.24165">
        <ele>378</ele>
        <time>2021-12-28T09:48:42Z</time>
      </trkpt>
      <trkpt lat="43.25169" lon="6.24135">
        <ele>376</ele>
        <time>2021-12-28T09:48:46Z</time>
      </trkpt>
      <trkpt lat="43.25178" lon="6.24102">
        <ele>372.6</ele>
        <time>2021-12-28T09:48:50Z</time>
      </trkpt>
      <trkpt lat="43.25181" lon="6.24064">
        <ele>372</ele>
        <time>2021-12-28T09:48:54Z</time>
      </trkpt>
      <trkpt lat="43.25181" lon="6.2403">
        <ele>370.6</ele>
        <time>2021-12-28T09:48:58Z</time>
      </trkpt>
      <trkpt lat="43.25183" lon="6.24001">
        <ele>369.8</ele>
        <time>2021-12-28T09:49:02Z</time>
      </trkpt>
      <trkpt lat="43.25189" lon="6.23968">
        <ele>368.2</ele>
        <time>2021-12-28T09:49:06Z</time>
      </trkpt>
      <trkpt lat="43.25188" lon="6.23939">
        <ele>368</ele>
        <time>2021-12-28T09:49:10Z</time>
      </trkpt>
      <trkpt lat="43.25193" lon="6.23913">
        <ele>367.6</ele>
        <time>2021-12-28T09:49:14Z</time>
      </trkpt>
      <trkpt lat="43.252" lon="6.23889">
        <ele>366.4</ele>
        <time>2021-12-28T09:49:18Z</time>
      </trkpt>
      <trkpt lat="43.25207" lon="6.23866">
        <ele>366.4</ele>
        <time>2021-12-28T09:49:22Z</time>
      </trkpt>
      <trkpt lat="43.25215" lon="6.23849">
        <ele>365.2</ele>
        <time>2021-12-28T09:49:26Z</time>
      </trkpt>
      <trkpt lat="43.25224" lon="6.23823">
        <ele>363.4</ele>
        <time>2021-12-28T09:49:30Z</time>
      </trkpt>
      <trkpt lat="43.2523" lon="6.2379">
        <ele>361.4</ele>
        <time>2021-12-28T09:49:34Z</time>
      </trkpt>
      <trkpt lat="43.25224" lon="6.23758">
        <ele>360.8</ele>
        <time>2021-12-28T09:49:38Z</time>
      </trkpt>
      <trkpt lat="43.25211" lon="6.23732">
        <ele>360.4</ele>
        <time>2021-12-28T09:49:42Z</time>
      </trkpt>
      <trkpt lat="43.25193" lon="6.23716">
        <ele>359.6</ele>
        <time>2021-12-28T09:49:46Z</time>
      </trkpt>
      <trkpt lat="43.25174" lon="6.23702">
        <ele>359</ele>
        <time>2021-12-28T09:49:50Z</time>
      </trkpt>
      <trkpt lat="43.25157" lon="6.23686">
        <ele>357.8</ele>
        <time>2021-12-28T09:49:54Z</time>
      </trkpt>
      <trkpt lat="43.2514" lon="6.23667">
        <ele>357.4</ele>
        <time>2021-12-28T09:49:58Z</time>
      </trkpt>
      <trkpt lat="43.2513" lon="6.23643">
        <ele>356.2</ele>
        <time>2021-12-28T09:50:02Z</time>
      </trkpt>
      <trkpt lat="43.25127" lon="6.23613">
        <ele>355.4</ele>
        <time>2021-12-28T09:50:06Z</time>
      </trkpt>
      <trkpt lat="43.25134" lon="6.23582">
        <ele>353.4</ele>
        <time>2021-12-28T09:50:10Z</time>
      </trkpt>
      <trkpt lat="43.2514" lon="6.23554">
        <ele>353</ele>
        <time>2021-12-28T09:50:14Z</time>
      </trkpt>
      <trkpt lat="43.25143" lon="6.23527">
        <ele>352.4</ele>
        <time>2021-12-28T09:50:18Z</time>
      </trkpt>
      <trkpt lat="43.25144" lon="6.23503">
        <ele>352.6</ele>
        <time>2021-12-28T09:50:22Z</time>
      </trkpt>
      <trkpt lat="43.25144" lon="6.23484">
        <ele>352.8</ele>
        <time>2021-12-28T09:50:26Z</time>
      </trkpt>
      <trkpt lat="43.25151" lon="6.23467">
        <ele>352.4</ele>
        <time>2021-12-28T09:50:30Z</time>
      </trkpt>
      <trkpt lat="43.25159" lon="6.23449">
        <ele>352.6</ele>
        <time>2021-12-28T09:50:34Z</time>
      </trkpt>
      <trkpt lat="43.25171" lon="6.23431">
        <ele>351.8</ele>
        <time>2021-12-28T09:50:38Z</time>
      </trkpt>
      <trkpt lat="43.25178" lon="6.23417">
        <ele>352.8</ele>
        <time>2021-12-28T09:50:42Z</time>
      </trkpt>
      <trkpt lat="43.25186" lon="6.234">
        <ele>351.6</ele>
        <time>2021-12-28T09:50:46Z</time>
      </trkpt>
      <trkpt lat="43.25191" lon="6.23384">
        <ele>350.8</ele>
        <time>2021-12-28T09:50:50Z</time>
      </trkpt>
      <trkpt lat="43.25193" lon="6.23366">
        <ele>350.2</ele>
        <time>2021-12-28T09:50:54Z</time>
      </trkpt>
      <trkpt lat="43.25193" lon="6.23346">
        <ele>349.6</ele>
        <time>2021-12-28T09:50:58Z</time>
      </trkpt>
      <trkpt lat="43.25184" lon="6.23327">
        <ele>349.8</ele>
        <time>2021-12-28T09:51:02Z</time>
      </trkpt>
      <trkpt lat="43.25173" lon="6.23311">
        <ele>348.4</ele>
        <time>2021-12-28T09:51:06Z</time>
      </trkpt>
      <trkpt lat="43.25164" lon="6.23293">
        <ele>348.6</ele>
        <time>2021-12-28T09:51:10Z</time>
      </trkpt>
      <trkpt lat="43.25156" lon="6.23274">
        <ele>347.6</ele>
        <time>2021-12-28T09:51:14Z</time>
      </trkpt>
      <trkpt lat="43.2515" lon="6.23251">
        <ele>346.2</ele>
        <time>2021-12-28T09:51:18Z</time>
      </trkpt>
      <trkpt lat="43.25142" lon="6.23225">
        <ele>345.2</ele>
        <time>2021-12-28T09:51:22Z</time>
      </trkpt>
      <trkpt lat="43.25134" lon="6.232">
        <ele>345.4</ele>
        <time>2021-12-28T09:51:26Z</time>
      </trkpt>
      <trkpt lat="43.25125" lon="6.23178">
        <ele>343.8</ele>
        <time>2021-12-28T09:51:30Z</time>
      </trkpt>
      <trkpt lat="43.25117" lon="6.23155">
        <ele>343.6</ele>
        <time>2021-12-28T09:51:34Z</time>
      </trkpt>
      <trkpt lat="43.25107" lon="6.23138">
        <ele>343.8</ele>
        <time>2021-12-28T09:51:38Z</time>
      </trkpt>
      <trkpt lat="43.25102" lon="6.2312">
        <ele>343.6</ele>
        <time>2021-12-28T09:51:42Z</time>
      </trkpt>
      <trkpt lat="43.25101" lon="6.23103">
        <ele>344.6</ele>
        <time>2021-12-28T09:51:46Z</time>
      </trkpt>
      <trkpt lat="43.25097" lon="6.23083">
        <ele>343.6</ele>
        <time>2021-12-28T09:51:50Z</time>
      </trkpt>
      <trkpt lat="43.2509" lon="6.23062">
        <ele>343.2</ele>
        <time>2021-12-28T09:51:54Z</time>
      </trkpt>
      <trkpt lat="43.25079" lon="6.23041">
        <ele>342.2</ele>
        <time>2021-12-28T09:51:58Z</time>
      </trkpt>
      <trkpt lat="43.25073" lon="6.23019">
        <ele>343.2</ele>
        <time>2021-12-28T09:52:02Z</time>
      </trkpt>
      <trkpt lat="43.2507" lon="6.22994">
        <ele>341.4</ele>
        <time>2021-12-28T09:52:06Z</time>
      </trkpt>
      <trkpt lat="43.2507" lon="6.22963">
        <ele>340.4</ele>
        <time>2021-12-28T09:52:10Z</time>
      </trkpt>
      <trkpt lat="43.25073" lon="6.22934">
        <ele>339.6</ele>
        <time>2021-12-28T09:52:14Z</time>
      </trkpt>
      <trkpt lat="43.25075" lon="6.22912">
        <ele>338.8</ele>
        <time>2021-12-28T09:52:18Z</time>
      </trkpt>
      <trkpt lat="43.25077" lon="6.22899">
        <ele>339.6</ele>
        <time>2021-12-28T09:52:22Z</time>
      </trkpt>
      <trkpt lat="43.2507" lon="6.22877">
        <ele>340.2</ele>
        <time>2021-12-28T09:57:15Z</time>
      </trkpt>
      <trkpt lat="43.25069" lon="6.2286">
        <ele>338.8</ele>
        <time>2021-12-28T09:57:19Z</time>
      </trkpt>
      <trkpt lat="43.25062" lon="6.22838">
        <ele>336.2</ele>
        <time>2021-12-28T09:57:23Z</time>
      </trkpt>
      <trkpt lat="43.25055" lon="6.22812">
        <ele>334.2</ele>
        <time>2021-12-28T09:57:27Z</time>
      </trkpt>
      <trkpt lat="43.25046" lon="6.22786">
        <ele>333.2</ele>
        <time>2021-12-28T09:57:31Z</time>
      </trkpt>
      <trkpt lat="43.25039" lon="6.22758">
        <ele>331.8</ele>
        <time>2021-12-28T09:57:35Z</time>
      </trkpt>
      <trkpt lat="43.25034" lon="6.22723">
        <ele>331.4</ele>
        <time>2021-12-28T09:57:39Z</time>
      </trkpt>
      <trkpt lat="43.2503" lon="6.22689">
        <ele>331</ele>
        <time>2021-12-28T09:57:43Z</time>
      </trkpt>
      <trkpt lat="43.25027" lon="6.22657">
        <ele>331</ele>
        <time>2021-12-28T09:57:47Z</time>
      </trkpt>
      <trkpt lat="43.25022" lon="6.22644">
        <ele>331.4</ele>
        <time>2021-12-28T09:57:51Z</time>
      </trkpt>
      <trkpt lat="43.25016" lon="6.22635">
        <ele>331.4</ele>
        <time>2021-12-28T09:57:55Z</time>
      </trkpt>
      <trkpt lat="43.25004" lon="6.22622">
        <ele>330.8</ele>
        <time>2021-12-28T09:57:59Z</time>
      </trkpt>
      <trkpt lat="43.24991" lon="6.22606">
        <ele>331.2</ele>
        <time>2021-12-28T09:58:03Z</time>
      </trkpt>
      <trkpt lat="43.24978" lon="6.22591">
        <ele>329.8</ele>
        <time>2021-12-28T09:58:07Z</time>
      </trkpt>
      <trkpt lat="43.24967" lon="6.22579">
        <ele>329.2</ele>
        <time>2021-12-28T09:58:11Z</time>
      </trkpt>
      <trkpt lat="43.24957" lon="6.22567">
        <ele>328.2</ele>
        <time>2021-12-28T09:58:15Z</time>
      </trkpt>
      <trkpt lat="43.24946" lon="6.22556">
        <ele>329.2</ele>
        <time>2021-12-28T09:58:19Z</time>
      </trkpt>
      <trkpt lat="43.24935" lon="6.22543">
        <ele>328.2</ele>
        <time>2021-12-28T09:58:23Z</time>
      </trkpt>
      <trkpt lat="43.24925" lon="6.22526">
        <ele>329.2</ele>
        <time>2021-12-28T09:58:27Z</time>
      </trkpt>
      <trkpt lat="43.24917" lon="6.22501">
        <ele>325.8</ele>
        <time>2021-12-28T09:58:31Z</time>
      </trkpt>
      <trkpt lat="43.24917" lon="6.22501">
        <ele>323.8</ele>
        <time>2021-12-28T09:58:35Z</time>
      </trkpt>
      <trkpt lat="43.24907" lon="6.22466">
        <ele>320</ele>
        <time>2021-12-28T09:58:39Z</time>
      </trkpt>
      <trkpt lat="43.24898" lon="6.22433">
        <ele>317.8</ele>
        <time>2021-12-28T09:58:43Z</time>
      </trkpt>
      <trkpt lat="43.24889" lon="6.22401">
        <ele>319.4</ele>
        <time>2021-12-28T09:58:47Z</time>
      </trkpt>
      <trkpt lat="43.24879" lon="6.22368">
        <ele>319</ele>
        <time>2021-12-28T09:58:51Z</time>
      </trkpt>
      <trkpt lat="43.24869" lon="6.22336">
        <ele>318.6</ele>
        <time>2021-12-28T09:58:55Z</time>
      </trkpt>
      <trkpt lat="43.24861" lon="6.22312">
        <ele>318.8</ele>
        <time>2021-12-28T09:58:59Z</time>
      </trkpt>
      <trkpt lat="43.24854" lon="6.22293">
        <ele>318.8</ele>
        <time>2021-12-28T09:59:03Z</time>
      </trkpt>
      <trkpt lat="43.24846" lon="6.2228">
        <ele>319</ele>
        <time>2021-12-28T09:59:07Z</time>
      </trkpt>
      <trkpt lat="43.24833" lon="6.22272">
        <ele>317.2</ele>
        <time>2021-12-28T09:59:11Z</time>
      </trkpt>
      <trkpt lat="43.24815" lon="6.22264">
        <ele>315.4</ele>
        <time>2021-12-28T09:59:15Z</time>
      </trkpt>
      <trkpt lat="43.24795" lon="6.22261">
        <ele>315.8</ele>
        <time>2021-12-28T09:59:19Z</time>
      </trkpt>
      <trkpt lat="43.24774" lon="6.22259">
        <ele>313</ele>
        <time>2021-12-28T09:59:23Z</time>
      </trkpt>
      <trkpt lat="43.24754" lon="6.22258">
        <ele>312.2</ele>
        <time>2021-12-28T09:59:27Z</time>
      </trkpt>
      <trkpt lat="43.24734" lon="6.22254">
        <ele>312.4</ele>
        <time>2021-12-28T09:59:31Z</time>
      </trkpt>
      <trkpt lat="43.24716" lon="6.22249">
        <ele>311.6</ele>
        <time>2021-12-28T09:59:35Z</time>
      </trkpt>
      <trkpt lat="43.24698" lon="6.22248">
        <ele>313.2</ele>
        <time>2021-12-28T09:59:39Z</time>
      </trkpt>
      <trkpt lat="43.24682" lon="6.22251">
        <ele>313.6</ele>
        <time>2021-12-28T09:59:43Z</time>
      </trkpt>
      <trkpt lat="43.2467" lon="6.22255">
        <ele>313.8</ele>
        <time>2021-12-28T09:59:47Z</time>
      </trkpt>
      <trkpt lat="43.24658" lon="6.22258">
        <ele>313.8</ele>
        <time>2021-12-28T09:59:51Z</time>
      </trkpt>
      <trkpt lat="43.24647" lon="6.22255">
        <ele>313.4</ele>
        <time>2021-12-28T09:59:55Z</time>
      </trkpt>
      <trkpt lat="43.24642" lon="6.22243">
        <ele>312.8</ele>
        <time>2021-12-28T09:59:59Z</time>
      </trkpt>
      <trkpt lat="43.24645" lon="6.22225">
        <ele>312.6</ele>
        <time>2021-12-28T10:00:03Z</time>
      </trkpt>
      <trkpt lat="43.24653" lon="6.22208">
        <ele>311.4</ele>
        <time>2021-12-28T10:00:07Z</time>
      </trkpt>
      <trkpt lat="43.24664" lon="6.22188">
        <ele>309.8</ele>
        <time>2021-12-28T10:00:11Z</time>
      </trkpt>
      <trkpt lat="43.24673" lon="6.22172">
        <ele>308.6</ele>
        <time>2021-12-28T10:00:15Z</time>
      </trkpt>
      <trkpt lat="43.24682" lon="6.2215">
        <ele>307</ele>
        <time>2021-12-28T10:00:19Z</time>
      </trkpt>
      <trkpt lat="43.24689" lon="6.22134">
        <ele>305</ele>
        <time>2021-12-28T10:00:23Z</time>
      </trkpt>
      <trkpt lat="43.247" lon="6.2211">
        <ele>304</ele>
        <time>2021-12-28T10:00:34Z</time>
      </trkpt>
      <trkpt lat="43.24711" lon="6.22088">
        <ele>301</ele>
        <time>2021-12-28T10:00:38Z</time>
      </trkpt>
      <trkpt lat="43.24722" lon="6.22074">
        <ele>301.8</ele>
        <time>2021-12-28T10:00:42Z</time>
      </trkpt>
      <trkpt lat="43.24728" lon="6.22058">
        <ele>301.6</ele>
        <time>2021-12-28T10:00:46Z</time>
      </trkpt>
      <trkpt lat="43.24732" lon="6.22039">
        <ele>301.6</ele>
        <time>2021-12-28T10:00:50Z</time>
      </trkpt>
      <trkpt lat="43.24735" lon="6.22017">
        <ele>301</ele>
        <time>2021-12-28T10:00:54Z</time>
      </trkpt>
      <trkpt lat="43.24737" lon="6.21994">
        <ele>301</ele>
        <time>2021-12-28T10:00:58Z</time>
      </trkpt>
      <trkpt lat="43.24727" lon="6.21969">
        <ele>300</ele>
        <time>2021-12-28T10:01:02Z</time>
      </trkpt>
      <trkpt lat="43.24713" lon="6.21945">
        <ele>297.6</ele>
        <time>2021-12-28T10:01:06Z</time>
      </trkpt>
      <trkpt lat="43.24704" lon="6.21916">
        <ele>295.4</ele>
        <time>2021-12-28T10:01:10Z</time>
      </trkpt>
      <trkpt lat="43.24696" lon="6.21883">
        <ele>295.4</ele>
        <time>2021-12-28T10:01:14Z</time>
      </trkpt>
      <trkpt lat="43.24685" lon="6.21854">
        <ele>294.8</ele>
        <time>2021-12-28T10:01:18Z</time>
      </trkpt>
      <trkpt lat="43.24665" lon="6.21837">
        <ele>294.2</ele>
        <time>2021-12-28T10:01:22Z</time>
      </trkpt>
      <trkpt lat="43.24648" lon="6.2182">
        <ele>289.2</ele>
        <time>2021-12-28T10:01:26Z</time>
      </trkpt>
      <trkpt lat="43.24635" lon="6.21798">
        <ele>290.4</ele>
        <time>2021-12-28T10:01:30Z</time>
      </trkpt>
      <trkpt lat="43.24627" lon="6.21773">
        <ele>290.2</ele>
        <time>2021-12-28T10:01:34Z</time>
      </trkpt>
      <trkpt lat="43.24623" lon="6.21744">
        <ele>289.2</ele>
        <time>2021-12-28T10:01:38Z</time>
      </trkpt>
      <trkpt lat="43.24621" lon="6.21715">
        <ele>288.8</ele>
        <time>2021-12-28T10:01:42Z</time>
      </trkpt>
      <trkpt lat="43.24619" lon="6.21689">
        <ele>288.6</ele>
        <time>2021-12-28T10:01:46Z</time>
      </trkpt>
      <trkpt lat="43.24617" lon="6.21669">
        <ele>289.4</ele>
        <time>2021-12-28T10:01:50Z</time>
      </trkpt>
      <trkpt lat="43.24616" lon="6.21652">
        <ele>291.2</ele>
        <time>2021-12-28T10:01:54Z</time>
      </trkpt>
      <trkpt lat="43.24616" lon="6.21637">
        <ele>289.8</ele>
        <time>2021-12-28T10:01:58Z</time>
      </trkpt>
      <trkpt lat="43.24618" lon="6.21625">
        <ele>289.8</ele>
        <time>2021-12-28T10:02:02Z</time>
      </trkpt>
      <trkpt lat="43.24622" lon="6.21613">
        <ele>290.4</ele>
        <time>2021-12-28T10:02:06Z</time>
      </trkpt>
      <trkpt lat="43.24629" lon="6.21602">
        <ele>286.2</ele>
        <time>2021-12-28T10:02:10Z</time>
      </trkpt>
      <trkpt lat="43.2464" lon="6.21591">
        <ele>286.8</ele>
        <time>2021-12-28T10:02:14Z</time>
      </trkpt>
      <trkpt lat="43.2465" lon="6.21581">
        <ele>288</ele>
        <time>2021-12-28T10:02:18Z</time>
      </trkpt>
      <trkpt lat="43.24662" lon="6.21571">
        <ele>283.6</ele>
        <time>2021-12-28T10:02:22Z</time>
      </trkpt>
      <trkpt lat="43.24672" lon="6.21563">
        <ele>288.4</ele>
        <time>2021-12-28T10:02:26Z</time>
      </trkpt>
      <trkpt lat="43.24682" lon="6.21554">
        <ele>288.8</ele>
        <time>2021-12-28T10:02:30Z</time>
      </trkpt>
      <trkpt lat="43.24693" lon="6.21545">
        <ele>288.8</ele>
        <time>2021-12-28T10:02:34Z</time>
      </trkpt>
      <trkpt lat="43.24705" lon="6.21535">
        <ele>288.4</ele>
        <time>2021-12-28T10:02:38Z</time>
      </trkpt>
      <trkpt lat="43.24715" lon="6.21526">
        <ele>290.2</ele>
        <time>2021-12-28T10:02:42Z</time>
      </trkpt>
      <trkpt lat="43.24727" lon="6.21514">
        <ele>288.2</ele>
        <time>2021-12-28T10:02:46Z</time>
      </trkpt>
      <trkpt lat="43.24739" lon="6.215">
        <ele>289</ele>
        <time>2021-12-28T10:02:50Z</time>
      </trkpt>
      <trkpt lat="43.24748" lon="6.2148">
        <ele>291</ele>
        <time>2021-12-28T10:02:54Z</time>
      </trkpt>
      <trkpt lat="43.24748" lon="6.21458">
        <ele>290.2</ele>
        <time>2021-12-28T10:02:58Z</time>
      </trkpt>
      <trkpt lat="43.2474" lon="6.21436">
        <ele>288.8</ele>
        <time>2021-12-28T10:03:02Z</time>
      </trkpt>
      <trkpt lat="43.24728" lon="6.21414">
        <ele>287.8</ele>
        <time>2021-12-28T10:03:06Z</time>
      </trkpt>
      <trkpt lat="43.24717" lon="6.21391">
        <ele>288.8</ele>
        <time>2021-12-28T10:03:10Z</time>
      </trkpt>
      <trkpt lat="43.24706" lon="6.21372">
        <ele>287.2</ele>
        <time>2021-12-28T10:03:14Z</time>
      </trkpt>
      <trkpt lat="43.24696" lon="6.21353">
        <ele>287.4</ele>
        <time>2021-12-28T10:03:18Z</time>
      </trkpt>
      <trkpt lat="43.24685" lon="6.21329">
        <ele>286.4</ele>
        <time>2021-12-28T10:03:22Z</time>
      </trkpt>
      <trkpt lat="43.24673" lon="6.21303">
        <ele>284.8</ele>
        <time>2021-12-28T10:03:26Z</time>
      </trkpt>
      <trkpt lat="43.2466" lon="6.21275">
        <ele>283</ele>
        <time>2021-12-28T10:03:30Z</time>
      </trkpt>
      <trkpt lat="43.24646" lon="6.21248">
        <ele>280.6</ele>
        <time>2021-12-28T10:03:34Z</time>
      </trkpt>
      <trkpt lat="43.24631" lon="6.21224">
        <ele>280</ele>
        <time>2021-12-28T10:03:38Z</time>
      </trkpt>
      <trkpt lat="43.24616" lon="6.21197">
        <ele>280.4</ele>
        <time>2021-12-28T10:03:42Z</time>
      </trkpt>
      <trkpt lat="43.24596" lon="6.21178">
        <ele>278.4</ele>
        <time>2021-12-28T10:03:46Z</time>
      </trkpt>
      <trkpt lat="43.24574" lon="6.21167">
        <ele>278.6</ele>
        <time>2021-12-28T10:03:50Z</time>
      </trkpt>
      <trkpt lat="43.24553" lon="6.21159">
        <ele>276.4</ele>
        <time>2021-12-28T10:03:54Z</time>
      </trkpt>
      <trkpt lat="43.24535" lon="6.21155">
        <ele>276.6</ele>
        <time>2021-12-28T10:03:58Z</time>
      </trkpt>
      <trkpt lat="43.24524" lon="6.21156">
        <ele>276.6</ele>
        <time>2021-12-28T10:04:02Z</time>
      </trkpt>
      <trkpt lat="43.24514" lon="6.21162">
        <ele>276.2</ele>
        <time>2021-12-28T10:04:06Z</time>
      </trkpt>
      <trkpt lat="43.24498" lon="6.21173">
        <ele>273</ele>
        <time>2021-12-28T10:04:10Z</time>
      </trkpt>
      <trkpt lat="43.24487" lon="6.21178">
        <ele>274.8</ele>
        <time>2021-12-28T10:04:14Z</time>
      </trkpt>
      <trkpt lat="43.2448" lon="6.21181">
        <ele>275.4</ele>
        <time>2021-12-28T10:04:18Z</time>
      </trkpt>
      <trkpt lat="43.24474" lon="6.21183">
        <ele>276.4</ele>
        <time>2021-12-28T10:04:22Z</time>
      </trkpt>
      <trkpt lat="43.24468" lon="6.21185">
        <ele>276.2</ele>
        <time>2021-12-28T10:04:26Z</time>
      </trkpt>
      <trkpt lat="43.24462" lon="6.21186">
        <ele>276</ele>
        <time>2021-12-28T10:04:30Z</time>
      </trkpt>
      <trkpt lat="43.24456" lon="6.21187">
        <ele>276.6</ele>
        <time>2021-12-28T10:04:34Z</time>
      </trkpt>
      <trkpt lat="43.24451" lon="6.21188">
        <ele>277.4</ele>
        <time>2021-12-28T10:04:38Z</time>
      </trkpt>
      <trkpt lat="43.24459" lon="6.21186">
        <ele>276</ele>
        <time>2021-12-28T10:05:39Z</time>
      </trkpt>
      <trkpt lat="43.24471" lon="6.21182">
        <ele>275.4</ele>
        <time>2021-12-28T10:05:43Z</time>
      </trkpt>
      <trkpt lat="43.24481" lon="6.21177">
        <ele>275</ele>
        <time>2021-12-28T10:05:47Z</time>
      </trkpt>
      <trkpt lat="43.24487" lon="6.21175">
        <ele>272.8</ele>
        <time>2021-12-28T10:05:51Z</time>
      </trkpt>
      <trkpt lat="43.24494" lon="6.21174">
        <ele>273.6</ele>
        <time>2021-12-28T10:05:55Z</time>
      </trkpt>
      <trkpt lat="43.245" lon="6.21169">
        <ele>273.8</ele>
        <time>2021-12-28T10:05:59Z</time>
      </trkpt>
      <trkpt lat="43.24506" lon="6.21165">
        <ele>274.4</ele>
        <time>2021-12-28T10:06:03Z</time>
      </trkpt>
      <trkpt lat="43.24512" lon="6.21161">
        <ele>275.2</ele>
        <time>2021-12-28T10:06:07Z</time>
      </trkpt>
      <trkpt lat="43.24516" lon="6.21158">
        <ele>276.2</ele>
        <time>2021-12-28T10:06:11Z</time>
      </trkpt>
      <trkpt lat="43.24519" lon="6.2115">
        <ele>277.4</ele>
        <time>2021-12-28T10:06:15Z</time>
      </trkpt>
      <trkpt lat="43.24522" lon="6.21144">
        <ele>276.4</ele>
        <time>2021-12-28T10:06:19Z</time>
      </trkpt>
      <trkpt lat="43.24526" lon="6.21142">
        <ele>277.2</ele>
        <time>2021-12-28T10:06:23Z</time>
      </trkpt>
      <trkpt lat="43.2453" lon="6.21145">
        <ele>277.6</ele>
        <time>2021-12-28T10:06:27Z</time>
      </trkpt>
      <trkpt lat="43.24532" lon="6.2115">
        <ele>277.8</ele>
        <time>2021-12-28T10:06:31Z</time>
      </trkpt>
      <trkpt lat="43.2453" lon="6.21153">
        <ele>277.6</ele>
        <time>2021-12-28T10:06:35Z</time>
      </trkpt>
      <trkpt lat="43.24526" lon="6.2115">
        <ele>275.8</ele>
        <time>2021-12-28T10:06:39Z</time>
      </trkpt>
      <trkpt lat="43.24523" lon="6.21154">
        <ele>277.8</ele>
        <time>2021-12-28T10:06:43Z</time>
      </trkpt>
      <trkpt lat="43.24534" lon="6.21152">
        <ele>277.8</ele>
        <time>2021-12-28T10:08:12Z</time>
      </trkpt>
      <trkpt lat="43.24541" lon="6.21156">
        <ele>278.4</ele>
        <time>2021-12-28T10:08:16Z</time>
      </trkpt>
      <trkpt lat="43.24549" lon="6.21158">
        <ele>278.2</ele>
        <time>2021-12-28T10:08:20Z</time>
      </trkpt>
      <trkpt lat="43.24558" lon="6.2116">
        <ele>278.4</ele>
        <time>2021-12-28T10:08:24Z</time>
      </trkpt>
      <trkpt lat="43.24568" lon="6.21163">
        <ele>278.4</ele>
        <time>2021-12-28T10:08:28Z</time>
      </trkpt>
      <trkpt lat="43.24578" lon="6.21167">
        <ele>279.4</ele>
        <time>2021-12-28T10:08:32Z</time>
      </trkpt>
      <trkpt lat="43.24587" lon="6.21171">
        <ele>279.4</ele>
        <time>2021-12-28T10:08:36Z</time>
      </trkpt>
      <trkpt lat="43.24596" lon="6.21177">
        <ele>279</ele>
        <time>2021-12-28T10:08:40Z</time>
      </trkpt>
      <trkpt lat="43.24605" lon="6.21184">
        <ele>279.4</ele>
        <time>2021-12-28T10:08:44Z</time>
      </trkpt>
      <trkpt lat="43.24614" lon="6.21194">
        <ele>280.2</ele>
        <time>2021-12-28T10:08:48Z</time>
      </trkpt>
      <trkpt lat="43.2462" lon="6.21204">
        <ele>281.8</ele>
        <time>2021-12-28T10:08:52Z</time>
      </trkpt>
      <trkpt lat="43.24625" lon="6.21215">
        <ele>281.8</ele>
        <time>2021-12-28T10:08:56Z</time>
      </trkpt>
      <trkpt lat="43.24632" lon="6.21225">
        <ele>282</ele>
        <time>2021-12-28T10:09:00Z</time>
      </trkpt>
      <trkpt lat="43.24638" lon="6.21236">
        <ele>282.4</ele>
        <time>2021-12-28T10:09:04Z</time>
      </trkpt>
      <trkpt lat="43.24644" lon="6.21246">
        <ele>282</ele>
        <time>2021-12-28T10:09:08Z</time>
      </trkpt>
      <trkpt lat="43.2465" lon="6.21258">
        <ele>282.4</ele>
        <time>2021-12-28T10:09:12Z</time>
      </trkpt>
      <trkpt lat="43.24656" lon="6.2127">
        <ele>283.4</ele>
        <time>2021-12-28T10:09:16Z</time>
      </trkpt>
      <trkpt lat="43.24661" lon="6.21281">
        <ele>283.8</ele>
        <time>2021-12-28T10:09:20Z</time>
      </trkpt>
      <trkpt lat="43.24666" lon="6.21292">
        <ele>284.2</ele>
        <time>2021-12-28T10:09:24Z</time>
      </trkpt>
      <trkpt lat="43.24671" lon="6.21303">
        <ele>285.2</ele>
        <time>2021-12-28T10:09:28Z</time>
      </trkpt>
      <trkpt lat="43.24677" lon="6.21315">
        <ele>285</ele>
        <time>2021-12-28T10:09:32Z</time>
      </trkpt>
      <trkpt lat="43.24682" lon="6.21325">
        <ele>284.8</ele>
        <time>2021-12-28T10:09:36Z</time>
      </trkpt>
      <trkpt lat="43.24686" lon="6.21335">
        <ele>285.2</ele>
        <time>2021-12-28T10:09:40Z</time>
      </trkpt>
      <trkpt lat="43.24691" lon="6.21344">
        <ele>286</ele>
        <time>2021-12-28T10:09:44Z</time>
      </trkpt>
      <trkpt lat="43.24696" lon="6.21354">
        <ele>286.4</ele>
        <time>2021-12-28T10:09:48Z</time>
      </trkpt>
      <trkpt lat="43.24702" lon="6.21365">
        <ele>286.6</ele>
        <time>2021-12-28T10:09:52Z</time>
      </trkpt>
      <trkpt lat="43.24709" lon="6.21377">
        <ele>286.8</ele>
        <time>2021-12-28T10:09:56Z</time>
      </trkpt>
      <trkpt lat="43.24716" lon="6.21391">
        <ele>286.8</ele>
        <time>2021-12-28T10:10:00Z</time>
      </trkpt>
      <trkpt lat="43.24724" lon="6.21403">
        <ele>286.8</ele>
        <time>2021-12-28T10:10:04Z</time>
      </trkpt>
      <trkpt lat="43.24732" lon="6.21416">
        <ele>286.8</ele>
        <time>2021-12-28T10:10:08Z</time>
      </trkpt>
      <trkpt lat="43.24738" lon="6.21427">
        <ele>287.2</ele>
        <time>2021-12-28T10:10:12Z</time>
      </trkpt>
      <trkpt lat="43.24743" lon="6.21438">
        <ele>287.6</ele>
        <time>2021-12-28T10:10:16Z</time>
      </trkpt>
      <trkpt lat="43.24748" lon="6.21451">
        <ele>288.4</ele>
        <time>2021-12-28T10:10:20Z</time>
      </trkpt>
      <trkpt lat="43.24751" lon="6.21463">
        <ele>288.4</ele>
        <time>2021-12-28T10:10:24Z</time>
      </trkpt>
      <trkpt lat="43.24749" lon="6.21477">
        <ele>289</ele>
        <time>2021-12-28T10:10:28Z</time>
      </trkpt>
      <trkpt lat="43.24744" lon="6.2149">
        <ele>288</ele>
        <time>2021-12-28T10:10:32Z</time>
      </trkpt>
      <trkpt lat="43.24738" lon="6.21502">
        <ele>288</ele>
        <time>2021-12-28T10:10:36Z</time>
      </trkpt>
      <trkpt lat="43.24728" lon="6.21513">
        <ele>290</ele>
        <time>2021-12-28T10:10:40Z</time>
      </trkpt>
      <trkpt lat="43.2472" lon="6.21522">
        <ele>289.6</ele>
        <time>2021-12-28T10:10:44Z</time>
      </trkpt>
      <trkpt lat="43.2471" lon="6.21531">
        <ele>289.4</ele>
        <time>2021-12-28T10:10:48Z</time>
      </trkpt>
      <trkpt lat="43.24699" lon="6.2154">
        <ele>288.6</ele>
        <time>2021-12-28T10:10:52Z</time>
      </trkpt>
      <trkpt lat="43.24689" lon="6.21548">
        <ele>288.8</ele>
        <time>2021-12-28T10:10:56Z</time>
      </trkpt>
      <trkpt lat="43.24677" lon="6.21557">
        <ele>289.2</ele>
        <time>2021-12-28T10:11:00Z</time>
      </trkpt>
      <trkpt lat="43.24664" lon="6.21567">
        <ele>289.2</ele>
        <time>2021-12-28T10:11:04Z</time>
      </trkpt>
      <trkpt lat="43.24653" lon="6.21577">
        <ele>290</ele>
        <time>2021-12-28T10:11:08Z</time>
      </trkpt>
      <trkpt lat="43.24642" lon="6.21586">
        <ele>291</ele>
        <time>2021-12-28T10:11:12Z</time>
      </trkpt>
      <trkpt lat="43.24632" lon="6.21596">
        <ele>291.6</ele>
        <time>2021-12-28T10:11:16Z</time>
      </trkpt>
      <trkpt lat="43.24624" lon="6.21607">
        <ele>292.2</ele>
        <time>2021-12-28T10:11:20Z</time>
      </trkpt>
      <trkpt lat="43.24618" lon="6.21622">
        <ele>291.2</ele>
        <time>2021-12-28T10:11:24Z</time>
      </trkpt>
      <trkpt lat="43.24615" lon="6.21635">
        <ele>290.8</ele>
        <time>2021-12-28T10:11:28Z</time>
      </trkpt>
      <trkpt lat="43.24615" lon="6.21648">
        <ele>291.2</ele>
        <time>2021-12-28T10:11:32Z</time>
      </trkpt>
      <trkpt lat="43.24616" lon="6.21664">
        <ele>291.2</ele>
        <time>2021-12-28T10:11:36Z</time>
      </trkpt>
      <trkpt lat="43.24618" lon="6.21684">
        <ele>289.6</ele>
        <time>2021-12-28T10:11:40Z</time>
      </trkpt>
      <trkpt lat="43.2462" lon="6.21704">
        <ele>290.2</ele>
        <time>2021-12-28T10:11:44Z</time>
      </trkpt>
      <trkpt lat="43.24621" lon="6.21722">
        <ele>289.6</ele>
        <time>2021-12-28T10:11:48Z</time>
      </trkpt>
      <trkpt lat="43.24622" lon="6.2174">
        <ele>291.2</ele>
        <time>2021-12-28T10:11:52Z</time>
      </trkpt>
      <trkpt lat="43.24624" lon="6.21756">
        <ele>291.6</ele>
        <time>2021-12-28T10:11:56Z</time>
      </trkpt>
      <trkpt lat="43.24627" lon="6.21771">
        <ele>292.4</ele>
        <time>2021-12-28T10:12:00Z</time>
      </trkpt>
      <trkpt lat="43.2463" lon="6.21784">
        <ele>292.6</ele>
        <time>2021-12-28T10:12:04Z</time>
      </trkpt>
      <trkpt lat="43.24634" lon="6.21797">
        <ele>292.2</ele>
        <time>2021-12-28T10:12:08Z</time>
      </trkpt>
      <trkpt lat="43.2464" lon="6.21809">
        <ele>293.2</ele>
        <time>2021-12-28T10:12:12Z</time>
      </trkpt>
      <trkpt lat="43.24647" lon="6.21819">
        <ele>294.2</ele>
        <time>2021-12-28T10:12:16Z</time>
      </trkpt>
      <trkpt lat="43.24654" lon="6.21827">
        <ele>295.4</ele>
        <time>2021-12-28T10:12:20Z</time>
      </trkpt>
      <trkpt lat="43.24662" lon="6.21834">
        <ele>295.2</ele>
        <time>2021-12-28T10:12:24Z</time>
      </trkpt>
      <trkpt lat="43.2467" lon="6.2184">
        <ele>295.8</ele>
        <time>2021-12-28T10:12:28Z</time>
      </trkpt>
      <trkpt lat="43.24678" lon="6.21847">
        <ele>295.8</ele>
        <time>2021-12-28T10:12:32Z</time>
      </trkpt>
      <trkpt lat="43.24686" lon="6.21855">
        <ele>296.8</ele>
        <time>2021-12-28T10:12:36Z</time>
      </trkpt>
      <trkpt lat="43.24692" lon="6.21867">
        <ele>297</ele>
        <time>2021-12-28T10:12:40Z</time>
      </trkpt>
      <trkpt lat="43.24696" lon="6.21882">
        <ele>296.8</ele>
        <time>2021-12-28T10:12:44Z</time>
      </trkpt>
      <trkpt lat="43.24699" lon="6.21897">
        <ele>298.2</ele>
        <time>2021-12-28T10:12:48Z</time>
      </trkpt>
      <trkpt lat="43.24703" lon="6.2191">
        <ele>298.2</ele>
        <time>2021-12-28T10:12:52Z</time>
      </trkpt>
      <trkpt lat="43.24706" lon="6.21922">
        <ele>298.6</ele>
        <time>2021-12-28T10:12:56Z</time>
      </trkpt>
      <trkpt lat="43.2471" lon="6.21935">
        <ele>300</ele>
        <time>2021-12-28T10:13:00Z</time>
      </trkpt>
      <trkpt lat="43.24715" lon="6.21946">
        <ele>299.2</ele>
        <time>2021-12-28T10:13:04Z</time>
      </trkpt>
      <trkpt lat="43.24721" lon="6.21957">
        <ele>299.8</ele>
        <time>2021-12-28T10:13:08Z</time>
      </trkpt>
      <trkpt lat="43.24727" lon="6.21967">
        <ele>299.8</ele>
        <time>2021-12-28T10:13:12Z</time>
      </trkpt>
      <trkpt lat="43.24733" lon="6.21976">
        <ele>299.8</ele>
        <time>2021-12-28T10:13:16Z</time>
      </trkpt>
      <trkpt lat="43.24738" lon="6.21987">
        <ele>300.2</ele>
        <time>2021-12-28T10:13:20Z</time>
      </trkpt>
      <trkpt lat="43.2474" lon="6.21998">
        <ele>301</ele>
        <time>2021-12-28T10:13:24Z</time>
      </trkpt>
      <trkpt lat="43.24739" lon="6.2201">
        <ele>301.8</ele>
        <time>2021-12-28T10:13:28Z</time>
      </trkpt>
      <trkpt lat="43.24737" lon="6.22022">
        <ele>301.8</ele>
        <time>2021-12-28T10:13:32Z</time>
      </trkpt>
      <trkpt lat="43.24734" lon="6.22036">
        <ele>301.8</ele>
        <time>2021-12-28T10:13:36Z</time>
      </trkpt>
      <trkpt lat="43.24731" lon="6.2205">
        <ele>301.6</ele>
        <time>2021-12-28T10:13:40Z</time>
      </trkpt>
      <trkpt lat="43.24727" lon="6.22065">
        <ele>301.6</ele>
        <time>2021-12-28T10:13:44Z</time>
      </trkpt>
      <trkpt lat="43.24721" lon="6.22074">
        <ele>302</ele>
        <time>2021-12-28T10:13:48Z</time>
      </trkpt>
      <trkpt lat="43.24713" lon="6.22082">
        <ele>302.4</ele>
        <time>2021-12-28T10:13:52Z</time>
      </trkpt>
      <trkpt lat="43.24707" lon="6.22092">
        <ele>302.4</ele>
        <time>2021-12-28T10:13:56Z</time>
      </trkpt>
      <trkpt lat="43.24702" lon="6.22102">
        <ele>303</ele>
        <time>2021-12-28T10:14:00Z</time>
      </trkpt>
      <trkpt lat="43.24698" lon="6.22111">
        <ele>304</ele>
        <time>2021-12-28T10:14:04Z</time>
      </trkpt>
      <trkpt lat="43.24694" lon="6.2212">
        <ele>304.8</ele>
        <time>2021-12-28T10:14:08Z</time>
      </trkpt>
      <trkpt lat="43.24691" lon="6.22129">
        <ele>305</ele>
        <time>2021-12-28T10:14:12Z</time>
      </trkpt>
      <trkpt lat="43.24688" lon="6.22137">
        <ele>305</ele>
        <time>2021-12-28T10:14:16Z</time>
      </trkpt>
      <trkpt lat="43.24684" lon="6.22145">
        <ele>306.2</ele>
        <time>2021-12-28T10:14:20Z</time>
      </trkpt>
      <trkpt lat="43.2468" lon="6.22152">
        <ele>307.6</ele>
        <time>2021-12-28T10:14:24Z</time>
      </trkpt>
      <trkpt lat="43.24677" lon="6.2216">
        <ele>308.6</ele>
        <time>2021-12-28T10:14:28Z</time>
      </trkpt>
      <trkpt lat="43.24675" lon="6.22166">
        <ele>309.2</ele>
        <time>2021-12-28T10:14:32Z</time>
      </trkpt>
      <trkpt lat="43.24671" lon="6.22172">
        <ele>310.6</ele>
        <time>2021-12-28T10:14:36Z</time>
      </trkpt>
      <trkpt lat="43.24668" lon="6.22179">
        <ele>310.4</ele>
        <time>2021-12-28T10:14:40Z</time>
      </trkpt>
      <trkpt lat="43.24665" lon="6.22185">
        <ele>312</ele>
        <time>2021-12-28T10:14:44Z</time>
      </trkpt>
      <trkpt lat="43.24661" lon="6.22192">
        <ele>311.8</ele>
        <time>2021-12-28T10:14:48Z</time>
      </trkpt>
      <trkpt lat="43.24657" lon="6.222">
        <ele>313.4</ele>
        <time>2021-12-28T10:14:52Z</time>
      </trkpt>
      <trkpt lat="43.24653" lon="6.22207">
        <ele>313.8</ele>
        <time>2021-12-28T10:14:56Z</time>
      </trkpt>
      <trkpt lat="43.2465" lon="6.22214">
        <ele>314</ele>
        <time>2021-12-28T10:15:00Z</time>
      </trkpt>
      <trkpt lat="43.24645" lon="6.22222">
        <ele>314.4</ele>
        <time>2021-12-28T10:15:04Z</time>
      </trkpt>
      <trkpt lat="43.24642" lon="6.22233">
        <ele>314.6</ele>
        <time>2021-12-28T10:15:08Z</time>
      </trkpt>
      <trkpt lat="43.24644" lon="6.22246">
        <ele>314.2</ele>
        <time>2021-12-28T10:15:12Z</time>
      </trkpt>
      <trkpt lat="43.24651" lon="6.22253">
        <ele>314.6</ele>
        <time>2021-12-28T10:15:16Z</time>
      </trkpt>
      <trkpt lat="43.24659" lon="6.22257">
        <ele>314.4</ele>
        <time>2021-12-28T10:15:20Z</time>
      </trkpt>
      <trkpt lat="43.24669" lon="6.22255">
        <ele>314.6</ele>
        <time>2021-12-28T10:15:24Z</time>
      </trkpt>
      <trkpt lat="43.24681" lon="6.22251">
        <ele>315.2</ele>
        <time>2021-12-28T10:15:28Z</time>
      </trkpt>
      <trkpt lat="43.24693" lon="6.22248">
        <ele>315</ele>
        <time>2021-12-28T10:15:32Z</time>
      </trkpt>
      <trkpt lat="43.24705" lon="6.22246">
        <ele>314.8</ele>
        <time>2021-12-28T10:15:36Z</time>
      </trkpt>
      <trkpt lat="43.24717" lon="6.2225">
        <ele>315.2</ele>
        <time>2021-12-28T10:15:40Z</time>
      </trkpt>
      <trkpt lat="43.24728" lon="6.22252">
        <ele>315</ele>
        <time>2021-12-28T10:15:44Z</time>
      </trkpt>
      <trkpt lat="43.24738" lon="6.22255">
        <ele>314.4</ele>
        <time>2021-12-28T10:15:48Z</time>
      </trkpt>
      <trkpt lat="43.24748" lon="6.22257">
        <ele>314.6</ele>
        <time>2021-12-28T10:15:52Z</time>
      </trkpt>
      <trkpt lat="43.24758" lon="6.22258">
        <ele>314.8</ele>
        <time>2021-12-28T10:15:56Z</time>
      </trkpt>
      <trkpt lat="43.24765" lon="6.22258">
        <ele>315.2</ele>
        <time>2021-12-28T10:16:00Z</time>
      </trkpt>
      <trkpt lat="43.24773" lon="6.22257">
        <ele>316</ele>
        <time>2021-12-28T10:16:04Z</time>
      </trkpt>
      <trkpt lat="43.24782" lon="6.22257">
        <ele>316.8</ele>
        <time>2021-12-28T10:16:08Z</time>
      </trkpt>
      <trkpt lat="43.24791" lon="6.22258">
        <ele>317.4</ele>
        <time>2021-12-28T10:16:12Z</time>
      </trkpt>
      <trkpt lat="43.24799" lon="6.22258">
        <ele>317.8</ele>
        <time>2021-12-28T10:16:16Z</time>
      </trkpt>
      <trkpt lat="43.24808" lon="6.22259">
        <ele>318.8</ele>
        <time>2021-12-28T10:16:20Z</time>
      </trkpt>
      <trkpt lat="43.24817" lon="6.22261">
        <ele>319.8</ele>
        <time>2021-12-28T10:16:24Z</time>
      </trkpt>
      <trkpt lat="43.24826" lon="6.22265">
        <ele>320.8</ele>
        <time>2021-12-28T10:16:28Z</time>
      </trkpt>
      <trkpt lat="43.24834" lon="6.22268">
        <ele>320.8</ele>
        <time>2021-12-28T10:16:32Z</time>
      </trkpt>
      <trkpt lat="43.24842" lon="6.22274">
        <ele>320.4</ele>
        <time>2021-12-28T10:16:36Z</time>
      </trkpt>
      <trkpt lat="43.24849" lon="6.22283">
        <ele>319.8</ele>
        <time>2021-12-28T10:16:40Z</time>
      </trkpt>
      <trkpt lat="43.24856" lon="6.22298">
        <ele>319.6</ele>
        <time>2021-12-28T10:16:44Z</time>
      </trkpt>
      <trkpt lat="43.24861" lon="6.22313">
        <ele>318.2</ele>
        <time>2021-12-28T10:16:48Z</time>
      </trkpt>
      <trkpt lat="43.24867" lon="6.22329">
        <ele>318.8</ele>
        <time>2021-12-28T10:16:52Z</time>
      </trkpt>
      <trkpt lat="43.24871" lon="6.22344">
        <ele>319.6</ele>
        <time>2021-12-28T10:16:56Z</time>
      </trkpt>
      <trkpt lat="43.24875" lon="6.22357">
        <ele>320.4</ele>
        <time>2021-12-28T10:17:00Z</time>
      </trkpt>
      <trkpt lat="43.24879" lon="6.2237">
        <ele>321.2</ele>
        <time>2021-12-28T10:17:04Z</time>
      </trkpt>
      <trkpt lat="43.24883" lon="6.22382">
        <ele>321.2</ele>
        <time>2021-12-28T10:17:08Z</time>
      </trkpt>
      <trkpt lat="43.24887" lon="6.22394">
        <ele>322.2</ele>
        <time>2021-12-28T10:17:12Z</time>
      </trkpt>
      <trkpt lat="43.24891" lon="6.22407">
        <ele>322.8</ele>
        <time>2021-12-28T10:17:16Z</time>
      </trkpt>
      <trkpt lat="43.24895" lon="6.2242">
        <ele>323.4</ele>
        <time>2021-12-28T10:17:20Z</time>
      </trkpt>
      <trkpt lat="43.24898" lon="6.22432">
        <ele>323.4</ele>
        <time>2021-12-28T10:17:24Z</time>
      </trkpt>
      <trkpt lat="43.24901" lon="6.22445">
        <ele>324.6</ele>
        <time>2021-12-28T10:17:28Z</time>
      </trkpt>
      <trkpt lat="43.24904" lon="6.22456">
        <ele>325.6</ele>
        <time>2021-12-28T10:17:32Z</time>
      </trkpt>
      <trkpt lat="43.24907" lon="6.22467">
        <ele>326.2</ele>
        <time>2021-12-28T10:17:36Z</time>
      </trkpt>
      <trkpt lat="43.2491" lon="6.22478">
        <ele>327</ele>
        <time>2021-12-28T10:17:40Z</time>
      </trkpt>
      <trkpt lat="43.24912" lon="6.22487">
        <ele>328.2</ele>
        <time>2021-12-28T10:17:44Z</time>
      </trkpt>
      <trkpt lat="43.24915" lon="6.22497">
        <ele>328.4</ele>
        <time>2021-12-28T10:17:48Z</time>
      </trkpt>
      <trkpt lat="43.24918" lon="6.22505">
        <ele>329</ele>
        <time>2021-12-28T10:17:52Z</time>
      </trkpt>
      <trkpt lat="43.2492" lon="6.22514">
        <ele>329.2</ele>
        <time>2021-12-28T10:17:56Z</time>
      </trkpt>
      <trkpt lat="43.24924" lon="6.22523">
        <ele>329.6</ele>
        <time>2021-12-28T10:18:00Z</time>
      </trkpt>
      <trkpt lat="43.24928" lon="6.22532">
        <ele>329.2</ele>
        <time>2021-12-28T10:18:04Z</time>
      </trkpt>
      <trkpt lat="43.24934" lon="6.22542">
        <ele>329.4</ele>
        <time>2021-12-28T10:18:08Z</time>
      </trkpt>
      <trkpt lat="43.24941" lon="6.2255">
        <ele>329</ele>
        <time>2021-12-28T10:18:12Z</time>
      </trkpt>
      <trkpt lat="43.24948" lon="6.22558">
        <ele>330</ele>
        <time>2021-12-28T10:18:16Z</time>
      </trkpt>
      <trkpt lat="43.24956" lon="6.22566">
        <ele>330.4</ele>
        <time>2021-12-28T10:18:20Z</time>
      </trkpt>
      <trkpt lat="43.24965" lon="6.22576">
        <ele>331.6</ele>
        <time>2021-12-28T10:18:24Z</time>
      </trkpt>
      <trkpt lat="43.24974" lon="6.22587">
        <ele>331.6</ele>
        <time>2021-12-28T10:18:28Z</time>
      </trkpt>
      <trkpt lat="43.24984" lon="6.22599">
        <ele>331.8</ele>
        <time>2021-12-28T10:18:32Z</time>
      </trkpt>
      <trkpt lat="43.24994" lon="6.22609">
        <ele>331.8</ele>
        <time>2021-12-28T10:18:36Z</time>
      </trkpt>
      <trkpt lat="43.25003" lon="6.22619">
        <ele>332.6</ele>
        <time>2021-12-28T10:18:40Z</time>
      </trkpt>
      <trkpt lat="43.25012" lon="6.22628">
        <ele>332.2</ele>
        <time>2021-12-28T10:18:44Z</time>
      </trkpt>
      <trkpt lat="43.25018" lon="6.22637">
        <ele>332</ele>
        <time>2021-12-28T10:18:48Z</time>
      </trkpt>
      <trkpt lat="43.25023" lon="6.22646">
        <ele>331.8</ele>
        <time>2021-12-28T10:18:52Z</time>
      </trkpt>
      <trkpt lat="43.25026" lon="6.22657">
        <ele>331.2</ele>
        <time>2021-12-28T10:18:56Z</time>
      </trkpt>
      <trkpt lat="43.25028" lon="6.22671">
        <ele>332.2</ele>
        <time>2021-12-28T10:19:00Z</time>
      </trkpt>
      <trkpt lat="43.2503" lon="6.22683">
        <ele>333.2</ele>
        <time>2021-12-28T10:19:04Z</time>
      </trkpt>
      <trkpt lat="43.25031" lon="6.22697">
        <ele>333.2</ele>
        <time>2021-12-28T10:19:08Z</time>
      </trkpt>
      <trkpt lat="43.25032" lon="6.22711">
        <ele>333.2</ele>
        <time>2021-12-28T10:19:12Z</time>
      </trkpt>
      <trkpt lat="43.25033" lon="6.22724">
        <ele>333.6</ele>
        <time>2021-12-28T10:19:16Z</time>
      </trkpt>
      <trkpt lat="43.25035" lon="6.22738">
        <ele>333.4</ele>
        <time>2021-12-28T10:19:20Z</time>
      </trkpt>
      <trkpt lat="43.25037" lon="6.22751">
        <ele>334.4</ele>
        <time>2021-12-28T10:19:24Z</time>
      </trkpt>
      <trkpt lat="43.2504" lon="6.22764">
        <ele>334.2</ele>
        <time>2021-12-28T10:19:28Z</time>
      </trkpt>
      <trkpt lat="43.25043" lon="6.22776">
        <ele>335.2</ele>
        <time>2021-12-28T10:19:32Z</time>
      </trkpt>
      <trkpt lat="43.25047" lon="6.22787">
        <ele>335.2</ele>
        <time>2021-12-28T10:19:36Z</time>
      </trkpt>
      <trkpt lat="43.25051" lon="6.22798">
        <ele>334.8</ele>
        <time>2021-12-28T10:19:40Z</time>
      </trkpt>
      <trkpt lat="43.25054" lon="6.22809">
        <ele>336</ele>
        <time>2021-12-28T10:19:44Z</time>
      </trkpt>
      <trkpt lat="43.25058" lon="6.2282">
        <ele>337</ele>
        <time>2021-12-28T10:19:48Z</time>
      </trkpt>
      <trkpt lat="43.25061" lon="6.22831">
        <ele>336.8</ele>
        <time>2021-12-28T10:19:52Z</time>
      </trkpt>
      <trkpt lat="43.25064" lon="6.22843">
        <ele>338</ele>
        <time>2021-12-28T10:19:56Z</time>
      </trkpt>
      <trkpt lat="43.25067" lon="6.22852">
        <ele>338.2</ele>
        <time>2021-12-28T10:20:00Z</time>
      </trkpt>
      <trkpt lat="43.25069" lon="6.22861">
        <ele>339</ele>
        <time>2021-12-28T10:20:04Z</time>
      </trkpt>
      <trkpt lat="43.25069" lon="6.2287">
        <ele>339.6</ele>
        <time>2021-12-28T10:20:08Z</time>
      </trkpt>
      <trkpt lat="43.25068" lon="6.22877">
        <ele>339</ele>
        <time>2021-12-28T10:20:12Z</time>
      </trkpt>
      <trkpt lat="43.25067" lon="6.22883">
        <ele>340.8</ele>
        <time>2021-12-28T10:20:16Z</time>
      </trkpt>
      <trkpt lat="43.25063" lon="6.22877">
        <ele>340.6</ele>
        <time>2021-12-28T10:20:20Z</time>
      </trkpt>
      <trkpt lat="43.25061" lon="6.22864">
        <ele>338.6</ele>
        <time>2021-12-28T10:20:24Z</time>
      </trkpt>
      <trkpt lat="43.2506" lon="6.22854">
        <ele>338</ele>
        <time>2021-12-28T10:20:28Z</time>
      </trkpt>
      <trkpt lat="43.25056" lon="6.22838">
        <ele>335.4</ele>
        <time>2021-12-28T10:20:50Z</time>
      </trkpt>
      <trkpt lat="43.2505" lon="6.22815">
        <ele>333.2</ele>
        <time>2021-12-28T10:20:54Z</time>
      </trkpt>
      <trkpt lat="43.25044" lon="6.228">
        <ele>333</ele>
        <time>2021-12-28T10:20:58Z</time>
      </trkpt>
      <trkpt lat="43.25042" lon="6.22794">
        <ele>331.8</ele>
        <time>2021-12-28T10:21:11Z</time>
      </trkpt>
      <trkpt lat="43.25036" lon="6.22781">
        <ele>330.6</ele>
        <time>2021-12-28T10:21:15Z</time>
      </trkpt>
      <trkpt lat="43.2503" lon="6.22764">
        <ele>329.8</ele>
        <time>2021-12-28T10:21:19Z</time>
      </trkpt>
      <trkpt lat="43.25024" lon="6.22743">
        <ele>326.4</ele>
        <time>2021-12-28T10:21:23Z</time>
      </trkpt>
      <trkpt lat="43.2502" lon="6.22715">
        <ele>323.8</ele>
        <time>2021-12-28T10:21:27Z</time>
      </trkpt>
      <trkpt lat="43.25018" lon="6.22685">
        <ele>322.4</ele>
        <time>2021-12-28T10:21:31Z</time>
      </trkpt>
      <trkpt lat="43.2501" lon="6.22659">
        <ele>320.4</ele>
        <time>2021-12-28T10:21:35Z</time>
      </trkpt>
      <trkpt lat="43.24991" lon="6.22647">
        <ele>317.8</ele>
        <time>2021-12-28T10:21:39Z</time>
      </trkpt>
      <trkpt lat="43.24972" lon="6.22634">
        <ele>312.6</ele>
        <time>2021-12-28T10:21:43Z</time>
      </trkpt>
      <trkpt lat="43.24949" lon="6.22619">
        <ele>314</ele>
        <time>2021-12-28T10:21:47Z</time>
      </trkpt>
      <trkpt lat="43.24927" lon="6.22608">
        <ele>312.6</ele>
        <time>2021-12-28T10:21:51Z</time>
      </trkpt>
      <trkpt lat="43.24907" lon="6.22594">
        <ele>307</ele>
        <time>2021-12-28T10:21:55Z</time>
      </trkpt>
      <trkpt lat="43.24886" lon="6.22575">
        <ele>305</ele>
        <time>2021-12-28T10:21:59Z</time>
      </trkpt>
      <trkpt lat="43.24874" lon="6.22554">
        <ele>304.8</ele>
        <time>2021-12-28T10:22:03Z</time>
      </trkpt>
      <trkpt lat="43.24867" lon="6.2253">
        <ele>303.4</ele>
        <time>2021-12-28T10:22:07Z</time>
      </trkpt>
      <trkpt lat="43.24865" lon="6.2251">
        <ele>304.4</ele>
        <time>2021-12-28T10:22:11Z</time>
      </trkpt>
      <trkpt lat="43.24863" lon="6.22489">
        <ele>302.2</ele>
        <time>2021-12-28T10:22:15Z</time>
      </trkpt>
      <trkpt lat="43.24855" lon="6.22463">
        <ele>297.8</ele>
        <time>2021-12-28T10:22:19Z</time>
      </trkpt>
      <trkpt lat="43.24839" lon="6.22435">
        <ele>296.6</ele>
        <time>2021-12-28T10:22:23Z</time>
      </trkpt>
      <trkpt lat="43.24826" lon="6.2241">
        <ele>291.6</ele>
        <time>2021-12-28T10:22:27Z</time>
      </trkpt>
      <trkpt lat="43.24813" lon="6.22384">
        <ele>289</ele>
        <time>2021-12-28T10:22:31Z</time>
      </trkpt>
      <trkpt lat="43.24801" lon="6.22364">
        <ele>290.4</ele>
        <time>2021-12-28T10:22:35Z</time>
      </trkpt>
      <trkpt lat="43.24789" lon="6.22347">
        <ele>286.8</ele>
        <time>2021-12-28T10:22:39Z</time>
      </trkpt>
      <trkpt lat="43.24772" lon="6.22349">
        <ele>285</ele>
        <time>2021-12-28T10:22:43Z</time>
      </trkpt>
      <trkpt lat="43.24751" lon="6.22357">
        <ele>282.6</ele>
        <time>2021-12-28T10:22:47Z</time>
      </trkpt>
      <trkpt lat="43.24733" lon="6.22365">
        <ele>283</ele>
        <time>2021-12-28T10:22:51Z</time>
      </trkpt>
      <trkpt lat="43.24716" lon="6.22368">
        <ele>280</ele>
        <time>2021-12-28T10:22:55Z</time>
      </trkpt>
      <trkpt lat="43.24694" lon="6.2238">
        <ele>276.6</ele>
        <time>2021-12-28T10:22:59Z</time>
      </trkpt>
      <trkpt lat="43.24671" lon="6.22391">
        <ele>274.4</ele>
        <time>2021-12-28T10:23:03Z</time>
      </trkpt>
      <trkpt lat="43.24648" lon="6.22401">
        <ele>272.4</ele>
        <time>2021-12-28T10:23:07Z</time>
      </trkpt>
      <trkpt lat="43.24625" lon="6.22411">
        <ele>270.8</ele>
        <time>2021-12-28T10:23:11Z</time>
      </trkpt>
      <trkpt lat="43.24606" lon="6.2242">
        <ele>268.6</ele>
        <time>2021-12-28T10:23:15Z</time>
      </trkpt>
      <trkpt lat="43.2459" lon="6.22434">
        <ele>268</ele>
        <time>2021-12-28T10:23:19Z</time>
      </trkpt>
      <trkpt lat="43.24573" lon="6.22449">
        <ele>265.2</ele>
        <time>2021-12-28T10:23:23Z</time>
      </trkpt>
      <trkpt lat="43.24552" lon="6.22463">
        <ele>264.2</ele>
        <time>2021-12-28T10:23:27Z</time>
      </trkpt>
      <trkpt lat="43.24528" lon="6.22473">
        <ele>262</ele>
        <time>2021-12-28T10:23:31Z</time>
      </trkpt>
      <trkpt lat="43.24506" lon="6.22477">
        <ele>261.2</ele>
        <time>2021-12-28T10:23:35Z</time>
      </trkpt>
      <trkpt lat="43.24481" lon="6.22479">
        <ele>260.6</ele>
        <time>2021-12-28T10:23:39Z</time>
      </trkpt>
      <trkpt lat="43.24461" lon="6.22481">
        <ele>258.8</ele>
        <time>2021-12-28T10:23:43Z</time>
      </trkpt>
      <trkpt lat="43.24439" lon="6.22482">
        <ele>255</ele>
        <time>2021-12-28T10:23:47Z</time>
      </trkpt>
      <trkpt lat="43.24421" lon="6.22485">
        <ele>253.6</ele>
        <time>2021-12-28T10:23:51Z</time>
      </trkpt>
      <trkpt lat="43.24402" lon="6.22486">
        <ele>250</ele>
        <time>2021-12-28T10:23:55Z</time>
      </trkpt>
      <trkpt lat="43.24379" lon="6.22486">
        <ele>248</ele>
        <time>2021-12-28T10:23:59Z</time>
      </trkpt>
      <trkpt lat="43.24356" lon="6.2248">
        <ele>245.8</ele>
        <time>2021-12-28T10:24:03Z</time>
      </trkpt>
      <trkpt lat="43.24329" lon="6.22474">
        <ele>244.8</ele>
        <time>2021-12-28T10:24:07Z</time>
      </trkpt>
      <trkpt lat="43.24303" lon="6.22473">
        <ele>244.2</ele>
        <time>2021-12-28T10:24:11Z</time>
      </trkpt>
      <trkpt lat="43.24281" lon="6.2248">
        <ele>241.8</ele>
        <time>2021-12-28T10:24:15Z</time>
      </trkpt>
      <trkpt lat="43.2426" lon="6.22486">
        <ele>240</ele>
        <time>2021-12-28T10:24:19Z</time>
      </trkpt>
      <trkpt lat="43.24236" lon="6.22483">
        <ele>238</ele>
        <time>2021-12-28T10:24:23Z</time>
      </trkpt>
      <trkpt lat="43.24216" lon="6.22471">
        <ele>238</ele>
        <time>2021-12-28T10:24:27Z</time>
      </trkpt>
      <trkpt lat="43.24204" lon="6.22449">
        <ele>234.8</ele>
        <time>2021-12-28T10:24:31Z</time>
      </trkpt>
      <trkpt lat="43.24199" lon="6.22424">
        <ele>234.2</ele>
        <time>2021-12-28T10:24:35Z</time>
      </trkpt>
      <trkpt lat="43.24188" lon="6.22402">
        <ele>234.8</ele>
        <time>2021-12-28T10:24:39Z</time>
      </trkpt>
      <trkpt lat="43.24173" lon="6.22382">
        <ele>233.4</ele>
        <time>2021-12-28T10:24:43Z</time>
      </trkpt>
      <trkpt lat="43.24156" lon="6.2236">
        <ele>230.6</ele>
        <time>2021-12-28T10:24:47Z</time>
      </trkpt>
      <trkpt lat="43.24141" lon="6.22331">
        <ele>227</ele>
        <time>2021-12-28T10:24:51Z</time>
      </trkpt>
      <trkpt lat="43.24134" lon="6.22296">
        <ele>224.2</ele>
        <time>2021-12-28T10:24:55Z</time>
      </trkpt>
      <trkpt lat="43.24134" lon="6.2227">
        <ele>223.4</ele>
        <time>2021-12-28T10:24:59Z</time>
      </trkpt>
      <trkpt lat="43.24136" lon="6.22248">
        <ele>224.6</ele>
        <time>2021-12-28T10:25:03Z</time>
      </trkpt>
      <trkpt lat="43.2413" lon="6.22243">
        <ele>224.4</ele>
        <time>2021-12-28T10:25:07Z</time>
      </trkpt>
      <trkpt lat="43.24129" lon="6.22256">
        <ele>223.2</ele>
        <time>2021-12-28T10:25:11Z</time>
      </trkpt>
      <trkpt lat="43.24121" lon="6.22275">
        <ele>221.6</ele>
        <time>2021-12-28T10:25:15Z</time>
      </trkpt>
      <trkpt lat="43.24113" lon="6.22299">
        <ele>219.4</ele>
        <time>2021-12-28T10:25:19Z</time>
      </trkpt>
      <trkpt lat="43.24109" lon="6.22324">
        <ele>217.2</ele>
        <time>2021-12-28T10:25:23Z</time>
      </trkpt>
      <trkpt lat="43.24107" lon="6.22353">
        <ele>216</ele>
        <time>2021-12-28T10:25:27Z</time>
      </trkpt>
      <trkpt lat="43.24112" lon="6.22382">
        <ele>214</ele>
        <time>2021-12-28T10:25:31Z</time>
      </trkpt>
      <trkpt lat="43.24125" lon="6.22405">
        <ele>212.8</ele>
        <time>2021-12-28T10:25:35Z</time>
      </trkpt>
      <trkpt lat="43.24137" lon="6.22425">
        <ele>210.8</ele>
        <time>2021-12-28T10:25:39Z</time>
      </trkpt>
      <trkpt lat="43.24134" lon="6.22447">
        <ele>210.6</ele>
        <time>2021-12-28T10:25:43Z</time>
      </trkpt>
      <trkpt lat="43.24124" lon="6.22466">
        <ele>209</ele>
        <time>2021-12-28T10:25:47Z</time>
      </trkpt>
      <trkpt lat="43.24115" lon="6.22492">
        <ele>206.2</ele>
        <time>2021-12-28T10:25:51Z</time>
      </trkpt>
      <trkpt lat="43.24106" lon="6.22522">
        <ele>205.6</ele>
        <time>2021-12-28T10:25:55Z</time>
      </trkpt>
      <trkpt lat="43.241" lon="6.22545">
        <ele>203.8</ele>
        <time>2021-12-28T10:25:59Z</time>
      </trkpt>
      <trkpt lat="43.24095" lon="6.22565">
        <ele>202.2</ele>
        <time>2021-12-28T10:26:03Z</time>
      </trkpt>
      <trkpt lat="43.24098" lon="6.22588">
        <ele>200.6</ele>
        <time>2021-12-28T10:26:07Z</time>
      </trkpt>
      <trkpt lat="43.24114" lon="6.22603">
        <ele>198.4</ele>
        <time>2021-12-28T10:26:11Z</time>
      </trkpt>
      <trkpt lat="43.24132" lon="6.22607">
        <ele>199</ele>
        <time>2021-12-28T10:26:15Z</time>
      </trkpt>
      <trkpt lat="43.24145" lon="6.22606">
        <ele>198.2</ele>
        <time>2021-12-28T10:26:19Z</time>
      </trkpt>
      <trkpt lat="43.24149" lon="6.22615">
        <ele>197.8</ele>
        <time>2021-12-28T10:26:23Z</time>
      </trkpt>
      <trkpt lat="43.24133" lon="6.22623">
        <ele>196</ele>
        <time>2021-12-28T10:26:35Z</time>
      </trkpt>
      <trkpt lat="43.24123" lon="6.22629">
        <ele>194.8</ele>
        <time>2021-12-28T10:26:39Z</time>
      </trkpt>
      <trkpt lat="43.24109" lon="6.22638">
        <ele>193.2</ele>
        <time>2021-12-28T10:26:43Z</time>
      </trkpt>
      <trkpt lat="43.24096" lon="6.22643">
        <ele>192</ele>
        <time>2021-12-28T10:26:47Z</time>
      </trkpt>
      <trkpt lat="43.24082" lon="6.22647">
        <ele>190.8</ele>
        <time>2021-12-28T10:26:51Z</time>
      </trkpt>
      <trkpt lat="43.24063" lon="6.22648">
        <ele>189.2</ele>
        <time>2021-12-28T10:26:55Z</time>
      </trkpt>
      <trkpt lat="43.24046" lon="6.22641">
        <ele>187.6</ele>
        <time>2021-12-28T10:26:59Z</time>
      </trkpt>
      <trkpt lat="43.24031" lon="6.22627">
        <ele>186.4</ele>
        <time>2021-12-28T10:27:03Z</time>
      </trkpt>
      <trkpt lat="43.24019" lon="6.22606">
        <ele>181</ele>
        <time>2021-12-28T10:27:07Z</time>
      </trkpt>
      <trkpt lat="43.24009" lon="6.22585">
        <ele>179.8</ele>
        <time>2021-12-28T10:27:11Z</time>
      </trkpt>
      <trkpt lat="43.24002" lon="6.22566">
        <ele>178.4</ele>
        <time>2021-12-28T10:27:15Z</time>
      </trkpt>
      <trkpt lat="43.23998" lon="6.22543">
        <ele>173.4</ele>
        <time>2021-12-28T10:27:19Z</time>
      </trkpt>
      <trkpt lat="43.23995" lon="6.22522">
        <ele>175</ele>
        <time>2021-12-28T10:27:23Z</time>
      </trkpt>
      <trkpt lat="43.23988" lon="6.22503">
        <ele>171.8</ele>
        <time>2021-12-28T10:27:27Z</time>
      </trkpt>
      <trkpt lat="43.23967" lon="6.225">
        <ele>169.4</ele>
        <time>2021-12-28T10:27:31Z</time>
      </trkpt>
      <trkpt lat="43.23946" lon="6.22511">
        <ele>166.8</ele>
        <time>2021-12-28T10:27:35Z</time>
      </trkpt>
      <trkpt lat="43.2393" lon="6.22518">
        <ele>165</ele>
        <time>2021-12-28T10:27:39Z</time>
      </trkpt>
      <trkpt lat="43.23916" lon="6.22529">
        <ele>163.4</ele>
        <time>2021-12-28T10:27:43Z</time>
      </trkpt>
      <trkpt lat="43.23901" lon="6.22543">
        <ele>160.2</ele>
        <time>2021-12-28T10:27:47Z</time>
      </trkpt>
      <trkpt lat="43.23882" lon="6.22545">
        <ele>159</ele>
        <time>2021-12-28T10:27:51Z</time>
      </trkpt>
      <trkpt lat="43.23861" lon="6.22537">
        <ele>154.2</ele>
        <time>2021-12-28T10:27:55Z</time>
      </trkpt>
      <trkpt lat="43.23847" lon="6.22524">
        <ele>153.2</ele>
        <time>2021-12-28T10:27:59Z</time>
      </trkpt>
      <trkpt lat="43.23837" lon="6.22511">
        <ele>151.4</ele>
        <time>2021-12-28T10:28:03Z</time>
      </trkpt>
      <trkpt lat="43.2383" lon="6.22503">
        <ele>152.4</ele>
        <time>2021-12-28T10:28:07Z</time>
      </trkpt>
      <trkpt lat="43.23818" lon="6.22486">
        <ele>149.4</ele>
        <time>2021-12-28T10:28:11Z</time>
      </trkpt>
      <trkpt lat="43.23808" lon="6.22478">
        <ele>149.2</ele>
        <time>2021-12-28T10:28:15Z</time>
      </trkpt>
      <trkpt lat="43.23802" lon="6.22477">
        <ele>149.2</ele>
        <time>2021-12-28T10:28:19Z</time>
      </trkpt>
      <trkpt lat="43.23791" lon="6.22471">
        <ele>149.6</ele>
        <time>2021-12-28T10:28:23Z</time>
      </trkpt>
      <trkpt lat="43.23777" lon="6.22465">
        <ele>147.2</ele>
        <time>2021-12-28T10:28:27Z</time>
      </trkpt>
      <trkpt lat="43.23761" lon="6.22462">
        <ele>146.4</ele>
        <time>2021-12-28T10:28:31Z</time>
      </trkpt>
      <trkpt lat="43.2375" lon="6.22453">
        <ele>147</ele>
        <time>2021-12-28T10:28:35Z</time>
      </trkpt>
      <trkpt lat="43.2374" lon="6.22447">
        <ele>147</ele>
        <time>2021-12-28T10:28:39Z</time>
      </trkpt>
      <trkpt lat="43.23728" lon="6.2244">
        <ele>146.4</ele>
        <time>2021-12-28T10:28:43Z</time>
      </trkpt>
      <trkpt lat="43.23717" lon="6.22439">
        <ele>146.6</ele>
        <time>2021-12-28T10:28:47Z</time>
      </trkpt>
      <trkpt lat="43.23706" lon="6.22433">
        <ele>145.4</ele>
        <time>2021-12-28T10:28:51Z</time>
      </trkpt>
      <trkpt lat="43.23698" lon="6.22427">
        <ele>145.2</ele>
        <time>2021-12-28T10:28:55Z</time>
      </trkpt>
      <trkpt lat="43.23685" lon="6.22426">
        <ele>143.8</ele>
        <time>2021-12-28T10:29:40Z</time>
      </trkpt>
      <trkpt lat="43.23673" lon="6.22432">
        <ele>142.4</ele>
        <time>2021-12-28T10:29:44Z</time>
      </trkpt>
      <trkpt lat="43.23658" lon="6.22437">
        <ele>142.4</ele>
        <time>2021-12-28T10:29:48Z</time>
      </trkpt>
      <trkpt lat="43.23646" lon="6.22441">
        <ele>141.2</ele>
        <time>2021-12-28T10:29:52Z</time>
      </trkpt>
      <trkpt lat="43.23632" lon="6.22446">
        <ele>139.2</ele>
        <time>2021-12-28T10:29:56Z</time>
      </trkpt>
      <trkpt lat="43.23618" lon="6.22441">
        <ele>138.2</ele>
        <time>2021-12-28T10:30:00Z</time>
      </trkpt>
      <trkpt lat="43.23599" lon="6.22431">
        <ele>137</ele>
        <time>2021-12-28T10:30:04Z</time>
      </trkpt>
      <trkpt lat="43.23574" lon="6.22424">
        <ele>134.6</ele>
        <time>2021-12-28T10:30:08Z</time>
      </trkpt>
      <trkpt lat="43.2355" lon="6.22415">
        <ele>131.8</ele>
        <time>2021-12-28T10:30:12Z</time>
      </trkpt>
      <trkpt lat="43.23532" lon="6.22402">
        <ele>131.4</ele>
        <time>2021-12-28T10:30:16Z</time>
      </trkpt>
      <trkpt lat="43.23528" lon="6.22385">
        <ele>131.8</ele>
        <time>2021-12-28T10:30:20Z</time>
      </trkpt>
      <trkpt lat="43.23531" lon="6.22365">
        <ele>133</ele>
        <time>2021-12-28T10:30:24Z</time>
      </trkpt>
      <trkpt lat="43.23536" lon="6.22345">
        <ele>133.4</ele>
        <time>2021-12-28T10:30:28Z</time>
      </trkpt>
      <trkpt lat="43.2354" lon="6.22323">
        <ele>132.4</ele>
        <time>2021-12-28T10:30:32Z</time>
      </trkpt>
      <trkpt lat="43.23544" lon="6.22301">
        <ele>133.2</ele>
        <time>2021-12-28T10:30:36Z</time>
      </trkpt>
      <trkpt lat="43.23548" lon="6.22277">
        <ele>134</ele>
        <time>2021-12-28T10:30:40Z</time>
      </trkpt>
      <trkpt lat="43.23553" lon="6.22255">
        <ele>133.4</ele>
        <time>2021-12-28T10:30:44Z</time>
      </trkpt>
      <trkpt lat="43.23559" lon="6.22232">
        <ele>132.4</ele>
        <time>2021-12-28T10:30:48Z</time>
      </trkpt>
      <trkpt lat="43.23565" lon="6.22208">
        <ele>130.2</ele>
        <time>2021-12-28T10:30:52Z</time>
      </trkpt>
      <trkpt lat="43.23572" lon="6.22185">
        <ele>130.8</ele>
        <time>2021-12-28T10:30:56Z</time>
      </trkpt>
      <trkpt lat="43.23578" lon="6.22159">
        <ele>129.8</ele>
        <time>2021-12-28T10:31:00Z</time>
      </trkpt>
      <trkpt lat="43.23585" lon="6.22131">
        <ele>129.6</ele>
        <time>2021-12-28T10:31:04Z</time>
      </trkpt>
      <trkpt lat="43.23596" lon="6.22104">
        <ele>128.6</ele>
        <time>2021-12-28T10:31:08Z</time>
      </trkpt>
      <trkpt lat="43.23607" lon="6.22078">
        <ele>129.4</ele>
        <time>2021-12-28T10:31:12Z</time>
      </trkpt>
      <trkpt lat="43.23618" lon="6.22052">
        <ele>129</ele>
        <time>2021-12-28T10:31:16Z</time>
      </trkpt>
      <trkpt lat="43.23629" lon="6.22028">
        <ele>128</ele>
        <time>2021-12-28T10:31:20Z</time>
      </trkpt>
      <trkpt lat="43.2364" lon="6.22004">
        <ele>128.6</ele>
        <time>2021-12-28T10:31:24Z</time>
      </trkpt>
      <trkpt lat="43.2365" lon="6.21979">
        <ele>128</ele>
        <time>2021-12-28T10:31:28Z</time>
      </trkpt>
      <trkpt lat="43.23656" lon="6.21952">
        <ele>128</ele>
        <time>2021-12-28T10:31:32Z</time>
      </trkpt>
      <trkpt lat="43.23658" lon="6.2193">
        <ele>127.6</ele>
        <time>2021-12-28T10:31:36Z</time>
      </trkpt>
      <trkpt lat="43.23658" lon="6.21904">
        <ele>126.4</ele>
        <time>2021-12-28T10:31:40Z</time>
      </trkpt>
      <trkpt lat="43.23655" lon="6.21878">
        <ele>125.2</ele>
        <time>2021-12-28T10:31:44Z</time>
      </trkpt>
      <trkpt lat="43.2365" lon="6.21853">
        <ele>123.8</ele>
        <time>2021-12-28T10:31:48Z</time>
      </trkpt>
      <trkpt lat="43.23643" lon="6.2183">
        <ele>123.8</ele>
        <time>2021-12-28T10:31:52Z</time>
      </trkpt>
      <trkpt lat="43.23636" lon="6.2181">
        <ele>124.2</ele>
        <time>2021-12-28T10:31:56Z</time>
      </trkpt>
      <trkpt lat="43.23628" lon="6.21791">
        <ele>124.6</ele>
        <time>2021-12-28T10:32:00Z</time>
      </trkpt>
      <trkpt lat="43.23621" lon="6.21781">
        <ele>124.4</ele>
        <time>2021-12-28T10:32:04Z</time>
      </trkpt>
      <trkpt lat="43.23618" lon="6.21786">
        <ele>126</ele>
        <time>2021-12-28T10:32:08Z</time>
      </trkpt>
      <trkpt lat="43.23619" lon="6.21795">
        <ele>126.4</ele>
        <time>2021-12-28T10:32:12Z</time>
      </trkpt>
      <trkpt lat="43.23618" lon="6.21804">
        <ele>126.8</ele>
        <time>2021-12-28T10:32:16Z</time>
      </trkpt>
      <trkpt lat="43.23617" lon="6.2181">
        <ele>126.6</ele>
        <time>2021-12-28T10:32:20Z</time>
      </trkpt>
      <trkpt lat="43.23613" lon="6.21808">
        <ele>126.6</ele>
        <time>2021-12-28T10:32:24Z</time>
      </trkpt>
      <trkpt lat="43.2361" lon="6.21804">
        <ele>126.2</ele>
        <time>2021-12-28T10:32:28Z</time>
      </trkpt>
      <trkpt lat="43.23606" lon="6.21801">
        <ele>127</ele>
        <time>2021-12-28T10:32:32Z</time>
      </trkpt>
      <trkpt lat="43.23601" lon="6.21798">
        <ele>128.6</ele>
        <time>2021-12-28T10:32:36Z</time>
      </trkpt>
      <trkpt lat="43.23595" lon="6.21796">
        <ele>129.4</ele>
        <time>2021-12-28T10:32:40Z</time>
      </trkpt>
      <trkpt lat="43.23589" lon="6.21796">
        <ele>129.6</ele>
        <time>2021-12-28T10:32:44Z</time>
      </trkpt>
      <trkpt lat="43.23584" lon="6.21796">
        <ele>130.4</ele>
        <time>2021-12-28T10:32:48Z</time>
      </trkpt>
      <trkpt lat="43.23578" lon="6.21795">
        <ele>131.2</ele>
        <time>2021-12-28T10:32:52Z</time>
      </trkpt>
      <trkpt lat="43.23573" lon="6.21795">
        <ele>131.2</ele>
        <time>2021-12-28T10:32:56Z</time>
      </trkpt>
      <trkpt lat="43.23567" lon="6.21794">
        <ele>131.6</ele>
        <time>2021-12-28T10:33:00Z</time>
      </trkpt>
      <trkpt lat="43.23561" lon="6.21793">
        <ele>131.8</ele>
        <time>2021-12-28T10:33:04Z</time>
      </trkpt>
      <trkpt lat="43.23555" lon="6.21791">
        <ele>132.8</ele>
        <time>2021-12-28T10:33:08Z</time>
      </trkpt>
      <trkpt lat="43.23549" lon="6.2179">
        <ele>132.4</ele>
        <time>2021-12-28T10:33:12Z</time>
      </trkpt>
      <trkpt lat="43.23544" lon="6.2179">
        <ele>133.8</ele>
        <time>2021-12-28T10:33:16Z</time>
      </trkpt>
      <trkpt lat="43.23538" lon="6.21789">
        <ele>134</ele>
        <time>2021-12-28T10:33:20Z</time>
      </trkpt>
      <trkpt lat="43.23532" lon="6.21787">
        <ele>135</ele>
        <time>2021-12-28T10:33:24Z</time>
      </trkpt>
      <trkpt lat="43.23526" lon="6.21786">
        <ele>135.4</ele>
        <time>2021-12-28T10:33:28Z</time>
      </trkpt>
      <trkpt lat="43.2352" lon="6.21786">
        <ele>135.4</ele>
        <time>2021-12-28T10:33:32Z</time>
      </trkpt>
      <trkpt lat="43.23515" lon="6.21788">
        <ele>135.2</ele>
        <time>2021-12-28T10:33:36Z</time>
      </trkpt>
      <trkpt lat="43.23511" lon="6.21795">
        <ele>135.2</ele>
        <time>2021-12-28T10:33:40Z</time>
      </trkpt>
      <trkpt lat="43.23507" lon="6.21801">
        <ele>136</ele>
        <time>2021-12-28T10:33:44Z</time>
      </trkpt>
      <trkpt lat="43.23507" lon="6.21808">
        <ele>136.6</ele>
        <time>2021-12-28T10:33:48Z</time>
      </trkpt>
      <trkpt lat="43.23508" lon="6.21814">
        <ele>138</ele>
        <time>2021-12-28T10:33:52Z</time>
      </trkpt>
      <trkpt lat="43.2351" lon="6.21818">
        <ele>138.8</ele>
        <time>2021-12-28T10:33:56Z</time>
      </trkpt>
      <trkpt lat="43.23513" lon="6.21822">
        <ele>140.2</ele>
        <time>2021-12-28T10:34:00Z</time>
      </trkpt>
      <trkpt lat="43.23516" lon="6.21825">
        <ele>140.6</ele>
        <time>2021-12-28T10:34:04Z</time>
      </trkpt>
      <trkpt lat="43.23519" lon="6.2183">
        <ele>141</ele>
        <time>2021-12-28T10:34:08Z</time>
      </trkpt>
      <trkpt lat="43.23522" lon="6.21835">
        <ele>141.6</ele>
        <time>2021-12-28T10:34:12Z</time>
      </trkpt>
      <trkpt lat="43.23524" lon="6.21841">
        <ele>142.8</ele>
        <time>2021-12-28T10:34:16Z</time>
      </trkpt>
      <trkpt lat="43.23524" lon="6.21847">
        <ele>143</ele>
        <time>2021-12-28T10:34:20Z</time>
      </trkpt>
      <trkpt lat="43.23524" lon="6.21854">
        <ele>142.8</ele>
        <time>2021-12-28T10:34:24Z</time>
      </trkpt>
      <trkpt lat="43.23521" lon="6.2186">
        <ele>143.8</ele>
        <time>2021-12-28T10:34:28Z</time>
      </trkpt>
      <trkpt lat="43.23517" lon="6.21863">
        <ele>144.6</ele>
        <time>2021-12-28T10:34:32Z</time>
      </trkpt>
      <trkpt lat="43.23513" lon="6.21863">
        <ele>145</ele>
        <time>2021-12-28T10:34:36Z</time>
      </trkpt>
      <trkpt lat="43.23509" lon="6.21861">
        <ele>145.6</ele>
        <time>2021-12-28T10:34:40Z</time>
      </trkpt>
      <trkpt lat="43.23505" lon="6.21862">
        <ele>146.6</ele>
        <time>2021-12-28T10:34:44Z</time>
      </trkpt>
      <trkpt lat="43.23501" lon="6.21865">
        <ele>147</ele>
        <time>2021-12-28T10:34:48Z</time>
      </trkpt>
      <trkpt lat="43.23497" lon="6.21865">
        <ele>148.2</ele>
        <time>2021-12-28T10:34:52Z</time>
      </trkpt>
      <trkpt lat="43.23494" lon="6.21865">
        <ele>148.8</ele>
        <time>2021-12-28T10:34:56Z</time>
      </trkpt>
      <trkpt lat="43.2349" lon="6.21866">
        <ele>150.2</ele>
        <time>2021-12-28T10:35:00Z</time>
      </trkpt>
      <trkpt lat="43.23486" lon="6.21868">
        <ele>152</ele>
        <time>2021-12-28T10:35:04Z</time>
      </trkpt>
      <trkpt lat="43.23482" lon="6.21869">
        <ele>152</ele>
        <time>2021-12-28T10:35:08Z</time>
      </trkpt>
      <trkpt lat="43.23478" lon="6.21871">
        <ele>153.4</ele>
        <time>2021-12-28T10:35:12Z</time>
      </trkpt>
      <trkpt lat="43.23474" lon="6.21873">
        <ele>154</ele>
        <time>2021-12-28T10:35:16Z</time>
      </trkpt>
      <trkpt lat="43.23471" lon="6.21875">
        <ele>154.8</ele>
        <time>2021-12-28T10:35:20Z</time>
      </trkpt>
      <trkpt lat="43.23467" lon="6.21877">
        <ele>154.6</ele>
        <time>2021-12-28T10:35:24Z</time>
      </trkpt>
      <trkpt lat="43.23464" lon="6.21879">
        <ele>156.2</ele>
        <time>2021-12-28T10:35:28Z</time>
      </trkpt>
      <trkpt lat="43.2346" lon="6.21882">
        <ele>157.2</ele>
        <time>2021-12-28T10:35:32Z</time>
      </trkpt>
      <trkpt lat="43.2346" lon="6.21882">
        <ele>157.2</ele>
        <time>2021-12-28T10:35:36Z</time>
      </trkpt>
      <trkpt lat="43.23276" lon="6.22069">
        <ele>212.2</ele>
        <time>2021-12-28T10:42:17Z</time>
      </trkpt>
      <trkpt lat="43.2327" lon="6.22067">
        <ele>212.8</ele>
        <time>2021-12-28T10:42:21Z</time>
      </trkpt>
      <trkpt lat="43.23264" lon="6.22065">
        <ele>213</ele>
        <time>2021-12-28T10:42:25Z</time>
      </trkpt>
      <trkpt lat="43.23257" lon="6.22064">
        <ele>213.4</ele>
        <time>2021-12-28T10:42:29Z</time>
      </trkpt>
      <trkpt lat="43.23251" lon="6.22063">
        <ele>213.6</ele>
        <time>2021-12-28T10:42:33Z</time>
      </trkpt>
      <trkpt lat="43.23245" lon="6.22062">
        <ele>213.8</ele>
        <time>2021-12-28T10:42:37Z</time>
      </trkpt>
      <trkpt lat="43.2324" lon="6.22061">
        <ele>214.4</ele>
        <time>2021-12-28T10:42:41Z</time>
      </trkpt>
      <trkpt lat="43.23235" lon="6.22061">
        <ele>214.8</ele>
        <time>2021-12-28T10:42:45Z</time>
      </trkpt>
      <trkpt lat="43.2323" lon="6.2206">
        <ele>215.4</ele>
        <time>2021-12-28T10:42:49Z</time>
      </trkpt>
      <trkpt lat="43.23225" lon="6.22059">
        <ele>216.6</ele>
        <time>2021-12-28T10:42:53Z</time>
      </trkpt>
      <trkpt lat="43.2322" lon="6.22059">
        <ele>217.2</ele>
        <time>2021-12-28T10:42:57Z</time>
      </trkpt>
      <trkpt lat="43.23215" lon="6.22057">
        <ele>217.2</ele>
        <time>2021-12-28T10:43:01Z</time>
      </trkpt>
      <trkpt lat="43.2321" lon="6.22057">
        <ele>218.2</ele>
        <time>2021-12-28T10:43:05Z</time>
      </trkpt>
      <trkpt lat="43.23205" lon="6.22055">
        <ele>218.6</ele>
        <time>2021-12-28T10:43:09Z</time>
      </trkpt>
      <trkpt lat="43.232" lon="6.22054">
        <ele>219.6</ele>
        <time>2021-12-28T10:43:13Z</time>
      </trkpt>
      <trkpt lat="43.23195" lon="6.22053">
        <ele>220.2</ele>
        <time>2021-12-28T10:43:17Z</time>
      </trkpt>
      <trkpt lat="43.2319" lon="6.22052">
        <ele>221</ele>
        <time>2021-12-28T10:43:21Z</time>
      </trkpt>
      <trkpt lat="43.23186" lon="6.22053">
        <ele>221.4</ele>
        <time>2021-12-28T10:43:25Z</time>
      </trkpt>
      <trkpt lat="43.23182" lon="6.22052">
        <ele>222.6</ele>
        <time>2021-12-28T10:43:29Z</time>
      </trkpt>
      <trkpt lat="43.23177" lon="6.22054">
        <ele>223.2</ele>
        <time>2021-12-28T10:43:33Z</time>
      </trkpt>
      <trkpt lat="43.23174" lon="6.22055">
        <ele>223.8</ele>
        <time>2021-12-28T10:43:37Z</time>
      </trkpt>
      <trkpt lat="43.2317" lon="6.22056">
        <ele>224.6</ele>
        <time>2021-12-28T10:43:41Z</time>
      </trkpt>
      <trkpt lat="43.23166" lon="6.22057">
        <ele>225.2</ele>
        <time>2021-12-28T10:43:45Z</time>
      </trkpt>
      <trkpt lat="43.23163" lon="6.22058">
        <ele>226.6</ele>
        <time>2021-12-28T10:43:49Z</time>
      </trkpt>
      <trkpt lat="43.23159" lon="6.2206">
        <ele>227</ele>
        <time>2021-12-28T10:43:53Z</time>
      </trkpt>
      <trkpt lat="43.23155" lon="6.22062">
        <ele>227.6</ele>
        <time>2021-12-28T10:43:57Z</time>
      </trkpt>
      <trkpt lat="43.23152" lon="6.22066">
        <ele>228.2</ele>
        <time>2021-12-28T10:44:01Z</time>
      </trkpt>
      <trkpt lat="43.23148" lon="6.22067">
        <ele>228.6</ele>
        <time>2021-12-28T10:44:05Z</time>
      </trkpt>
      <trkpt lat="43.23144" lon="6.22071">
        <ele>229.4</ele>
        <time>2021-12-28T10:44:09Z</time>
      </trkpt>
      <trkpt lat="43.2314" lon="6.22075">
        <ele>229.8</ele>
        <time>2021-12-28T10:44:13Z</time>
      </trkpt>
      <trkpt lat="43.23136" lon="6.22078">
        <ele>229.8</ele>
        <time>2021-12-28T10:44:17Z</time>
      </trkpt>
      <trkpt lat="43.23132" lon="6.22082">
        <ele>230.2</ele>
        <time>2021-12-28T10:44:21Z</time>
      </trkpt>
      <trkpt lat="43.23129" lon="6.22086">
        <ele>231</ele>
        <time>2021-12-28T10:44:25Z</time>
      </trkpt>
      <trkpt lat="43.23125" lon="6.2209">
        <ele>231.4</ele>
        <time>2021-12-28T10:44:29Z</time>
      </trkpt>
      <trkpt lat="43.23121" lon="6.22093">
        <ele>232.2</ele>
        <time>2021-12-28T10:44:33Z</time>
      </trkpt>
      <trkpt lat="43.23117" lon="6.22096">
        <ele>232.4</ele>
        <time>2021-12-28T10:44:37Z</time>
      </trkpt>
      <trkpt lat="43.23112" lon="6.22098">
        <ele>232.8</ele>
        <time>2021-12-28T10:44:41Z</time>
      </trkpt>
      <trkpt lat="43.23107" lon="6.221">
        <ele>233.4</ele>
        <time>2021-12-28T10:44:45Z</time>
      </trkpt>
      <trkpt lat="43.23102" lon="6.22101">
        <ele>233.4</ele>
        <time>2021-12-28T10:44:49Z</time>
      </trkpt>
      <trkpt lat="43.23097" lon="6.22102">
        <ele>234.2</ele>
        <time>2021-12-28T10:44:53Z</time>
      </trkpt>
      <trkpt lat="43.23091" lon="6.22103">
        <ele>234.4</ele>
        <time>2021-12-28T10:44:57Z</time>
      </trkpt>
      <trkpt lat="43.23086" lon="6.22105">
        <ele>234.6</ele>
        <time>2021-12-28T10:45:01Z</time>
      </trkpt>
      <trkpt lat="43.2308" lon="6.22107">
        <ele>234.2</ele>
        <time>2021-12-28T10:45:05Z</time>
      </trkpt>
      <trkpt lat="43.23074" lon="6.22114">
        <ele>233</ele>
        <time>2021-12-28T10:45:09Z</time>
      </trkpt>
      <trkpt lat="43.23068" lon="6.22126">
        <ele>234</ele>
        <time>2021-12-28T10:45:13Z</time>
      </trkpt>
      <trkpt lat="43.23062" lon="6.22136">
        <ele>234</ele>
        <time>2021-12-28T10:45:17Z</time>
      </trkpt>
      <trkpt lat="43.23055" lon="6.22143">
        <ele>235.2</ele>
        <time>2021-12-28T10:45:21Z</time>
      </trkpt>
      <trkpt lat="43.2305" lon="6.22151">
        <ele>234.8</ele>
        <time>2021-12-28T10:45:25Z</time>
      </trkpt>
      <trkpt lat="43.23046" lon="6.22158">
        <ele>235.8</ele>
        <time>2021-12-28T10:45:29Z</time>
      </trkpt>
      <trkpt lat="43.23042" lon="6.22165">
        <ele>235.6</ele>
        <time>2021-12-28T10:45:33Z</time>
      </trkpt>
      <trkpt lat="43.23037" lon="6.22173">
        <ele>236.4</ele>
        <time>2021-12-28T10:45:37Z</time>
      </trkpt>
      <trkpt lat="43.23031" lon="6.22181">
        <ele>236.6</ele>
        <time>2021-12-28T10:45:41Z</time>
      </trkpt>
      <trkpt lat="43.23026" lon="6.22188">
        <ele>236.8</ele>
        <time>2021-12-28T10:45:45Z</time>
      </trkpt>
      <trkpt lat="43.23018" lon="6.22193">
        <ele>236.4</ele>
        <time>2021-12-28T10:45:49Z</time>
      </trkpt>
      <trkpt lat="43.2301" lon="6.22198">
        <ele>236.4</ele>
        <time>2021-12-28T10:45:53Z</time>
      </trkpt>
      <trkpt lat="43.23" lon="6.222">
        <ele>236.2</ele>
        <time>2021-12-28T10:45:57Z</time>
      </trkpt>
      <trkpt lat="43.2299" lon="6.22202">
        <ele>236</ele>
        <time>2021-12-28T10:46:01Z</time>
      </trkpt>
      <trkpt lat="43.22981" lon="6.22203">
        <ele>235.8</ele>
        <time>2021-12-28T10:46:05Z</time>
      </trkpt>
      <trkpt lat="43.22972" lon="6.22205">
        <ele>236</ele>
        <time>2021-12-28T10:46:09Z</time>
      </trkpt>
      <trkpt lat="43.22963" lon="6.22209">
        <ele>236</ele>
        <time>2021-12-28T10:46:13Z</time>
      </trkpt>
      <trkpt lat="43.22955" lon="6.22212">
        <ele>236.8</ele>
        <time>2021-12-28T10:46:17Z</time>
      </trkpt>
      <trkpt lat="43.22948" lon="6.22215">
        <ele>237</ele>
        <time>2021-12-28T10:46:21Z</time>
      </trkpt>
      <trkpt lat="43.22943" lon="6.22218">
        <ele>237.2</ele>
        <time>2021-12-28T10:46:25Z</time>
      </trkpt>
      <trkpt lat="43.22938" lon="6.22223">
        <ele>238.2</ele>
        <time>2021-12-28T10:46:29Z</time>
      </trkpt>
      <trkpt lat="43.22934" lon="6.22229">
        <ele>238.2</ele>
        <time>2021-12-28T10:46:33Z</time>
      </trkpt>
      <trkpt lat="43.22931" lon="6.22235">
        <ele>239.2</ele>
        <time>2021-12-28T10:46:37Z</time>
      </trkpt>
      <trkpt lat="43.22928" lon="6.22242">
        <ele>240</ele>
        <time>2021-12-28T10:46:41Z</time>
      </trkpt>
      <trkpt lat="43.22925" lon="6.22249">
        <ele>240.4</ele>
        <time>2021-12-28T10:46:45Z</time>
      </trkpt>
      <trkpt lat="43.22923" lon="6.22258">
        <ele>240.8</ele>
        <time>2021-12-28T10:46:49Z</time>
      </trkpt>
      <trkpt lat="43.22921" lon="6.22265">
        <ele>241.2</ele>
        <time>2021-12-28T10:46:53Z</time>
      </trkpt>
      <trkpt lat="43.22918" lon="6.22272">
        <ele>241.8</ele>
        <time>2021-12-28T10:46:57Z</time>
      </trkpt>
      <trkpt lat="43.22916" lon="6.2228">
        <ele>242.6</ele>
        <time>2021-12-28T10:47:01Z</time>
      </trkpt>
      <trkpt lat="43.22914" lon="6.22289">
        <ele>243.2</ele>
        <time>2021-12-28T10:47:05Z</time>
      </trkpt>
      <trkpt lat="43.22912" lon="6.22298">
        <ele>243.4</ele>
        <time>2021-12-28T10:47:09Z</time>
      </trkpt>
      <trkpt lat="43.22911" lon="6.22306">
        <ele>244</ele>
        <time>2021-12-28T10:47:13Z</time>
      </trkpt>
      <trkpt lat="43.22909" lon="6.22315">
        <ele>244.6</ele>
        <time>2021-12-28T10:47:17Z</time>
      </trkpt>
      <trkpt lat="43.22908" lon="6.22324">
        <ele>245.4</ele>
        <time>2021-12-28T10:47:21Z</time>
      </trkpt>
      <trkpt lat="43.22907" lon="6.22333">
        <ele>245.2</ele>
        <time>2021-12-28T10:47:25Z</time>
      </trkpt>
      <trkpt lat="43.22906" lon="6.22343">
        <ele>246.4</ele>
        <time>2021-12-28T10:47:29Z</time>
      </trkpt>
      <trkpt lat="43.22905" lon="6.22352">
        <ele>246.2</ele>
        <time>2021-12-28T10:47:33Z</time>
      </trkpt>
      <trkpt lat="43.22905" lon="6.22364">
        <ele>247</ele>
        <time>2021-12-28T10:47:37Z</time>
      </trkpt>
      <trkpt lat="43.22904" lon="6.22374">
        <ele>247</ele>
        <time>2021-12-28T10:47:41Z</time>
      </trkpt>
      <trkpt lat="43.22903" lon="6.22382">
        <ele>247.4</ele>
        <time>2021-12-28T10:47:45Z</time>
      </trkpt>
      <trkpt lat="43.22902" lon="6.22391">
        <ele>248</ele>
        <time>2021-12-28T10:47:49Z</time>
      </trkpt>
      <trkpt lat="43.22901" lon="6.22399">
        <ele>248.4</ele>
        <time>2021-12-28T10:47:53Z</time>
      </trkpt>
      <trkpt lat="43.229" lon="6.22407">
        <ele>249.2</ele>
        <time>2021-12-28T10:47:57Z</time>
      </trkpt>
      <trkpt lat="43.229" lon="6.22415">
        <ele>249.4</ele>
        <time>2021-12-28T10:48:01Z</time>
      </trkpt>
      <trkpt lat="43.22899" lon="6.22423">
        <ele>250.2</ele>
        <time>2021-12-28T10:48:05Z</time>
      </trkpt>
      <trkpt lat="43.22899" lon="6.2243">
        <ele>251</ele>
        <time>2021-12-28T10:48:09Z</time>
      </trkpt>
      <trkpt lat="43.229" lon="6.22438">
        <ele>251.6</ele>
        <time>2021-12-28T10:48:13Z</time>
      </trkpt>
      <trkpt lat="43.229" lon="6.22446">
        <ele>252</ele>
        <time>2021-12-28T10:48:17Z</time>
      </trkpt>
      <trkpt lat="43.229" lon="6.22454">
        <ele>252.6</ele>
        <time>2021-12-28T10:48:21Z</time>
      </trkpt>
      <trkpt lat="43.22901" lon="6.22461">
        <ele>252.8</ele>
        <time>2021-12-28T10:48:25Z</time>
      </trkpt>
      <trkpt lat="43.22901" lon="6.22469">
        <ele>252.8</ele>
        <time>2021-12-28T10:48:29Z</time>
      </trkpt>
      <trkpt lat="43.22901" lon="6.22475">
        <ele>253.8</ele>
        <time>2021-12-28T10:48:33Z</time>
      </trkpt>
      <trkpt lat="43.22901" lon="6.22482">
        <ele>254.4</ele>
        <time>2021-12-28T10:48:37Z</time>
      </trkpt>
      <trkpt lat="43.229" lon="6.22491">
        <ele>255.2</ele>
        <time>2021-12-28T10:48:41Z</time>
      </trkpt>
      <trkpt lat="43.22898" lon="6.22499">
        <ele>255</ele>
        <time>2021-12-28T10:48:45Z</time>
      </trkpt>
      <trkpt lat="43.22895" lon="6.22507">
        <ele>256.2</ele>
        <time>2021-12-28T10:48:49Z</time>
      </trkpt>
      <trkpt lat="43.22892" lon="6.22514">
        <ele>256.2</ele>
        <time>2021-12-28T10:48:53Z</time>
      </trkpt>
      <trkpt lat="43.22889" lon="6.22522">
        <ele>256.8</ele>
        <time>2021-12-28T10:48:57Z</time>
      </trkpt>
      <trkpt lat="43.22886" lon="6.2253">
        <ele>257</ele>
        <time>2021-12-28T10:49:01Z</time>
      </trkpt>
      <trkpt lat="43.22882" lon="6.2254">
        <ele>257.6</ele>
        <time>2021-12-28T10:49:05Z</time>
      </trkpt>
      <trkpt lat="43.22878" lon="6.22551">
        <ele>257.6</ele>
        <time>2021-12-28T10:49:09Z</time>
      </trkpt>
      <trkpt lat="43.22874" lon="6.22563">
        <ele>258</ele>
        <time>2021-12-28T10:49:13Z</time>
      </trkpt>
      <trkpt lat="43.22873" lon="6.22573">
        <ele>258</ele>
        <time>2021-12-28T10:49:17Z</time>
      </trkpt>
      <trkpt lat="43.22872" lon="6.22583">
        <ele>259</ele>
        <time>2021-12-28T10:49:21Z</time>
      </trkpt>
      <trkpt lat="43.22873" lon="6.22594">
        <ele>258.6</ele>
        <time>2021-12-28T10:49:25Z</time>
      </trkpt>
      <trkpt lat="43.22874" lon="6.22606">
        <ele>259.2</ele>
        <time>2021-12-28T10:49:29Z</time>
      </trkpt>
      <trkpt lat="43.22874" lon="6.22619">
        <ele>259.6</ele>
        <time>2021-12-28T10:49:33Z</time>
      </trkpt>
      <trkpt lat="43.22876" lon="6.22633">
        <ele>259.8</ele>
        <time>2021-12-28T10:49:37Z</time>
      </trkpt>
      <trkpt lat="43.22877" lon="6.22646">
        <ele>260.6</ele>
        <time>2021-12-28T10:49:41Z</time>
      </trkpt>
      <trkpt lat="43.22879" lon="6.22657">
        <ele>260</ele>
        <time>2021-12-28T10:49:45Z</time>
      </trkpt>
      <trkpt lat="43.2288" lon="6.22667">
        <ele>261.2</ele>
        <time>2021-12-28T10:49:49Z</time>
      </trkpt>
      <trkpt lat="43.2288" lon="6.22677">
        <ele>261</ele>
        <time>2021-12-28T10:49:53Z</time>
      </trkpt>
      <trkpt lat="43.2288" lon="6.22687">
        <ele>261.4</ele>
        <time>2021-12-28T10:49:57Z</time>
      </trkpt>
      <trkpt lat="43.22878" lon="6.22698">
        <ele>260.8</ele>
        <time>2021-12-28T10:50:01Z</time>
      </trkpt>
      <trkpt lat="43.22876" lon="6.22708">
        <ele>261</ele>
        <time>2021-12-28T10:50:05Z</time>
      </trkpt>
      <trkpt lat="43.22872" lon="6.2272">
        <ele>259.8</ele>
        <time>2021-12-28T10:50:09Z</time>
      </trkpt>
      <trkpt lat="43.22867" lon="6.22735">
        <ele>260.2</ele>
        <time>2021-12-28T10:50:13Z</time>
      </trkpt>
      <trkpt lat="43.22862" lon="6.22745">
        <ele>260</ele>
        <time>2021-12-28T10:50:17Z</time>
      </trkpt>
      <trkpt lat="43.22855" lon="6.22754">
        <ele>261</ele>
        <time>2021-12-28T10:50:21Z</time>
      </trkpt>
      <trkpt lat="43.22851" lon="6.22761">
        <ele>262.4</ele>
        <time>2021-12-28T10:50:25Z</time>
      </trkpt>
      <trkpt lat="43.22847" lon="6.22767">
        <ele>262.8</ele>
        <time>2021-12-28T10:50:29Z</time>
      </trkpt>
      <trkpt lat="43.22842" lon="6.22772">
        <ele>264</ele>
        <time>2021-12-28T10:50:33Z</time>
      </trkpt>
      <trkpt lat="43.22837" lon="6.22778">
        <ele>264.6</ele>
        <time>2021-12-28T10:50:37Z</time>
      </trkpt>
      <trkpt lat="43.22832" lon="6.22784">
        <ele>265</ele>
        <time>2021-12-28T10:50:41Z</time>
      </trkpt>
      <trkpt lat="43.22826" lon="6.22789">
        <ele>265.6</ele>
        <time>2021-12-28T10:50:45Z</time>
      </trkpt>
      <trkpt lat="43.2282" lon="6.22795">
        <ele>266</ele>
        <time>2021-12-28T10:50:49Z</time>
      </trkpt>
      <trkpt lat="43.22814" lon="6.22803">
        <ele>266.2</ele>
        <time>2021-12-28T10:50:53Z</time>
      </trkpt>
      <trkpt lat="43.2281" lon="6.2281">
        <ele>267</ele>
        <time>2021-12-28T10:50:57Z</time>
      </trkpt>
      <trkpt lat="43.22806" lon="6.22816">
        <ele>267.4</ele>
        <time>2021-12-28T10:51:01Z</time>
      </trkpt>
      <trkpt lat="43.22803" lon="6.22823">
        <ele>268</ele>
        <time>2021-12-28T10:51:05Z</time>
      </trkpt>
      <trkpt lat="43.228" lon="6.22829">
        <ele>268.6</ele>
        <time>2021-12-28T10:51:09Z</time>
      </trkpt>
      <trkpt lat="43.22797" lon="6.22836">
        <ele>269.4</ele>
        <time>2021-12-28T10:51:13Z</time>
      </trkpt>
      <trkpt lat="43.22792" lon="6.22846">
        <ele>270.2</ele>
        <time>2021-12-28T10:51:40Z</time>
      </trkpt>
      <trkpt lat="43.22789" lon="6.22852">
        <ele>270.8</ele>
        <time>2021-12-28T10:51:44Z</time>
      </trkpt>
      <trkpt lat="43.22785" lon="6.22859">
        <ele>271.6</ele>
        <time>2021-12-28T10:51:48Z</time>
      </trkpt>
      <trkpt lat="43.22782" lon="6.22865">
        <ele>272.2</ele>
        <time>2021-12-28T10:51:52Z</time>
      </trkpt>
      <trkpt lat="43.22778" lon="6.2287">
        <ele>273.2</ele>
        <time>2021-12-28T10:51:56Z</time>
      </trkpt>
      <trkpt lat="43.22775" lon="6.22876">
        <ele>274.6</ele>
        <time>2021-12-28T10:52:00Z</time>
      </trkpt>
      <trkpt lat="43.22772" lon="6.22882">
        <ele>274.8</ele>
        <time>2021-12-28T10:52:04Z</time>
      </trkpt>
      <trkpt lat="43.22769" lon="6.22887">
        <ele>275.4</ele>
        <time>2021-12-28T10:52:08Z</time>
      </trkpt>
      <trkpt lat="43.22766" lon="6.22893">
        <ele>276.8</ele>
        <time>2021-12-28T10:52:12Z</time>
      </trkpt>
      <trkpt lat="43.22762" lon="6.22898">
        <ele>277.4</ele>
        <time>2021-12-28T10:52:16Z</time>
      </trkpt>
      <trkpt lat="43.22759" lon="6.22903">
        <ele>278</ele>
        <time>2021-12-28T10:52:20Z</time>
      </trkpt>
      <trkpt lat="43.22756" lon="6.22907">
        <ele>278.6</ele>
        <time>2021-12-28T10:52:24Z</time>
      </trkpt>
      <trkpt lat="43.22752" lon="6.22913">
        <ele>278.8</ele>
        <time>2021-12-28T10:52:28Z</time>
      </trkpt>
      <trkpt lat="43.22747" lon="6.22918">
        <ele>279.6</ele>
        <time>2021-12-28T10:52:32Z</time>
      </trkpt>
      <trkpt lat="43.22742" lon="6.22923">
        <ele>280</ele>
        <time>2021-12-28T10:52:36Z</time>
      </trkpt>
      <trkpt lat="43.22737" lon="6.22928">
        <ele>279.8</ele>
        <time>2021-12-28T10:52:40Z</time>
      </trkpt>
      <trkpt lat="43.22732" lon="6.22933">
        <ele>280.8</ele>
        <time>2021-12-28T10:52:44Z</time>
      </trkpt>
      <trkpt lat="43.22728" lon="6.22939">
        <ele>281</ele>
        <time>2021-12-28T10:52:48Z</time>
      </trkpt>
      <trkpt lat="43.22723" lon="6.22943">
        <ele>281.8</ele>
        <time>2021-12-28T10:52:52Z</time>
      </trkpt>
      <trkpt lat="43.2272" lon="6.22948">
        <ele>282.4</ele>
        <time>2021-12-28T10:52:56Z</time>
      </trkpt>
      <trkpt lat="43.22715" lon="6.22952">
        <ele>282.8</ele>
        <time>2021-12-28T10:53:00Z</time>
      </trkpt>
      <trkpt lat="43.22711" lon="6.22956">
        <ele>284.2</ele>
        <time>2021-12-28T10:53:04Z</time>
      </trkpt>
      <trkpt lat="43.22707" lon="6.22959">
        <ele>284.8</ele>
        <time>2021-12-28T10:53:08Z</time>
      </trkpt>
      <trkpt lat="43.22702" lon="6.22962">
        <ele>285.2</ele>
        <time>2021-12-28T10:53:12Z</time>
      </trkpt>
      <trkpt lat="43.22695" lon="6.22963">
        <ele>285.6</ele>
        <time>2021-12-28T10:53:16Z</time>
      </trkpt>
      <trkpt lat="43.22689" lon="6.22962">
        <ele>285.8</ele>
        <time>2021-12-28T10:53:20Z</time>
      </trkpt>
      <trkpt lat="43.22683" lon="6.22962">
        <ele>286.4</ele>
        <time>2021-12-28T10:53:24Z</time>
      </trkpt>
      <trkpt lat="43.22678" lon="6.22965">
        <ele>287.4</ele>
        <time>2021-12-28T10:53:28Z</time>
      </trkpt>
      <trkpt lat="43.22673" lon="6.22968">
        <ele>288.2</ele>
        <time>2021-12-28T10:53:32Z</time>
      </trkpt>
      <trkpt lat="43.22667" lon="6.22975">
        <ele>287.6</ele>
        <time>2021-12-28T10:53:36Z</time>
      </trkpt>
      <trkpt lat="43.2266" lon="6.22981">
        <ele>287.8</ele>
        <time>2021-12-28T10:53:40Z</time>
      </trkpt>
      <trkpt lat="43.22654" lon="6.22988">
        <ele>288.6</ele>
        <time>2021-12-28T10:53:44Z</time>
      </trkpt>
      <trkpt lat="43.22648" lon="6.22993">
        <ele>289.4</ele>
        <time>2021-12-28T10:53:48Z</time>
      </trkpt>
      <trkpt lat="43.22642" lon="6.22998">
        <ele>289.6</ele>
        <time>2021-12-28T10:53:52Z</time>
      </trkpt>
      <trkpt lat="43.22636" lon="6.23001">
        <ele>290.4</ele>
        <time>2021-12-28T10:53:56Z</time>
      </trkpt>
      <trkpt lat="43.22631" lon="6.23003">
        <ele>290.6</ele>
        <time>2021-12-28T10:54:00Z</time>
      </trkpt>
      <trkpt lat="43.22627" lon="6.23004">
        <ele>291.8</ele>
        <time>2021-12-28T10:54:04Z</time>
      </trkpt>
      <trkpt lat="43.22622" lon="6.23005">
        <ele>291.6</ele>
        <time>2021-12-28T10:54:08Z</time>
      </trkpt>
      <trkpt lat="43.22619" lon="6.23006">
        <ele>292.8</ele>
        <time>2021-12-28T10:54:12Z</time>
      </trkpt>
      <trkpt lat="43.22615" lon="6.23008">
        <ele>294.2</ele>
        <time>2021-12-28T10:54:16Z</time>
      </trkpt>
      <trkpt lat="43.2261" lon="6.23009">
        <ele>294.2</ele>
        <time>2021-12-28T10:54:20Z</time>
      </trkpt>
      <trkpt lat="43.22606" lon="6.23011">
        <ele>294.4</ele>
        <time>2021-12-28T10:54:24Z</time>
      </trkpt>
      <trkpt lat="43.22602" lon="6.23012">
        <ele>294.8</ele>
        <time>2021-12-28T10:54:28Z</time>
      </trkpt>
      <trkpt lat="43.22598" lon="6.23013">
        <ele>295.8</ele>
        <time>2021-12-28T10:54:32Z</time>
      </trkpt>
      <trkpt lat="43.22593" lon="6.23014">
        <ele>296.4</ele>
        <time>2021-12-28T10:54:36Z</time>
      </trkpt>
      <trkpt lat="43.22589" lon="6.23014">
        <ele>296.8</ele>
        <time>2021-12-28T10:54:40Z</time>
      </trkpt>
      <trkpt lat="43.22584" lon="6.23015">
        <ele>297</ele>
        <time>2021-12-28T10:54:44Z</time>
      </trkpt>
      <trkpt lat="43.22578" lon="6.23017">
        <ele>297.6</ele>
        <time>2021-12-28T10:54:48Z</time>
      </trkpt>
      <trkpt lat="43.22572" lon="6.2302">
        <ele>297.8</ele>
        <time>2021-12-28T10:54:52Z</time>
      </trkpt>
      <trkpt lat="43.22564" lon="6.23024">
        <ele>297.4</ele>
        <time>2021-12-28T10:54:56Z</time>
      </trkpt>
      <trkpt lat="43.22557" lon="6.23028">
        <ele>297.6</ele>
        <time>2021-12-28T10:55:00Z</time>
      </trkpt>
      <trkpt lat="43.22551" lon="6.23034">
        <ele>298.2</ele>
        <time>2021-12-28T10:55:04Z</time>
      </trkpt>
      <trkpt lat="43.22547" lon="6.23039">
        <ele>298.4</ele>
        <time>2021-12-28T10:55:08Z</time>
      </trkpt>
      <trkpt lat="43.22543" lon="6.23045">
        <ele>299.2</ele>
        <time>2021-12-28T10:55:12Z</time>
      </trkpt>
      <trkpt lat="43.22539" lon="6.2305">
        <ele>300</ele>
        <time>2021-12-28T10:55:16Z</time>
      </trkpt>
      <trkpt lat="43.22535" lon="6.23055">
        <ele>301</ele>
        <time>2021-12-28T10:55:20Z</time>
      </trkpt>
      <trkpt lat="43.22532" lon="6.23061">
        <ele>300.8</ele>
        <time>2021-12-28T10:55:24Z</time>
      </trkpt>
      <trkpt lat="43.22528" lon="6.23067">
        <ele>301</ele>
        <time>2021-12-28T10:55:28Z</time>
      </trkpt>
      <trkpt lat="43.22525" lon="6.23073">
        <ele>301.4</ele>
        <time>2021-12-28T10:55:32Z</time>
      </trkpt>
      <trkpt lat="43.22521" lon="6.2308">
        <ele>301.6</ele>
        <time>2021-12-28T10:55:36Z</time>
      </trkpt>
      <trkpt lat="43.22517" lon="6.23086">
        <ele>302.4</ele>
        <time>2021-12-28T10:55:40Z</time>
      </trkpt>
      <trkpt lat="43.22514" lon="6.23093">
        <ele>303.2</ele>
        <time>2021-12-28T10:55:44Z</time>
      </trkpt>
      <trkpt lat="43.22511" lon="6.23098">
        <ele>303.2</ele>
        <time>2021-12-28T10:55:48Z</time>
      </trkpt>
      <trkpt lat="43.22508" lon="6.23104">
        <ele>303.4</ele>
        <time>2021-12-28T10:55:52Z</time>
      </trkpt>
      <trkpt lat="43.22505" lon="6.23111">
        <ele>304.2</ele>
        <time>2021-12-28T10:55:56Z</time>
      </trkpt>
      <trkpt lat="43.22501" lon="6.23117">
        <ele>304.4</ele>
        <time>2021-12-28T10:56:00Z</time>
      </trkpt>
      <trkpt lat="43.22496" lon="6.23122">
        <ele>305.2</ele>
        <time>2021-12-28T10:56:04Z</time>
      </trkpt>
      <trkpt lat="43.2249" lon="6.23125">
        <ele>304.8</ele>
        <time>2021-12-28T10:56:08Z</time>
      </trkpt>
      <trkpt lat="43.22482" lon="6.23124">
        <ele>305</ele>
        <time>2021-12-28T10:56:12Z</time>
      </trkpt>
      <trkpt lat="43.22472" lon="6.23122">
        <ele>304.8</ele>
        <time>2021-12-28T10:56:16Z</time>
      </trkpt>
      <trkpt lat="43.22461" lon="6.2312">
        <ele>304.6</ele>
        <time>2021-12-28T10:56:20Z</time>
      </trkpt>
      <trkpt lat="43.22451" lon="6.23118">
        <ele>305.4</ele>
        <time>2021-12-28T10:56:24Z</time>
      </trkpt>
      <trkpt lat="43.22442" lon="6.23116">
        <ele>304</ele>
        <time>2021-12-28T10:56:28Z</time>
      </trkpt>
      <trkpt lat="43.22433" lon="6.23114">
        <ele>305.6</ele>
        <time>2021-12-28T10:56:32Z</time>
      </trkpt>
      <trkpt lat="43.22425" lon="6.23112">
        <ele>305.6</ele>
        <time>2021-12-28T10:56:36Z</time>
      </trkpt>
      <trkpt lat="43.22416" lon="6.23112">
        <ele>305.6</ele>
        <time>2021-12-28T10:56:40Z</time>
      </trkpt>
      <trkpt lat="43.22409" lon="6.23114">
        <ele>306</ele>
        <time>2021-12-28T10:56:44Z</time>
      </trkpt>
      <trkpt lat="43.22404" lon="6.23118">
        <ele>306.4</ele>
        <time>2021-12-28T10:56:48Z</time>
      </trkpt>
      <trkpt lat="43.22399" lon="6.23122">
        <ele>306.4</ele>
        <time>2021-12-28T10:56:52Z</time>
      </trkpt>
      <trkpt lat="43.22395" lon="6.23128">
        <ele>305.4</ele>
        <time>2021-12-28T10:56:56Z</time>
      </trkpt>
      <trkpt lat="43.22388" lon="6.23137">
        <ele>306</ele>
        <time>2021-12-28T10:57:00Z</time>
      </trkpt>
      <trkpt lat="43.22382" lon="6.23146">
        <ele>305.6</ele>
        <time>2021-12-28T10:57:04Z</time>
      </trkpt>
      <trkpt lat="43.22376" lon="6.23153">
        <ele>305.8</ele>
        <time>2021-12-28T10:57:08Z</time>
      </trkpt>
      <trkpt lat="43.2237" lon="6.23162">
        <ele>306</ele>
        <time>2021-12-28T10:57:12Z</time>
      </trkpt>
      <trkpt lat="43.22364" lon="6.23172">
        <ele>305.4</ele>
        <time>2021-12-28T10:57:16Z</time>
      </trkpt>
      <trkpt lat="43.22355" lon="6.23182">
        <ele>305.6</ele>
        <time>2021-12-28T10:57:20Z</time>
      </trkpt>
      <trkpt lat="43.22345" lon="6.23191">
        <ele>305.2</ele>
        <time>2021-12-28T10:57:24Z</time>
      </trkpt>
      <trkpt lat="43.22336" lon="6.23197">
        <ele>305.2</ele>
        <time>2021-12-28T10:57:28Z</time>
      </trkpt>
      <trkpt lat="43.22327" lon="6.232">
        <ele>306</ele>
        <time>2021-12-28T10:57:32Z</time>
      </trkpt>
      <trkpt lat="43.2232" lon="6.23201">
        <ele>306.4</ele>
        <time>2021-12-28T10:57:36Z</time>
      </trkpt>
      <trkpt lat="43.22313" lon="6.23204">
        <ele>307</ele>
        <time>2021-12-28T10:57:40Z</time>
      </trkpt>
      <trkpt lat="43.22307" lon="6.23209">
        <ele>307.4</ele>
        <time>2021-12-28T10:57:44Z</time>
      </trkpt>
      <trkpt lat="43.223" lon="6.23216">
        <ele>307.8</ele>
        <time>2021-12-28T10:57:48Z</time>
      </trkpt>
      <trkpt lat="43.22294" lon="6.23223">
        <ele>307.8</ele>
        <time>2021-12-28T10:57:52Z</time>
      </trkpt>
      <trkpt lat="43.22286" lon="6.23232">
        <ele>307.6</ele>
        <time>2021-12-28T10:57:56Z</time>
      </trkpt>
      <trkpt lat="43.22277" lon="6.2324">
        <ele>307.4</ele>
        <time>2021-12-28T10:58:00Z</time>
      </trkpt>
      <trkpt lat="43.22267" lon="6.23246">
        <ele>307.2</ele>
        <time>2021-12-28T10:58:04Z</time>
      </trkpt>
      <trkpt lat="43.22256" lon="6.2325">
        <ele>307.2</ele>
        <time>2021-12-28T10:58:08Z</time>
      </trkpt>
      <trkpt lat="43.22247" lon="6.23253">
        <ele>306</ele>
        <time>2021-12-28T10:58:12Z</time>
      </trkpt>
      <trkpt lat="43.22237" lon="6.23253">
        <ele>305.4</ele>
        <time>2021-12-28T10:58:16Z</time>
      </trkpt>
      <trkpt lat="43.22229" lon="6.23246">
        <ele>305.6</ele>
        <time>2021-12-28T10:58:20Z</time>
      </trkpt>
      <trkpt lat="43.22225" lon="6.23242">
        <ele>305.2</ele>
        <time>2021-12-28T10:58:24Z</time>
      </trkpt>
      <trkpt lat="43.22221" lon="6.23246">
        <ele>305.6</ele>
        <time>2021-12-28T10:58:28Z</time>
      </trkpt>
      <trkpt lat="43.22225" lon="6.23249">
        <ele>305.2</ele>
        <time>2021-12-28T10:58:32Z</time>
      </trkpt>
      <trkpt lat="43.22229" lon="6.23244">
        <ele>305.6</ele>
        <time>2021-12-28T10:58:36Z</time>
      </trkpt>
      <trkpt lat="43.22223" lon="6.23253">
        <ele>307.2</ele>
        <time>2021-12-28T11:11:10Z</time>
      </trkpt>
      <trkpt lat="43.22221" lon="6.23265">
        <ele>307</ele>
        <time>2021-12-28T11:11:14Z</time>
      </trkpt>
      <trkpt lat="43.22216" lon="6.23277">
        <ele>307</ele>
        <time>2021-12-28T11:11:18Z</time>
      </trkpt>
      <trkpt lat="43.22211" lon="6.23287">
        <ele>307</ele>
        <time>2021-12-28T11:11:22Z</time>
      </trkpt>
      <trkpt lat="43.22205" lon="6.23297">
        <ele>307</ele>
        <time>2021-12-28T11:11:26Z</time>
      </trkpt>
      <trkpt lat="43.22197" lon="6.23307">
        <ele>305.8</ele>
        <time>2021-12-28T11:11:30Z</time>
      </trkpt>
      <trkpt lat="43.22188" lon="6.23316">
        <ele>305.6</ele>
        <time>2021-12-28T11:11:34Z</time>
      </trkpt>
      <trkpt lat="43.22178" lon="6.23326">
        <ele>306.8</ele>
        <time>2021-12-28T11:11:38Z</time>
      </trkpt>
      <trkpt lat="43.22172" lon="6.23334">
        <ele>307</ele>
        <time>2021-12-28T11:11:42Z</time>
      </trkpt>
      <trkpt lat="43.22179" lon="6.23324">
        <ele>306.4</ele>
        <time>2021-12-28T11:11:56Z</time>
      </trkpt>
      <trkpt lat="43.22187" lon="6.23316">
        <ele>306.2</ele>
        <time>2021-12-28T11:12:00Z</time>
      </trkpt>
      <trkpt lat="43.22195" lon="6.23308">
        <ele>306</ele>
        <time>2021-12-28T11:12:04Z</time>
      </trkpt>
      <trkpt lat="43.22204" lon="6.23301">
        <ele>307.2</ele>
        <time>2021-12-28T11:12:08Z</time>
      </trkpt>
      <trkpt lat="43.2221" lon="6.23289">
        <ele>307.2</ele>
        <time>2021-12-28T11:12:12Z</time>
      </trkpt>
      <trkpt lat="43.22216" lon="6.23279">
        <ele>307</ele>
        <time>2021-12-28T11:12:16Z</time>
      </trkpt>
      <trkpt lat="43.2222" lon="6.23266">
        <ele>307.2</ele>
        <time>2021-12-28T11:12:20Z</time>
      </trkpt>
      <trkpt lat="43.22217" lon="6.23254">
        <ele>307.2</ele>
        <time>2021-12-28T11:12:24Z</time>
      </trkpt>
      <trkpt lat="43.22209" lon="6.23246">
        <ele>306</ele>
        <time>2021-12-28T11:12:28Z</time>
      </trkpt>
      <trkpt lat="43.22195" lon="6.23245">
        <ele>305.4</ele>
        <time>2021-12-28T11:12:32Z</time>
      </trkpt>
      <trkpt lat="43.22179" lon="6.23251">
        <ele>303</ele>
        <time>2021-12-28T11:12:36Z</time>
      </trkpt>
      <trkpt lat="43.22164" lon="6.23257">
        <ele>303.2</ele>
        <time>2021-12-28T11:12:40Z</time>
      </trkpt>
      <trkpt lat="43.22151" lon="6.23262">
        <ele>303.4</ele>
        <time>2021-12-28T11:12:44Z</time>
      </trkpt>
      <trkpt lat="43.22138" lon="6.23268">
        <ele>302.4</ele>
        <time>2021-12-28T11:12:48Z</time>
      </trkpt>
      <trkpt lat="43.22126" lon="6.23271">
        <ele>303</ele>
        <time>2021-12-28T11:12:52Z</time>
      </trkpt>
      <trkpt lat="43.22113" lon="6.23274">
        <ele>302.8</ele>
        <time>2021-12-28T11:12:56Z</time>
      </trkpt>
      <trkpt lat="43.22101" lon="6.23275">
        <ele>302.8</ele>
        <time>2021-12-28T11:13:00Z</time>
      </trkpt>
      <trkpt lat="43.22088" lon="6.23275">
        <ele>303.2</ele>
        <time>2021-12-28T11:13:04Z</time>
      </trkpt>
      <trkpt lat="43.22077" lon="6.23275">
        <ele>303.2</ele>
        <time>2021-12-28T11:13:08Z</time>
      </trkpt>
      <trkpt lat="43.22065" lon="6.23276">
        <ele>302.8</ele>
        <time>2021-12-28T11:13:12Z</time>
      </trkpt>
      <trkpt lat="43.22053" lon="6.23276">
        <ele>303.6</ele>
        <time>2021-12-28T11:13:16Z</time>
      </trkpt>
      <trkpt lat="43.2204" lon="6.23277">
        <ele>304</ele>
        <time>2021-12-28T11:13:20Z</time>
      </trkpt>
      <trkpt lat="43.22026" lon="6.23281">
        <ele>302.2</ele>
        <time>2021-12-28T11:13:24Z</time>
      </trkpt>
      <trkpt lat="43.22013" lon="6.23288">
        <ele>302.4</ele>
        <time>2021-12-28T11:13:28Z</time>
      </trkpt>
      <trkpt lat="43.22004" lon="6.23293">
        <ele>303.2</ele>
        <time>2021-12-28T11:13:32Z</time>
      </trkpt>
      <trkpt lat="43.21995" lon="6.23292">
        <ele>302.8</ele>
        <time>2021-12-28T11:13:36Z</time>
      </trkpt>
      <trkpt lat="43.21986" lon="6.23279">
        <ele>302</ele>
        <time>2021-12-28T11:13:40Z</time>
      </trkpt>
      <trkpt lat="43.21977" lon="6.23263">
        <ele>301.2</ele>
        <time>2021-12-28T11:13:44Z</time>
      </trkpt>
      <trkpt lat="43.21968" lon="6.23246">
        <ele>300.8</ele>
        <time>2021-12-28T11:13:48Z</time>
      </trkpt>
      <trkpt lat="43.21955" lon="6.23237">
        <ele>301</ele>
        <time>2021-12-28T11:13:52Z</time>
      </trkpt>
      <trkpt lat="43.21942" lon="6.23237">
        <ele>301.8</ele>
        <time>2021-12-28T11:13:56Z</time>
      </trkpt>
      <trkpt lat="43.21932" lon="6.23246">
        <ele>301.6</ele>
        <time>2021-12-28T11:14:00Z</time>
      </trkpt>
      <trkpt lat="43.21924" lon="6.2326">
        <ele>302.2</ele>
        <time>2021-12-28T11:14:04Z</time>
      </trkpt>
      <trkpt lat="43.21917" lon="6.23271">
        <ele>302</ele>
        <time>2021-12-28T11:14:08Z</time>
      </trkpt>
      <trkpt lat="43.21909" lon="6.23282">
        <ele>302.2</ele>
        <time>2021-12-28T11:14:12Z</time>
      </trkpt>
      <trkpt lat="43.21901" lon="6.23294">
        <ele>303</ele>
        <time>2021-12-28T11:14:16Z</time>
      </trkpt>
      <trkpt lat="43.21894" lon="6.23307">
        <ele>303.4</ele>
        <time>2021-12-28T11:14:20Z</time>
      </trkpt>
      <trkpt lat="43.21889" lon="6.23322">
        <ele>303.8</ele>
        <time>2021-12-28T11:14:24Z</time>
      </trkpt>
      <trkpt lat="43.21884" lon="6.23337">
        <ele>303.6</ele>
        <time>2021-12-28T11:14:28Z</time>
      </trkpt>
      <trkpt lat="43.2188" lon="6.23351">
        <ele>304</ele>
        <time>2021-12-28T11:14:32Z</time>
      </trkpt>
      <trkpt lat="43.21875" lon="6.23365">
        <ele>304.6</ele>
        <time>2021-12-28T11:14:36Z</time>
      </trkpt>
      <trkpt lat="43.2187" lon="6.2338">
        <ele>304.4</ele>
        <time>2021-12-28T11:14:40Z</time>
      </trkpt>
      <trkpt lat="43.21865" lon="6.23394">
        <ele>305</ele>
        <time>2021-12-28T11:14:44Z</time>
      </trkpt>
      <trkpt lat="43.21859" lon="6.23408">
        <ele>305.4</ele>
        <time>2021-12-28T11:14:48Z</time>
      </trkpt>
      <trkpt lat="43.21854" lon="6.23422">
        <ele>305.6</ele>
        <time>2021-12-28T11:14:52Z</time>
      </trkpt>
      <trkpt lat="43.2185" lon="6.23435">
        <ele>306.4</ele>
        <time>2021-12-28T11:14:56Z</time>
      </trkpt>
      <trkpt lat="43.21846" lon="6.23447">
        <ele>307</ele>
        <time>2021-12-28T11:15:00Z</time>
      </trkpt>
      <trkpt lat="43.21842" lon="6.23459">
        <ele>307.2</ele>
        <time>2021-12-28T11:15:04Z</time>
      </trkpt>
      <trkpt lat="43.21836" lon="6.23471">
        <ele>307.6</ele>
        <time>2021-12-28T11:15:08Z</time>
      </trkpt>
      <trkpt lat="43.21829" lon="6.23483">
        <ele>307.8</ele>
        <time>2021-12-28T11:15:12Z</time>
      </trkpt>
      <trkpt lat="43.21822" lon="6.23495">
        <ele>307.8</ele>
        <time>2021-12-28T11:15:16Z</time>
      </trkpt>
      <trkpt lat="43.21815" lon="6.23507">
        <ele>308.2</ele>
        <time>2021-12-28T11:15:20Z</time>
      </trkpt>
      <trkpt lat="43.2181" lon="6.23518">
        <ele>308.6</ele>
        <time>2021-12-28T11:15:24Z</time>
      </trkpt>
      <trkpt lat="43.21804" lon="6.23531">
        <ele>309.2</ele>
        <time>2021-12-28T11:15:28Z</time>
      </trkpt>
      <trkpt lat="43.21798" lon="6.23544">
        <ele>309.2</ele>
        <time>2021-12-28T11:15:32Z</time>
      </trkpt>
      <trkpt lat="43.21791" lon="6.23556">
        <ele>309</ele>
        <time>2021-12-28T11:15:36Z</time>
      </trkpt>
      <trkpt lat="43.21786" lon="6.23567">
        <ele>309.2</ele>
        <time>2021-12-28T11:15:40Z</time>
      </trkpt>
      <trkpt lat="43.21781" lon="6.2358">
        <ele>308</ele>
        <time>2021-12-28T11:15:44Z</time>
      </trkpt>
      <trkpt lat="43.21777" lon="6.23596">
        <ele>308.2</ele>
        <time>2021-12-28T11:15:48Z</time>
      </trkpt>
      <trkpt lat="43.21772" lon="6.23614">
        <ele>307.6</ele>
        <time>2021-12-28T11:15:52Z</time>
      </trkpt>
      <trkpt lat="43.21759" lon="6.23616">
        <ele>305.8</ele>
        <time>2021-12-28T11:15:56Z</time>
      </trkpt>
      <trkpt lat="43.21745" lon="6.2362">
        <ele>305.2</ele>
        <time>2021-12-28T11:16:00Z</time>
      </trkpt>
      <trkpt lat="43.21731" lon="6.23632">
        <ele>304.8</ele>
        <time>2021-12-28T11:16:04Z</time>
      </trkpt>
      <trkpt lat="43.21723" lon="6.23648">
        <ele>303.8</ele>
        <time>2021-12-28T11:16:08Z</time>
      </trkpt>
      <trkpt lat="43.21718" lon="6.23665">
        <ele>303.4</ele>
        <time>2021-12-28T11:16:12Z</time>
      </trkpt>
      <trkpt lat="43.21713" lon="6.2368">
        <ele>303</ele>
        <time>2021-12-28T11:16:16Z</time>
      </trkpt>
      <trkpt lat="43.21704" lon="6.23682">
        <ele>304</ele>
        <time>2021-12-28T11:16:20Z</time>
      </trkpt>
      <trkpt lat="43.217" lon="6.23669">
        <ele>303.6</ele>
        <time>2021-12-28T11:16:24Z</time>
      </trkpt>
      <trkpt lat="43.217" lon="6.23655">
        <ele>303</ele>
        <time>2021-12-28T11:16:28Z</time>
      </trkpt>
      <trkpt lat="43.21698" lon="6.23642">
        <ele>302.6</ele>
        <time>2021-12-28T11:16:32Z</time>
      </trkpt>
      <trkpt lat="43.21698" lon="6.23642">
        <ele>302.4</ele>
        <time>2021-12-28T11:16:36Z</time>
      </trkpt>
      <trkpt lat="43.21695" lon="6.23615">
        <ele>301.2</ele>
        <time>2021-12-28T11:17:00Z</time>
      </trkpt>
      <trkpt lat="43.21694" lon="6.23592">
        <ele>300.6</ele>
        <time>2021-12-28T11:17:04Z</time>
      </trkpt>
      <trkpt lat="43.2169" lon="6.23572">
        <ele>299.2</ele>
        <time>2021-12-28T11:17:08Z</time>
      </trkpt>
      <trkpt lat="43.21691" lon="6.23546">
        <ele>300</ele>
        <time>2021-12-28T11:17:12Z</time>
      </trkpt>
      <trkpt lat="43.21697" lon="6.23525">
        <ele>298.6</ele>
        <time>2021-12-28T11:17:16Z</time>
      </trkpt>
      <trkpt lat="43.21702" lon="6.23503">
        <ele>298</ele>
        <time>2021-12-28T11:17:20Z</time>
      </trkpt>
      <trkpt lat="43.21704" lon="6.23477">
        <ele>298.2</ele>
        <time>2021-12-28T11:17:24Z</time>
      </trkpt>
      <trkpt lat="43.21706" lon="6.23454">
        <ele>295.8</ele>
        <time>2021-12-28T11:17:28Z</time>
      </trkpt>
      <trkpt lat="43.21707" lon="6.23428">
        <ele>295.2</ele>
        <time>2021-12-28T11:17:32Z</time>
      </trkpt>
      <trkpt lat="43.21707" lon="6.234">
        <ele>295.2</ele>
        <time>2021-12-28T11:17:36Z</time>
      </trkpt>
      <trkpt lat="43.21709" lon="6.23373">
        <ele>293.8</ele>
        <time>2021-12-28T11:17:40Z</time>
      </trkpt>
      <trkpt lat="43.21711" lon="6.23346">
        <ele>292.8</ele>
        <time>2021-12-28T11:17:44Z</time>
      </trkpt>
      <trkpt lat="43.21708" lon="6.23321">
        <ele>290</ele>
        <time>2021-12-28T11:17:48Z</time>
      </trkpt>
      <trkpt lat="43.21695" lon="6.23299">
        <ele>287.8</ele>
        <time>2021-12-28T11:17:52Z</time>
      </trkpt>
      <trkpt lat="43.21677" lon="6.23285">
        <ele>287.6</ele>
        <time>2021-12-28T11:17:56Z</time>
      </trkpt>
      <trkpt lat="43.21657" lon="6.23277">
        <ele>286.6</ele>
        <time>2021-12-28T11:18:00Z</time>
      </trkpt>
      <trkpt lat="43.21638" lon="6.23274">
        <ele>286.2</ele>
        <time>2021-12-28T11:18:04Z</time>
      </trkpt>
      <trkpt lat="43.21631" lon="6.23257">
        <ele>285.2</ele>
        <time>2021-12-28T11:18:08Z</time>
      </trkpt>
      <trkpt lat="43.21627" lon="6.23229">
        <ele>284.2</ele>
        <time>2021-12-28T11:18:12Z</time>
      </trkpt>
      <trkpt lat="43.21623" lon="6.23202">
        <ele>283.6</ele>
        <time>2021-12-28T11:18:16Z</time>
      </trkpt>
      <trkpt lat="43.21633" lon="6.23187">
        <ele>283.2</ele>
        <time>2021-12-28T11:18:20Z</time>
      </trkpt>
      <trkpt lat="43.21643" lon="6.23175">
        <ele>282.6</ele>
        <time>2021-12-28T11:18:24Z</time>
      </trkpt>
      <trkpt lat="43.21652" lon="6.23157">
        <ele>280.8</ele>
        <time>2021-12-28T11:18:28Z</time>
      </trkpt>
      <trkpt lat="43.21654" lon="6.2313">
        <ele>278.8</ele>
        <time>2021-12-28T11:18:32Z</time>
      </trkpt>
      <trkpt lat="43.2165" lon="6.23103">
        <ele>277.2</ele>
        <time>2021-12-28T11:18:36Z</time>
      </trkpt>
      <trkpt lat="43.21644" lon="6.2308">
        <ele>277</ele>
        <time>2021-12-28T11:18:40Z</time>
      </trkpt>
      <trkpt lat="43.21635" lon="6.23064">
        <ele>276.8</ele>
        <time>2021-12-28T11:18:44Z</time>
      </trkpt>
      <trkpt lat="43.21622" lon="6.23052">
        <ele>277.2</ele>
        <time>2021-12-28T11:18:48Z</time>
      </trkpt>
      <trkpt lat="43.21609" lon="6.23044">
        <ele>276.8</ele>
        <time>2021-12-28T11:18:52Z</time>
      </trkpt>
      <trkpt lat="43.216" lon="6.23025">
        <ele>276</ele>
        <time>2021-12-28T11:18:56Z</time>
      </trkpt>
      <trkpt lat="43.216" lon="6.23001">
        <ele>275</ele>
        <time>2021-12-28T11:19:00Z</time>
      </trkpt>
      <trkpt lat="43.21593" lon="6.22976">
        <ele>273.6</ele>
        <time>2021-12-28T11:19:04Z</time>
      </trkpt>
      <trkpt lat="43.2158" lon="6.22959">
        <ele>274</ele>
        <time>2021-12-28T11:19:08Z</time>
      </trkpt>
      <trkpt lat="43.21573" lon="6.22937">
        <ele>273.8</ele>
        <time>2021-12-28T11:19:12Z</time>
      </trkpt>
      <trkpt lat="43.21573" lon="6.22913">
        <ele>274.6</ele>
        <time>2021-12-28T11:19:16Z</time>
      </trkpt>
      <trkpt lat="43.21577" lon="6.22888">
        <ele>273.6</ele>
        <time>2021-12-28T11:19:20Z</time>
      </trkpt>
      <trkpt lat="43.21582" lon="6.22865">
        <ele>273.6</ele>
        <time>2021-12-28T11:19:24Z</time>
      </trkpt>
      <trkpt lat="43.21583" lon="6.22839">
        <ele>272</ele>
        <time>2021-12-28T11:19:28Z</time>
      </trkpt>
      <trkpt lat="43.21576" lon="6.22813">
        <ele>270.6</ele>
        <time>2021-12-28T11:19:32Z</time>
      </trkpt>
      <trkpt lat="43.21569" lon="6.22785">
        <ele>269.8</ele>
        <time>2021-12-28T11:19:36Z</time>
      </trkpt>
      <trkpt lat="43.21568" lon="6.22755">
        <ele>269</ele>
        <time>2021-12-28T11:19:40Z</time>
      </trkpt>
      <trkpt lat="43.21568" lon="6.22726">
        <ele>268.8</ele>
        <time>2021-12-28T11:19:44Z</time>
      </trkpt>
      <trkpt lat="43.21564" lon="6.22696">
        <ele>267.8</ele>
        <time>2021-12-28T11:19:48Z</time>
      </trkpt>
      <trkpt lat="43.2156" lon="6.22668">
        <ele>266.2</ele>
        <time>2021-12-28T11:19:52Z</time>
      </trkpt>
      <trkpt lat="43.21556" lon="6.2264">
        <ele>263.6</ele>
        <time>2021-12-28T11:19:56Z</time>
      </trkpt>
      <trkpt lat="43.21547" lon="6.22606">
        <ele>258</ele>
        <time>2021-12-28T11:20:00Z</time>
      </trkpt>
      <trkpt lat="43.21539" lon="6.2257">
        <ele>256.4</ele>
        <time>2021-12-28T11:20:04Z</time>
      </trkpt>
      <trkpt lat="43.21535" lon="6.22534">
        <ele>255</ele>
        <time>2021-12-28T11:20:08Z</time>
      </trkpt>
      <trkpt lat="43.2153" lon="6.22501">
        <ele>254.6</ele>
        <time>2021-12-28T11:20:12Z</time>
      </trkpt>
      <trkpt lat="43.21526" lon="6.22474">
        <ele>254.8</ele>
        <time>2021-12-28T11:20:16Z</time>
      </trkpt>
      <trkpt lat="43.21525" lon="6.22448">
        <ele>253.6</ele>
        <time>2021-12-28T11:20:20Z</time>
      </trkpt>
      <trkpt lat="43.2153" lon="6.22419">
        <ele>251.2</ele>
        <time>2021-12-28T11:20:24Z</time>
      </trkpt>
      <trkpt lat="43.21536" lon="6.22398">
        <ele>249.4</ele>
        <time>2021-12-28T11:20:28Z</time>
      </trkpt>
      <trkpt lat="43.21545" lon="6.2238">
        <ele>247.6</ele>
        <time>2021-12-28T11:20:32Z</time>
      </trkpt>
      <trkpt lat="43.21551" lon="6.22365">
        <ele>245.8</ele>
        <time>2021-12-28T11:20:36Z</time>
      </trkpt>
      <trkpt lat="43.21551" lon="6.22365">
        <ele>245.2</ele>
        <time>2021-12-28T11:20:40Z</time>
      </trkpt>
      <trkpt lat="43.21553" lon="6.22348">
        <ele>244.4</ele>
        <time>2021-12-28T11:21:02Z</time>
      </trkpt>
      <trkpt lat="43.21557" lon="6.22336">
        <ele>243</ele>
        <time>2021-12-28T11:21:06Z</time>
      </trkpt>
      <trkpt lat="43.21563" lon="6.22317">
        <ele>241.4</ele>
        <time>2021-12-28T11:21:10Z</time>
      </trkpt>
      <trkpt lat="43.21568" lon="6.22301">
        <ele>241.6</ele>
        <time>2021-12-28T11:21:14Z</time>
      </trkpt>
      <trkpt lat="43.21572" lon="6.22282">
        <ele>239.4</ele>
        <time>2021-12-28T11:21:18Z</time>
      </trkpt>
      <trkpt lat="43.21575" lon="6.22261">
        <ele>239.6</ele>
        <time>2021-12-28T11:21:22Z</time>
      </trkpt>
      <trkpt lat="43.21576" lon="6.22233">
        <ele>237</ele>
        <time>2021-12-28T11:21:26Z</time>
      </trkpt>
      <trkpt lat="43.21578" lon="6.22202">
        <ele>234</ele>
        <time>2021-12-28T11:21:30Z</time>
      </trkpt>
      <trkpt lat="43.21585" lon="6.22175">
        <ele>233.4</ele>
        <time>2021-12-28T11:21:34Z</time>
      </trkpt>
      <trkpt lat="43.216" lon="6.22151">
        <ele>231.4</ele>
        <time>2021-12-28T11:21:38Z</time>
      </trkpt>
      <trkpt lat="43.21617" lon="6.22128">
        <ele>230.8</ele>
        <time>2021-12-28T11:21:42Z</time>
      </trkpt>
      <trkpt lat="43.21631" lon="6.22101">
        <ele>230.2</ele>
        <time>2021-12-28T11:21:46Z</time>
      </trkpt>
      <trkpt lat="43.21643" lon="6.22078">
        <ele>231</ele>
        <time>2021-12-28T11:21:50Z</time>
      </trkpt>
      <trkpt lat="43.21652" lon="6.22059">
        <ele>229.4</ele>
        <time>2021-12-28T11:21:54Z</time>
      </trkpt>
      <trkpt lat="43.21661" lon="6.22044">
        <ele>228.6</ele>
        <time>2021-12-28T11:21:58Z</time>
      </trkpt>
      <trkpt lat="43.21666" lon="6.22035">
        <ele>226.8</ele>
        <time>2021-12-28T11:22:02Z</time>
      </trkpt>
      <trkpt lat="43.2167" lon="6.22027">
        <ele>226</ele>
        <time>2021-12-28T11:22:06Z</time>
      </trkpt>
      <trkpt lat="43.21674" lon="6.22017">
        <ele>226.4</ele>
        <time>2021-12-28T11:23:23Z</time>
      </trkpt>
      <trkpt lat="43.21667" lon="6.22027">
        <ele>227</ele>
        <time>2021-12-28T11:23:27Z</time>
      </trkpt>
      <trkpt lat="43.21662" lon="6.22037">
        <ele>226.6</ele>
        <time>2021-12-28T11:23:31Z</time>
      </trkpt>
      <trkpt lat="43.21658" lon="6.22044">
        <ele>226.6</ele>
        <time>2021-12-28T11:23:35Z</time>
      </trkpt>
      <trkpt lat="43.21654" lon="6.22052">
        <ele>228.4</ele>
        <time>2021-12-28T11:23:39Z</time>
      </trkpt>
      <trkpt lat="43.21651" lon="6.2206">
        <ele>229</ele>
        <time>2021-12-28T11:23:43Z</time>
      </trkpt>
      <trkpt lat="43.21647" lon="6.22069">
        <ele>228.6</ele>
        <time>2021-12-28T11:23:47Z</time>
      </trkpt>
      <trkpt lat="43.21643" lon="6.22077">
        <ele>229.4</ele>
        <time>2021-12-28T11:23:51Z</time>
      </trkpt>
      <trkpt lat="43.21638" lon="6.22086">
        <ele>230.4</ele>
        <time>2021-12-28T11:23:55Z</time>
      </trkpt>
      <trkpt lat="43.21633" lon="6.22096">
        <ele>229.4</ele>
        <time>2021-12-28T11:23:59Z</time>
      </trkpt>
      <trkpt lat="43.21628" lon="6.22107">
        <ele>230.4</ele>
        <time>2021-12-28T11:24:03Z</time>
      </trkpt>
      <trkpt lat="43.21628" lon="6.22107">
        <ele>231.6</ele>
        <time>2021-12-28T11:24:07Z</time>
      </trkpt>
      <trkpt lat="43.21621" lon="6.22121">
        <ele>232.8</ele>
        <time>2021-12-28T11:24:11Z</time>
      </trkpt>
      <trkpt lat="43.21615" lon="6.22129">
        <ele>232.4</ele>
        <time>2021-12-28T11:24:15Z</time>
      </trkpt>
      <trkpt lat="43.2161" lon="6.22137">
        <ele>233.4</ele>
        <time>2021-12-28T11:24:19Z</time>
      </trkpt>
      <trkpt lat="43.21605" lon="6.22146">
        <ele>233.8</ele>
        <time>2021-12-28T11:24:23Z</time>
      </trkpt>
      <trkpt lat="43.21598" lon="6.22155">
        <ele>234.4</ele>
        <time>2021-12-28T11:24:27Z</time>
      </trkpt>
      <trkpt lat="43.21593" lon="6.22164">
        <ele>235.4</ele>
        <time>2021-12-28T11:24:31Z</time>
      </trkpt>
      <trkpt lat="43.21587" lon="6.22172">
        <ele>235.2</ele>
        <time>2021-12-28T11:24:35Z</time>
      </trkpt>
      <trkpt lat="43.21584" lon="6.22183">
        <ele>235.6</ele>
        <time>2021-12-28T11:24:39Z</time>
      </trkpt>
      <trkpt lat="43.21581" lon="6.22194">
        <ele>236</ele>
        <time>2021-12-28T11:24:43Z</time>
      </trkpt>
      <trkpt lat="43.21579" lon="6.22207">
        <ele>236.4</ele>
        <time>2021-12-28T11:24:47Z</time>
      </trkpt>
      <trkpt lat="43.21579" lon="6.22219">
        <ele>236.4</ele>
        <time>2021-12-28T11:24:51Z</time>
      </trkpt>
      <trkpt lat="43.21578" lon="6.22231">
        <ele>237</ele>
        <time>2021-12-28T11:24:55Z</time>
      </trkpt>
      <trkpt lat="43.21578" lon="6.22241">
        <ele>238.2</ele>
        <time>2021-12-28T11:24:59Z</time>
      </trkpt>
      <trkpt lat="43.21577" lon="6.2225">
        <ele>238.6</ele>
        <time>2021-12-28T11:25:03Z</time>
      </trkpt>
      <trkpt lat="43.21577" lon="6.2226">
        <ele>237.8</ele>
        <time>2021-12-28T11:25:07Z</time>
      </trkpt>
      <trkpt lat="43.21575" lon="6.2227">
        <ele>239.6</ele>
        <time>2021-12-28T11:25:11Z</time>
      </trkpt>
      <trkpt lat="43.21574" lon="6.22279">
        <ele>239.8</ele>
        <time>2021-12-28T11:25:15Z</time>
      </trkpt>
      <trkpt lat="43.21571" lon="6.22288">
        <ele>240.4</ele>
        <time>2021-12-28T11:25:19Z</time>
      </trkpt>
      <trkpt lat="43.21569" lon="6.22297">
        <ele>241</ele>
        <time>2021-12-28T11:25:23Z</time>
      </trkpt>
      <trkpt lat="43.21566" lon="6.22305">
        <ele>242.2</ele>
        <time>2021-12-28T11:25:27Z</time>
      </trkpt>
      <trkpt lat="43.21565" lon="6.22311">
        <ele>242.6</ele>
        <time>2021-12-28T11:25:31Z</time>
      </trkpt>
      <trkpt lat="43.21561" lon="6.22322">
        <ele>242.8</ele>
        <time>2021-12-28T11:25:35Z</time>
      </trkpt>
      <trkpt lat="43.21558" lon="6.22332">
        <ele>243.2</ele>
        <time>2021-12-28T11:25:39Z</time>
      </trkpt>
      <trkpt lat="43.21556" lon="6.2234">
        <ele>244.2</ele>
        <time>2021-12-28T11:25:43Z</time>
      </trkpt>
      <trkpt lat="43.21552" lon="6.22348">
        <ele>244.6</ele>
        <time>2021-12-28T11:25:47Z</time>
      </trkpt>
      <trkpt lat="43.21549" lon="6.22355">
        <ele>245.2</ele>
        <time>2021-12-28T11:25:51Z</time>
      </trkpt>
      <trkpt lat="43.21544" lon="6.22365">
        <ele>245.4</ele>
        <time>2021-12-28T11:25:55Z</time>
      </trkpt>
      <trkpt lat="43.2154" lon="6.22375">
        <ele>246.4</ele>
        <time>2021-12-28T11:25:59Z</time>
      </trkpt>
      <trkpt lat="43.21535" lon="6.22384">
        <ele>246.4</ele>
        <time>2021-12-28T11:26:03Z</time>
      </trkpt>
      <trkpt lat="43.2153" lon="6.22395">
        <ele>246.6</ele>
        <time>2021-12-28T11:26:07Z</time>
      </trkpt>
      <trkpt lat="43.21526" lon="6.22405">
        <ele>246.8</ele>
        <time>2021-12-28T11:26:11Z</time>
      </trkpt>
      <trkpt lat="43.21522" lon="6.22416">
        <ele>246.8</ele>
        <time>2021-12-28T11:26:15Z</time>
      </trkpt>
      <trkpt lat="43.2152" lon="6.22428">
        <ele>247.2</ele>
        <time>2021-12-28T11:26:19Z</time>
      </trkpt>
      <trkpt lat="43.21517" lon="6.22439">
        <ele>248</ele>
        <time>2021-12-28T11:26:23Z</time>
      </trkpt>
      <trkpt lat="43.21515" lon="6.22451">
        <ele>247.6</ele>
        <time>2021-12-28T11:26:27Z</time>
      </trkpt>
      <trkpt lat="43.21513" lon="6.22463">
        <ele>248.4</ele>
        <time>2021-12-28T11:26:31Z</time>
      </trkpt>
      <trkpt lat="43.21513" lon="6.22477">
        <ele>248.8</ele>
        <time>2021-12-28T11:26:35Z</time>
      </trkpt>
      <trkpt lat="43.21514" lon="6.2249">
        <ele>248.6</ele>
        <time>2021-12-28T11:26:39Z</time>
      </trkpt>
      <trkpt lat="43.21515" lon="6.22503">
        <ele>249.8</ele>
        <time>2021-12-28T11:26:43Z</time>
      </trkpt>
      <trkpt lat="43.21507" lon="6.22511">
        <ele>248.6</ele>
        <time>2021-12-28T11:26:47Z</time>
      </trkpt>
      <trkpt lat="43.21502" lon="6.22501">
        <ele>248.6</ele>
        <time>2021-12-28T11:26:51Z</time>
      </trkpt>
      <trkpt lat="43.21497" lon="6.22489">
        <ele>249</ele>
        <time>2021-12-28T11:26:55Z</time>
      </trkpt>
      <trkpt lat="43.21492" lon="6.22478">
        <ele>248.8</ele>
        <time>2021-12-28T11:26:59Z</time>
      </trkpt>
      <trkpt lat="43.21488" lon="6.22464">
        <ele>249.2</ele>
        <time>2021-12-28T11:27:03Z</time>
      </trkpt>
      <trkpt lat="43.21485" lon="6.22452">
        <ele>248</ele>
        <time>2021-12-28T11:27:07Z</time>
      </trkpt>
      <trkpt lat="43.21481" lon="6.22438">
        <ele>249.8</ele>
        <time>2021-12-28T11:27:11Z</time>
      </trkpt>
      <trkpt lat="43.21479" lon="6.22425">
        <ele>250</ele>
        <time>2021-12-28T11:27:15Z</time>
      </trkpt>
      <trkpt lat="43.21476" lon="6.22411">
        <ele>249</ele>
        <time>2021-12-28T11:27:19Z</time>
      </trkpt>
      <trkpt lat="43.21474" lon="6.22398">
        <ele>250.4</ele>
        <time>2021-12-28T11:27:23Z</time>
      </trkpt>
      <trkpt lat="43.21473" lon="6.22387">
        <ele>251.4</ele>
        <time>2021-12-28T11:27:27Z</time>
      </trkpt>
      <trkpt lat="43.21471" lon="6.22377">
        <ele>251</ele>
        <time>2021-12-28T11:27:31Z</time>
      </trkpt>
      <trkpt lat="43.21471" lon="6.22365">
        <ele>252.6</ele>
        <time>2021-12-28T11:27:35Z</time>
      </trkpt>
      <trkpt lat="43.2147" lon="6.22356">
        <ele>252.6</ele>
        <time>2021-12-28T11:27:39Z</time>
      </trkpt>
      <trkpt lat="43.21468" lon="6.22342">
        <ele>252.8</ele>
        <time>2021-12-28T11:27:43Z</time>
      </trkpt>
      <trkpt lat="43.21466" lon="6.22331">
        <ele>253.4</ele>
        <time>2021-12-28T11:27:47Z</time>
      </trkpt>
      <trkpt lat="43.21463" lon="6.22321">
        <ele>253.6</ele>
        <time>2021-12-28T11:27:51Z</time>
      </trkpt>
      <trkpt lat="43.2146" lon="6.2231">
        <ele>254.2</ele>
        <time>2021-12-28T11:27:55Z</time>
      </trkpt>
      <trkpt lat="43.21456" lon="6.22299">
        <ele>254.2</ele>
        <time>2021-12-28T11:27:59Z</time>
      </trkpt>
      <trkpt lat="43.21452" lon="6.22286">
        <ele>254.6</ele>
        <time>2021-12-28T11:28:03Z</time>
      </trkpt>
      <trkpt lat="43.21445" lon="6.22276">
        <ele>254.4</ele>
        <time>2021-12-28T11:28:07Z</time>
      </trkpt>
      <trkpt lat="43.2144" lon="6.22272">
        <ele>254.4</ele>
        <time>2021-12-28T11:28:11Z</time>
      </trkpt>
      <trkpt lat="43.21433" lon="6.22267">
        <ele>254.8</ele>
        <time>2021-12-28T11:28:15Z</time>
      </trkpt>
      <trkpt lat="43.21425" lon="6.22263">
        <ele>255.4</ele>
        <time>2021-12-28T11:28:19Z</time>
      </trkpt>
      <trkpt lat="43.21418" lon="6.22261">
        <ele>256.6</ele>
        <time>2021-12-28T11:28:23Z</time>
      </trkpt>
      <trkpt lat="43.21411" lon="6.22262">
        <ele>256.8</ele>
        <time>2021-12-28T11:28:27Z</time>
      </trkpt>
      <trkpt lat="43.21404" lon="6.22264">
        <ele>257.2</ele>
        <time>2021-12-28T11:28:31Z</time>
      </trkpt>
      <trkpt lat="43.21399" lon="6.22269">
        <ele>257</ele>
        <time>2021-12-28T11:28:35Z</time>
      </trkpt>
      <trkpt lat="43.21393" lon="6.22275">
        <ele>257.2</ele>
        <time>2021-12-28T11:28:39Z</time>
      </trkpt>
      <trkpt lat="43.21388" lon="6.22285">
        <ele>258</ele>
        <time>2021-12-28T11:28:43Z</time>
      </trkpt>
      <trkpt lat="43.21384" lon="6.22295">
        <ele>258.4</ele>
        <time>2021-12-28T11:28:47Z</time>
      </trkpt>
      <trkpt lat="43.21382" lon="6.22306">
        <ele>259.4</ele>
        <time>2021-12-28T11:28:51Z</time>
      </trkpt>
      <trkpt lat="43.2138" lon="6.22316">
        <ele>259.4</ele>
        <time>2021-12-28T11:28:55Z</time>
      </trkpt>
      <trkpt lat="43.21378" lon="6.22326">
        <ele>259.4</ele>
        <time>2021-12-28T11:28:59Z</time>
      </trkpt>
      <trkpt lat="43.21374" lon="6.22337">
        <ele>259.8</ele>
        <time>2021-12-28T11:29:03Z</time>
      </trkpt>
      <trkpt lat="43.21369" lon="6.22343">
        <ele>260.4</ele>
        <time>2021-12-28T11:29:07Z</time>
      </trkpt>
      <trkpt lat="43.21364" lon="6.2235">
        <ele>261.4</ele>
        <time>2021-12-28T11:29:11Z</time>
      </trkpt>
      <trkpt lat="43.21358" lon="6.22356">
        <ele>261.4</ele>
        <time>2021-12-28T11:29:15Z</time>
      </trkpt>
      <trkpt lat="43.21353" lon="6.22362">
        <ele>262</ele>
        <time>2021-12-28T11:29:19Z</time>
      </trkpt>
      <trkpt lat="43.21348" lon="6.22367">
        <ele>262.6</ele>
        <time>2021-12-28T11:29:23Z</time>
      </trkpt>
      <trkpt lat="43.21342" lon="6.22373">
        <ele>263.4</ele>
        <time>2021-12-28T11:29:27Z</time>
      </trkpt>
      <trkpt lat="43.21336" lon="6.22379">
        <ele>263.2</ele>
        <time>2021-12-28T11:29:31Z</time>
      </trkpt>
      <trkpt lat="43.21331" lon="6.22387">
        <ele>263.8</ele>
        <time>2021-12-28T11:29:35Z</time>
      </trkpt>
      <trkpt lat="43.21328" lon="6.22396">
        <ele>264.4</ele>
        <time>2021-12-28T11:29:39Z</time>
      </trkpt>
      <trkpt lat="43.21326" lon="6.22405">
        <ele>264.6</ele>
        <time>2021-12-28T11:29:43Z</time>
      </trkpt>
      <trkpt lat="43.21326" lon="6.22415">
        <ele>264.8</ele>
        <time>2021-12-28T11:29:47Z</time>
      </trkpt>
      <trkpt lat="43.21326" lon="6.22427">
        <ele>265.6</ele>
        <time>2021-12-28T11:29:51Z</time>
      </trkpt>
      <trkpt lat="43.21326" lon="6.22435">
        <ele>266.2</ele>
        <time>2021-12-28T11:29:55Z</time>
      </trkpt>
      <trkpt lat="43.21327" lon="6.22443">
        <ele>266</ele>
        <time>2021-12-28T11:29:59Z</time>
      </trkpt>
      <trkpt lat="43.21326" lon="6.22451">
        <ele>266.6</ele>
        <time>2021-12-28T11:30:03Z</time>
      </trkpt>
      <trkpt lat="43.21326" lon="6.22459">
        <ele>267</ele>
        <time>2021-12-28T11:30:07Z</time>
      </trkpt>
      <trkpt lat="43.21325" lon="6.22468">
        <ele>267</ele>
        <time>2021-12-28T11:30:11Z</time>
      </trkpt>
      <trkpt lat="43.21324" lon="6.22475">
        <ele>267.4</ele>
        <time>2021-12-28T11:30:15Z</time>
      </trkpt>
      <trkpt lat="43.21318" lon="6.22481">
        <ele>267.4</ele>
        <time>2021-12-28T11:30:19Z</time>
      </trkpt>
      <trkpt lat="43.21311" lon="6.22481">
        <ele>268.2</ele>
        <time>2021-12-28T11:30:23Z</time>
      </trkpt>
      <trkpt lat="43.21304" lon="6.22478">
        <ele>268.6</ele>
        <time>2021-12-28T11:30:27Z</time>
      </trkpt>
      <trkpt lat="43.21295" lon="6.22478">
        <ele>267.8</ele>
        <time>2021-12-28T11:30:31Z</time>
      </trkpt>
      <trkpt lat="43.21285" lon="6.2248">
        <ele>268.6</ele>
        <time>2021-12-28T11:30:35Z</time>
      </trkpt>
      <trkpt lat="43.21276" lon="6.22484">
        <ele>269.8</ele>
        <time>2021-12-28T11:30:39Z</time>
      </trkpt>
      <trkpt lat="43.2126" lon="6.22494">
        <ele>270.4</ele>
        <time>2021-12-28T11:31:04Z</time>
      </trkpt>
      <trkpt lat="43.21251" lon="6.22499">
        <ele>270</ele>
        <time>2021-12-28T11:31:08Z</time>
      </trkpt>
      <trkpt lat="43.21242" lon="6.22506">
        <ele>270.6</ele>
        <time>2021-12-28T11:31:12Z</time>
      </trkpt>
      <trkpt lat="43.21233" lon="6.22511">
        <ele>271.2</ele>
        <time>2021-12-28T11:31:16Z</time>
      </trkpt>
      <trkpt lat="43.21223" lon="6.22515">
        <ele>271.4</ele>
        <time>2021-12-28T11:31:20Z</time>
      </trkpt>
      <trkpt lat="43.21214" lon="6.22519">
        <ele>272.2</ele>
        <time>2021-12-28T11:31:24Z</time>
      </trkpt>
      <trkpt lat="43.21205" lon="6.22524">
        <ele>272.6</ele>
        <time>2021-12-28T11:31:28Z</time>
      </trkpt>
      <trkpt lat="43.21195" lon="6.22527">
        <ele>273.4</ele>
        <time>2021-12-28T11:31:32Z</time>
      </trkpt>
      <trkpt lat="43.21187" lon="6.2253">
        <ele>273</ele>
        <time>2021-12-28T11:31:36Z</time>
      </trkpt>
      <trkpt lat="43.21179" lon="6.22535">
        <ele>273.8</ele>
        <time>2021-12-28T11:31:40Z</time>
      </trkpt>
      <trkpt lat="43.21172" lon="6.22542">
        <ele>274.2</ele>
        <time>2021-12-28T11:31:44Z</time>
      </trkpt>
      <trkpt lat="43.21165" lon="6.22548">
        <ele>274</ele>
        <time>2021-12-28T11:31:48Z</time>
      </trkpt>
      <trkpt lat="43.21161" lon="6.22556">
        <ele>274.8</ele>
        <time>2021-12-28T11:31:52Z</time>
      </trkpt>
      <trkpt lat="43.21156" lon="6.22565">
        <ele>275.4</ele>
        <time>2021-12-28T11:31:56Z</time>
      </trkpt>
      <trkpt lat="43.21153" lon="6.22575">
        <ele>276.4</ele>
        <time>2021-12-28T11:32:00Z</time>
      </trkpt>
      <trkpt lat="43.2115" lon="6.22587">
        <ele>276</ele>
        <time>2021-12-28T11:32:04Z</time>
      </trkpt>
      <trkpt lat="43.21148" lon="6.22599">
        <ele>277</ele>
        <time>2021-12-28T11:32:08Z</time>
      </trkpt>
      <trkpt lat="43.21146" lon="6.22609">
        <ele>276.8</ele>
        <time>2021-12-28T11:32:12Z</time>
      </trkpt>
      <trkpt lat="43.21145" lon="6.2262">
        <ele>277.4</ele>
        <time>2021-12-28T11:32:16Z</time>
      </trkpt>
      <trkpt lat="43.21142" lon="6.2263">
        <ele>277.6</ele>
        <time>2021-12-28T11:32:20Z</time>
      </trkpt>
      <trkpt lat="43.2114" lon="6.22641">
        <ele>278</ele>
        <time>2021-12-28T11:32:24Z</time>
      </trkpt>
      <trkpt lat="43.21138" lon="6.22652">
        <ele>277.8</ele>
        <time>2021-12-28T11:32:28Z</time>
      </trkpt>
      <trkpt lat="43.21136" lon="6.22662">
        <ele>279.4</ele>
        <time>2021-12-28T11:32:32Z</time>
      </trkpt>
      <trkpt lat="43.21134" lon="6.22672">
        <ele>279.6</ele>
        <time>2021-12-28T11:32:36Z</time>
      </trkpt>
      <trkpt lat="43.21133" lon="6.22685">
        <ele>281</ele>
        <time>2021-12-28T11:32:40Z</time>
      </trkpt>
      <trkpt lat="43.21131" lon="6.22696">
        <ele>280.6</ele>
        <time>2021-12-28T11:32:44Z</time>
      </trkpt>
      <trkpt lat="43.2113" lon="6.22706">
        <ele>281.2</ele>
        <time>2021-12-28T11:32:48Z</time>
      </trkpt>
      <trkpt lat="43.21127" lon="6.22718">
        <ele>282</ele>
        <time>2021-12-28T11:32:52Z</time>
      </trkpt>
      <trkpt lat="43.21126" lon="6.22727">
        <ele>282.8</ele>
        <time>2021-12-28T11:32:56Z</time>
      </trkpt>
      <trkpt lat="43.21124" lon="6.22735">
        <ele>283</ele>
        <time>2021-12-28T11:33:00Z</time>
      </trkpt>
      <trkpt lat="43.21121" lon="6.22743">
        <ele>283.2</ele>
        <time>2021-12-28T11:33:04Z</time>
      </trkpt>
      <trkpt lat="43.21122" lon="6.22752">
        <ele>283</ele>
        <time>2021-12-28T11:33:08Z</time>
      </trkpt>
      <trkpt lat="43.21131" lon="6.22751">
        <ele>283.6</ele>
        <time>2021-12-28T11:33:49Z</time>
      </trkpt>
      <trkpt lat="43.21132" lon="6.22744">
        <ele>283</ele>
        <time>2021-12-28T11:33:53Z</time>
      </trkpt>
      <trkpt lat="43.21137" lon="6.22741">
        <ele>283.8</ele>
        <time>2021-12-28T11:33:57Z</time>
      </trkpt>
      <trkpt lat="43.21146" lon="6.22742">
        <ele>284.8</ele>
        <time>2021-12-28T11:34:11Z</time>
      </trkpt>
      <trkpt lat="43.21152" lon="6.22741">
        <ele>284.2</ele>
        <time>2021-12-28T11:34:15Z</time>
      </trkpt>
      <trkpt lat="43.21158" lon="6.2274">
        <ele>286.2</ele>
        <time>2021-12-28T11:34:19Z</time>
      </trkpt>
      <trkpt lat="43.21165" lon="6.22739">
        <ele>287</ele>
        <time>2021-12-28T11:34:23Z</time>
      </trkpt>
      <trkpt lat="43.21172" lon="6.22737">
        <ele>288.6</ele>
        <time>2021-12-28T11:34:27Z</time>
      </trkpt>
      <trkpt lat="43.21179" lon="6.22736">
        <ele>288.6</ele>
        <time>2021-12-28T11:34:31Z</time>
      </trkpt>
      <trkpt lat="43.21186" lon="6.22734">
        <ele>288.4</ele>
        <time>2021-12-28T11:34:35Z</time>
      </trkpt>
      <trkpt lat="43.21193" lon="6.22731">
        <ele>288.2</ele>
        <time>2021-12-28T11:34:39Z</time>
      </trkpt>
      <trkpt lat="43.21201" lon="6.2273">
        <ele>288.8</ele>
        <time>2021-12-28T11:34:43Z</time>
      </trkpt>
      <trkpt lat="43.21207" lon="6.2273">
        <ele>289.8</ele>
        <time>2021-12-28T11:34:47Z</time>
      </trkpt>
      <trkpt lat="43.21214" lon="6.22732">
        <ele>289.2</ele>
        <time>2021-12-28T11:34:51Z</time>
      </trkpt>
      <trkpt lat="43.2122" lon="6.22735">
        <ele>290.6</ele>
        <time>2021-12-28T11:34:55Z</time>
      </trkpt>
      <trkpt lat="43.21225" lon="6.2274">
        <ele>290.2</ele>
        <time>2021-12-28T11:34:59Z</time>
      </trkpt>
      <trkpt lat="43.21233" lon="6.22747">
        <ele>290.6</ele>
        <time>2021-12-28T11:35:03Z</time>
      </trkpt>
      <trkpt lat="43.2124" lon="6.22753">
        <ele>291</ele>
        <time>2021-12-28T11:35:07Z</time>
      </trkpt>
      <trkpt lat="43.21246" lon="6.2276">
        <ele>292</ele>
        <time>2021-12-28T11:35:11Z</time>
      </trkpt>
      <trkpt lat="43.21251" lon="6.22765">
        <ele>292.8</ele>
        <time>2021-12-28T11:35:15Z</time>
      </trkpt>
      <trkpt lat="43.21258" lon="6.22769">
        <ele>292.2</ele>
        <time>2021-12-28T11:35:19Z</time>
      </trkpt>
      <trkpt lat="43.21264" lon="6.22773">
        <ele>293.8</ele>
        <time>2021-12-28T11:35:23Z</time>
      </trkpt>
      <trkpt lat="43.21271" lon="6.22777">
        <ele>294.4</ele>
        <time>2021-12-28T11:35:27Z</time>
      </trkpt>
      <trkpt lat="43.21278" lon="6.22781">
        <ele>295.2</ele>
        <time>2021-12-28T11:35:31Z</time>
      </trkpt>
      <trkpt lat="43.21284" lon="6.22785">
        <ele>295.2</ele>
        <time>2021-12-28T11:35:35Z</time>
      </trkpt>
      <trkpt lat="43.21291" lon="6.22788">
        <ele>295.2</ele>
        <time>2021-12-28T11:35:39Z</time>
      </trkpt>
      <trkpt lat="43.21298" lon="6.22792">
        <ele>296</ele>
        <time>2021-12-28T11:35:43Z</time>
      </trkpt>
      <trkpt lat="43.21305" lon="6.22795">
        <ele>296</ele>
        <time>2021-12-28T11:35:47Z</time>
      </trkpt>
      <trkpt lat="43.21312" lon="6.22797">
        <ele>298</ele>
        <time>2021-12-28T11:35:51Z</time>
      </trkpt>
      <trkpt lat="43.21318" lon="6.22799">
        <ele>298.4</ele>
        <time>2021-12-28T11:35:55Z</time>
      </trkpt>
      <trkpt lat="43.21323" lon="6.22802">
        <ele>298.6</ele>
        <time>2021-12-28T11:35:59Z</time>
      </trkpt>
      <trkpt lat="43.2133" lon="6.22809">
        <ele>299.2</ele>
        <time>2021-12-28T11:36:03Z</time>
      </trkpt>
      <trkpt lat="43.21335" lon="6.22817">
        <ele>299.8</ele>
        <time>2021-12-28T11:36:07Z</time>
      </trkpt>
      <trkpt lat="43.21339" lon="6.22824">
        <ele>300.4</ele>
        <time>2021-12-28T11:36:11Z</time>
      </trkpt>
      <trkpt lat="43.21342" lon="6.22832">
        <ele>301</ele>
        <time>2021-12-28T11:36:15Z</time>
      </trkpt>
      <trkpt lat="43.21346" lon="6.2284">
        <ele>301.4</ele>
        <time>2021-12-28T11:36:19Z</time>
      </trkpt>
      <trkpt lat="43.21348" lon="6.2285">
        <ele>301.6</ele>
        <time>2021-12-28T11:36:23Z</time>
      </trkpt>
      <trkpt lat="43.2135" lon="6.22859">
        <ele>302.2</ele>
        <time>2021-12-28T11:36:27Z</time>
      </trkpt>
      <trkpt lat="43.21352" lon="6.22868">
        <ele>302.6</ele>
        <time>2021-12-28T11:36:31Z</time>
      </trkpt>
      <trkpt lat="43.21355" lon="6.22876">
        <ele>304</ele>
        <time>2021-12-28T11:36:35Z</time>
      </trkpt>
      <trkpt lat="43.21357" lon="6.22885">
        <ele>304.2</ele>
        <time>2021-12-28T11:36:39Z</time>
      </trkpt>
      <trkpt lat="43.21359" lon="6.22895">
        <ele>304.2</ele>
        <time>2021-12-28T11:36:43Z</time>
      </trkpt>
      <trkpt lat="43.21362" lon="6.22904">
        <ele>304.4</ele>
        <time>2021-12-28T11:36:47Z</time>
      </trkpt>
      <trkpt lat="43.21364" lon="6.22913">
        <ele>304.6</ele>
        <time>2021-12-28T11:36:51Z</time>
      </trkpt>
      <trkpt lat="43.21367" lon="6.22922">
        <ele>305.2</ele>
        <time>2021-12-28T11:36:55Z</time>
      </trkpt>
      <trkpt lat="43.21369" lon="6.22931">
        <ele>305.6</ele>
        <time>2021-12-28T11:36:59Z</time>
      </trkpt>
      <trkpt lat="43.21371" lon="6.2294">
        <ele>306.6</ele>
        <time>2021-12-28T11:37:03Z</time>
      </trkpt>
      <trkpt lat="43.21374" lon="6.22949">
        <ele>307</ele>
        <time>2021-12-28T11:37:07Z</time>
      </trkpt>
      <trkpt lat="43.21377" lon="6.22958">
        <ele>306.8</ele>
        <time>2021-12-28T11:37:11Z</time>
      </trkpt>
      <trkpt lat="43.2138" lon="6.22967">
        <ele>307.8</ele>
        <time>2021-12-28T11:37:15Z</time>
      </trkpt>
      <trkpt lat="43.21383" lon="6.22976">
        <ele>308.2</ele>
        <time>2021-12-28T11:37:19Z</time>
      </trkpt>
      <trkpt lat="43.21388" lon="6.22983">
        <ele>308.2</ele>
        <time>2021-12-28T11:37:23Z</time>
      </trkpt>
      <trkpt lat="43.21393" lon="6.2299">
        <ele>308.4</ele>
        <time>2021-12-28T11:37:27Z</time>
      </trkpt>
      <trkpt lat="43.21398" lon="6.22997">
        <ele>308.8</ele>
        <time>2021-12-28T11:37:31Z</time>
      </trkpt>
      <trkpt lat="43.21403" lon="6.23003">
        <ele>309.6</ele>
        <time>2021-12-28T11:37:35Z</time>
      </trkpt>
      <trkpt lat="43.21408" lon="6.23011">
        <ele>310.8</ele>
        <time>2021-12-28T11:37:39Z</time>
      </trkpt>
      <trkpt lat="43.21412" lon="6.23018">
        <ele>311</ele>
        <time>2021-12-28T11:37:43Z</time>
      </trkpt>
      <trkpt lat="43.21417" lon="6.23024">
        <ele>311.6</ele>
        <time>2021-12-28T11:37:47Z</time>
      </trkpt>
      <trkpt lat="43.21422" lon="6.23029">
        <ele>312.2</ele>
        <time>2021-12-28T11:37:51Z</time>
      </trkpt>
      <trkpt lat="43.21426" lon="6.23036">
        <ele>313.2</ele>
        <time>2021-12-28T11:37:55Z</time>
      </trkpt>
      <trkpt lat="43.21431" lon="6.23041">
        <ele>313.2</ele>
        <time>2021-12-28T11:37:59Z</time>
      </trkpt>
      <trkpt lat="43.21435" lon="6.23048">
        <ele>313.8</ele>
        <time>2021-12-28T11:38:03Z</time>
      </trkpt>
      <trkpt lat="43.21439" lon="6.23055">
        <ele>314.6</ele>
        <time>2021-12-28T11:38:07Z</time>
      </trkpt>
      <trkpt lat="43.21443" lon="6.23063">
        <ele>314.4</ele>
        <time>2021-12-28T11:38:11Z</time>
      </trkpt>
      <trkpt lat="43.21445" lon="6.23071">
        <ele>314.6</ele>
        <time>2021-12-28T11:38:15Z</time>
      </trkpt>
      <trkpt lat="43.21448" lon="6.23078">
        <ele>315.2</ele>
        <time>2021-12-28T11:38:19Z</time>
      </trkpt>
      <trkpt lat="43.21451" lon="6.23086">
        <ele>316.2</ele>
        <time>2021-12-28T11:38:23Z</time>
      </trkpt>
      <trkpt lat="43.21454" lon="6.23093">
        <ele>316.8</ele>
        <time>2021-12-28T11:38:27Z</time>
      </trkpt>
      <trkpt lat="43.21457" lon="6.23101">
        <ele>317</ele>
        <time>2021-12-28T11:38:31Z</time>
      </trkpt>
      <trkpt lat="43.2146" lon="6.23109">
        <ele>318</ele>
        <time>2021-12-28T11:38:35Z</time>
      </trkpt>
      <trkpt lat="43.21463" lon="6.23118">
        <ele>318.2</ele>
        <time>2021-12-28T11:38:39Z</time>
      </trkpt>
      <trkpt lat="43.21465" lon="6.23126">
        <ele>318.4</ele>
        <time>2021-12-28T11:38:43Z</time>
      </trkpt>
      <trkpt lat="43.21468" lon="6.23134">
        <ele>318.6</ele>
        <time>2021-12-28T11:38:47Z</time>
      </trkpt>
      <trkpt lat="43.21471" lon="6.23142">
        <ele>319</ele>
        <time>2021-12-28T11:38:51Z</time>
      </trkpt>
      <trkpt lat="43.21475" lon="6.23149">
        <ele>319.4</ele>
        <time>2021-12-28T11:38:55Z</time>
      </trkpt>
      <trkpt lat="43.21478" lon="6.23157">
        <ele>320</ele>
        <time>2021-12-28T11:38:59Z</time>
      </trkpt>
      <trkpt lat="43.21481" lon="6.23165">
        <ele>321</ele>
        <time>2021-12-28T11:39:03Z</time>
      </trkpt>
      <trkpt lat="43.21484" lon="6.23173">
        <ele>321.2</ele>
        <time>2021-12-28T11:39:07Z</time>
      </trkpt>
      <trkpt lat="43.21488" lon="6.2318">
        <ele>322.2</ele>
        <time>2021-12-28T11:39:11Z</time>
      </trkpt>
      <trkpt lat="43.21492" lon="6.23187">
        <ele>322.2</ele>
        <time>2021-12-28T11:39:15Z</time>
      </trkpt>
      <trkpt lat="43.21497" lon="6.23194">
        <ele>322.4</ele>
        <time>2021-12-28T11:39:19Z</time>
      </trkpt>
      <trkpt lat="43.21501" lon="6.23201">
        <ele>323.2</ele>
        <time>2021-12-28T11:39:23Z</time>
      </trkpt>
      <trkpt lat="43.21504" lon="6.23208">
        <ele>323.4</ele>
        <time>2021-12-28T11:39:27Z</time>
      </trkpt>
      <trkpt lat="43.21507" lon="6.23216">
        <ele>323.8</ele>
        <time>2021-12-28T11:39:31Z</time>
      </trkpt>
      <trkpt lat="43.2151" lon="6.23222">
        <ele>325.6</ele>
        <time>2021-12-28T11:39:35Z</time>
      </trkpt>
      <trkpt lat="43.21511" lon="6.23228">
        <ele>325.8</ele>
        <time>2021-12-28T11:39:39Z</time>
      </trkpt>
      <trkpt lat="43.21513" lon="6.23238">
        <ele>325.8</ele>
        <time>2021-12-28T11:39:43Z</time>
      </trkpt>
      <trkpt lat="43.21513" lon="6.23248">
        <ele>326</ele>
        <time>2021-12-28T11:39:47Z</time>
      </trkpt>
      <trkpt lat="43.21512" lon="6.23256">
        <ele>326.4</ele>
        <time>2021-12-28T11:39:51Z</time>
      </trkpt>
      <trkpt lat="43.21513" lon="6.23264">
        <ele>327.2</ele>
        <time>2021-12-28T11:39:55Z</time>
      </trkpt>
      <trkpt lat="43.21513" lon="6.23273">
        <ele>327.6</ele>
        <time>2021-12-28T11:39:59Z</time>
      </trkpt>
      <trkpt lat="43.21513" lon="6.23281">
        <ele>328.8</ele>
        <time>2021-12-28T11:40:03Z</time>
      </trkpt>
      <trkpt lat="43.21512" lon="6.2329">
        <ele>328.8</ele>
        <time>2021-12-28T11:40:07Z</time>
      </trkpt>
      <trkpt lat="43.2151" lon="6.23299">
        <ele>329.4</ele>
        <time>2021-12-28T11:40:11Z</time>
      </trkpt>
      <trkpt lat="43.21508" lon="6.23306">
        <ele>330.2</ele>
        <time>2021-12-28T11:40:15Z</time>
      </trkpt>
      <trkpt lat="43.21505" lon="6.23314">
        <ele>330</ele>
        <time>2021-12-28T11:40:19Z</time>
      </trkpt>
      <trkpt lat="43.21502" lon="6.23322">
        <ele>330.4</ele>
        <time>2021-12-28T11:40:23Z</time>
      </trkpt>
      <trkpt lat="43.21499" lon="6.2333">
        <ele>331.2</ele>
        <time>2021-12-28T11:40:27Z</time>
      </trkpt>
      <trkpt lat="43.21496" lon="6.23339">
        <ele>331.8</ele>
        <time>2021-12-28T11:40:31Z</time>
      </trkpt>
      <trkpt lat="43.21495" lon="6.23348">
        <ele>332.6</ele>
        <time>2021-12-28T11:40:35Z</time>
      </trkpt>
      <trkpt lat="43.21494" lon="6.23357">
        <ele>331.8</ele>
        <time>2021-12-28T11:40:39Z</time>
      </trkpt>
      <trkpt lat="43.21495" lon="6.23367">
        <ele>332</ele>
        <time>2021-12-28T11:40:43Z</time>
      </trkpt>
      <trkpt lat="43.21496" lon="6.23377">
        <ele>333</ele>
        <time>2021-12-28T11:40:47Z</time>
      </trkpt>
      <trkpt lat="43.21498" lon="6.23387">
        <ele>333.2</ele>
        <time>2021-12-28T11:40:51Z</time>
      </trkpt>
      <trkpt lat="43.215" lon="6.23395">
        <ele>333.6</ele>
        <time>2021-12-28T11:40:55Z</time>
      </trkpt>
      <trkpt lat="43.21501" lon="6.23403">
        <ele>334.6</ele>
        <time>2021-12-28T11:40:59Z</time>
      </trkpt>
      <trkpt lat="43.21503" lon="6.23411">
        <ele>334.8</ele>
        <time>2021-12-28T11:41:03Z</time>
      </trkpt>
      <trkpt lat="43.21505" lon="6.23419">
        <ele>335.8</ele>
        <time>2021-12-28T11:41:07Z</time>
      </trkpt>
      <trkpt lat="43.21507" lon="6.23427">
        <ele>336</ele>
        <time>2021-12-28T11:41:11Z</time>
      </trkpt>
      <trkpt lat="43.21509" lon="6.23434">
        <ele>336.6</ele>
        <time>2021-12-28T11:41:15Z</time>
      </trkpt>
      <trkpt lat="43.21512" lon="6.23442">
        <ele>337.6</ele>
        <time>2021-12-28T11:41:19Z</time>
      </trkpt>
      <trkpt lat="43.21514" lon="6.2345">
        <ele>337.6</ele>
        <time>2021-12-28T11:41:23Z</time>
      </trkpt>
      <trkpt lat="43.21516" lon="6.23456">
        <ele>338.2</ele>
        <time>2021-12-28T11:41:27Z</time>
      </trkpt>
      <trkpt lat="43.21518" lon="6.23462">
        <ele>338</ele>
        <time>2021-12-28T11:41:31Z</time>
      </trkpt>
      <trkpt lat="43.21519" lon="6.23468">
        <ele>338.8</ele>
        <time>2021-12-28T11:41:35Z</time>
      </trkpt>
      <trkpt lat="43.21521" lon="6.23476">
        <ele>339</ele>
        <time>2021-12-28T11:41:39Z</time>
      </trkpt>
      <trkpt lat="43.21522" lon="6.23484">
        <ele>340.4</ele>
        <time>2021-12-28T11:41:43Z</time>
      </trkpt>
      <trkpt lat="43.21522" lon="6.23491">
        <ele>340.2</ele>
        <time>2021-12-28T11:41:47Z</time>
      </trkpt>
      <trkpt lat="43.21523" lon="6.23497">
        <ele>341.4</ele>
        <time>2021-12-28T11:41:51Z</time>
      </trkpt>
      <trkpt lat="43.21523" lon="6.23504">
        <ele>341.4</ele>
        <time>2021-12-28T11:41:55Z</time>
      </trkpt>
      <trkpt lat="43.21522" lon="6.2351">
        <ele>341.8</ele>
        <time>2021-12-28T11:41:59Z</time>
      </trkpt>
      <trkpt lat="43.21521" lon="6.23518">
        <ele>342</ele>
        <time>2021-12-28T11:42:03Z</time>
      </trkpt>
      <trkpt lat="43.21519" lon="6.23524">
        <ele>342.8</ele>
        <time>2021-12-28T11:42:07Z</time>
      </trkpt>
      <trkpt lat="43.21517" lon="6.23532">
        <ele>343.2</ele>
        <time>2021-12-28T11:42:11Z</time>
      </trkpt>
      <trkpt lat="43.21515" lon="6.23539">
        <ele>343.2</ele>
        <time>2021-12-28T11:42:15Z</time>
      </trkpt>
      <trkpt lat="43.21512" lon="6.23546">
        <ele>344</ele>
        <time>2021-12-28T11:42:19Z</time>
      </trkpt>
      <trkpt lat="43.2151" lon="6.23553">
        <ele>344.2</ele>
        <time>2021-12-28T11:42:23Z</time>
      </trkpt>
      <trkpt lat="43.21507" lon="6.2356">
        <ele>344.6</ele>
        <time>2021-12-28T11:42:27Z</time>
      </trkpt>
      <trkpt lat="43.21504" lon="6.23568">
        <ele>344.8</ele>
        <time>2021-12-28T11:42:31Z</time>
      </trkpt>
      <trkpt lat="43.21501" lon="6.23576">
        <ele>345.6</ele>
        <time>2021-12-28T11:42:35Z</time>
      </trkpt>
      <trkpt lat="43.21498" lon="6.23584">
        <ele>345.4</ele>
        <time>2021-12-28T11:42:39Z</time>
      </trkpt>
      <trkpt lat="43.21494" lon="6.23591">
        <ele>346.2</ele>
        <time>2021-12-28T11:42:43Z</time>
      </trkpt>
      <trkpt lat="43.21491" lon="6.23598">
        <ele>346.8</ele>
        <time>2021-12-28T11:42:47Z</time>
      </trkpt>
      <trkpt lat="43.21487" lon="6.23606">
        <ele>346.8</ele>
        <time>2021-12-28T11:42:51Z</time>
      </trkpt>
      <trkpt lat="43.21483" lon="6.23613">
        <ele>347.4</ele>
        <time>2021-12-28T11:42:55Z</time>
      </trkpt>
      <trkpt lat="43.21479" lon="6.2362">
        <ele>348</ele>
        <time>2021-12-28T11:42:59Z</time>
      </trkpt>
      <trkpt lat="43.21474" lon="6.23624">
        <ele>349</ele>
        <time>2021-12-28T11:43:03Z</time>
      </trkpt>
      <trkpt lat="43.2147" lon="6.23629">
        <ele>348.6</ele>
        <time>2021-12-28T11:43:07Z</time>
      </trkpt>
      <trkpt lat="43.21463" lon="6.23633">
        <ele>348.4</ele>
        <time>2021-12-28T11:43:11Z</time>
      </trkpt>
      <trkpt lat="43.21457" lon="6.23638">
        <ele>349.2</ele>
        <time>2021-12-28T11:43:15Z</time>
      </trkpt>
      <trkpt lat="43.2145" lon="6.23641">
        <ele>350</ele>
        <time>2021-12-28T11:43:19Z</time>
      </trkpt>
      <trkpt lat="43.21444" lon="6.23643">
        <ele>350</ele>
        <time>2021-12-28T11:43:23Z</time>
      </trkpt>
      <trkpt lat="43.21438" lon="6.23646">
        <ele>350.8</ele>
        <time>2021-12-28T11:43:27Z</time>
      </trkpt>
      <trkpt lat="43.21432" lon="6.23649">
        <ele>350.6</ele>
        <time>2021-12-28T11:43:31Z</time>
      </trkpt>
      <trkpt lat="43.21427" lon="6.23652">
        <ele>351.2</ele>
        <time>2021-12-28T11:43:35Z</time>
      </trkpt>
      <trkpt lat="43.21421" lon="6.23653">
        <ele>351.6</ele>
        <time>2021-12-28T11:43:39Z</time>
      </trkpt>
      <trkpt lat="43.21415" lon="6.23656">
        <ele>352.4</ele>
        <time>2021-12-28T11:43:43Z</time>
      </trkpt>
      <trkpt lat="43.21409" lon="6.23658">
        <ele>352.8</ele>
        <time>2021-12-28T11:43:47Z</time>
      </trkpt>
      <trkpt lat="43.21403" lon="6.2366">
        <ele>353.2</ele>
        <time>2021-12-28T11:43:51Z</time>
      </trkpt>
      <trkpt lat="43.21397" lon="6.23663">
        <ele>353.4</ele>
        <time>2021-12-28T11:43:55Z</time>
      </trkpt>
      <trkpt lat="43.21391" lon="6.23665">
        <ele>354</ele>
        <time>2021-12-28T11:43:59Z</time>
      </trkpt>
      <trkpt lat="43.21384" lon="6.23667">
        <ele>356</ele>
        <time>2021-12-28T11:44:03Z</time>
      </trkpt>
      <trkpt lat="43.21377" lon="6.2367">
        <ele>355.4</ele>
        <time>2021-12-28T11:44:07Z</time>
      </trkpt>
      <trkpt lat="43.2137" lon="6.23673">
        <ele>356.2</ele>
        <time>2021-12-28T11:44:11Z</time>
      </trkpt>
      <trkpt lat="43.21364" lon="6.23676">
        <ele>356</ele>
        <time>2021-12-28T11:44:15Z</time>
      </trkpt>
      <trkpt lat="43.21357" lon="6.23678">
        <ele>357.4</ele>
        <time>2021-12-28T11:44:19Z</time>
      </trkpt>
      <trkpt lat="43.21351" lon="6.2368">
        <ele>357.8</ele>
        <time>2021-12-28T11:44:23Z</time>
      </trkpt>
      <trkpt lat="43.21346" lon="6.23681">
        <ele>358.2</ele>
        <time>2021-12-28T11:44:27Z</time>
      </trkpt>
      <trkpt lat="43.21341" lon="6.23684">
        <ele>359</ele>
        <time>2021-12-28T11:44:31Z</time>
      </trkpt>
      <trkpt lat="43.21337" lon="6.23688">
        <ele>360</ele>
        <time>2021-12-28T11:44:35Z</time>
      </trkpt>
      <trkpt lat="43.21333" lon="6.23694">
        <ele>359.6</ele>
        <time>2021-12-28T11:44:39Z</time>
      </trkpt>
      <trkpt lat="43.21329" lon="6.237">
        <ele>360.6</ele>
        <time>2021-12-28T11:44:43Z</time>
      </trkpt>
      <trkpt lat="43.21328" lon="6.23708">
        <ele>361.4</ele>
        <time>2021-12-28T11:44:47Z</time>
      </trkpt>
      <trkpt lat="43.21328" lon="6.23714">
        <ele>362.2</ele>
        <time>2021-12-28T11:44:51Z</time>
      </trkpt>
      <trkpt lat="43.2133" lon="6.23721">
        <ele>361.4</ele>
        <time>2021-12-28T11:44:55Z</time>
      </trkpt>
      <trkpt lat="43.21331" lon="6.23729">
        <ele>361.8</ele>
        <time>2021-12-28T11:44:59Z</time>
      </trkpt>
      <trkpt lat="43.21332" lon="6.23735">
        <ele>362.8</ele>
        <time>2021-12-28T11:45:03Z</time>
      </trkpt>
      <trkpt lat="43.21335" lon="6.23742">
        <ele>362.6</ele>
        <time>2021-12-28T11:45:07Z</time>
      </trkpt>
      <trkpt lat="43.21337" lon="6.23749">
        <ele>363.4</ele>
        <time>2021-12-28T11:45:11Z</time>
      </trkpt>
      <trkpt lat="43.21338" lon="6.23755">
        <ele>364.6</ele>
        <time>2021-12-28T11:45:15Z</time>
      </trkpt>
      <trkpt lat="43.21339" lon="6.23761">
        <ele>365.2</ele>
        <time>2021-12-28T11:45:19Z</time>
      </trkpt>
      <trkpt lat="43.21341" lon="6.23768">
        <ele>366.4</ele>
        <time>2021-12-28T11:45:23Z</time>
      </trkpt>
      <trkpt lat="43.21343" lon="6.23774">
        <ele>366</ele>
        <time>2021-12-28T11:45:27Z</time>
      </trkpt>
      <trkpt lat="43.21345" lon="6.2378">
        <ele>367.2</ele>
        <time>2021-12-28T11:45:31Z</time>
      </trkpt>
      <trkpt lat="43.21347" lon="6.23787">
        <ele>367.6</ele>
        <time>2021-12-28T11:45:35Z</time>
      </trkpt>
      <trkpt lat="43.2135" lon="6.23792">
        <ele>367.8</ele>
        <time>2021-12-28T11:45:39Z</time>
      </trkpt>
      <trkpt lat="43.21352" lon="6.23798">
        <ele>368.6</ele>
        <time>2021-12-28T11:45:43Z</time>
      </trkpt>
      <trkpt lat="43.21354" lon="6.23803">
        <ele>368.4</ele>
        <time>2021-12-28T11:45:47Z</time>
      </trkpt>
      <trkpt lat="43.21356" lon="6.23809">
        <ele>369</ele>
        <time>2021-12-28T11:45:51Z</time>
      </trkpt>
      <trkpt lat="43.21358" lon="6.23815">
        <ele>370.2</ele>
        <time>2021-12-28T11:45:55Z</time>
      </trkpt>
      <trkpt lat="43.21361" lon="6.23821">
        <ele>370.6</ele>
        <time>2021-12-28T11:45:59Z</time>
      </trkpt>
      <trkpt lat="43.21364" lon="6.23827">
        <ele>370.8</ele>
        <time>2021-12-28T11:46:03Z</time>
      </trkpt>
      <trkpt lat="43.21374" lon="6.23854">
        <ele>372.6</ele>
        <time>2021-12-28T11:47:09Z</time>
      </trkpt>
      <trkpt lat="43.21377" lon="6.2386">
        <ele>374</ele>
        <time>2021-12-28T11:47:13Z</time>
      </trkpt>
      <trkpt lat="43.21378" lon="6.23867">
        <ele>374.8</ele>
        <time>2021-12-28T11:47:17Z</time>
      </trkpt>
      <trkpt lat="43.2138" lon="6.23873">
        <ele>374.8</ele>
        <time>2021-12-28T11:47:21Z</time>
      </trkpt>
      <trkpt lat="43.21382" lon="6.2388">
        <ele>375.4</ele>
        <time>2021-12-28T11:47:25Z</time>
      </trkpt>
      <trkpt lat="43.21384" lon="6.23886">
        <ele>375.6</ele>
        <time>2021-12-28T11:47:29Z</time>
      </trkpt>
      <trkpt lat="43.21385" lon="6.23893">
        <ele>376.4</ele>
        <time>2021-12-28T11:47:33Z</time>
      </trkpt>
      <trkpt lat="43.21387" lon="6.23899">
        <ele>377.2</ele>
        <time>2021-12-28T11:47:37Z</time>
      </trkpt>
      <trkpt lat="43.21389" lon="6.23905">
        <ele>378.2</ele>
        <time>2021-12-28T11:47:41Z</time>
      </trkpt>
      <trkpt lat="43.2139" lon="6.23912">
        <ele>378.4</ele>
        <time>2021-12-28T11:47:45Z</time>
      </trkpt>
      <trkpt lat="43.21391" lon="6.23921">
        <ele>378</ele>
        <time>2021-12-28T11:47:49Z</time>
      </trkpt>
      <trkpt lat="43.21392" lon="6.23928">
        <ele>378.4</ele>
        <time>2021-12-28T11:47:53Z</time>
      </trkpt>
      <trkpt lat="43.21392" lon="6.23935">
        <ele>379.4</ele>
        <time>2021-12-28T11:47:57Z</time>
      </trkpt>
      <trkpt lat="43.21393" lon="6.23942">
        <ele>380.2</ele>
        <time>2021-12-28T11:48:01Z</time>
      </trkpt>
      <trkpt lat="43.21393" lon="6.23949">
        <ele>380.6</ele>
        <time>2021-12-28T11:48:05Z</time>
      </trkpt>
      <trkpt lat="43.21393" lon="6.23957">
        <ele>381.6</ele>
        <time>2021-12-28T11:48:09Z</time>
      </trkpt>
      <trkpt lat="43.21391" lon="6.23965">
        <ele>382</ele>
        <time>2021-12-28T11:48:13Z</time>
      </trkpt>
      <trkpt lat="43.21388" lon="6.23974">
        <ele>382.6</ele>
        <time>2021-12-28T11:48:17Z</time>
      </trkpt>
      <trkpt lat="43.21386" lon="6.23981">
        <ele>382</ele>
        <time>2021-12-28T11:48:21Z</time>
      </trkpt>
      <trkpt lat="43.21383" lon="6.23988">
        <ele>382.4</ele>
        <time>2021-12-28T11:48:25Z</time>
      </trkpt>
      <trkpt lat="43.21381" lon="6.23995">
        <ele>382.8</ele>
        <time>2021-12-28T11:48:29Z</time>
      </trkpt>
      <trkpt lat="43.21378" lon="6.24002">
        <ele>384</ele>
        <time>2021-12-28T11:48:33Z</time>
      </trkpt>
      <trkpt lat="43.21375" lon="6.24009">
        <ele>384.2</ele>
        <time>2021-12-28T11:48:37Z</time>
      </trkpt>
      <trkpt lat="43.21373" lon="6.24017">
        <ele>384.2</ele>
        <time>2021-12-28T11:48:41Z</time>
      </trkpt>
      <trkpt lat="43.21371" lon="6.24025">
        <ele>384.8</ele>
        <time>2021-12-28T11:48:45Z</time>
      </trkpt>
      <trkpt lat="43.21369" lon="6.24033">
        <ele>385</ele>
        <time>2021-12-28T11:48:49Z</time>
      </trkpt>
      <trkpt lat="43.21367" lon="6.24041">
        <ele>386.2</ele>
        <time>2021-12-28T11:48:53Z</time>
      </trkpt>
      <trkpt lat="43.21365" lon="6.24048">
        <ele>386</ele>
        <time>2021-12-28T11:48:57Z</time>
      </trkpt>
      <trkpt lat="43.21363" lon="6.24057">
        <ele>386.6</ele>
        <time>2021-12-28T11:49:01Z</time>
      </trkpt>
      <trkpt lat="43.21359" lon="6.24066">
        <ele>386.8</ele>
        <time>2021-12-28T11:49:05Z</time>
      </trkpt>
      <trkpt lat="43.21357" lon="6.24073">
        <ele>387.8</ele>
        <time>2021-12-28T11:49:09Z</time>
      </trkpt>
      <trkpt lat="43.21356" lon="6.2408">
        <ele>388.2</ele>
        <time>2021-12-28T11:49:13Z</time>
      </trkpt>
      <trkpt lat="43.21356" lon="6.24086">
        <ele>389.6</ele>
        <time>2021-12-28T11:49:17Z</time>
      </trkpt>
      <trkpt lat="43.21358" lon="6.24092">
        <ele>389.8</ele>
        <time>2021-12-28T11:49:21Z</time>
      </trkpt>
      <trkpt lat="43.21359" lon="6.24098">
        <ele>390.4</ele>
        <time>2021-12-28T11:49:25Z</time>
      </trkpt>
      <trkpt lat="43.21362" lon="6.24103">
        <ele>390.8</ele>
        <time>2021-12-28T11:49:29Z</time>
      </trkpt>
      <trkpt lat="43.21366" lon="6.24108">
        <ele>391.2</ele>
        <time>2021-12-28T11:49:33Z</time>
      </trkpt>
      <trkpt lat="43.2137" lon="6.24112">
        <ele>391.6</ele>
        <time>2021-12-28T11:49:37Z</time>
      </trkpt>
      <trkpt lat="43.21375" lon="6.24114">
        <ele>392</ele>
        <time>2021-12-28T11:49:41Z</time>
      </trkpt>
      <trkpt lat="43.2138" lon="6.24116">
        <ele>392</ele>
        <time>2021-12-28T11:49:45Z</time>
      </trkpt>
      <trkpt lat="43.21385" lon="6.24118">
        <ele>392.6</ele>
        <time>2021-12-28T11:49:49Z</time>
      </trkpt>
      <trkpt lat="43.2139" lon="6.2412">
        <ele>393</ele>
        <time>2021-12-28T11:49:53Z</time>
      </trkpt>
      <trkpt lat="43.21395" lon="6.24121">
        <ele>394</ele>
        <time>2021-12-28T11:49:57Z</time>
      </trkpt>
      <trkpt lat="43.214" lon="6.24123">
        <ele>394.6</ele>
        <time>2021-12-28T11:50:01Z</time>
      </trkpt>
      <trkpt lat="43.21406" lon="6.24125">
        <ele>394.8</ele>
        <time>2021-12-28T11:50:05Z</time>
      </trkpt>
      <trkpt lat="43.21411" lon="6.24126">
        <ele>394.8</ele>
        <time>2021-12-28T11:50:09Z</time>
      </trkpt>
      <trkpt lat="43.21417" lon="6.24126">
        <ele>395</ele>
        <time>2021-12-28T11:50:13Z</time>
      </trkpt>
      <trkpt lat="43.21422" lon="6.24127">
        <ele>395.6</ele>
        <time>2021-12-28T11:50:17Z</time>
      </trkpt>
      <trkpt lat="43.21427" lon="6.24127">
        <ele>396.2</ele>
        <time>2021-12-28T11:50:21Z</time>
      </trkpt>
      <trkpt lat="43.21433" lon="6.24128">
        <ele>396.4</ele>
        <time>2021-12-28T11:50:25Z</time>
      </trkpt>
      <trkpt lat="43.21439" lon="6.24128">
        <ele>396.8</ele>
        <time>2021-12-28T11:50:29Z</time>
      </trkpt>
      <trkpt lat="43.21444" lon="6.24129">
        <ele>397.6</ele>
        <time>2021-12-28T11:50:33Z</time>
      </trkpt>
      <trkpt lat="43.21448" lon="6.2413">
        <ele>398</ele>
        <time>2021-12-28T11:50:37Z</time>
      </trkpt>
      <trkpt lat="43.21452" lon="6.24131">
        <ele>398.2</ele>
        <time>2021-12-28T11:50:41Z</time>
      </trkpt>
      <trkpt lat="43.21459" lon="6.24134">
        <ele>399.2</ele>
        <time>2021-12-28T11:50:45Z</time>
      </trkpt>
      <trkpt lat="43.21464" lon="6.24137">
        <ele>399.6</ele>
        <time>2021-12-28T11:50:49Z</time>
      </trkpt>
      <trkpt lat="43.21469" lon="6.24141">
        <ele>399.6</ele>
        <time>2021-12-28T11:50:53Z</time>
      </trkpt>
      <trkpt lat="43.21474" lon="6.24146">
        <ele>400.2</ele>
        <time>2021-12-28T11:50:57Z</time>
      </trkpt>
      <trkpt lat="43.21478" lon="6.2415">
        <ele>400.6</ele>
        <time>2021-12-28T11:51:01Z</time>
      </trkpt>
      <trkpt lat="43.21482" lon="6.24154">
        <ele>401.2</ele>
        <time>2021-12-28T11:51:05Z</time>
      </trkpt>
      <trkpt lat="43.21486" lon="6.24158">
        <ele>401.8</ele>
        <time>2021-12-28T11:51:09Z</time>
      </trkpt>
      <trkpt lat="43.21491" lon="6.24162">
        <ele>402.4</ele>
        <time>2021-12-28T11:51:13Z</time>
      </trkpt>
      <trkpt lat="43.21495" lon="6.24166">
        <ele>402.8</ele>
        <time>2021-12-28T11:51:17Z</time>
      </trkpt>
      <trkpt lat="43.215" lon="6.24169">
        <ele>402.8</ele>
        <time>2021-12-28T11:51:21Z</time>
      </trkpt>
      <trkpt lat="43.21504" lon="6.24173">
        <ele>403.6</ele>
        <time>2021-12-28T11:51:25Z</time>
      </trkpt>
      <trkpt lat="43.21508" lon="6.24176">
        <ele>404.2</ele>
        <time>2021-12-28T11:51:29Z</time>
      </trkpt>
      <trkpt lat="43.21512" lon="6.2418">
        <ele>404.4</ele>
        <time>2021-12-28T11:51:33Z</time>
      </trkpt>
      <trkpt lat="43.21516" lon="6.24183">
        <ele>404.8</ele>
        <time>2021-12-28T11:51:37Z</time>
      </trkpt>
      <trkpt lat="43.2152" lon="6.24188">
        <ele>405.6</ele>
        <time>2021-12-28T11:51:41Z</time>
      </trkpt>
      <trkpt lat="43.21523" lon="6.24193">
        <ele>405.8</ele>
        <time>2021-12-28T11:51:45Z</time>
      </trkpt>
      <trkpt lat="43.21526" lon="6.242">
        <ele>406</ele>
        <time>2021-12-28T11:51:49Z</time>
      </trkpt>
      <trkpt lat="43.21528" lon="6.24206">
        <ele>406.2</ele>
        <time>2021-12-28T11:51:53Z</time>
      </trkpt>
      <trkpt lat="43.2153" lon="6.24213">
        <ele>406.8</ele>
        <time>2021-12-28T11:51:57Z</time>
      </trkpt>
      <trkpt lat="43.21531" lon="6.2422">
        <ele>407.2</ele>
        <time>2021-12-28T11:52:01Z</time>
      </trkpt>
      <trkpt lat="43.21533" lon="6.24228">
        <ele>407.8</ele>
        <time>2021-12-28T11:52:05Z</time>
      </trkpt>
      <trkpt lat="43.21534" lon="6.24235">
        <ele>409</ele>
        <time>2021-12-28T11:52:09Z</time>
      </trkpt>
      <trkpt lat="43.21534" lon="6.24242">
        <ele>408.8</ele>
        <time>2021-12-28T11:52:13Z</time>
      </trkpt>
      <trkpt lat="43.21535" lon="6.24252">
        <ele>409.2</ele>
        <time>2021-12-28T11:52:17Z</time>
      </trkpt>
      <trkpt lat="43.21535" lon="6.2426">
        <ele>409.8</ele>
        <time>2021-12-28T11:52:21Z</time>
      </trkpt>
      <trkpt lat="43.21536" lon="6.24266">
        <ele>410.2</ele>
        <time>2021-12-28T11:52:25Z</time>
      </trkpt>
      <trkpt lat="43.21536" lon="6.24273">
        <ele>410.4</ele>
        <time>2021-12-28T11:52:29Z</time>
      </trkpt>
      <trkpt lat="43.21537" lon="6.24279">
        <ele>410.6</ele>
        <time>2021-12-28T11:52:33Z</time>
      </trkpt>
      <trkpt lat="43.21537" lon="6.24286">
        <ele>411.2</ele>
        <time>2021-12-28T11:52:37Z</time>
      </trkpt>
      <trkpt lat="43.21538" lon="6.24292">
        <ele>412</ele>
        <time>2021-12-28T11:52:41Z</time>
      </trkpt>
      <trkpt lat="43.2154" lon="6.24299">
        <ele>412.2</ele>
        <time>2021-12-28T11:52:45Z</time>
      </trkpt>
      <trkpt lat="43.21542" lon="6.24305">
        <ele>412.6</ele>
        <time>2021-12-28T11:52:49Z</time>
      </trkpt>
      <trkpt lat="43.21546" lon="6.24311">
        <ele>413</ele>
        <time>2021-12-28T11:52:53Z</time>
      </trkpt>
      <trkpt lat="43.21551" lon="6.24315">
        <ele>413.2</ele>
        <time>2021-12-28T11:52:57Z</time>
      </trkpt>
      <trkpt lat="43.21557" lon="6.24317">
        <ele>414.2</ele>
        <time>2021-12-28T11:53:01Z</time>
      </trkpt>
      <trkpt lat="43.21563" lon="6.24319">
        <ele>414.8</ele>
        <time>2021-12-28T11:53:05Z</time>
      </trkpt>
      <trkpt lat="43.21569" lon="6.2432">
        <ele>415</ele>
        <time>2021-12-28T11:53:09Z</time>
      </trkpt>
      <trkpt lat="43.21575" lon="6.24321">
        <ele>415.6</ele>
        <time>2021-12-28T11:53:13Z</time>
      </trkpt>
      <trkpt lat="43.21582" lon="6.24323">
        <ele>415.4</ele>
        <time>2021-12-28T11:53:17Z</time>
      </trkpt>
      <trkpt lat="43.21587" lon="6.24323">
        <ele>415.8</ele>
        <time>2021-12-28T11:53:21Z</time>
      </trkpt>
      <trkpt lat="43.21594" lon="6.24324">
        <ele>416.8</ele>
        <time>2021-12-28T11:53:25Z</time>
      </trkpt>
      <trkpt lat="43.21599" lon="6.24326">
        <ele>417</ele>
        <time>2021-12-28T11:53:29Z</time>
      </trkpt>
      <trkpt lat="43.21605" lon="6.24327">
        <ele>417.4</ele>
        <time>2021-12-28T11:53:33Z</time>
      </trkpt>
      <trkpt lat="43.21611" lon="6.24327">
        <ele>418</ele>
        <time>2021-12-28T11:53:37Z</time>
      </trkpt>
      <trkpt lat="43.21618" lon="6.24329">
        <ele>418</ele>
        <time>2021-12-28T11:53:41Z</time>
      </trkpt>
      <trkpt lat="43.21623" lon="6.2433">
        <ele>418.6</ele>
        <time>2021-12-28T11:53:45Z</time>
      </trkpt>
      <trkpt lat="43.2163" lon="6.24334">
        <ele>418.8</ele>
        <time>2021-12-28T11:53:49Z</time>
      </trkpt>
      <trkpt lat="43.21635" lon="6.24339">
        <ele>419.2</ele>
        <time>2021-12-28T11:53:53Z</time>
      </trkpt>
      <trkpt lat="43.21639" lon="6.24344">
        <ele>419.4</ele>
        <time>2021-12-28T11:53:57Z</time>
      </trkpt>
      <trkpt lat="43.21643" lon="6.2435">
        <ele>419.6</ele>
        <time>2021-12-28T11:54:01Z</time>
      </trkpt>
      <trkpt lat="43.21647" lon="6.24358">
        <ele>419.6</ele>
        <time>2021-12-28T11:54:05Z</time>
      </trkpt>
      <trkpt lat="43.21649" lon="6.24364">
        <ele>420</ele>
        <time>2021-12-28T11:54:09Z</time>
      </trkpt>
      <trkpt lat="43.21651" lon="6.24371">
        <ele>420.6</ele>
        <time>2021-12-28T11:54:13Z</time>
      </trkpt>
      <trkpt lat="43.21653" lon="6.24379">
        <ele>420.8</ele>
        <time>2021-12-28T11:54:17Z</time>
      </trkpt>
      <trkpt lat="43.21657" lon="6.24387">
        <ele>421.4</ele>
        <time>2021-12-28T11:54:21Z</time>
      </trkpt>
      <trkpt lat="43.21659" lon="6.24396">
        <ele>422</ele>
        <time>2021-12-28T11:54:25Z</time>
      </trkpt>
      <trkpt lat="43.21661" lon="6.24404">
        <ele>421.8</ele>
        <time>2021-12-28T11:54:29Z</time>
      </trkpt>
      <trkpt lat="43.21663" lon="6.24413">
        <ele>422</ele>
        <time>2021-12-28T11:54:33Z</time>
      </trkpt>
      <trkpt lat="43.21664" lon="6.24424">
        <ele>422</ele>
        <time>2021-12-28T11:54:37Z</time>
      </trkpt>
      <trkpt lat="43.21665" lon="6.24434">
        <ele>422.4</ele>
        <time>2021-12-28T11:54:41Z</time>
      </trkpt>
      <trkpt lat="43.21667" lon="6.24445">
        <ele>422.6</ele>
        <time>2021-12-28T11:54:45Z</time>
      </trkpt>
      <trkpt lat="43.21669" lon="6.24453">
        <ele>422.8</ele>
        <time>2021-12-28T11:54:49Z</time>
      </trkpt>
      <trkpt lat="43.2167" lon="6.24464">
        <ele>422.6</ele>
        <time>2021-12-28T11:54:53Z</time>
      </trkpt>
      <trkpt lat="43.21671" lon="6.24478">
        <ele>422.4</ele>
        <time>2021-12-28T11:54:57Z</time>
      </trkpt>
      <trkpt lat="43.21672" lon="6.24492">
        <ele>422.4</ele>
        <time>2021-12-28T11:55:01Z</time>
      </trkpt>
      <trkpt lat="43.21675" lon="6.24505">
        <ele>422.6</ele>
        <time>2021-12-28T11:55:05Z</time>
      </trkpt>
      <trkpt lat="43.21676" lon="6.24516">
        <ele>422.8</ele>
        <time>2021-12-28T11:55:09Z</time>
      </trkpt>
      <trkpt lat="43.21675" lon="6.24523">
        <ele>423.2</ele>
        <time>2021-12-28T11:55:13Z</time>
      </trkpt>
      <trkpt lat="43.21675" lon="6.24532">
        <ele>423.4</ele>
        <time>2021-12-28T11:55:17Z</time>
      </trkpt>
      <trkpt lat="43.21677" lon="6.24538">
        <ele>423.4</ele>
        <time>2021-12-28T11:55:21Z</time>
      </trkpt>
      <trkpt lat="43.2168" lon="6.24549">
        <ele>423.2</ele>
        <time>2021-12-28T11:57:49Z</time>
      </trkpt>
      <trkpt lat="43.21681" lon="6.24561">
        <ele>423.2</ele>
        <time>2021-12-28T11:57:53Z</time>
      </trkpt>
      <trkpt lat="43.21681" lon="6.24573">
        <ele>423</ele>
        <time>2021-12-28T11:57:57Z</time>
      </trkpt>
      <trkpt lat="43.2168" lon="6.24584">
        <ele>424</ele>
        <time>2021-12-28T11:58:01Z</time>
      </trkpt>
      <trkpt lat="43.21681" lon="6.24595">
        <ele>424.4</ele>
        <time>2021-12-28T11:58:05Z</time>
      </trkpt>
      <trkpt lat="43.21681" lon="6.24602">
        <ele>424.8</ele>
        <time>2021-12-28T11:58:09Z</time>
      </trkpt>
      <trkpt lat="43.21682" lon="6.24591">
        <ele>424</ele>
        <time>2021-12-28T11:58:23Z</time>
      </trkpt>
      <trkpt lat="43.21683" lon="6.24581">
        <ele>424</ele>
        <time>2021-12-28T11:58:27Z</time>
      </trkpt>
      <trkpt lat="43.21684" lon="6.2457">
        <ele>423</ele>
        <time>2021-12-28T11:58:31Z</time>
      </trkpt>
      <trkpt lat="43.21679" lon="6.24545">
        <ele>423.4</ele>
        <time>2021-12-28T11:59:34Z</time>
      </trkpt>
      <trkpt lat="43.21677" lon="6.24535">
        <ele>424.2</ele>
        <time>2021-12-28T11:59:38Z</time>
      </trkpt>
      <trkpt lat="43.21673" lon="6.24531">
        <ele>423.4</ele>
        <time>2021-12-28T11:59:42Z</time>
      </trkpt>
      <trkpt lat="43.21666" lon="6.24538">
        <ele>422.6</ele>
        <time>2021-12-28T11:59:46Z</time>
      </trkpt>
      <trkpt lat="43.2166" lon="6.24549">
        <ele>421</ele>
        <time>2021-12-28T11:59:50Z</time>
      </trkpt>
      <trkpt lat="43.21653" lon="6.24563">
        <ele>421.4</ele>
        <time>2021-12-28T11:59:54Z</time>
      </trkpt>
      <trkpt lat="43.21647" lon="6.24579">
        <ele>421.2</ele>
        <time>2021-12-28T11:59:58Z</time>
      </trkpt>
      <trkpt lat="43.21642" lon="6.24597">
        <ele>420.4</ele>
        <time>2021-12-28T12:00:02Z</time>
      </trkpt>
      <trkpt lat="43.2164" lon="6.24612">
        <ele>420</ele>
        <time>2021-12-28T12:00:06Z</time>
      </trkpt>
      <trkpt lat="43.21639" lon="6.24622">
        <ele>419</ele>
        <time>2021-12-28T12:00:10Z</time>
      </trkpt>
      <trkpt lat="43.21632" lon="6.24646">
        <ele>418.2</ele>
        <time>2021-12-28T12:01:19Z</time>
      </trkpt>
      <trkpt lat="43.21626" lon="6.24663">
        <ele>417.2</ele>
        <time>2021-12-28T12:01:23Z</time>
      </trkpt>
      <trkpt lat="43.2162" lon="6.24671">
        <ele>417.4</ele>
        <time>2021-12-28T12:01:27Z</time>
      </trkpt>
      <trkpt lat="43.21612" lon="6.24683">
        <ele>415.6</ele>
        <time>2021-12-28T12:01:31Z</time>
      </trkpt>
      <trkpt lat="43.21605" lon="6.24701">
        <ele>414.6</ele>
        <time>2021-12-28T12:01:35Z</time>
      </trkpt>
      <trkpt lat="43.216" lon="6.24722">
        <ele>414.8</ele>
        <time>2021-12-28T12:01:39Z</time>
      </trkpt>
      <trkpt lat="43.216" lon="6.24745">
        <ele>412.4</ele>
        <time>2021-12-28T12:01:43Z</time>
      </trkpt>
      <trkpt lat="43.21598" lon="6.2477">
        <ele>412.4</ele>
        <time>2021-12-28T12:01:47Z</time>
      </trkpt>
      <trkpt lat="43.21595" lon="6.24796">
        <ele>411.6</ele>
        <time>2021-12-28T12:01:51Z</time>
      </trkpt>
      <trkpt lat="43.21595" lon="6.24821">
        <ele>409.8</ele>
        <time>2021-12-28T12:01:55Z</time>
      </trkpt>
      <trkpt lat="43.21593" lon="6.24853">
        <ele>406.4</ele>
        <time>2021-12-28T12:01:59Z</time>
      </trkpt>
      <trkpt lat="43.21592" lon="6.24886">
        <ele>407.8</ele>
        <time>2021-12-28T12:02:03Z</time>
      </trkpt>
      <trkpt lat="43.21596" lon="6.24906">
        <ele>407.4</ele>
        <time>2021-12-28T12:02:07Z</time>
      </trkpt>
      <trkpt lat="43.21603" lon="6.24918">
        <ele>406.8</ele>
        <time>2021-12-28T12:02:11Z</time>
      </trkpt>
      <trkpt lat="43.21617" lon="6.24927">
        <ele>406.6</ele>
        <time>2021-12-28T12:02:15Z</time>
      </trkpt>
      <trkpt lat="43.21627" lon="6.24933">
        <ele>407.4</ele>
        <time>2021-12-28T12:02:19Z</time>
      </trkpt>
      <trkpt lat="43.21635" lon="6.2494">
        <ele>405.2</ele>
        <time>2021-12-28T12:02:23Z</time>
      </trkpt>
      <trkpt lat="43.21646" lon="6.24949">
        <ele>405</ele>
        <time>2021-12-28T12:02:27Z</time>
      </trkpt>
      <trkpt lat="43.21656" lon="6.24961">
        <ele>403.6</ele>
        <time>2021-12-28T12:02:31Z</time>
      </trkpt>
      <trkpt lat="43.21667" lon="6.2498">
        <ele>402.2</ele>
        <time>2021-12-28T12:02:35Z</time>
      </trkpt>
      <trkpt lat="43.21676" lon="6.25">
        <ele>402.8</ele>
        <time>2021-12-28T12:02:39Z</time>
      </trkpt>
      <trkpt lat="43.21684" lon="6.25022">
        <ele>398.2</ele>
        <time>2021-12-28T12:02:43Z</time>
      </trkpt>
      <trkpt lat="43.21689" lon="6.25044">
        <ele>400.2</ele>
        <time>2021-12-28T12:02:47Z</time>
      </trkpt>
      <trkpt lat="43.21688" lon="6.25066">
        <ele>397.6</ele>
        <time>2021-12-28T12:02:51Z</time>
      </trkpt>
      <trkpt lat="43.21682" lon="6.25083">
        <ele>398.2</ele>
        <time>2021-12-28T12:02:55Z</time>
      </trkpt>
      <trkpt lat="43.21674" lon="6.25108">
        <ele>396.4</ele>
        <time>2021-12-28T12:02:59Z</time>
      </trkpt>
      <trkpt lat="43.21669" lon="6.25134">
        <ele>397</ele>
        <time>2021-12-28T12:03:03Z</time>
      </trkpt>
      <trkpt lat="43.21663" lon="6.25159">
        <ele>395.4</ele>
        <time>2021-12-28T12:03:07Z</time>
      </trkpt>
      <trkpt lat="43.21656" lon="6.25185">
        <ele>391.8</ele>
        <time>2021-12-28T12:03:11Z</time>
      </trkpt>
      <trkpt lat="43.21651" lon="6.25208">
        <ele>391.2</ele>
        <time>2021-12-28T12:03:15Z</time>
      </trkpt>
      <trkpt lat="43.21645" lon="6.25226">
        <ele>391.4</ele>
        <time>2021-12-28T12:03:19Z</time>
      </trkpt>
      <trkpt lat="43.21638" lon="6.25245">
        <ele>390.2</ele>
        <time>2021-12-28T12:03:23Z</time>
      </trkpt>
      <trkpt lat="43.21627" lon="6.25265">
        <ele>389.4</ele>
        <time>2021-12-28T12:03:27Z</time>
      </trkpt>
      <trkpt lat="43.21613" lon="6.25281">
        <ele>387.4</ele>
        <time>2021-12-28T12:03:31Z</time>
      </trkpt>
      <trkpt lat="43.21595" lon="6.25293">
        <ele>386</ele>
        <time>2021-12-28T12:03:35Z</time>
      </trkpt>
      <trkpt lat="43.21574" lon="6.25297">
        <ele>386.2</ele>
        <time>2021-12-28T12:03:39Z</time>
      </trkpt>
      <trkpt lat="43.21552" lon="6.25294">
        <ele>382.2</ele>
        <time>2021-12-28T12:03:43Z</time>
      </trkpt>
      <trkpt lat="43.21533" lon="6.25297">
        <ele>382</ele>
        <time>2021-12-28T12:03:47Z</time>
      </trkpt>
      <trkpt lat="43.21525" lon="6.25306">
        <ele>382.4</ele>
        <time>2021-12-28T12:03:51Z</time>
      </trkpt>
      <trkpt lat="43.21521" lon="6.25322">
        <ele>380.8</ele>
        <time>2021-12-28T12:03:55Z</time>
      </trkpt>
      <trkpt lat="43.21525" lon="6.25342">
        <ele>380.8</ele>
        <time>2021-12-28T12:03:59Z</time>
      </trkpt>
      <trkpt lat="43.21531" lon="6.25363">
        <ele>380.6</ele>
        <time>2021-12-28T12:04:03Z</time>
      </trkpt>
      <trkpt lat="43.2154" lon="6.25386">
        <ele>378.8</ele>
        <time>2021-12-28T12:04:07Z</time>
      </trkpt>
      <trkpt lat="43.21548" lon="6.25408">
        <ele>377</ele>
        <time>2021-12-28T12:04:11Z</time>
      </trkpt>
      <trkpt lat="43.21553" lon="6.25428">
        <ele>375.8</ele>
        <time>2021-12-28T12:04:15Z</time>
      </trkpt>
      <trkpt lat="43.21558" lon="6.25455">
        <ele>374</ele>
        <time>2021-12-28T12:04:19Z</time>
      </trkpt>
      <trkpt lat="43.21558" lon="6.25482">
        <ele>373.2</ele>
        <time>2021-12-28T12:04:23Z</time>
      </trkpt>
      <trkpt lat="43.21554" lon="6.25507">
        <ele>372.4</ele>
        <time>2021-12-28T12:04:27Z</time>
      </trkpt>
      <trkpt lat="43.21547" lon="6.25528">
        <ele>371.4</ele>
        <time>2021-12-28T12:04:31Z</time>
      </trkpt>
      <trkpt lat="43.21537" lon="6.25545">
        <ele>371.2</ele>
        <time>2021-12-28T12:04:35Z</time>
      </trkpt>
      <trkpt lat="43.21528" lon="6.25563">
        <ele>369.2</ele>
        <time>2021-12-28T12:04:39Z</time>
      </trkpt>
      <trkpt lat="43.21516" lon="6.25586">
        <ele>367</ele>
        <time>2021-12-28T12:04:43Z</time>
      </trkpt>
      <trkpt lat="43.21505" lon="6.25608">
        <ele>364.4</ele>
        <time>2021-12-28T12:04:47Z</time>
      </trkpt>
      <trkpt lat="43.21492" lon="6.25631">
        <ele>364.2</ele>
        <time>2021-12-28T12:04:51Z</time>
      </trkpt>
      <trkpt lat="43.21478" lon="6.25655">
        <ele>362.4</ele>
        <time>2021-12-28T12:04:55Z</time>
      </trkpt>
      <trkpt lat="43.2147" lon="6.2568">
        <ele>361.2</ele>
        <time>2021-12-28T12:04:59Z</time>
      </trkpt>
      <trkpt lat="43.2147" lon="6.25708">
        <ele>359.6</ele>
        <time>2021-12-28T12:05:03Z</time>
      </trkpt>
      <trkpt lat="43.2148" lon="6.25729">
        <ele>358.4</ele>
        <time>2021-12-28T12:05:07Z</time>
      </trkpt>
      <trkpt lat="43.21496" lon="6.25745">
        <ele>355.4</ele>
        <time>2021-12-28T12:05:11Z</time>
      </trkpt>
      <trkpt lat="43.21512" lon="6.25765">
        <ele>353.4</ele>
        <time>2021-12-28T12:05:15Z</time>
      </trkpt>
      <trkpt lat="43.21518" lon="6.25792">
        <ele>351.4</ele>
        <time>2021-12-28T12:05:19Z</time>
      </trkpt>
      <trkpt lat="43.21522" lon="6.25824">
        <ele>349.2</ele>
        <time>2021-12-28T12:05:23Z</time>
      </trkpt>
      <trkpt lat="43.21525" lon="6.25859">
        <ele>345.2</ele>
        <time>2021-12-28T12:05:27Z</time>
      </trkpt>
      <trkpt lat="43.21523" lon="6.25895">
        <ele>344.4</ele>
        <time>2021-12-28T12:05:31Z</time>
      </trkpt>
      <trkpt lat="43.21516" lon="6.25928">
        <ele>343.4</ele>
        <time>2021-12-28T12:05:35Z</time>
      </trkpt>
      <trkpt lat="43.215" lon="6.25957">
        <ele>340.2</ele>
        <time>2021-12-28T12:05:39Z</time>
      </trkpt>
      <trkpt lat="43.21485" lon="6.25981">
        <ele>337.4</ele>
        <time>2021-12-28T12:05:43Z</time>
      </trkpt>
      <trkpt lat="43.21474" lon="6.26012">
        <ele>336</ele>
        <time>2021-12-28T12:05:47Z</time>
      </trkpt>
      <trkpt lat="43.21466" lon="6.26043">
        <ele>333</ele>
        <time>2021-12-28T12:05:51Z</time>
      </trkpt>
      <trkpt lat="43.21465" lon="6.26074">
        <ele>330.4</ele>
        <time>2021-12-28T12:05:55Z</time>
      </trkpt>
      <trkpt lat="43.21469" lon="6.26108">
        <ele>328.4</ele>
        <time>2021-12-28T12:05:59Z</time>
      </trkpt>
      <trkpt lat="43.21464" lon="6.26139">
        <ele>327.2</ele>
        <time>2021-12-28T12:06:03Z</time>
      </trkpt>
      <trkpt lat="43.21456" lon="6.26169">
        <ele>324.4</ele>
        <time>2021-12-28T12:06:07Z</time>
      </trkpt>
      <trkpt lat="43.21453" lon="6.26201">
        <ele>322.2</ele>
        <time>2021-12-28T12:06:11Z</time>
      </trkpt>
      <trkpt lat="43.21451" lon="6.26234">
        <ele>321</ele>
        <time>2021-12-28T12:06:15Z</time>
      </trkpt>
      <trkpt lat="43.21446" lon="6.26268">
        <ele>318.4</ele>
        <time>2021-12-28T12:06:19Z</time>
      </trkpt>
      <trkpt lat="43.21441" lon="6.26293">
        <ele>319</ele>
        <time>2021-12-28T12:06:23Z</time>
      </trkpt>
      <trkpt lat="43.21443" lon="6.26305">
        <ele>319.8</ele>
        <time>2021-12-28T12:06:27Z</time>
      </trkpt>
      <trkpt lat="43.21451" lon="6.26301">
        <ele>319.8</ele>
        <time>2021-12-28T12:06:31Z</time>
      </trkpt>
      <trkpt lat="43.21456" lon="6.26298">
        <ele>319.4</ele>
        <time>2021-12-28T12:06:35Z</time>
      </trkpt>
      <trkpt lat="43.21462" lon="6.26298">
        <ele>319</ele>
        <time>2021-12-28T12:06:39Z</time>
      </trkpt>
      <trkpt lat="43.2147" lon="6.26301">
        <ele>318.8</ele>
        <time>2021-12-28T12:06:43Z</time>
      </trkpt>
      <trkpt lat="43.21478" lon="6.26304">
        <ele>317.8</ele>
        <time>2021-12-28T12:06:47Z</time>
      </trkpt>
      <trkpt lat="43.21489" lon="6.26309">
        <ele>318.4</ele>
        <time>2021-12-28T12:06:51Z</time>
      </trkpt>
      <trkpt lat="43.21501" lon="6.26312">
        <ele>316.6</ele>
        <time>2021-12-28T12:06:55Z</time>
      </trkpt>
      <trkpt lat="43.21516" lon="6.26314">
        <ele>315.8</ele>
        <time>2021-12-28T12:06:59Z</time>
      </trkpt>
      <trkpt lat="43.21531" lon="6.26315">
        <ele>315.8</ele>
        <time>2021-12-28T12:07:03Z</time>
      </trkpt>
      <trkpt lat="43.2155" lon="6.26315">
        <ele>315.8</ele>
        <time>2021-12-28T12:07:07Z</time>
      </trkpt>
      <trkpt lat="43.21566" lon="6.26315">
        <ele>314.4</ele>
        <time>2021-12-28T12:07:11Z</time>
      </trkpt>
      <trkpt lat="43.21582" lon="6.26323">
        <ele>314.2</ele>
        <time>2021-12-28T12:07:15Z</time>
      </trkpt>
      <trkpt lat="43.21593" lon="6.26338">
        <ele>312.8</ele>
        <time>2021-12-28T12:07:19Z</time>
      </trkpt>
      <trkpt lat="43.21605" lon="6.26357">
        <ele>311.8</ele>
        <time>2021-12-28T12:07:23Z</time>
      </trkpt>
      <trkpt lat="43.2162" lon="6.26375">
        <ele>311.4</ele>
        <time>2021-12-28T12:07:27Z</time>
      </trkpt>
      <trkpt lat="43.21636" lon="6.2639">
        <ele>310.4</ele>
        <time>2021-12-28T12:07:31Z</time>
      </trkpt>
      <trkpt lat="43.21652" lon="6.264">
        <ele>310</ele>
        <time>2021-12-28T12:07:35Z</time>
      </trkpt>
      <trkpt lat="43.2167" lon="6.26407">
        <ele>309.4</ele>
        <time>2021-12-28T12:07:39Z</time>
      </trkpt>
      <trkpt lat="43.21686" lon="6.26415">
        <ele>308.6</ele>
        <time>2021-12-28T12:07:43Z</time>
      </trkpt>
      <trkpt lat="43.21696" lon="6.26427">
        <ele>309.2</ele>
        <time>2021-12-28T12:07:47Z</time>
      </trkpt>
      <trkpt lat="43.21703" lon="6.26437">
        <ele>308</ele>
        <time>2021-12-28T12:07:51Z</time>
      </trkpt>
      <trkpt lat="43.2171" lon="6.26452">
        <ele>306.8</ele>
        <time>2021-12-28T12:07:55Z</time>
      </trkpt>
      <trkpt lat="43.21717" lon="6.26475">
        <ele>305</ele>
        <time>2021-12-28T12:07:59Z</time>
      </trkpt>
      <trkpt lat="43.21721" lon="6.265">
        <ele>305.4</ele>
        <time>2021-12-28T12:08:03Z</time>
      </trkpt>
      <trkpt lat="43.21723" lon="6.26527">
        <ele>302.6</ele>
        <time>2021-12-28T12:08:07Z</time>
      </trkpt>
      <trkpt lat="43.21722" lon="6.26552">
        <ele>301.4</ele>
        <time>2021-12-28T12:08:11Z</time>
      </trkpt>
      <trkpt lat="43.21728" lon="6.26578">
        <ele>300.8</ele>
        <time>2021-12-28T12:08:15Z</time>
      </trkpt>
      <trkpt lat="43.21738" lon="6.26598">
        <ele>298.8</ele>
        <time>2021-12-28T12:08:19Z</time>
      </trkpt>
      <trkpt lat="43.21751" lon="6.26616">
        <ele>298.6</ele>
        <time>2021-12-28T12:08:23Z</time>
      </trkpt>
      <trkpt lat="43.21764" lon="6.26637">
        <ele>296.8</ele>
        <time>2021-12-28T12:08:27Z</time>
      </trkpt>
      <trkpt lat="43.21776" lon="6.2666">
        <ele>295.4</ele>
        <time>2021-12-28T12:08:31Z</time>
      </trkpt>
      <trkpt lat="43.21787" lon="6.26687">
        <ele>293.6</ele>
        <time>2021-12-28T12:08:35Z</time>
      </trkpt>
      <trkpt lat="43.21801" lon="6.2671">
        <ele>292.4</ele>
        <time>2021-12-28T12:08:39Z</time>
      </trkpt>
      <trkpt lat="43.21817" lon="6.26728">
        <ele>291.2</ele>
        <time>2021-12-28T12:08:43Z</time>
      </trkpt>
      <trkpt lat="43.21833" lon="6.26745">
        <ele>289.6</ele>
        <time>2021-12-28T12:08:47Z</time>
      </trkpt>
      <trkpt lat="43.21849" lon="6.26764">
        <ele>287.8</ele>
        <time>2021-12-28T12:08:51Z</time>
      </trkpt>
      <trkpt lat="43.21866" lon="6.26784">
        <ele>287.2</ele>
        <time>2021-12-28T12:08:55Z</time>
      </trkpt>
      <trkpt lat="43.21882" lon="6.26806">
        <ele>285.4</ele>
        <time>2021-12-28T12:08:59Z</time>
      </trkpt>
      <trkpt lat="43.21897" lon="6.26831">
        <ele>284.4</ele>
        <time>2021-12-28T12:09:03Z</time>
      </trkpt>
      <trkpt lat="43.21909" lon="6.26852">
        <ele>283.6</ele>
        <time>2021-12-28T12:09:07Z</time>
      </trkpt>
      <trkpt lat="43.2192" lon="6.26874">
        <ele>283</ele>
        <time>2021-12-28T12:09:11Z</time>
      </trkpt>
      <trkpt lat="43.21934" lon="6.26892">
        <ele>281.2</ele>
        <time>2021-12-28T12:09:15Z</time>
      </trkpt>
      <trkpt lat="43.21952" lon="6.26908">
        <ele>279.6</ele>
        <time>2021-12-28T12:09:19Z</time>
      </trkpt>
      <trkpt lat="43.21971" lon="6.26919">
        <ele>279.8</ele>
        <time>2021-12-28T12:09:23Z</time>
      </trkpt>
      <trkpt lat="43.21988" lon="6.26926">
        <ele>279</ele>
        <time>2021-12-28T12:09:27Z</time>
      </trkpt>
      <trkpt lat="43.22007" lon="6.26937">
        <ele>277.2</ele>
        <time>2021-12-28T12:09:31Z</time>
      </trkpt>
      <trkpt lat="43.22023" lon="6.26948">
        <ele>277.4</ele>
        <time>2021-12-28T12:09:35Z</time>
      </trkpt>
      <trkpt lat="43.22035" lon="6.26959">
        <ele>276.8</ele>
        <time>2021-12-28T12:09:39Z</time>
      </trkpt>
      <trkpt lat="43.22043" lon="6.2697">
        <ele>276.2</ele>
        <time>2021-12-28T12:09:43Z</time>
      </trkpt>
      <trkpt lat="43.2204" lon="6.26973">
        <ele>276.2</ele>
        <time>2021-12-28T12:09:47Z</time>
      </trkpt>
      <trkpt lat="43.22032" lon="6.26969">
        <ele>274.2</ele>
        <time>2021-12-28T12:09:51Z</time>
      </trkpt>
      <trkpt lat="43.22018" lon="6.2696">
        <ele>271.6</ele>
        <time>2021-12-28T12:09:55Z</time>
      </trkpt>
      <trkpt lat="43.22001" lon="6.26951">
        <ele>271.4</ele>
        <time>2021-12-28T12:09:59Z</time>
      </trkpt>
      <trkpt lat="43.21989" lon="6.2695">
        <ele>272.6</ele>
        <time>2021-12-28T12:10:03Z</time>
      </trkpt>
      <trkpt lat="43.21974" lon="6.2695">
        <ele>270.6</ele>
        <time>2021-12-28T12:10:07Z</time>
      </trkpt>
      <trkpt lat="43.21958" lon="6.2695">
        <ele>269</ele>
        <time>2021-12-28T12:10:11Z</time>
      </trkpt>
      <trkpt lat="43.21941" lon="6.26946">
        <ele>268.8</ele>
        <time>2021-12-28T12:10:15Z</time>
      </trkpt>
      <trkpt lat="43.21922" lon="6.26937">
        <ele>265.6</ele>
        <time>2021-12-28T12:10:19Z</time>
      </trkpt>
      <trkpt lat="43.21904" lon="6.26926">
        <ele>265.6</ele>
        <time>2021-12-28T12:10:23Z</time>
      </trkpt>
      <trkpt lat="43.21888" lon="6.26914">
        <ele>265.4</ele>
        <time>2021-12-28T12:10:27Z</time>
      </trkpt>
      <trkpt lat="43.21874" lon="6.26893">
        <ele>263</ele>
        <time>2021-12-28T12:10:31Z</time>
      </trkpt>
      <trkpt lat="43.21859" lon="6.26875">
        <ele>262.8</ele>
        <time>2021-12-28T12:10:35Z</time>
      </trkpt>
      <trkpt lat="43.21844" lon="6.26866">
        <ele>262.4</ele>
        <time>2021-12-28T12:10:39Z</time>
      </trkpt>
      <trkpt lat="43.21829" lon="6.26858">
        <ele>262</ele>
        <time>2021-12-28T12:10:43Z</time>
      </trkpt>
      <trkpt lat="43.21816" lon="6.26845">
        <ele>261.8</ele>
        <time>2021-12-28T12:10:47Z</time>
      </trkpt>
      <trkpt lat="43.21804" lon="6.26831">
        <ele>261</ele>
        <time>2021-12-28T12:10:51Z</time>
      </trkpt>
      <trkpt lat="43.2179" lon="6.26819">
        <ele>260.4</ele>
        <time>2021-12-28T12:10:55Z</time>
      </trkpt>
      <trkpt lat="43.21778" lon="6.26814">
        <ele>260.8</ele>
        <time>2021-12-28T12:10:59Z</time>
      </trkpt>
      <trkpt lat="43.21766" lon="6.26809">
        <ele>259</ele>
        <time>2021-12-28T12:11:03Z</time>
      </trkpt>
      <trkpt lat="43.21754" lon="6.26803">
        <ele>258.2</ele>
        <time>2021-12-28T12:11:07Z</time>
      </trkpt>
      <trkpt lat="43.21745" lon="6.26805">
        <ele>258</ele>
        <time>2021-12-28T12:11:11Z</time>
      </trkpt>
      <trkpt lat="43.21746" lon="6.26819">
        <ele>257.4</ele>
        <time>2021-12-28T12:11:15Z</time>
      </trkpt>
      <trkpt lat="43.21755" lon="6.26829">
        <ele>255</ele>
        <time>2021-12-28T12:11:19Z</time>
      </trkpt>
      <trkpt lat="43.21765" lon="6.26837">
        <ele>253.6</ele>
        <time>2021-12-28T12:11:23Z</time>
      </trkpt>
      <trkpt lat="43.21778" lon="6.26849">
        <ele>252.6</ele>
        <time>2021-12-28T12:11:27Z</time>
      </trkpt>
      <trkpt lat="43.21787" lon="6.26865">
        <ele>252.2</ele>
        <time>2021-12-28T12:11:31Z</time>
      </trkpt>
      <trkpt lat="43.21796" lon="6.26884">
        <ele>250.6</ele>
        <time>2021-12-28T12:11:35Z</time>
      </trkpt>
      <trkpt lat="43.2181" lon="6.26904">
        <ele>248.4</ele>
        <time>2021-12-28T12:11:39Z</time>
      </trkpt>
      <trkpt lat="43.21827" lon="6.26918">
        <ele>247.4</ele>
        <time>2021-12-28T12:11:43Z</time>
      </trkpt>
      <trkpt lat="43.21839" lon="6.26933">
        <ele>248</ele>
        <time>2021-12-28T12:11:47Z</time>
      </trkpt>
      <trkpt lat="43.21842" lon="6.26951">
        <ele>245.6</ele>
        <time>2021-12-28T12:11:51Z</time>
      </trkpt>
      <trkpt lat="43.21848" lon="6.26969">
        <ele>245</ele>
        <time>2021-12-28T12:11:55Z</time>
      </trkpt>
      <trkpt lat="43.21856" lon="6.26985">
        <ele>243.4</ele>
        <time>2021-12-28T12:11:59Z</time>
      </trkpt>
      <trkpt lat="43.2187" lon="6.26998">
        <ele>243</ele>
        <time>2021-12-28T12:12:03Z</time>
      </trkpt>
      <trkpt lat="43.21884" lon="6.27005">
        <ele>241.6</ele>
        <time>2021-12-28T12:12:07Z</time>
      </trkpt>
      <trkpt lat="43.21896" lon="6.2702">
        <ele>240</ele>
        <time>2021-12-28T12:12:11Z</time>
      </trkpt>
      <trkpt lat="43.21906" lon="6.27041">
        <ele>239.6</ele>
        <time>2021-12-28T12:12:15Z</time>
      </trkpt>
      <trkpt lat="43.21918" lon="6.27059">
        <ele>238</ele>
        <time>2021-12-28T12:12:19Z</time>
      </trkpt>
      <trkpt lat="43.21932" lon="6.27073">
        <ele>236.8</ele>
        <time>2021-12-28T12:12:23Z</time>
      </trkpt>
      <trkpt lat="43.21948" lon="6.27083">
        <ele>235.4</ele>
        <time>2021-12-28T12:12:27Z</time>
      </trkpt>
      <trkpt lat="43.21963" lon="6.27079">
        <ele>235</ele>
        <time>2021-12-28T12:12:31Z</time>
      </trkpt>
      <trkpt lat="43.21977" lon="6.27085">
        <ele>234</ele>
        <time>2021-12-28T12:12:35Z</time>
      </trkpt>
      <trkpt lat="43.21982" lon="6.27103">
        <ele>232.8</ele>
        <time>2021-12-28T12:12:39Z</time>
      </trkpt>
      <trkpt lat="43.21984" lon="6.27119">
        <ele>232.2</ele>
        <time>2021-12-28T12:12:43Z</time>
      </trkpt>
      <trkpt lat="43.21985" lon="6.27138">
        <ele>231.2</ele>
        <time>2021-12-28T12:12:47Z</time>
      </trkpt>
      <trkpt lat="43.21996" lon="6.27155">
        <ele>229.8</ele>
        <time>2021-12-28T12:12:51Z</time>
      </trkpt>
      <trkpt lat="43.22007" lon="6.27166">
        <ele>228.2</ele>
        <time>2021-12-28T12:12:55Z</time>
      </trkpt>
      <trkpt lat="43.2202" lon="6.27178">
        <ele>227.2</ele>
        <time>2021-12-28T12:12:59Z</time>
      </trkpt>
      <trkpt lat="43.22036" lon="6.27191">
        <ele>225.4</ele>
        <time>2021-12-28T12:13:03Z</time>
      </trkpt>
      <trkpt lat="43.22056" lon="6.27202">
        <ele>223.2</ele>
        <time>2021-12-28T12:13:07Z</time>
      </trkpt>
      <trkpt lat="43.22075" lon="6.27206">
        <ele>222.2</ele>
        <time>2021-12-28T12:13:11Z</time>
      </trkpt>
      <trkpt lat="43.22092" lon="6.27203">
        <ele>222.2</ele>
        <time>2021-12-28T12:13:15Z</time>
      </trkpt>
      <trkpt lat="43.2211" lon="6.27199">
        <ele>221</ele>
        <time>2021-12-28T12:13:19Z</time>
      </trkpt>
      <trkpt lat="43.22124" lon="6.27194">
        <ele>221</ele>
        <time>2021-12-28T12:13:23Z</time>
      </trkpt>
      <trkpt lat="43.22142" lon="6.27186">
        <ele>220.6</ele>
        <time>2021-12-28T12:13:27Z</time>
      </trkpt>
      <trkpt lat="43.22155" lon="6.27174">
        <ele>220.6</ele>
        <time>2021-12-28T12:13:31Z</time>
      </trkpt>
      <trkpt lat="43.22167" lon="6.27179">
        <ele>219.6</ele>
        <time>2021-12-28T12:13:35Z</time>
      </trkpt>
      <trkpt lat="43.22177" lon="6.27192">
        <ele>217.8</ele>
        <time>2021-12-28T12:13:39Z</time>
      </trkpt>
      <trkpt lat="43.2219" lon="6.27194">
        <ele>217.2</ele>
        <time>2021-12-28T12:13:43Z</time>
      </trkpt>
      <trkpt lat="43.22208" lon="6.27186">
        <ele>216.4</ele>
        <time>2021-12-28T12:13:47Z</time>
      </trkpt>
      <trkpt lat="43.22224" lon="6.27174">
        <ele>216</ele>
        <time>2021-12-28T12:13:51Z</time>
      </trkpt>
      <trkpt lat="43.22234" lon="6.27158">
        <ele>214.6</ele>
        <time>2021-12-28T12:13:55Z</time>
      </trkpt>
      <trkpt lat="43.22243" lon="6.27148">
        <ele>214.4</ele>
        <time>2021-12-28T12:13:59Z</time>
      </trkpt>
      <trkpt lat="43.22254" lon="6.27138">
        <ele>213.4</ele>
        <time>2021-12-28T12:14:03Z</time>
      </trkpt>
      <trkpt lat="43.22268" lon="6.27124">
        <ele>211.8</ele>
        <time>2021-12-28T12:14:07Z</time>
      </trkpt>
      <trkpt lat="43.22284" lon="6.27111">
        <ele>211.4</ele>
        <time>2021-12-28T12:14:11Z</time>
      </trkpt>
      <trkpt lat="43.22298" lon="6.27103">
        <ele>209</ele>
        <time>2021-12-28T12:14:15Z</time>
      </trkpt>
      <trkpt lat="43.22312" lon="6.27093">
        <ele>209.6</ele>
        <time>2021-12-28T12:14:19Z</time>
      </trkpt>
      <trkpt lat="43.22326" lon="6.27084">
        <ele>208.2</ele>
        <time>2021-12-28T12:14:23Z</time>
      </trkpt>
      <trkpt lat="43.22336" lon="6.27074">
        <ele>207.8</ele>
        <time>2021-12-28T12:14:27Z</time>
      </trkpt>
      <trkpt lat="43.22347" lon="6.27061">
        <ele>205.8</ele>
        <time>2021-12-28T12:14:31Z</time>
      </trkpt>
      <trkpt lat="43.22356" lon="6.27043">
        <ele>205.6</ele>
        <time>2021-12-28T12:14:35Z</time>
      </trkpt>
      <trkpt lat="43.22363" lon="6.27024">
        <ele>205.6</ele>
        <time>2021-12-28T12:14:39Z</time>
      </trkpt>
      <trkpt lat="43.22369" lon="6.27011">
        <ele>204.8</ele>
        <time>2021-12-28T12:14:43Z</time>
      </trkpt>
      <trkpt lat="43.22381" lon="6.27">
        <ele>203.2</ele>
        <time>2021-12-28T12:14:47Z</time>
      </trkpt>
      <trkpt lat="43.22393" lon="6.26987">
        <ele>201.4</ele>
        <time>2021-12-28T12:14:51Z</time>
      </trkpt>
      <trkpt lat="43.22405" lon="6.26976">
        <ele>201.6</ele>
        <time>2021-12-28T12:14:55Z</time>
      </trkpt>
      <trkpt lat="43.22419" lon="6.26967">
        <ele>200.6</ele>
        <time>2021-12-28T12:14:59Z</time>
      </trkpt>
      <trkpt lat="43.22433" lon="6.2696">
        <ele>200.6</ele>
        <time>2021-12-28T12:15:03Z</time>
      </trkpt>
      <trkpt lat="43.22446" lon="6.26959">
        <ele>199.8</ele>
        <time>2021-12-28T12:15:07Z</time>
      </trkpt>
      <trkpt lat="43.22457" lon="6.26962">
        <ele>200.2</ele>
        <time>2021-12-28T12:15:11Z</time>
      </trkpt>
      <trkpt lat="43.22467" lon="6.2696">
        <ele>198.8</ele>
        <time>2021-12-28T12:15:15Z</time>
      </trkpt>
      <trkpt lat="43.22481" lon="6.26958">
        <ele>198</ele>
        <time>2021-12-28T12:15:19Z</time>
      </trkpt>
      <trkpt lat="43.22496" lon="6.26951">
        <ele>196.6</ele>
        <time>2021-12-28T12:15:23Z</time>
      </trkpt>
      <trkpt lat="43.22507" lon="6.26941">
        <ele>196.4</ele>
        <time>2021-12-28T12:15:27Z</time>
      </trkpt>
      <trkpt lat="43.22516" lon="6.26937">
        <ele>195.8</ele>
        <time>2021-12-28T12:15:31Z</time>
      </trkpt>
      <trkpt lat="43.22523" lon="6.26941">
        <ele>194.4</ele>
        <time>2021-12-28T12:15:35Z</time>
      </trkpt>
      <trkpt lat="43.22532" lon="6.26954">
        <ele>192.8</ele>
        <time>2021-12-28T12:15:39Z</time>
      </trkpt>
      <trkpt lat="43.22544" lon="6.26969">
        <ele>191.8</ele>
        <time>2021-12-28T12:15:43Z</time>
      </trkpt>
      <trkpt lat="43.22556" lon="6.26979">
        <ele>190.6</ele>
        <time>2021-12-28T12:15:47Z</time>
      </trkpt>
      <trkpt lat="43.22572" lon="6.26991">
        <ele>188.4</ele>
        <time>2021-12-28T12:15:51Z</time>
      </trkpt>
      <trkpt lat="43.22589" lon="6.27008">
        <ele>187.8</ele>
        <time>2021-12-28T12:15:55Z</time>
      </trkpt>
      <trkpt lat="43.22601" lon="6.27025">
        <ele>187</ele>
        <time>2021-12-28T12:15:59Z</time>
      </trkpt>
      <trkpt lat="43.22611" lon="6.27043">
        <ele>187.8</ele>
        <time>2021-12-28T12:16:03Z</time>
      </trkpt>
      <trkpt lat="43.22621" lon="6.27061">
        <ele>186.6</ele>
        <time>2021-12-28T12:16:07Z</time>
      </trkpt>
      <trkpt lat="43.2263" lon="6.27076">
        <ele>186.2</ele>
        <time>2021-12-28T12:16:11Z</time>
      </trkpt>
      <trkpt lat="43.22641" lon="6.27091">
        <ele>186</ele>
        <time>2021-12-28T12:16:15Z</time>
      </trkpt>
      <trkpt lat="43.22653" lon="6.27107">
        <ele>184.6</ele>
        <time>2021-12-28T12:16:19Z</time>
      </trkpt>
      <trkpt lat="43.22666" lon="6.27123">
        <ele>183.8</ele>
        <time>2021-12-28T12:16:23Z</time>
      </trkpt>
      <trkpt lat="43.22678" lon="6.2714">
        <ele>183.2</ele>
        <time>2021-12-28T12:16:27Z</time>
      </trkpt>
      <trkpt lat="43.22688" lon="6.27159">
        <ele>183.8</ele>
        <time>2021-12-28T12:16:31Z</time>
      </trkpt>
      <trkpt lat="43.22694" lon="6.27177">
        <ele>182.8</ele>
        <time>2021-12-28T12:16:35Z</time>
      </trkpt>
      <trkpt lat="43.22698" lon="6.27196">
        <ele>183.6</ele>
        <time>2021-12-28T12:16:39Z</time>
      </trkpt>
      <trkpt lat="43.22706" lon="6.27214">
        <ele>182.6</ele>
        <time>2021-12-28T12:16:43Z</time>
      </trkpt>
      <trkpt lat="43.22714" lon="6.27236">
        <ele>182</ele>
        <time>2021-12-28T12:16:47Z</time>
      </trkpt>
      <trkpt lat="43.2272" lon="6.27254">
        <ele>182</ele>
        <time>2021-12-28T12:16:51Z</time>
      </trkpt>
      <trkpt lat="43.22729" lon="6.27275">
        <ele>180.6</ele>
        <time>2021-12-28T12:16:55Z</time>
      </trkpt>
      <trkpt lat="43.22736" lon="6.27297">
        <ele>179.4</ele>
        <time>2021-12-28T12:16:59Z</time>
      </trkpt>
      <trkpt lat="43.22746" lon="6.2732">
        <ele>179.4</ele>
        <time>2021-12-28T12:17:03Z</time>
      </trkpt>
      <trkpt lat="43.22755" lon="6.27339">
        <ele>179.6</ele>
        <time>2021-12-28T12:17:07Z</time>
      </trkpt>
      <trkpt lat="43.22764" lon="6.27356">
        <ele>178.8</ele>
        <time>2021-12-28T12:17:11Z</time>
      </trkpt>
      <trkpt lat="43.22776" lon="6.27373">
        <ele>177.2</ele>
        <time>2021-12-28T12:17:15Z</time>
      </trkpt>
      <trkpt lat="43.2279" lon="6.27388">
        <ele>176.6</ele>
        <time>2021-12-28T12:17:19Z</time>
      </trkpt>
      <trkpt lat="43.22806" lon="6.27401">
        <ele>175.6</ele>
        <time>2021-12-28T12:17:23Z</time>
      </trkpt>
      <trkpt lat="43.22822" lon="6.27411">
        <ele>175</ele>
        <time>2021-12-28T12:17:27Z</time>
      </trkpt>
      <trkpt lat="43.2284" lon="6.27419">
        <ele>174.4</ele>
        <time>2021-12-28T12:17:31Z</time>
      </trkpt>
      <trkpt lat="43.22855" lon="6.27426">
        <ele>174.4</ele>
        <time>2021-12-28T12:17:35Z</time>
      </trkpt>
      <trkpt lat="43.22862" lon="6.27433">
        <ele>174.4</ele>
        <time>2021-12-28T12:17:39Z</time>
      </trkpt>
      <trkpt lat="43.22872" lon="6.2744">
        <ele>174.2</ele>
        <time>2021-12-28T12:17:43Z</time>
      </trkpt>
      <trkpt lat="43.22881" lon="6.27447">
        <ele>174.4</ele>
        <time>2021-12-28T12:17:47Z</time>
      </trkpt>
      <trkpt lat="43.22894" lon="6.27448">
        <ele>173.8</ele>
        <time>2021-12-28T12:17:51Z</time>
      </trkpt>
      <trkpt lat="43.22906" lon="6.2744">
        <ele>175</ele>
        <time>2021-12-28T12:17:55Z</time>
      </trkpt>
      <trkpt lat="43.22914" lon="6.2743">
        <ele>175.6</ele>
        <time>2021-12-28T12:17:59Z</time>
      </trkpt>
      <trkpt lat="43.2292" lon="6.27424">
        <ele>176.2</ele>
        <time>2021-12-28T12:18:03Z</time>
      </trkpt>
      <trkpt lat="43.22926" lon="6.27419">
        <ele>177</ele>
        <time>2021-12-28T12:18:07Z</time>
      </trkpt>
      <trkpt lat="43.22932" lon="6.27418">
        <ele>178</ele>
        <time>2021-12-28T12:18:11Z</time>
      </trkpt>
      <trkpt lat="43.22937" lon="6.27418">
        <ele>178.8</ele>
        <time>2021-12-28T12:18:15Z</time>
      </trkpt>
      <trkpt lat="43.22939" lon="6.27424">
        <ele>178.6</ele>
        <time>2021-12-28T12:18:19Z</time>
      </trkpt>
      <trkpt lat="43.22938" lon="6.27433">
        <ele>179.4</ele>
        <time>2021-12-28T12:18:23Z</time>
      </trkpt>
      <trkpt lat="43.22935" lon="6.27441">
        <ele>179.8</ele>
        <time>2021-12-28T12:18:27Z</time>
      </trkpt>
      <trkpt lat="43.22932" lon="6.27448">
        <ele>179.8</ele>
        <time>2021-12-28T12:18:31Z</time>
      </trkpt>
      <trkpt lat="43.22929" lon="6.27456">
        <ele>181</ele>
        <time>2021-12-28T12:18:35Z</time>
      </trkpt>
      <trkpt lat="43.22926" lon="6.27462">
        <ele>181.2</ele>
        <time>2021-12-28T12:18:39Z</time>
      </trkpt>
      <trkpt lat="43.22923" lon="6.27467">
        <ele>182.2</ele>
        <time>2021-12-28T12:18:43Z</time>
      </trkpt>
      <trkpt lat="43.22919" lon="6.27475">
        <ele>182</ele>
        <time>2021-12-28T12:18:47Z</time>
      </trkpt>
      <trkpt lat="43.22916" lon="6.27483">
        <ele>182.6</ele>
        <time>2021-12-28T12:18:51Z</time>
      </trkpt>
      <trkpt lat="43.22913" lon="6.27491">
        <ele>183.6</ele>
        <time>2021-12-28T12:18:55Z</time>
      </trkpt>
      <trkpt lat="43.2291" lon="6.275">
        <ele>184.2</ele>
        <time>2021-12-28T12:18:59Z</time>
      </trkpt>
      <trkpt lat="43.22909" lon="6.27508">
        <ele>184.2</ele>
        <time>2021-12-28T12:19:03Z</time>
      </trkpt>
      <trkpt lat="43.22909" lon="6.27518">
        <ele>185.6</ele>
        <time>2021-12-28T12:19:07Z</time>
      </trkpt>
      <trkpt lat="43.22908" lon="6.27528">
        <ele>186</ele>
        <time>2021-12-28T12:19:11Z</time>
      </trkpt>
      <trkpt lat="43.22909" lon="6.27537">
        <ele>187</ele>
        <time>2021-12-28T12:19:15Z</time>
      </trkpt>
      <trkpt lat="43.2291" lon="6.27545">
        <ele>187</ele>
        <time>2021-12-28T12:19:19Z</time>
      </trkpt>
      <trkpt lat="43.22913" lon="6.27553">
        <ele>188.4</ele>
        <time>2021-12-28T12:19:23Z</time>
      </trkpt>
      <trkpt lat="43.22913" lon="6.27561">
        <ele>188.8</ele>
        <time>2021-12-28T12:19:27Z</time>
      </trkpt>
      <trkpt lat="43.22913" lon="6.27569">
        <ele>189.6</ele>
        <time>2021-12-28T12:19:31Z</time>
      </trkpt>
      <trkpt lat="43.22915" lon="6.27575">
        <ele>190.2</ele>
        <time>2021-12-28T12:19:35Z</time>
      </trkpt>
      <trkpt lat="43.22914" lon="6.27582">
        <ele>190.8</ele>
        <time>2021-12-28T12:19:39Z</time>
      </trkpt>
      <trkpt lat="43.22915" lon="6.2759">
        <ele>191.8</ele>
        <time>2021-12-28T12:19:43Z</time>
      </trkpt>
      <trkpt lat="43.22915" lon="6.27598">
        <ele>191.6</ele>
        <time>2021-12-28T12:19:47Z</time>
      </trkpt>
      <trkpt lat="43.22915" lon="6.27607">
        <ele>192</ele>
        <time>2021-12-28T12:19:51Z</time>
      </trkpt>
      <trkpt lat="43.22914" lon="6.27615">
        <ele>193.6</ele>
        <time>2021-12-28T12:19:55Z</time>
      </trkpt>
      <trkpt lat="43.22913" lon="6.27623">
        <ele>193.8</ele>
        <time>2021-12-28T12:19:59Z</time>
      </trkpt>
      <trkpt lat="43.22911" lon="6.2763">
        <ele>194.2</ele>
        <time>2021-12-28T12:20:03Z</time>
      </trkpt>
      <trkpt lat="43.22911" lon="6.27638">
        <ele>195.6</ele>
        <time>2021-12-28T12:20:07Z</time>
      </trkpt>
      <trkpt lat="43.2291" lon="6.27646">
        <ele>195.8</ele>
        <time>2021-12-28T12:20:11Z</time>
      </trkpt>
      <trkpt lat="43.22908" lon="6.27653">
        <ele>196</ele>
        <time>2021-12-28T12:20:15Z</time>
      </trkpt>
      <trkpt lat="43.22907" lon="6.27661">
        <ele>197</ele>
        <time>2021-12-28T12:20:19Z</time>
      </trkpt>
      <trkpt lat="43.22904" lon="6.27669">
        <ele>196.6</ele>
        <time>2021-12-28T12:20:23Z</time>
      </trkpt>
      <trkpt lat="43.22901" lon="6.27679">
        <ele>196.8</ele>
        <time>2021-12-28T12:20:27Z</time>
      </trkpt>
      <trkpt lat="43.22897" lon="6.27689">
        <ele>196.6</ele>
        <time>2021-12-28T12:20:31Z</time>
      </trkpt>
      <trkpt lat="43.22894" lon="6.27701">
        <ele>196.2</ele>
        <time>2021-12-28T12:20:35Z</time>
      </trkpt>
      <trkpt lat="43.22892" lon="6.27711">
        <ele>196.2</ele>
        <time>2021-12-28T12:20:39Z</time>
      </trkpt>
      <trkpt lat="43.22889" lon="6.2772">
        <ele>196</ele>
        <time>2021-12-28T12:20:43Z</time>
      </trkpt>
      <trkpt lat="43.22888" lon="6.27729">
        <ele>196.4</ele>
        <time>2021-12-28T12:20:47Z</time>
      </trkpt>
      <trkpt lat="43.22886" lon="6.2774">
        <ele>196.4</ele>
        <time>2021-12-28T12:20:51Z</time>
      </trkpt>
      <trkpt lat="43.22883" lon="6.27751">
        <ele>196.4</ele>
        <time>2021-12-28T12:20:55Z</time>
      </trkpt>
      <trkpt lat="43.22881" lon="6.27765">
        <ele>196.6</ele>
        <time>2021-12-28T12:20:59Z</time>
      </trkpt>
      <trkpt lat="43.22876" lon="6.27778">
        <ele>196.4</ele>
        <time>2021-12-28T12:21:03Z</time>
      </trkpt>
      <trkpt lat="43.22874" lon="6.27796">
        <ele>196</ele>
        <time>2021-12-28T12:21:07Z</time>
      </trkpt>
      <trkpt lat="43.2287" lon="6.27815">
        <ele>195.6</ele>
        <time>2021-12-28T12:21:11Z</time>
      </trkpt>
      <trkpt lat="43.22869" lon="6.27835">
        <ele>195.6</ele>
        <time>2021-12-28T12:21:15Z</time>
      </trkpt>
      <trkpt lat="43.22869" lon="6.27855">
        <ele>196.4</ele>
        <time>2021-12-28T12:21:19Z</time>
      </trkpt>
      <trkpt lat="43.22872" lon="6.27874">
        <ele>196.8</ele>
        <time>2021-12-28T12:21:23Z</time>
      </trkpt>
      <trkpt lat="43.22877" lon="6.27891">
        <ele>196.8</ele>
        <time>2021-12-28T12:21:27Z</time>
      </trkpt>
      <trkpt lat="43.22881" lon="6.27909">
        <ele>196.8</ele>
        <time>2021-12-28T12:21:31Z</time>
      </trkpt>
      <trkpt lat="43.22889" lon="6.27926">
        <ele>197.2</ele>
        <time>2021-12-28T12:21:35Z</time>
      </trkpt>
      <trkpt lat="43.22894" lon="6.27945">
        <ele>197.2</ele>
        <time>2021-12-28T12:21:39Z</time>
      </trkpt>
      <trkpt lat="43.22898" lon="6.27963">
        <ele>197.2</ele>
        <time>2021-12-28T12:21:43Z</time>
      </trkpt>
      <trkpt lat="43.22902" lon="6.27983">
        <ele>196.8</ele>
        <time>2021-12-28T12:21:47Z</time>
      </trkpt>
      <trkpt lat="43.22905" lon="6.28004">
        <ele>197.2</ele>
        <time>2021-12-28T12:21:51Z</time>
      </trkpt>
      <trkpt lat="43.22908" lon="6.28027">
        <ele>196.4</ele>
        <time>2021-12-28T12:21:55Z</time>
      </trkpt>
      <trkpt lat="43.22912" lon="6.2805">
        <ele>196.8</ele>
        <time>2021-12-28T12:21:59Z</time>
      </trkpt>
      <trkpt lat="43.22915" lon="6.28072">
        <ele>196.8</ele>
        <time>2021-12-28T12:22:03Z</time>
      </trkpt>
      <trkpt lat="43.22919" lon="6.28093">
        <ele>198</ele>
        <time>2021-12-28T12:22:07Z</time>
      </trkpt>
      <trkpt lat="43.22923" lon="6.28112">
        <ele>198.4</ele>
        <time>2021-12-28T12:22:11Z</time>
      </trkpt>
      <trkpt lat="43.22929" lon="6.28131">
        <ele>197.8</ele>
        <time>2021-12-28T12:22:15Z</time>
      </trkpt>
      <trkpt lat="43.22937" lon="6.2815">
        <ele>198.2</ele>
        <time>2021-12-28T12:22:19Z</time>
      </trkpt>
      <trkpt lat="43.22948" lon="6.28168">
        <ele>197.6</ele>
        <time>2021-12-28T12:22:23Z</time>
      </trkpt>
      <trkpt lat="43.2296" lon="6.28187">
        <ele>196.4</ele>
        <time>2021-12-28T12:22:27Z</time>
      </trkpt>
      <trkpt lat="43.22976" lon="6.28208">
        <ele>194.4</ele>
        <time>2021-12-28T12:22:31Z</time>
      </trkpt>
      <trkpt lat="43.22994" lon="6.2823">
        <ele>193.4</ele>
        <time>2021-12-28T12:22:35Z</time>
      </trkpt>
      <trkpt lat="43.23014" lon="6.28251">
        <ele>191.6</ele>
        <time>2021-12-28T12:22:39Z</time>
      </trkpt>
      <trkpt lat="43.23028" lon="6.28277">
        <ele>189.8</ele>
        <time>2021-12-28T12:22:43Z</time>
      </trkpt>
      <trkpt lat="43.23044" lon="6.28303">
        <ele>188.4</ele>
        <time>2021-12-28T12:22:47Z</time>
      </trkpt>
      <trkpt lat="43.23062" lon="6.28322">
        <ele>186</ele>
        <time>2021-12-28T12:22:51Z</time>
      </trkpt>
      <trkpt lat="43.23093" lon="6.28337">
        <ele>181.2</ele>
        <time>2021-12-28T12:22:55Z</time>
      </trkpt>
      <trkpt lat="43.23121" lon="6.28354">
        <ele>178.8</ele>
        <time>2021-12-28T12:22:59Z</time>
      </trkpt>
      <trkpt lat="43.23145" lon="6.28383">
        <ele>177</ele>
        <time>2021-12-28T12:23:03Z</time>
      </trkpt>
      <trkpt lat="43.23169" lon="6.28414">
        <ele>175.8</ele>
        <time>2021-12-28T12:23:07Z</time>
      </trkpt>
      <trkpt lat="43.23198" lon="6.28436">
        <ele>173.2</ele>
        <time>2021-12-28T12:23:11Z</time>
      </trkpt>
      <trkpt lat="43.23224" lon="6.28461">
        <ele>172.8</ele>
        <time>2021-12-28T12:23:15Z</time>
      </trkpt>
      <trkpt lat="43.23247" lon="6.28467">
        <ele>173</ele>
        <time>2021-12-28T12:23:19Z</time>
      </trkpt>
      <trkpt lat="43.23266" lon="6.2846">
        <ele>174.2</ele>
        <time>2021-12-28T12:23:23Z</time>
      </trkpt>
      <trkpt lat="43.2328" lon="6.2846">
        <ele>176</ele>
        <time>2021-12-28T12:23:27Z</time>
      </trkpt>
      <trkpt lat="43.23292" lon="6.2847">
        <ele>177.2</ele>
        <time>2021-12-28T12:23:31Z</time>
      </trkpt>
      <trkpt lat="43.233" lon="6.28482">
        <ele>178.6</ele>
        <time>2021-12-28T12:23:35Z</time>
      </trkpt>
      <trkpt lat="43.23306" lon="6.28494">
        <ele>179.8</ele>
        <time>2021-12-28T12:23:39Z</time>
      </trkpt>
      <trkpt lat="43.23312" lon="6.28505">
        <ele>180.4</ele>
        <time>2021-12-28T12:23:43Z</time>
      </trkpt>
      <trkpt lat="43.23318" lon="6.28517">
        <ele>181.4</ele>
        <time>2021-12-28T12:23:47Z</time>
      </trkpt>
      <trkpt lat="43.23323" lon="6.28531">
        <ele>181.2</ele>
        <time>2021-12-28T12:23:51Z</time>
      </trkpt>
      <trkpt lat="43.23327" lon="6.28545">
        <ele>181</ele>
        <time>2021-12-28T12:23:55Z</time>
      </trkpt>
      <trkpt lat="43.23336" lon="6.28559">
        <ele>180.4</ele>
        <time>2021-12-28T12:23:59Z</time>
      </trkpt>
      <trkpt lat="43.23345" lon="6.28573">
        <ele>180.4</ele>
        <time>2021-12-28T12:24:03Z</time>
      </trkpt>
      <trkpt lat="43.23356" lon="6.28588">
        <ele>179.8</ele>
        <time>2021-12-28T12:24:07Z</time>
      </trkpt>
      <trkpt lat="43.23366" lon="6.28602">
        <ele>179.6</ele>
        <time>2021-12-28T12:24:11Z</time>
      </trkpt>
      <trkpt lat="43.23379" lon="6.28618">
        <ele>178.6</ele>
        <time>2021-12-28T12:24:15Z</time>
      </trkpt>
      <trkpt lat="43.23393" lon="6.28636">
        <ele>178</ele>
        <time>2021-12-28T12:24:19Z</time>
      </trkpt>
      <trkpt lat="43.23408" lon="6.28655">
        <ele>177.2</ele>
        <time>2021-12-28T12:24:23Z</time>
      </trkpt>
      <trkpt lat="43.23425" lon="6.28675">
        <ele>176.6</ele>
        <time>2021-12-28T12:24:27Z</time>
      </trkpt>
      <trkpt lat="43.23442" lon="6.28697">
        <ele>174.6</ele>
        <time>2021-12-28T12:24:31Z</time>
      </trkpt>
      <trkpt lat="43.2346" lon="6.28719">
        <ele>175</ele>
        <time>2021-12-28T12:24:35Z</time>
      </trkpt>
      <trkpt lat="43.23469" lon="6.28742">
        <ele>176</ele>
        <time>2021-12-28T12:24:39Z</time>
      </trkpt>
      <trkpt lat="43.23475" lon="6.28763">
        <ele>176.4</ele>
        <time>2021-12-28T12:24:43Z</time>
      </trkpt>
      <trkpt lat="43.23485" lon="6.28781">
        <ele>176.6</ele>
        <time>2021-12-28T12:24:47Z</time>
      </trkpt>
      <trkpt lat="43.23494" lon="6.28797">
        <ele>177</ele>
        <time>2021-12-28T12:24:51Z</time>
      </trkpt>
      <trkpt lat="43.23506" lon="6.28812">
        <ele>176.8</ele>
        <time>2021-12-28T12:24:55Z</time>
      </trkpt>
      <trkpt lat="43.23516" lon="6.28829">
        <ele>176.8</ele>
        <time>2021-12-28T12:24:59Z</time>
      </trkpt>
      <trkpt lat="43.23526" lon="6.28847">
        <ele>176.8</ele>
        <time>2021-12-28T12:25:03Z</time>
      </trkpt>
      <trkpt lat="43.23536" lon="6.28867">
        <ele>176.6</ele>
        <time>2021-12-28T12:25:07Z</time>
      </trkpt>
      <trkpt lat="43.23544" lon="6.28887">
        <ele>177.8</ele>
        <time>2021-12-28T12:25:11Z</time>
      </trkpt>
      <trkpt lat="43.23549" lon="6.28905">
        <ele>178.2</ele>
        <time>2021-12-28T12:25:15Z</time>
      </trkpt>
      <trkpt lat="43.23557" lon="6.28922">
        <ele>178.4</ele>
        <time>2021-12-28T12:25:19Z</time>
      </trkpt>
      <trkpt lat="43.23561" lon="6.28937">
        <ele>178.6</ele>
        <time>2021-12-28T12:25:23Z</time>
      </trkpt>
      <trkpt lat="43.23568" lon="6.28952">
        <ele>179.2</ele>
        <time>2021-12-28T12:25:27Z</time>
      </trkpt>
      <trkpt lat="43.23575" lon="6.28964">
        <ele>180</ele>
        <time>2021-12-28T12:25:31Z</time>
      </trkpt>
      <trkpt lat="43.23584" lon="6.28976">
        <ele>181.2</ele>
        <time>2021-12-28T12:25:35Z</time>
      </trkpt>
      <trkpt lat="43.23592" lon="6.28989">
        <ele>181</ele>
        <time>2021-12-28T12:25:39Z</time>
      </trkpt>
      <trkpt lat="43.23598" lon="6.29003">
        <ele>182.2</ele>
        <time>2021-12-28T12:25:43Z</time>
      </trkpt>
      <trkpt lat="43.23602" lon="6.29019">
        <ele>182</ele>
        <time>2021-12-28T12:25:47Z</time>
      </trkpt>
      <trkpt lat="43.23605" lon="6.29033">
        <ele>183</ele>
        <time>2021-12-28T12:25:51Z</time>
      </trkpt>
      <trkpt lat="43.23605" lon="6.29046">
        <ele>184</ele>
        <time>2021-12-28T12:25:55Z</time>
      </trkpt>
      <trkpt lat="43.23607" lon="6.2906">
        <ele>184.8</ele>
        <time>2021-12-28T12:25:59Z</time>
      </trkpt>
      <trkpt lat="43.23609" lon="6.29074">
        <ele>185</ele>
        <time>2021-12-28T12:26:03Z</time>
      </trkpt>
      <trkpt lat="43.23611" lon="6.29089">
        <ele>185.2</ele>
        <time>2021-12-28T12:26:07Z</time>
      </trkpt>
      <trkpt lat="43.23614" lon="6.29105">
        <ele>185.8</ele>
        <time>2021-12-28T12:26:11Z</time>
      </trkpt>
      <trkpt lat="43.23616" lon="6.29119">
        <ele>186.4</ele>
        <time>2021-12-28T12:26:15Z</time>
      </trkpt>
      <trkpt lat="43.23617" lon="6.29134">
        <ele>187.2</ele>
        <time>2021-12-28T12:26:19Z</time>
      </trkpt>
      <trkpt lat="43.23621" lon="6.29149">
        <ele>187.6</ele>
        <time>2021-12-28T12:26:23Z</time>
      </trkpt>
      <trkpt lat="43.23625" lon="6.29161">
        <ele>187.6</ele>
        <time>2021-12-28T12:26:27Z</time>
      </trkpt>
      <trkpt lat="43.23631" lon="6.29174">
        <ele>188</ele>
        <time>2021-12-28T12:26:31Z</time>
      </trkpt>
      <trkpt lat="43.23633" lon="6.29187">
        <ele>187.6</ele>
        <time>2021-12-28T12:26:35Z</time>
      </trkpt>
      <trkpt lat="43.23636" lon="6.29198">
        <ele>187.2</ele>
        <time>2021-12-28T12:26:39Z</time>
      </trkpt>
      <trkpt lat="43.2364" lon="6.2921">
        <ele>187</ele>
        <time>2021-12-28T12:26:43Z</time>
      </trkpt>
      <trkpt lat="43.23639" lon="6.29224">
        <ele>186.6</ele>
        <time>2021-12-28T12:26:47Z</time>
      </trkpt>
      <trkpt lat="43.23638" lon="6.29236">
        <ele>186.4</ele>
        <time>2021-12-28T12:26:51Z</time>
      </trkpt>
      <trkpt lat="43.23645" lon="6.29249">
        <ele>186.2</ele>
        <time>2021-12-28T12:26:55Z</time>
      </trkpt>
      <trkpt lat="43.23653" lon="6.2926">
        <ele>186.8</ele>
        <time>2021-12-28T12:26:59Z</time>
      </trkpt>
      <trkpt lat="43.23661" lon="6.29266">
        <ele>187.4</ele>
        <time>2021-12-28T12:27:03Z</time>
      </trkpt>
      <trkpt lat="43.23664" lon="6.29273">
        <ele>188.6</ele>
        <time>2021-12-28T12:27:07Z</time>
      </trkpt>
      <trkpt lat="43.23664" lon="6.29285">
        <ele>189</ele>
        <time>2021-12-28T12:27:11Z</time>
      </trkpt>
      <trkpt lat="43.23666" lon="6.29296">
        <ele>189.2</ele>
        <time>2021-12-28T12:27:15Z</time>
      </trkpt>
      <trkpt lat="43.2367" lon="6.2931">
        <ele>189.4</ele>
        <time>2021-12-28T12:27:19Z</time>
      </trkpt>
      <trkpt lat="43.23673" lon="6.29323">
        <ele>189.4</ele>
        <time>2021-12-28T12:27:23Z</time>
      </trkpt>
      <trkpt lat="43.23674" lon="6.29336">
        <ele>188.8</ele>
        <time>2021-12-28T12:27:27Z</time>
      </trkpt>
      <trkpt lat="43.23673" lon="6.2935">
        <ele>189</ele>
        <time>2021-12-28T12:27:31Z</time>
      </trkpt>
      <trkpt lat="43.23671" lon="6.29362">
        <ele>189</ele>
        <time>2021-12-28T12:27:35Z</time>
      </trkpt>
      <trkpt lat="43.23672" lon="6.29373">
        <ele>188.8</ele>
        <time>2021-12-28T12:27:39Z</time>
      </trkpt>
      <trkpt lat="43.23679" lon="6.29382">
        <ele>188.4</ele>
        <time>2021-12-28T12:27:43Z</time>
      </trkpt>
      <trkpt lat="43.23687" lon="6.2939">
        <ele>188.6</ele>
        <time>2021-12-28T12:27:47Z</time>
      </trkpt>
      <trkpt lat="43.23692" lon="6.29406">
        <ele>187.6</ele>
        <time>2021-12-28T12:27:51Z</time>
      </trkpt>
      <trkpt lat="43.23692" lon="6.29418">
        <ele>187.4</ele>
        <time>2021-12-28T12:27:55Z</time>
      </trkpt>
      <trkpt lat="43.23692" lon="6.29432">
        <ele>188.6</ele>
        <time>2021-12-28T12:27:59Z</time>
      </trkpt>
      <trkpt lat="43.23691" lon="6.29442">
        <ele>189</ele>
        <time>2021-12-28T12:28:03Z</time>
      </trkpt>
      <trkpt lat="43.23689" lon="6.29451">
        <ele>188.4</ele>
        <time>2021-12-28T12:28:07Z</time>
      </trkpt>
      <trkpt lat="43.23688" lon="6.29464">
        <ele>188.2</ele>
        <time>2021-12-28T12:28:11Z</time>
      </trkpt>
      <trkpt lat="43.23687" lon="6.29476">
        <ele>187</ele>
        <time>2021-12-28T12:28:15Z</time>
      </trkpt>
      <trkpt lat="43.23688" lon="6.2949">
        <ele>185.8</ele>
        <time>2021-12-28T12:28:19Z</time>
      </trkpt>
      <trkpt lat="43.23687" lon="6.29508">
        <ele>184.8</ele>
        <time>2021-12-28T12:28:23Z</time>
      </trkpt>
      <trkpt lat="43.23683" lon="6.29523">
        <ele>184</ele>
        <time>2021-12-28T12:28:27Z</time>
      </trkpt>
      <trkpt lat="43.23683" lon="6.29548">
        <ele>184.2</ele>
        <time>2021-12-28T12:28:31Z</time>
      </trkpt>
      <trkpt lat="43.23681" lon="6.29566">
        <ele>184.4</ele>
        <time>2021-12-28T12:28:35Z</time>
      </trkpt>
      <trkpt lat="43.23686" lon="6.29582">
        <ele>184.4</ele>
        <time>2021-12-28T12:28:39Z</time>
      </trkpt>
      <trkpt lat="43.23692" lon="6.29592">
        <ele>185.2</ele>
        <time>2021-12-28T12:28:43Z</time>
      </trkpt>
      <trkpt lat="43.23699" lon="6.29601">
        <ele>185.4</ele>
        <time>2021-12-28T12:28:47Z</time>
      </trkpt>
      <trkpt lat="43.23706" lon="6.29611">
        <ele>186.8</ele>
        <time>2021-12-28T12:28:51Z</time>
      </trkpt>
      <trkpt lat="43.2371" lon="6.29618">
        <ele>187.2</ele>
        <time>2021-12-28T12:28:55Z</time>
      </trkpt>
      <trkpt lat="43.23713" lon="6.29628">
        <ele>187.2</ele>
        <time>2021-12-28T12:28:59Z</time>
      </trkpt>
      <trkpt lat="43.2372" lon="6.29638">
        <ele>187.6</ele>
        <time>2021-12-28T12:29:03Z</time>
      </trkpt>
      <trkpt lat="43.23725" lon="6.29652">
        <ele>187.2</ele>
        <time>2021-12-28T12:29:07Z</time>
      </trkpt>
      <trkpt lat="43.2373" lon="6.29665">
        <ele>187</ele>
        <time>2021-12-28T12:29:11Z</time>
      </trkpt>
      <trkpt lat="43.23735" lon="6.29678">
        <ele>187.6</ele>
        <time>2021-12-28T12:29:15Z</time>
      </trkpt>
      <trkpt lat="43.23738" lon="6.29691">
        <ele>188.2</ele>
        <time>2021-12-28T12:29:19Z</time>
      </trkpt>
      <trkpt lat="43.23743" lon="6.29703">
        <ele>188.6</ele>
        <time>2021-12-28T12:29:23Z</time>
      </trkpt>
      <trkpt lat="43.23745" lon="6.29713">
        <ele>189.2</ele>
        <time>2021-12-28T12:29:27Z</time>
      </trkpt>
      <trkpt lat="43.23749" lon="6.29719">
        <ele>189.8</ele>
        <time>2021-12-28T12:29:31Z</time>
      </trkpt>
      <trkpt lat="43.23751" lon="6.2973">
        <ele>190.2</ele>
        <time>2021-12-28T12:29:35Z</time>
      </trkpt>
      <trkpt lat="43.23752" lon="6.29741">
        <ele>190.6</ele>
        <time>2021-12-28T12:29:39Z</time>
      </trkpt>
      <trkpt lat="43.23754" lon="6.29751">
        <ele>190.8</ele>
        <time>2021-12-28T12:29:43Z</time>
      </trkpt>
      <trkpt lat="43.23759" lon="6.29759">
        <ele>192</ele>
        <time>2021-12-28T12:29:47Z</time>
      </trkpt>
      <trkpt lat="43.23762" lon="6.29766">
        <ele>192.8</ele>
        <time>2021-12-28T12:29:51Z</time>
      </trkpt>
      <trkpt lat="43.23766" lon="6.29772">
        <ele>192.8</ele>
        <time>2021-12-28T12:29:55Z</time>
      </trkpt>
      <trkpt lat="43.23766" lon="6.29777">
        <ele>193.8</ele>
        <time>2021-12-28T12:29:59Z</time>
      </trkpt>
      <trkpt lat="43.23768" lon="6.29784">
        <ele>194.4</ele>
        <time>2021-12-28T12:30:03Z</time>
      </trkpt>
      <trkpt lat="43.2377" lon="6.29789">
        <ele>195.6</ele>
        <time>2021-12-28T12:30:07Z</time>
      </trkpt>
      <trkpt lat="43.23771" lon="6.29793">
        <ele>195.6</ele>
        <time>2021-12-28T12:30:11Z</time>
      </trkpt>
      <trkpt lat="43.23774" lon="6.29802">
        <ele>195.2</ele>
        <time>2021-12-28T12:30:15Z</time>
      </trkpt>
      <trkpt lat="43.23774" lon="6.2981">
        <ele>195.6</ele>
        <time>2021-12-28T12:30:19Z</time>
      </trkpt>
      <trkpt lat="43.23775" lon="6.29815">
        <ele>196.8</ele>
        <time>2021-12-28T12:30:23Z</time>
      </trkpt>
      <trkpt lat="43.23775" lon="6.29822">
        <ele>197</ele>
        <time>2021-12-28T12:30:27Z</time>
      </trkpt>
      <trkpt lat="43.23772" lon="6.29831">
        <ele>196.8</ele>
        <time>2021-12-28T12:30:31Z</time>
      </trkpt>
      <trkpt lat="43.2377" lon="6.29839">
        <ele>196.4</ele>
        <time>2021-12-28T12:30:35Z</time>
      </trkpt>
      <trkpt lat="43.2377" lon="6.29849">
        <ele>197</ele>
        <time>2021-12-28T12:30:39Z</time>
      </trkpt>
      <trkpt lat="43.23769" lon="6.29861">
        <ele>196.8</ele>
        <time>2021-12-28T12:30:43Z</time>
      </trkpt>
      <trkpt lat="43.23769" lon="6.29873">
        <ele>197</ele>
        <time>2021-12-28T12:30:47Z</time>
      </trkpt>
      <trkpt lat="43.23768" lon="6.29883">
        <ele>197</ele>
        <time>2021-12-28T12:30:51Z</time>
      </trkpt>
      <trkpt lat="43.23766" lon="6.29889">
        <ele>199.4</ele>
        <time>2021-12-28T12:30:55Z</time>
      </trkpt>
      <trkpt lat="43.2376" lon="6.29894">
        <ele>199.6</ele>
        <time>2021-12-28T12:30:59Z</time>
      </trkpt>
      <trkpt lat="43.23758" lon="6.29901">
        <ele>198.4</ele>
        <time>2021-12-28T12:31:03Z</time>
      </trkpt>
      <trkpt lat="43.23753" lon="6.29916">
        <ele>196.8</ele>
        <time>2021-12-28T12:31:07Z</time>
      </trkpt>
      <trkpt lat="43.23751" lon="6.29934">
        <ele>195.6</ele>
        <time>2021-12-28T12:31:11Z</time>
      </trkpt>
      <trkpt lat="43.23748" lon="6.2995">
        <ele>194.4</ele>
        <time>2021-12-28T12:31:15Z</time>
      </trkpt>
      <trkpt lat="43.2375" lon="6.29973">
        <ele>193</ele>
        <time>2021-12-28T12:31:19Z</time>
      </trkpt>
      <trkpt lat="43.23763" lon="6.29997">
        <ele>190.8</ele>
        <time>2021-12-28T12:31:23Z</time>
      </trkpt>
      <trkpt lat="43.23773" lon="6.30017">
        <ele>190.6</ele>
        <time>2021-12-28T12:31:27Z</time>
      </trkpt>
      <trkpt lat="43.23773" lon="6.30041">
        <ele>189.8</ele>
        <time>2021-12-28T12:31:31Z</time>
      </trkpt>
      <trkpt lat="43.23773" lon="6.30069">
        <ele>190</ele>
        <time>2021-12-28T12:31:35Z</time>
      </trkpt>
      <trkpt lat="43.2377" lon="6.30096">
        <ele>188.6</ele>
        <time>2021-12-28T12:31:39Z</time>
      </trkpt>
      <trkpt lat="43.23769" lon="6.30124">
        <ele>188.2</ele>
        <time>2021-12-28T12:31:43Z</time>
      </trkpt>
      <trkpt lat="43.23772" lon="6.30158">
        <ele>185</ele>
        <time>2021-12-28T12:31:47Z</time>
      </trkpt>
      <trkpt lat="43.23776" lon="6.30188">
        <ele>183.4</ele>
        <time>2021-12-28T12:31:51Z</time>
      </trkpt>
      <trkpt lat="43.23778" lon="6.30208">
        <ele>185.6</ele>
        <time>2021-12-28T12:31:55Z</time>
      </trkpt>
      <trkpt lat="43.23775" lon="6.30219">
        <ele>185.8</ele>
        <time>2021-12-28T12:31:59Z</time>
      </trkpt>
      <trkpt lat="43.23771" lon="6.30229">
        <ele>186.2</ele>
        <time>2021-12-28T12:32:03Z</time>
      </trkpt>
      <trkpt lat="43.23768" lon="6.30239">
        <ele>186.4</ele>
        <time>2021-12-28T12:32:07Z</time>
      </trkpt>
      <trkpt lat="43.23765" lon="6.30249">
        <ele>187.2</ele>
        <time>2021-12-28T12:32:11Z</time>
      </trkpt>
      <trkpt lat="43.23759" lon="6.30259">
        <ele>187.2</ele>
        <time>2021-12-28T12:32:15Z</time>
      </trkpt>
      <trkpt lat="43.23755" lon="6.3027">
        <ele>188</ele>
        <time>2021-12-28T12:32:19Z</time>
      </trkpt>
      <trkpt lat="43.2375" lon="6.3028">
        <ele>188</ele>
        <time>2021-12-28T12:32:23Z</time>
      </trkpt>
      <trkpt lat="43.23746" lon="6.30287">
        <ele>188</ele>
        <time>2021-12-28T12:32:27Z</time>
      </trkpt>
      <trkpt lat="43.23746" lon="6.30295">
        <ele>188.4</ele>
        <time>2021-12-28T12:32:31Z</time>
      </trkpt>
      <trkpt lat="43.23752" lon="6.30298">
        <ele>188.6</ele>
        <time>2021-12-28T12:32:35Z</time>
      </trkpt>
      <trkpt lat="43.23759" lon="6.30303">
        <ele>189.2</ele>
        <time>2021-12-28T12:32:39Z</time>
      </trkpt>
      <trkpt lat="43.2376" lon="6.3031">
        <ele>189.2</ele>
        <time>2021-12-28T12:32:43Z</time>
      </trkpt>
      <trkpt lat="43.23753" lon="6.30325">
        <ele>190</ele>
        <time>2021-12-28T12:32:57Z</time>
      </trkpt>
      <trkpt lat="43.23749" lon="6.30335">
        <ele>190.2</ele>
        <time>2021-12-28T12:33:01Z</time>
      </trkpt>
      <trkpt lat="43.23745" lon="6.30346">
        <ele>190.8</ele>
        <time>2021-12-28T12:33:05Z</time>
      </trkpt>
      <trkpt lat="43.23739" lon="6.30354">
        <ele>191</ele>
        <time>2021-12-28T12:33:09Z</time>
      </trkpt>
      <trkpt lat="43.23734" lon="6.30363">
        <ele>191.8</ele>
        <time>2021-12-28T12:33:13Z</time>
      </trkpt>
      <trkpt lat="43.2373" lon="6.30373">
        <ele>192</ele>
        <time>2021-12-28T12:33:17Z</time>
      </trkpt>
      <trkpt lat="43.23727" lon="6.30382">
        <ele>192.8</ele>
        <time>2021-12-28T12:33:21Z</time>
      </trkpt>
      <trkpt lat="43.23727" lon="6.30382">
        <ele>193.2</ele>
        <time>2021-12-28T12:33:25Z</time>
      </trkpt>
      <trkpt lat="43.23721" lon="6.30394">
        <ele>193.4</ele>
        <time>2021-12-28T12:36:20Z</time>
      </trkpt>
      <trkpt lat="43.2372" lon="6.30399">
        <ele>193.2</ele>
        <time>2021-12-28T12:36:24Z</time>
      </trkpt>
      <trkpt lat="43.23717" lon="6.30404">
        <ele>193.4</ele>
        <time>2021-12-28T12:36:28Z</time>
      </trkpt>
      <trkpt lat="43.23714" lon="6.30413">
        <ele>194.6</ele>
        <time>2021-12-28T12:36:32Z</time>
      </trkpt>
      <trkpt lat="43.23709" lon="6.30436">
        <ele>194.8</ele>
        <time>2021-12-28T12:43:34Z</time>
      </trkpt>
      <trkpt lat="43.23706" lon="6.30451">
        <ele>194.2</ele>
        <time>2021-12-28T12:43:38Z</time>
      </trkpt>
      <trkpt lat="43.23701" lon="6.30466">
        <ele>195</ele>
        <time>2021-12-28T12:43:42Z</time>
      </trkpt>
      <trkpt lat="43.23695" lon="6.30483">
        <ele>195.2</ele>
        <time>2021-12-28T12:43:46Z</time>
      </trkpt>
      <trkpt lat="43.23691" lon="6.30502">
        <ele>195.2</ele>
        <time>2021-12-28T12:43:50Z</time>
      </trkpt>
      <trkpt lat="43.23685" lon="6.30523">
        <ele>195.2</ele>
        <time>2021-12-28T12:43:54Z</time>
      </trkpt>
      <trkpt lat="43.23679" lon="6.30545">
        <ele>195</ele>
        <time>2021-12-28T12:43:58Z</time>
      </trkpt>
      <trkpt lat="43.23674" lon="6.3057">
        <ele>194.2</ele>
        <time>2021-12-28T12:44:02Z</time>
      </trkpt>
      <trkpt lat="43.23667" lon="6.30597">
        <ele>193.8</ele>
        <time>2021-12-28T12:44:06Z</time>
      </trkpt>
      <trkpt lat="43.23664" lon="6.3063">
        <ele>192.2</ele>
        <time>2021-12-28T12:44:10Z</time>
      </trkpt>
      <trkpt lat="43.23667" lon="6.30662">
        <ele>191.6</ele>
        <time>2021-12-28T12:44:14Z</time>
      </trkpt>
      <trkpt lat="43.23675" lon="6.30689">
        <ele>191</ele>
        <time>2021-12-28T12:44:18Z</time>
      </trkpt>
      <trkpt lat="43.23684" lon="6.30713">
        <ele>191.2</ele>
        <time>2021-12-28T12:44:22Z</time>
      </trkpt>
      <trkpt lat="43.23692" lon="6.30736">
        <ele>192</ele>
        <time>2021-12-28T12:44:26Z</time>
      </trkpt>
      <trkpt lat="43.23697" lon="6.30749">
        <ele>193</ele>
        <time>2021-12-28T12:44:30Z</time>
      </trkpt>
      <trkpt lat="43.23706" lon="6.30751">
        <ele>193</ele>
        <time>2021-12-28T12:44:34Z</time>
      </trkpt>
      <trkpt lat="43.23716" lon="6.30762">
        <ele>192.8</ele>
        <time>2021-12-28T12:44:38Z</time>
      </trkpt>
      <trkpt lat="43.23724" lon="6.30771">
        <ele>192.4</ele>
        <time>2021-12-28T12:44:42Z</time>
      </trkpt>
      <trkpt lat="43.23734" lon="6.30782">
        <ele>192.6</ele>
        <time>2021-12-28T12:44:46Z</time>
      </trkpt>
      <trkpt lat="43.23745" lon="6.30794">
        <ele>192</ele>
        <time>2021-12-28T12:44:50Z</time>
      </trkpt>
      <trkpt lat="43.23756" lon="6.30807">
        <ele>192.6</ele>
        <time>2021-12-28T12:44:54Z</time>
      </trkpt>
      <trkpt lat="43.23767" lon="6.30819">
        <ele>192.6</ele>
        <time>2021-12-28T12:44:58Z</time>
      </trkpt>
      <trkpt lat="43.23776" lon="6.30832">
        <ele>193.6</ele>
        <time>2021-12-28T12:45:02Z</time>
      </trkpt>
      <trkpt lat="43.23784" lon="6.30842">
        <ele>193.6</ele>
        <time>2021-12-28T12:45:06Z</time>
      </trkpt>
      <trkpt lat="43.23794" lon="6.30862">
        <ele>193.8</ele>
        <time>2021-12-28T12:45:10Z</time>
      </trkpt>
      <trkpt lat="43.23804" lon="6.30879">
        <ele>193.4</ele>
        <time>2021-12-28T12:45:14Z</time>
      </trkpt>
      <trkpt lat="43.23816" lon="6.30893">
        <ele>193.6</ele>
        <time>2021-12-28T12:45:18Z</time>
      </trkpt>
      <trkpt lat="43.23828" lon="6.30904">
        <ele>194.4</ele>
        <time>2021-12-28T12:45:22Z</time>
      </trkpt>
      <trkpt lat="43.2384" lon="6.30913">
        <ele>194.4</ele>
        <time>2021-12-28T12:45:26Z</time>
      </trkpt>
      <trkpt lat="43.2385" lon="6.30925">
        <ele>194.2</ele>
        <time>2021-12-28T12:45:30Z</time>
      </trkpt>
      <trkpt lat="43.23857" lon="6.30939">
        <ele>195</ele>
        <time>2021-12-28T12:45:34Z</time>
      </trkpt>
      <trkpt lat="43.23864" lon="6.30953">
        <ele>195</ele>
        <time>2021-12-28T12:45:38Z</time>
      </trkpt>
      <trkpt lat="43.23873" lon="6.30964">
        <ele>195</ele>
        <time>2021-12-28T12:45:42Z</time>
      </trkpt>
      <trkpt lat="43.23882" lon="6.30963">
        <ele>196.4</ele>
        <time>2021-12-28T12:45:46Z</time>
      </trkpt>
      <trkpt lat="43.23888" lon="6.30957">
        <ele>196.6</ele>
        <time>2021-12-28T12:45:50Z</time>
      </trkpt>
      <trkpt lat="43.23894" lon="6.30951">
        <ele>197.8</ele>
        <time>2021-12-28T12:45:54Z</time>
      </trkpt>
    </trkseg>
  </trk>
</gpx>